GFSNGP_sfc_wetblb_006.txt.gz
Wetbulb
32.78 34.18 33.84 32.62 32.86 34.58 32.92 31.80 28.88 30.39 30.53 34.19 36.93 36.72 37.87 38.30 37.84 37.67 37.47 37.39 37.21 35.88 33.31 35.60 35.47 33.74 33.32 32.86 33.18 33.21 32.40 32.12 32.98 33.87 33.79 33.90 33.92 34.09 34.05 34.24 36.43 33.80 33.39 30.46
30.65 33.97 33.10 31.40 33.22 33.20 33.22 33.14 32.93 32.14 32.47 37.91 37.87 38.16 37.81 38.07 37.63 37.02 36.93 38.01 38.81 37.08 36.03 34.90 33.70 32.71 32.39 32.36 32.75 32.93 32.24 31.90 33.86 34.21 34.33 33.86 33.87 33.90 34.18 36.84 34.58 29.42 26.93 27.81
23.17 28.99 27.64 24.48 31.07 32.81 32.69 33.81 33.99 30.24 34.75 37.43 36.79 37.82 38.00 37.40 37.43 37.12 36.90 38.49 38.07 37.28 35.65 34.42 32.77 32.53 31.50 31.75 32.09 32.03 31.82 32.59 33.52 33.77 33.46 32.93 33.21 32.90 33.02 32.17 30.41 29.06 27.48 27.85
21.45 22.02 16.97 31.55 34.79 35.62 35.03 36.04 36.99 35.67 36.74 38.12 38.00 37.88 38.87 38.44 38.01 37.08 37.16 37.91 37.15 36.20 33.36 32.13 31.47 31.39 31.36 30.93 30.95 30.89 31.11 31.67 32.84 32.84 32.16 32.19 32.15 32.10 31.81 32.01 31.34 26.35 26.49 26.42
20.82 19.96 26.67 31.15 36.23 35.47 34.47 33.84 38.05 36.89 36.85 37.59 37.34 37.20 37.17 38.90 38.05 37.90 36.97 36.43 36.69 35.20 31.85 30.58 30.69 30.87 30.15 29.97 30.22 30.38 30.71 30.72 31.77 32.19 31.56 31.54 31.51 31.07 30.89 30.65 28.55 26.88 26.81 25.62
17.34 16.34 16.03 29.73 34.94 39.03 37.93 29.50 38.68 38.31 36.74 36.53 36.32 29.67 37.51 38.15 38.26 37.40 37.26 35.62 33.79 31.74 31.09 30.03 30.07 30.31 30.27 30.22 30.07 29.76 30.84 30.83 31.58 31.55 30.93 30.76 30.08 29.56 29.27 26.15 26.92 26.48 25.31 23.51
15.60 14.66 24.34 32.45 37.97 39.22 29.26 31.05 38.97 39.01 38.09 36.31 35.13 37.30 37.60 37.41 37.39 36.78 34.23 32.48 32.47 31.78 30.62 30.34 30.94 31.20 29.73 29.26 29.24 30.71 30.92 30.89 30.86 30.73 29.92 29.45 28.26 27.53 25.78 25.01 24.57 23.67 23.98 22.40
21.62 15.75 21.61 36.23 37.66 33.20 37.08 35.83 38.97 39.11 38.51 38.45 37.73 36.80 37.63 38.03 34.02 32.03 31.75 32.02 31.62 30.73 30.55 30.87 30.59 29.80 28.99 28.36 30.21 30.45 30.36 29.96 29.87 29.58 29.72 29.33 26.73 24.78 25.33 23.76 22.36 20.88 14.41 17.55
28.41 28.28 35.32 37.76 37.62 39.40 39.28 38.60 39.32 39.62 39.90 40.65 37.79 38.06 38.86 33.04 32.67 31.35 31.66 31.56 31.05 30.88 30.52 30.56 30.12 29.55 28.63 29.64 30.14 29.86 29.33 29.49 29.53 29.10 28.84 28.28 25.71 23.77 23.14 21.77 18.63 18.90 21.13 15.29
32.05 36.14 36.87 38.59 40.01 41.25 41.62 40.55 40.94 41.21 40.75 40.46 39.03 39.19 34.76 31.32 31.38 31.17 30.64 30.71 30.38 29.68 28.48 28.59 29.97 30.03 29.82 29.77 29.43 28.99 29.43 29.02 28.51 27.82 28.61 28.17 26.22 25.84 23.85 18.83 17.59 21.04 19.64 18.42
32.80 37.36 37.70 40.03 41.26 41.83 42.18 42.29 41.90 41.94 41.43 40.97 39.09 33.85 33.08 32.04 31.52 31.25 31.04 30.55 29.94 29.05 28.20 28.88 29.68 29.86 29.77 29.07 28.82 28.87 29.92 29.60 28.67 27.08 27.61 27.41 25.46 25.32 24.82 23.65 22.66 19.80 19.05 18.07
31.34 38.66 38.09 38.35 40.53 42.13 42.02 42.18 42.14 40.97 39.33 35.94 35.50 33.03 32.98 31.53 31.87 31.30 30.05 29.73 29.37 29.05 28.73 29.03 29.09 28.57 28.56 28.80 28.87 28.27 29.85 29.90 29.06 29.47 31.02 27.99 26.18 26.43 29.03 28.63 28.24 28.95 28.13 18.89
38.48 39.26 39.63 40.05 41.46 42.14 42.27 41.91 42.04 39.07 34.50 32.76 34.05 33.61 32.82 32.06 31.47 31.22 30.24 29.77 28.98 28.70 28.95 28.72 28.17 28.12 28.44 28.60 28.43 29.60 30.29 30.28 29.80 30.10 29.98 26.74 24.48 23.16 19.24 22.84 28.01 29.38 29.73 29.51
42.36 41.44 39.48 40.10 40.86 41.26 41.90 39.18 35.90 34.06 34.63 33.77 33.03 33.11 32.27 31.14 30.91 30.62 29.77 30.04 29.70 29.24 29.12 28.26 27.92 27.79 29.20 29.22 29.32 30.41 30.67 29.47 28.89 28.14 26.63 27.49 25.78 24.02 21.44 17.55 14.65 16.29 22.62 27.33
42.09 42.15 40.71 41.03 36.85 33.76 34.26 34.08 32.60 32.39 32.94 32.35 33.79 33.24 31.09 29.46 29.64 29.86 30.58 29.91 29.69 28.99 28.71 28.27 27.87 28.05 29.04 28.83 29.17 30.78 31.44 29.96 27.77 26.31 19.65 19.57 22.54 20.30 20.86 18.91 18.94 16.46 13.60 18.41
39.73 40.16 38.68 33.96 32.99 33.43 33.89 33.73 32.56 31.70 31.97 33.87 34.48 30.67 30.09 30.19 30.30 30.21 29.91 29.71 26.67 26.49 28.02 22.59 22.93 27.80 28.67 28.82 29.34 31.25 32.25 30.28 28.11 26.28 24.42 20.21 17.92 22.03 21.26 20.16 19.32 18.68 13.96 14.74
36.06 33.39 32.76 32.42 32.81 34.23 33.84 33.42 33.13 33.38 35.29 34.05 30.78 29.30 30.09 28.63 26.59 28.45 28.18 25.62 22.23 21.82 23.09 22.18 24.54 27.84 28.82 29.51 30.94 31.75 32.28 31.42 27.81 24.32 24.34 26.16 24.05 20.30 19.14 17.14 20.56 18.24 15.46 10.15
35.96 36.51 37.00 36.42 35.21 34.02 33.41 33.87 33.84 33.63 32.05 30.83 28.10 25.20 24.00 22.43 25.58 24.93 22.99 20.48 17.59 21.39 23.72 25.31 25.39 27.10 28.53 30.66 30.96 29.12 30.61 29.85 28.29 26.95 26.17 25.36 25.58 23.67 18.37 16.91 17.77 17.85 18.79 10.54
36.37 35.94 36.24 36.33 36.60 34.96 33.95 31.69 29.47 29.11 26.31 25.37 24.09 25.36 24.71 23.73 20.81 23.52 19.64 16.51 17.11 19.75 26.51 24.74 26.44 25.35 29.35 30.44 29.32 29.04 29.81 29.42 28.32 25.66 26.01 22.12 14.10 17.16 17.04 14.27 15.63 17.10 18.47 17.43
36.08 36.30 34.74 30.88 29.68 28.44 28.77 28.08 27.57 28.70 29.39 25.52 23.65 22.34 23.42 24.01 17.64 15.39 17.68 23.60 24.86 25.91 25.20 25.42 24.46 24.45 27.97 30.06 29.26 29.74 30.85 30.46 29.21 25.43 23.52 18.12 14.97 15.12 15.62 13.88 16.55 19.31 17.60 18.72
30.73 29.59 28.25 28.25 28.02 27.26 26.76 26.62 25.06 26.81 27.10 22.66 23.49 23.99 22.19 23.41 20.17 26.41 27.25 26.16 27.09 23.65 25.02 22.97 24.18 26.05 28.45 30.74 30.25 31.05 31.48 31.20 29.25 26.03 23.51 22.38 23.27 21.93 20.92 21.02 20.91 21.41 22.05 21.49
29.98 28.43 27.25 26.28 25.03 26.84 26.50 24.82 25.74 25.61 25.02 22.66 20.78 20.47 18.86 23.52 23.19 21.18 26.67 29.29 31.11 25.11 23.00 22.18 24.26 24.25 27.67 30.20 30.52 31.12 31.38 31.23 30.50 28.63 26.23 26.41 26.01 25.93 25.53 24.73 24.60 24.99 24.67 23.01
30.18 29.01 28.34 25.38 24.51 26.33 25.73 24.04 22.04 21.68 21.08 22.63 22.77 23.45 21.31 25.61 22.64 24.88 28.61 27.43 27.16 22.75 22.31 23.98 27.12 28.09 29.30 29.17 30.80 31.56 31.00 30.93 30.61 30.29 28.46 28.03 28.00 27.82 27.25 27.01 26.85 26.52 26.15 25.40
29.56 29.95 27.36 24.65 23.40 25.41 27.32 29.42 27.53 25.95 20.55 23.24 23.09 21.42 21.06 23.23 25.29 25.95 28.61 27.73 22.41 27.35 28.68 29.11 29.55 29.35 24.19 29.56 29.99 30.71 30.19 29.96 29.03 28.67 28.14 27.00 28.27 28.07 28.11 27.20 26.80 26.86 26.48 27.05
26.84 27.98 25.87 26.15 26.79 27.17 27.38 27.71 26.31 26.06 26.89 28.14 29.15 29.20 26.49 23.72 29.45 30.97 31.01 28.22 27.84 28.96 28.84 25.50 26.22 25.06 22.08 19.49 15.53 20.47 20.41 23.22 23.38 22.78 24.70 26.57 27.75 27.74 27.40 27.03 26.17 26.60 26.86 27.36
28.09 26.93 26.56 27.42 27.05 26.61 26.02 26.58 26.14 27.70 28.37 27.92 28.93 29.62 28.68 26.85 23.81 24.61 27.68 27.79 27.34 27.73 27.28 25.56 17.53 14.83 12.21 11.47 8.81 9.14 11.08 12.42 10.84 10.59 10.13 12.14 13.85 15.91 19.40 22.90 27.34 27.62 27.52 27.54
27.20 26.32 25.74 24.91 24.86 24.81 23.76 23.50 23.56 23.63 25.06 26.75 27.14 28.45 28.33 28.75 29.49 30.40 30.81 30.43 29.51 25.61 20.40 17.49 13.21 11.81 11.59 10.14 9.38 8.15 7.82 6.95 6.85 7.85 7.92 7.15 7.77 8.12 9.12 10.12 12.22 18.32 27.31 28.20

GFSNGP_sfc_wetblb_009.txt.gz
Wetbulb
35.89 36.33 37.31 36.98 37.45 37.02 36.54 36.66 35.47 36.29 35.14 39.32 42.25 42.65 42.00 42.02 41.82 41.26 41.26 41.27 41.15 40.69 39.64 39.69 38.70 39.92 40.40 39.86 39.52 39.51 38.60 38.39 38.57 39.50 39.97 39.73 39.42 39.17 39.42 39.92 40.46 39.15 36.80 35.42
34.71 35.71 35.36 35.42 36.96 37.05 37.08 36.78 36.35 36.35 37.00 42.05 41.94 42.44 40.98 41.07 40.92 40.84 40.89 41.62 41.62 41.12 40.04 38.72 39.73 40.74 39.33 38.87 38.75 38.57 38.17 38.07 38.63 38.56 39.19 39.16 38.69 38.51 38.82 39.29 39.11 36.72 35.85 34.59
29.67 31.27 31.61 30.82 34.83 36.52 36.72 37.77 39.43 35.37 41.18 41.24 40.26 40.35 41.63 41.47 41.44 41.26 41.99 42.06 41.59 41.28 40.99 40.46 40.25 39.60 38.99 38.49 38.03 37.08 36.86 37.32 37.61 37.67 38.06 38.21 37.70 37.37 37.67 38.21 38.73 38.17 34.77 34.23
30.88 27.50 27.42 36.92 39.36 38.81 37.99 38.24 39.54 39.22 40.35 41.52 41.78 41.65 42.74 43.71 42.36 42.17 42.15 42.08 41.71 41.99 41.64 40.93 39.50 38.35 37.79 36.97 36.24 35.85 36.27 36.47 37.02 37.33 36.91 37.33 36.74 36.60 37.36 37.63 37.13 37.11 34.42 33.45
30.90 28.36 31.13 35.79 36.11 38.04 37.51 38.61 41.66 40.64 41.04 40.51 40.49 41.83 42.36 43.53 43.85 44.33 43.61 43.06 42.61 42.56 41.09 37.66 37.37 36.94 36.14 35.87 35.72 35.72 35.92 35.97 36.55 36.53 36.12 36.19 35.94 36.32 36.18 36.00 36.10 34.97 33.35 31.46
27.09 28.40 26.13 35.18 37.55 42.71 42.21 35.40 42.08 42.48 40.59 39.39 41.28 39.38 43.39 44.07 43.88 42.98 42.95 41.45 40.17 37.91 36.14 36.21 35.62 36.25 35.80 35.14 34.78 34.70 35.28 35.67 36.13 36.30 35.85 35.46 35.71 35.40 35.35 35.17 32.47 32.85 30.36 29.45
23.07 30.06 31.28 36.62 40.60 42.18 34.22 37.12 41.34 42.40 41.72 40.40 40.79 44.66 43.60 42.87 41.48 42.52 40.56 36.24 35.26 36.09 35.89 35.89 35.96 35.88 34.27 33.99 34.13 35.11 35.33 35.32 35.60 36.31 35.70 35.69 35.27 34.73 33.89 32.95 31.67 30.62 28.61 28.29
24.97 26.47 28.51 38.49 41.22 38.07 42.76 42.10 42.21 42.66 42.75 42.27 44.07 40.89 41.14 40.39 38.36 36.87 35.34 35.37 35.72 35.37 35.22 35.17 35.38 34.74 33.78 33.68 34.77 34.84 34.51 34.56 35.32 35.12 34.78 34.16 33.84 33.94 32.11 31.61 30.24 28.66 27.81 27.57
33.13 34.39 40.03 40.58 42.10 43.64 42.70 42.51 43.35 43.03 43.75 43.68 41.45 40.59 40.48 37.74 35.30 34.86 34.39 34.60 35.30 35.21 34.53 34.15 34.21 34.39 33.33 34.10 34.11 33.39 33.78 34.15 34.21 34.59 34.09 33.86 33.25 32.92 31.06 30.42 29.39 28.59 27.63 27.92
35.91 39.25 38.05 40.17 42.61 43.16 44.23 44.55 44.46 44.58 45.01 43.23 42.55 41.27 38.35 34.32 34.08 34.16 34.04 34.54 34.48 33.71 32.27 32.38 33.66 33.43 33.76 33.83 33.25 32.84 32.82 33.42 34.29 33.10 32.94 33.89 33.29 32.18 30.60 29.74 29.40 28.65 28.93 28.05
36.24 39.23 40.56 42.11 43.31 45.49 45.15 44.51 44.52 44.89 44.58 43.88 43.23 40.41 36.07 34.52 32.80 32.38 32.74 33.77 33.51 32.22 31.89 32.17 33.07 33.06 33.42 33.05 32.42 32.01 32.28 32.52 31.57 31.62 31.85 32.51 33.13 31.81 30.30 30.89 30.94 30.32 29.62 29.00
37.19 42.42 42.76 42.83 43.84 44.92 44.68 44.94 45.62 44.65 42.51 41.08 40.59 37.04 34.80 32.99 34.02 35.26 34.68 32.98 32.06 31.99 32.12 31.95 32.19 32.41 32.40 32.48 32.39 31.79 31.60 32.23 31.69 31.62 31.34 32.14 32.40 31.66 30.09 30.12 28.34 29.17 29.02 28.44
42.50 43.18 43.18 44.02 43.87 45.44 45.02 44.99 44.32 42.30 38.94 35.99 35.71 35.06 34.70 35.26 35.95 34.14 33.06 32.25 32.06 32.16 32.36 31.95 31.93 31.39 32.03 32.00 31.94 31.55 31.59 32.24 32.66 31.93 31.38 31.58 31.79 30.96 29.80 30.99 28.55 29.68 30.61 30.77
44.02 43.95 43.33 43.82 43.34 41.98 38.68 35.90 35.90 35.29 35.32 35.24 35.87 37.59 36.24 35.58 33.21 32.51 32.11 32.79 32.77 32.14 32.09 32.07 31.47 31.12 32.38 32.71 32.50 31.86 32.19 31.60 32.56 32.71 32.81 32.16 32.27 31.45 31.30 29.90 29.34 30.17 29.52 28.20
43.10 43.94 42.21 37.46 36.31 35.15 35.72 35.80 34.68 35.06 36.05 36.50 37.07 36.20 35.27 32.60 31.26 31.93 32.80 32.54 31.97 31.89 31.65 31.70 30.83 31.39 32.76 32.93 32.01 31.87 32.66 33.30 33.68 33.29 32.51 30.84 29.49 29.47 29.64 29.93 29.22 28.84 29.50 26.60
37.23 36.39 35.72 34.08 33.57 34.45 35.22 35.08 33.92 33.71 35.49 35.79 35.77 36.04 34.55 32.47 32.15 32.44 32.60 32.21 29.72 30.48 32.53 29.90 28.03 31.43 32.47 32.14 32.04 32.63 33.43 32.34 31.84 33.06 32.69 31.47 30.01 29.43 29.70 30.32 30.16 29.84 29.06 29.31
36.56 32.72 33.69 33.40 33.21 33.57 34.31 35.84 35.37 35.21 35.53 36.54 36.15 33.39 32.51 30.97 30.26 31.33 31.01 30.01 29.65 29.12 29.41 28.15 28.93 31.99 31.34 32.03 32.63 33.34 32.98 32.85 31.46 32.01 31.38 31.35 31.21 29.98 30.06 30.46 29.44 29.34 29.56 31.08
37.52 37.23 36.92 36.17 34.77 33.98 34.65 35.56 35.81 35.73 35.31 34.53 31.00 30.02 29.15 28.17 29.78 29.78 28.70 27.63 25.74 25.94 28.26 30.04 29.97 30.29 31.07 32.70 33.03 32.61 31.86 31.58 31.83 31.36 31.17 30.92 30.74 31.24 30.72 29.97 29.19 28.64 29.24 30.18
37.74 36.91 36.54 36.17 36.60 36.07 35.65 35.01 32.96 31.45 30.28 29.44 28.97 29.82 28.53 28.01 27.97 27.98 27.42 25.31 25.30 26.25 30.72 30.92 29.63 29.78 30.37 31.21 31.36 32.20 32.13 31.96 31.59 31.09 31.17 30.11 30.05 29.97 30.12 29.39 29.03 28.67 28.29 28.45
36.87 36.68 34.72 32.41 31.04 30.13 30.82 30.37 30.45 30.96 30.99 29.10 28.00 28.19 28.46 28.82 26.99 25.91 26.09 26.46 28.66 30.96 31.08 30.37 29.89 30.02 30.61 31.07 30.20 32.82 32.67 32.08 31.88 31.28 31.31 30.59 29.38 28.74 28.92 26.80 27.68 28.34 28.67 28.74
31.50 31.07 30.45 30.40 29.78 29.55 29.49 28.96 28.27 29.77 29.16 26.55 26.97 28.05 27.03 27.79 27.50 24.75 28.09 28.89 32.10 30.51 30.09 28.07 29.65 31.55 31.79 30.72 32.05 32.64 32.11 31.93 32.05 30.79 30.74 30.71 29.52 28.52 28.66 28.89 28.59 28.29 28.78 29.14
32.76 30.44 28.40 27.42 26.11 28.81 28.04 28.01 28.70 27.71 27.95 27.07 25.84 23.37 23.14 26.18 27.79 27.31 26.37 29.36 33.92 29.19 31.42 32.06 31.50 30.52 30.49 29.56 31.89 31.61 30.88 31.50 31.95 31.96 31.57 31.54 30.67 30.04 30.10 30.50 30.19 30.39 30.42 30.33
31.40 30.66 29.55 27.82 27.24 28.55 28.46 28.45 26.24 26.55 25.22 26.46 25.83 26.92 27.95 28.78 29.55 28.63 30.32 33.20 32.18 32.04 31.32 31.93 30.62 29.81 29.31 30.83 31.93 31.88 31.51 31.20 31.75 31.75 31.55 31.38 31.20 30.88 30.55 30.64 30.92 31.20 31.01 30.96
30.72 30.13 28.79 27.17 26.53 27.61 26.41 27.39 27.47 28.39 28.49 29.04 29.53 29.53 27.95 27.05 28.13 31.29 31.63 30.51 30.61 30.66 30.79 31.71 31.87 30.40 29.55 31.01 28.23 25.77 24.76 25.41 24.93 23.24 23.55 23.28 25.06 27.12 29.19 29.89 29.91 30.77 30.56 30.14
28.35 28.46 27.43 26.68 25.37 24.78 24.84 24.87 25.55 26.56 26.89 26.93 27.91 28.89 28.99 29.98 27.91 28.55 29.29 29.81 30.34 30.73 30.33 31.60 27.37 21.89 23.89 22.18 20.47 19.15 18.89 18.35 16.98 16.93 16.54 16.88 17.02 16.95 18.31 18.94 19.20 20.32 22.38 28.74
26.78 25.79 25.91 25.28 24.31 23.09 21.57 21.41 20.78 23.02 22.60 22.48 24.97 27.11 27.50 27.84 28.08 28.52 29.49 29.89 31.04 31.00 29.82 23.00 21.02 18.98 18.25 17.09 16.20 14.78 14.79 14.14 13.81 13.75 12.66 12.94 12.94 12.91 12.83 12.95 13.58 14.47 15.40 17.40
24.44 22.25 22.01 22.26 20.30 18.99 17.25 17.04 16.76 17.54 19.40 20.02 19.14 21.46 22.21 23.58 24.36 24.53 24.96 27.12 29.52 24.93 19.88 17.87 16.02 14.35 14.30 13.78 13.03 12.43 12.55 12.24 10.37 10.02 10.18 9.87 9.89 10.03 10.07 10.26 10.82 11.89 13.51 15.00

GFSNGP_sfc_wetblb_012.txt.gz
Wetbulb
41.82 41.94 42.01 42.44 43.40 43.20 42.01 42.96 39.14 41.10 41.46 43.93 46.33 47.96 49.81 50.53 50.41 49.83 48.87 47.82 47.95 47.69 47.15 46.38 45.80 46.34 45.63 47.16 45.81 45.04 43.47 43.25 43.22 43.65 43.79 43.60 43.06 42.38 42.35 42.25 42.15 42.45 40.99 40.39
39.16 40.89 40.91 40.00 42.97 44.04 43.96 43.99 42.97 43.28 42.67 48.24 49.11 49.14 49.14 48.59 48.35 47.79 47.43 47.71 48.07 48.06 47.52 46.08 45.80 45.05 46.16 45.70 44.50 44.02 43.18 42.79 43.12 42.97 42.21 42.48 42.10 41.88 41.57 41.38 41.69 41.74 41.38 40.47
36.84 37.94 38.41 36.28 40.77 42.95 43.52 45.16 44.46 41.03 45.63 47.90 46.63 47.22 48.43 48.70 48.07 47.56 47.88 47.93 48.13 48.15 47.72 46.37 45.63 45.67 45.58 44.74 44.13 42.74 42.06 41.76 41.52 41.33 41.07 41.32 41.34 41.11 40.66 40.51 41.23 40.74 40.85 40.30
37.88 34.03 32.29 41.38 43.99 43.63 44.15 44.93 46.17 45.63 45.96 46.88 47.48 48.98 49.16 50.65 49.41 48.35 48.83 48.61 49.34 49.05 47.66 46.80 45.67 45.75 45.67 43.37 42.05 41.07 40.60 40.57 40.82 40.33 39.99 40.55 40.78 40.59 40.61 40.71 40.13 39.60 39.55 39.47
37.22 35.66 38.95 40.47 40.81 40.92 41.33 42.08 46.66 45.87 46.75 46.84 46.99 47.28 48.80 49.63 50.73 50.80 50.17 50.51 50.44 49.69 47.88 45.91 45.53 44.65 42.37 41.26 40.70 40.17 39.17 38.88 39.17 39.53 39.40 39.74 39.51 39.98 40.38 39.80 39.28 39.22 38.72 37.50
35.32 36.01 33.98 40.62 42.12 46.54 46.04 39.08 46.49 47.08 47.17 46.63 46.49 44.27 46.78 50.96 50.58 50.27 51.04 50.85 49.44 48.07 46.05 44.55 42.82 40.76 40.70 40.71 39.09 37.70 38.10 38.56 39.23 39.32 39.02 38.84 39.12 39.65 40.02 39.52 38.33 37.76 36.35 36.45
36.31 37.08 39.05 42.93 43.89 46.56 36.63 40.02 47.31 47.79 48.49 47.57 46.63 49.53 49.77 50.15 50.67 50.47 50.51 49.14 47.31 44.07 43.20 41.96 41.37 41.26 39.52 38.25 36.95 38.11 38.46 38.60 38.56 39.11 39.02 39.11 39.12 39.54 39.22 38.57 37.34 36.38 34.20 34.55
34.70 35.03 33.45 43.49 44.67 41.41 46.78 48.72 47.61 48.19 49.53 49.08 50.25 48.98 47.61 47.23 48.12 48.94 47.64 44.70 43.46 41.13 39.87 38.37 39.85 39.61 37.76 36.73 38.42 38.15 38.13 38.11 38.14 38.60 38.03 38.09 38.56 38.87 38.58 37.62 35.83 34.72 33.71 33.51
40.91 42.35 44.88 46.43 48.55 49.46 48.34 48.36 48.87 49.00 49.71 49.37 49.26 49.03 47.41 45.86 45.43 45.16 44.04 41.70 38.85 37.41 36.83 38.91 38.59 37.75 36.73 37.70 37.89 37.51 37.31 37.18 37.67 37.91 37.95 37.88 37.44 37.65 37.37 36.72 35.04 34.30 33.34 33.21
40.72 44.62 45.33 46.68 48.13 48.72 48.94 48.81 49.75 50.35 49.74 49.84 48.91 49.66 47.83 45.64 43.44 42.28 40.53 37.52 39.17 35.53 36.54 35.61 36.61 36.90 37.45 37.57 37.46 36.65 36.01 36.47 37.04 35.59 34.42 36.29 37.39 37.53 36.48 35.85 34.84 33.53 33.21 32.99
42.49 45.45 46.48 47.33 48.23 48.82 49.60 50.46 50.05 50.80 50.38 49.85 49.51 48.97 47.71 43.55 41.50 39.65 35.44 35.61 36.02 35.84 35.49 35.30 36.17 36.56 37.02 36.57 36.44 34.95 35.27 35.16 35.44 35.05 33.80 33.27 33.46 34.80 35.49 36.54 35.16 34.54 34.21 33.65
42.66 47.01 46.82 47.26 48.32 49.26 49.15 49.34 49.86 49.26 49.29 46.90 47.04 46.54 44.66 40.87 37.39 38.29 36.31 34.55 33.74 34.44 34.50 34.98 35.35 35.14 35.76 36.08 35.44 35.15 33.97 34.84 35.79 35.70 34.92 33.67 32.94 33.39 32.96 31.06 30.57 30.19 30.02 31.09
45.81 47.51 47.63 48.62 49.09 48.88 47.76 46.06 45.06 44.30 44.19 41.33 41.37 40.19 38.83 38.23 36.54 35.62 36.77 36.32 34.92 34.52 34.95 34.53 34.87 34.62 35.73 35.59 35.21 33.82 33.84 34.91 35.38 34.61 35.20 33.53 32.84 32.05 31.85 33.20 31.09 30.86 30.90 30.88
48.27 48.02 47.02 46.09 44.60 43.56 42.26 40.23 39.81 40.37 41.62 40.49 39.27 38.89 36.25 35.38 35.19 34.98 35.09 35.35 35.03 34.66 34.42 34.54 34.63 34.39 35.33 35.55 35.10 34.48 35.22 32.33 35.02 34.96 35.75 35.27 33.59 33.16 33.01 31.73 31.94 33.64 31.40 30.47
44.81 46.90 44.27 42.61 40.15 38.10 38.94 39.42 37.83 37.04 37.07 36.13 36.84 36.44 36.12 36.15 36.25 36.16 36.26 35.55 34.68 34.41 34.58 34.62 34.65 34.96 36.17 36.09 35.52 35.36 34.83 35.13 35.50 34.87 33.66 33.91 34.77 34.25 33.55 32.74 31.54 31.56 32.43 30.56
41.45 41.75 39.93 36.87 35.97 36.88 37.03 36.92 35.36 35.11 36.05 36.43 36.60 37.87 38.20 37.64 35.83 34.86 34.96 35.10 32.67 33.33 35.03 34.97 34.14 34.58 36.68 36.99 35.91 35.95 35.26 32.71 32.91 34.12 32.13 32.09 34.08 33.11 32.49 32.38 31.58 31.73 31.41 32.05
39.41 37.00 36.18 35.32 36.26 36.35 36.01 36.61 37.16 38.02 38.27 38.72 38.96 39.19 38.44 36.14 33.22 33.90 34.61 34.81 34.03 32.99 34.21 33.87 33.75 36.65 36.06 36.16 36.55 36.84 36.25 35.87 32.81 33.99 33.47 33.12 33.66 33.10 32.79 32.77 32.78 32.40 33.89 34.18
40.94 39.53 38.43 37.01 36.11 36.63 37.00 38.05 38.61 38.27 37.69 35.97 32.76 32.63 32.45 32.26 32.66 33.62 34.04 34.24 32.26 32.25 33.19 33.81 34.51 35.14 36.13 37.30 36.72 36.70 35.74 34.50 34.42 34.22 33.83 34.26 32.83 33.14 33.41 33.03 33.09 32.57 33.85 33.39
38.96 38.14 39.16 38.76 39.08 38.78 37.50 35.05 33.47 33.10 33.19 32.99 32.49 32.63 32.63 32.26 32.90 32.81 32.62 31.03 30.94 31.82 35.83 36.39 32.31 31.60 34.80 35.18 33.74 35.58 35.38 34.06 34.32 33.75 33.77 32.95 32.29 31.25 32.00 32.99 33.03 33.34 33.01 32.85
38.47 38.09 36.80 34.93 34.57 34.35 33.83 33.28 33.90 34.44 34.21 32.70 31.90 32.63 32.81 33.17 32.45 31.54 31.90 30.88 33.81 35.22 35.90 35.31 34.32 34.33 34.81 34.67 31.64 34.83 36.20 35.10 33.57 33.42 33.79 33.84 32.66 31.71 32.20 31.41 31.80 32.26 32.45 32.61
34.99 34.49 34.36 32.89 32.87 32.45 32.08 32.08 32.26 32.26 33.12 31.44 31.03 30.73 30.20 31.36 32.43 31.90 32.51 34.50 36.68 37.63 35.88 33.22 34.38 35.59 36.87 34.32 34.92 35.87 34.97 33.29 32.84 33.28 32.63 32.63 32.81 32.67 32.63 32.08 31.72 31.72 31.90 32.26
36.65 34.33 32.99 33.23 32.99 32.67 32.39 32.16 32.16 31.30 30.76 30.32 29.97 29.74 29.27 29.68 30.10 31.07 32.71 33.07 35.53 32.85 34.35 34.23 34.95 34.65 35.08 32.05 34.64 34.33 32.57 32.38 33.04 33.06 32.43 32.81 32.45 32.08 31.90 31.90 31.72 31.90 32.08 32.26
34.80 33.81 32.88 31.54 31.30 31.91 31.13 29.17 29.08 28.97 28.47 28.84 28.71 28.66 28.21 28.22 28.60 27.47 26.76 31.60 30.97 30.42 31.33 31.76 32.19 31.92 31.59 31.89 32.26 32.26 32.26 31.79 30.63 30.39 30.21 28.80 28.96 30.36 30.34 30.85 30.78 31.36 31.54 31.83
33.46 32.36 30.52 29.85 29.34 28.51 27.09 27.41 27.72 28.60 28.26 28.95 29.39 29.08 29.23 29.06 28.82 30.93 30.72 29.60 29.36 30.18 31.32 32.11 31.89 31.08 31.22 31.90 31.90 31.36 29.73 28.20 26.82 25.83 24.96 23.29 24.82 24.43 24.89 24.83 25.07 26.11 26.11 26.28
29.42 28.64 28.27 28.05 27.73 27.02 25.86 25.52 26.21 26.59 25.90 26.33 26.39 27.48 27.07 27.38 26.36 28.72 29.03 28.96 28.04 28.78 30.92 30.83 26.47 25.72 27.51 26.64 25.53 24.14 25.06 23.94 21.58 21.68 21.04 20.95 20.60 20.20 21.02 21.14 20.48 21.03 20.71 22.02
28.75 28.69 28.13 25.71 24.73 24.59 23.91 24.04 23.38 24.56 23.52 23.37 24.35 25.04 24.90 25.56 25.31 25.79 25.76 24.33 23.73 22.30 22.83 22.18 19.85 21.03 20.62 20.18 19.62 18.91 19.71 19.29 18.84 18.28 16.44 17.19 16.96 16.84 16.93 16.85 17.10 17.84 18.46 19.19
24.86 24.40 25.82 25.00 23.73 22.55 21.27 20.82 20.72 20.58 21.35 21.17 19.85 22.25 22.94 22.57 22.63 20.88 20.36 20.79 20.33 19.93 19.80 19.06 17.75 15.78 15.68 15.98 15.89 16.02 16.12 16.02 13.75 13.06 13.77 13.64 13.42 13.48 13.39 13.40 14.00 15.11 15.66 16.43

GFSNGP_sfc_wetblb_018.txt.gz
Wetbulb
45.40 46.31 46.47 45.67 45.11 45.48 43.43 44.43 39.64 42.79 42.54 45.62 47.08 48.43 50.36 51.28 51.87 51.67 52.20 54.32 54.82 55.11 54.13 53.11 52.46 51.40 50.68 49.42 49.06 48.84 47.40 44.99 45.58 45.58 44.64 44.07 43.63 43.34 42.82 41.80 41.10 41.17 40.50 40.57
43.94 46.18 45.96 43.38 45.15 45.58 44.88 44.63 44.36 44.33 43.79 48.69 50.24 50.21 49.67 49.86 50.41 51.22 50.72 52.53 54.42 55.02 54.62 52.94 52.40 51.61 50.37 48.84 48.58 48.83 46.01 44.80 45.49 44.49 43.89 42.86 42.16 42.55 42.05 41.65 41.14 40.42 39.49 39.82
38.99 42.46 41.73 36.03 42.73 44.29 45.28 46.09 45.37 41.43 46.41 49.05 48.40 48.88 49.73 50.21 50.23 51.21 51.21 51.86 53.17 53.96 54.14 53.18 52.24 51.51 49.26 48.67 49.12 47.25 45.35 45.18 44.73 44.13 42.34 41.75 41.92 41.30 40.14 39.96 40.02 39.77 39.11 39.17
39.71 36.46 31.53 42.38 47.52 46.72 45.12 45.92 47.22 46.51 47.54 48.43 49.05 50.14 50.23 51.16 50.74 51.11 52.40 52.16 53.12 53.48 53.56 53.16 52.72 51.45 49.56 49.06 47.75 45.41 44.22 43.69 42.93 42.79 41.10 40.46 40.20 39.85 39.90 39.79 39.46 38.51 38.16 38.47
37.53 36.76 40.14 42.39 44.95 43.47 42.72 42.80 47.29 46.37 47.01 48.28 49.07 49.38 49.60 52.15 52.57 52.07 52.01 52.24 52.62 53.54 53.64 53.11 52.41 51.37 48.25 47.09 45.64 44.33 42.12 42.06 41.66 40.42 39.59 39.51 38.90 38.73 39.27 38.99 38.46 38.20 38.30 37.18
38.76 36.27 32.94 43.77 46.02 48.18 47.46 38.60 47.12 47.49 47.35 47.34 48.11 44.38 46.98 51.69 52.48 52.37 52.32 52.74 52.58 53.29 53.28 52.56 51.75 49.48 46.85 44.09 42.05 41.08 40.86 39.91 39.74 39.52 38.67 38.24 38.45 38.51 38.59 38.07 38.20 38.10 36.96 36.37
39.05 37.63 40.78 46.60 47.24 48.21 38.21 41.22 48.67 49.01 48.64 48.66 47.10 49.03 51.69 53.07 51.91 51.99 52.54 52.76 53.64 52.35 47.51 47.64 44.72 44.08 42.38 40.96 39.62 39.13 39.58 39.52 39.25 39.32 38.97 38.64 38.09 37.63 37.13 36.63 36.83 34.66 33.03 33.41
41.84 35.33 32.76 47.65 46.51 42.55 48.97 51.84 50.40 50.22 50.48 50.27 50.99 51.17 51.33 51.56 51.89 51.07 50.56 51.81 48.82 41.27 40.54 41.73 42.51 41.39 38.75 37.66 38.87 39.25 39.40 38.78 38.57 38.49 38.46 38.34 37.29 36.94 36.82 35.98 34.41 33.85 32.57 32.17
42.88 42.47 49.85 49.75 48.86 51.16 51.91 50.56 50.17 50.13 50.27 50.78 50.15 50.10 50.92 51.06 51.18 49.22 48.87 44.53 42.63 40.67 39.28 38.46 38.25 38.46 37.03 37.69 38.73 39.18 37.90 36.99 36.99 37.66 37.66 37.33 34.93 33.73 33.82 34.68 33.51 32.78 31.69 30.72
45.60 46.20 47.29 48.99 50.06 50.85 50.41 50.76 51.08 51.53 51.55 51.63 50.37 50.57 50.41 50.85 48.58 44.92 43.38 41.42 40.46 38.52 36.62 36.25 37.20 37.22 37.57 37.71 37.94 37.29 35.96 35.82 36.04 35.66 35.54 35.11 35.02 35.07 33.16 32.10 33.02 32.10 31.07 30.53
44.98 47.39 48.43 48.91 50.27 50.92 50.88 51.55 51.65 51.95 50.92 48.45 48.62 48.93 49.23 43.12 41.48 40.15 39.58 38.45 37.57 36.67 36.05 35.99 37.05 37.20 37.75 37.47 37.07 35.35 34.97 35.04 35.19 33.71 34.19 34.50 35.36 34.27 32.03 32.56 32.15 30.88 31.34 32.32
44.44 48.29 48.23 48.48 50.44 50.85 49.96 48.18 48.15 47.92 45.36 44.91 44.85 42.29 40.94 39.68 38.89 37.54 36.52 36.78 36.20 36.40 36.17 36.29 36.89 37.07 37.70 37.88 37.08 35.29 33.88 33.78 33.94 33.81 33.82 34.04 34.29 33.66 34.16 33.24 33.23 33.70 33.05 30.31
47.73 50.09 49.83 49.60 48.08 47.17 45.47 45.53 45.37 44.39 43.46 40.81 40.25 39.27 38.83 37.22 37.01 36.21 36.68 37.06 36.69 36.47 37.34 37.71 37.01 36.37 37.32 37.57 36.56 34.30 33.04 33.29 33.18 32.40 33.68 33.09 32.00 31.72 32.04 33.61 33.42 33.47 33.05 32.52
49.46 49.21 47.01 46.84 43.44 45.40 43.28 41.78 41.07 39.89 39.71 39.01 38.81 38.98 37.74 37.02 37.47 37.91 37.91 38.62 38.67 37.92 37.30 36.94 36.19 36.18 37.66 38.26 37.02 34.28 34.01 32.65 33.08 33.58 33.92 32.87 32.11 31.80 30.87 29.48 29.99 31.71 32.70 32.05
46.94 46.46 44.95 44.87 43.74 41.70 40.92 39.70 38.12 37.54 38.48 38.58 39.88 39.57 39.38 38.42 38.05 38.15 38.64 38.41 37.74 37.23 36.87 36.98 36.38 36.53 38.64 38.64 37.65 34.72 34.46 34.52 34.15 33.98 32.89 33.22 32.91 31.86 30.80 30.24 30.44 31.21 31.73 30.74
45.21 44.94 43.90 41.39 39.07 38.63 38.63 38.82 37.88 37.85 38.74 38.89 37.64 37.24 37.25 38.06 37.83 37.66 37.75 36.82 33.85 33.64 34.89 30.51 31.33 34.77 37.47 38.03 37.32 36.80 36.08 33.86 32.97 34.60 34.22 33.27 32.42 31.98 31.76 31.24 30.54 30.61 31.14 31.09
40.66 38.67 38.82 37.32 37.59 38.63 38.60 39.00 37.87 37.23 36.43 34.84 33.76 32.75 33.61 33.10 34.22 34.32 34.87 34.66 32.74 31.87 32.53 32.92 33.02 36.93 35.97 37.76 37.38 36.55 36.24 36.17 33.38 34.16 33.44 33.03 32.85 32.71 32.21 31.98 30.77 30.53 30.95 32.46
44.09 42.32 40.58 39.57 38.73 37.93 36.95 35.70 34.87 34.39 32.69 33.28 30.89 31.07 30.57 30.18 29.73 31.14 32.03 32.64 31.72 31.87 33.18 34.85 33.75 34.39 35.65 36.73 36.04 34.83 34.66 34.86 35.03 34.44 34.00 33.76 33.69 32.90 32.02 31.19 30.82 30.94 30.86 30.49
41.48 39.90 39.62 38.54 37.68 35.92 34.76 33.98 32.94 32.03 31.13 30.73 30.93 29.98 30.31 30.24 30.06 29.84 30.30 30.68 31.36 31.98 31.42 32.02 30.34 31.34 32.66 33.35 32.42 33.30 33.55 33.37 33.48 33.74 33.95 33.58 32.72 32.05 31.02 30.52 30.25 31.03 31.62 30.13
38.40 37.74 36.60 35.23 35.17 33.36 32.24 32.38 33.87 33.72 31.91 30.21 30.43 29.54 28.55 27.59 27.68 25.97 27.82 28.69 31.16 29.88 30.06 29.58 29.61 29.88 29.97 30.99 30.03 29.98 29.90 30.08 29.94 31.72 32.74 32.75 32.27 31.30 28.97 27.34 29.17 30.70 31.32 31.43
35.46 34.15 32.64 31.36 30.68 31.40 31.17 31.06 30.39 29.24 29.87 27.02 26.30 24.77 24.57 27.72 27.61 25.55 27.39 27.72 29.59 28.44 27.89 27.14 27.71 25.42 25.46 25.09 25.80 28.64 29.41 29.77 29.97 30.03 30.79 30.79 31.88 30.93 26.99 26.68 28.18 30.41 31.02 31.26
34.87 32.80 31.76 31.42 30.43 29.29 30.01 30.47 30.03 28.06 27.77 25.31 23.67 22.99 23.87 26.89 26.33 27.11 25.87 26.16 27.12 23.80 24.37 26.29 24.47 19.85 21.11 21.62 27.01 26.73 26.54 26.29 27.10 28.36 29.55 29.54 29.73 28.25 26.41 26.47 26.24 26.35 27.16 27.53
34.53 33.14 31.67 31.32 30.68 29.96 29.41 29.20 27.66 26.95 24.41 24.49 23.73 25.10 25.50 25.77 26.76 24.39 23.36 25.88 25.27 22.46 23.56 23.95 19.70 17.46 18.51 22.75 22.36 21.68 21.85 21.42 20.60 21.62 22.08 22.87 23.46 23.12 23.08 22.72 22.43 22.82 22.65 22.58
33.59 31.96 30.54 30.89 30.99 30.39 28.66 28.07 29.14 28.48 25.06 26.93 25.28 23.45 24.89 24.40 25.12 26.51 25.51 23.04 20.88 20.85 21.18 22.49 19.45 16.87 18.09 19.61 19.07 18.40 18.39 18.56 16.36 17.32 17.27 18.27 18.78 18.32 18.71 18.83 17.84 17.74 17.79 18.26
31.01 30.93 30.89 30.55 30.44 28.85 28.37 27.71 28.54 27.67 26.30 26.17 25.89 25.63 25.41 25.93 23.12 22.95 23.27 22.55 21.47 20.48 20.50 20.52 19.52 16.04 17.71 17.20 16.79 16.33 15.75 16.18 14.57 14.06 13.79 14.39 14.22 14.44 14.99 14.76 13.70 13.79 14.34 14.88
32.63 31.33 28.66 28.05 27.35 27.09 25.84 25.77 24.66 25.25 23.98 23.96 23.69 24.77 25.15 24.73 23.45 22.04 21.74 20.38 20.31 19.02 19.00 18.71 18.08 17.63 16.64 15.39 15.15 14.44 14.30 13.55 12.15 11.98 11.62 11.68 11.02 11.81 11.27 10.65 10.78 11.08 11.46 12.22
28.67 29.69 28.83 27.14 25.65 24.88 23.62 23.68 22.84 21.55 23.46 21.01 19.98 22.43 23.53 22.80 21.90 20.22 18.34 18.93 18.39 17.64 17.10 16.82 16.42 15.54 14.58 13.55 13.13 12.42 12.09 11.34 9.89 10.58 9.43 8.41 8.47 8.21 7.84 8.77 9.22 10.38 10.96 11.61

GFSNGP_sfc_wetblb_021.txt.gz
Wetbulb
42.15 44.28 44.42 42.90 43.38 43.45 40.13 39.63 33.40 37.04 39.18 42.22 42.14 42.60 43.52 45.79 46.43 46.83 47.73 49.30 49.95 49.97 49.43 50.02 49.90 48.41 48.35 46.69 45.27 44.05 42.88 42.80 43.30 44.22 43.20 42.09 41.36 40.71 40.57 40.24 39.44 38.92 38.72 38.61
36.81 43.48 42.10 39.29 41.61 41.79 41.73 41.93 39.85 39.85 39.21 43.25 44.79 44.71 44.43 44.90 46.53 46.37 46.74 47.39 49.57 50.68 50.03 49.84 49.24 48.14 48.00 46.18 44.78 44.78 43.71 43.52 43.87 43.10 42.12 40.81 40.12 39.33 39.50 39.78 39.62 38.91 38.02 38.37
31.28 37.13 36.29 29.19 36.69 40.43 41.52 42.48 40.84 35.37 40.42 43.99 43.33 44.54 44.00 44.40 46.00 46.13 46.75 47.66 49.00 50.06 50.28 49.18 48.88 48.63 45.97 45.43 45.50 44.46 43.41 43.40 43.32 41.31 40.41 39.72 39.82 39.00 38.56 37.81 37.59 37.89 37.89 37.58
29.13 29.34 21.05 37.61 44.15 43.13 41.98 42.14 42.03 42.03 43.15 43.42 43.21 44.23 46.05 45.55 45.53 46.07 47.19 47.89 47.99 48.55 49.41 48.82 48.03 47.35 45.11 45.58 44.84 43.36 42.50 40.43 39.94 38.90 38.36 38.94 38.53 37.89 37.51 37.92 37.22 36.92 36.73 36.81
27.11 27.40 33.81 38.33 41.68 41.08 38.71 37.95 42.60 41.66 42.62 43.72 44.91 44.15 44.50 47.48 47.29 46.25 46.40 46.55 47.37 48.18 48.83 48.09 46.87 45.53 44.41 43.10 42.09 41.05 38.90 38.09 38.44 38.98 37.99 37.96 37.26 36.77 37.24 36.75 36.30 36.11 37.01 35.79
28.83 25.30 21.13 35.78 42.57 45.48 43.94 31.66 43.89 43.67 43.03 43.14 42.78 32.99 40.73 46.69 47.78 47.37 47.74 44.32 41.90 42.02 40.64 41.65 42.33 43.07 40.14 38.30 38.05 37.46 37.99 37.83 38.07 38.66 38.25 37.13 36.97 36.69 36.62 35.94 35.39 35.71 35.19 34.15
25.42 23.60 31.47 43.65 44.61 45.12 30.35 32.73 44.20 44.59 43.94 43.76 41.46 42.75 45.94 47.39 47.41 46.34 42.53 40.02 39.66 38.86 38.30 37.80 39.50 39.05 37.14 36.66 36.65 38.18 38.31 38.17 38.48 38.65 37.99 37.58 36.81 36.14 35.41 34.58 34.31 32.49 31.54 30.70
30.01 29.05 27.68 45.30 43.24 35.69 41.42 43.83 44.44 44.02 43.86 43.98 44.95 46.08 47.10 47.31 45.18 41.33 38.38 38.48 37.56 35.70 35.75 37.84 38.38 37.97 36.61 36.11 37.84 38.80 38.97 38.67 38.02 37.86 37.36 37.33 35.34 34.61 33.82 32.62 30.96 31.08 29.98 30.10
35.68 33.72 42.93 43.79 43.63 46.79 45.62 44.28 43.92 44.53 45.97 46.77 46.39 46.38 47.02 43.56 39.16 38.69 37.13 35.35 36.62 36.09 36.73 37.67 38.00 38.13 36.35 37.03 38.35 37.95 37.32 36.67 36.16 36.11 35.97 35.74 33.79 31.84 30.74 30.67 27.98 29.03 29.36 26.02
37.76 41.82 43.61 44.35 45.30 46.43 47.10 46.46 47.49 47.21 46.09 46.09 45.05 43.09 39.89 38.35 37.52 37.09 36.23 35.62 37.43 36.53 35.29 35.01 36.46 36.72 37.01 36.73 36.46 35.44 34.10 33.79 34.11 33.55 33.69 33.11 32.69 32.55 30.99 27.24 25.85 28.46 27.74 28.60
39.50 42.19 44.68 46.05 46.60 47.39 46.88 47.04 43.90 43.07 41.66 42.18 40.03 38.74 38.00 37.07 36.26 36.12 36.37 36.59 36.68 35.79 35.02 35.34 36.19 35.04 35.20 35.14 34.63 33.02 32.85 32.99 32.43 30.35 31.11 31.35 31.94 31.27 29.94 29.84 29.40 27.28 26.86 27.41
32.01 44.34 43.57 43.22 44.80 45.52 43.38 42.45 42.91 40.87 38.88 39.42 39.13 37.46 37.26 36.18 36.29 35.37 34.73 35.35 35.17 34.18 33.85 34.82 35.03 34.25 34.77 34.85 33.91 32.24 31.36 29.85 29.27 29.05 29.19 30.79 30.59 30.26 32.94 32.46 32.28 33.30 32.88 29.23
43.92 46.11 43.87 42.64 42.08 42.40 40.64 40.12 40.37 39.22 38.94 37.14 37.45 36.99 36.26 34.39 34.06 34.96 35.80 34.45 34.11 34.37 34.63 33.90 33.22 32.74 33.65 33.88 33.40 31.52 29.99 29.76 28.89 29.52 28.50 28.45 28.30 27.65 24.74 28.56 33.25 32.95 33.22 33.25
45.69 44.62 41.53 42.26 39.11 40.21 39.05 38.54 38.94 38.15 37.90 37.63 36.64 37.20 35.03 34.20 35.08 35.49 35.46 35.97 35.34 34.40 33.78 33.38 32.73 32.36 33.79 34.31 33.91 31.84 30.40 30.48 29.78 29.37 28.81 29.68 30.56 31.04 30.62 30.25 27.08 27.60 29.77 32.30
42.44 42.98 41.37 40.22 39.42 38.34 38.71 38.11 37.04 35.79 36.87 35.96 36.40 35.73 35.81 35.89 34.77 34.31 34.50 34.41 33.98 33.35 33.11 32.66 30.92 30.97 33.36 34.65 34.57 32.09 30.69 29.04 30.05 30.25 29.94 30.02 31.95 32.42 31.62 30.73 27.48 26.97 27.70 26.76
42.14 40.89 39.48 37.54 36.91 36.72 37.89 37.25 35.53 35.13 33.75 32.67 32.04 32.64 33.22 34.07 33.62 33.68 33.71 32.23 28.67 28.21 29.61 28.58 29.80 32.14 34.50 34.65 34.11 33.40 32.23 29.54 29.38 31.30 31.25 32.42 32.64 32.36 31.56 29.61 28.61 28.14 27.72 27.94
36.99 35.25 36.07 36.33 36.31 36.64 36.45 36.34 33.66 33.22 32.57 30.30 30.05 29.55 30.74 29.85 29.89 30.14 30.01 30.41 29.77 29.51 30.62 30.54 28.87 31.54 32.51 33.79 32.87 31.68 31.74 32.22 30.77 32.36 32.38 32.53 31.83 31.20 30.63 30.28 31.02 30.43 29.76 27.56
41.74 40.13 39.22 38.50 36.29 34.02 33.34 32.72 30.57 29.97 29.53 30.48 29.92 30.15 29.38 28.25 27.55 27.50 26.83 26.22 28.32 30.33 29.13 28.70 28.12 28.45 29.21 29.83 28.93 28.58 28.05 28.13 27.74 28.35 29.49 30.28 31.40 32.57 32.81 32.21 30.85 29.11 27.04 23.98
39.48 37.99 37.52 36.21 35.26 33.53 31.62 30.40 29.41 29.33 29.69 29.75 29.27 28.12 25.50 22.22 23.90 24.36 24.34 19.72 25.05 24.17 26.16 26.41 26.12 24.81 23.47 23.91 23.09 22.48 22.87 23.70 24.61 25.75 26.88 26.51 27.34 29.41 30.22 30.90 31.62 27.83 23.07 28.50
35.25 35.37 34.55 32.88 32.38 31.85 31.21 31.62 29.25 29.04 29.12 26.55 22.73 20.64 20.90 19.11 18.32 17.38 19.21 23.36 25.03 24.03 24.47 24.38 22.82 20.45 20.17 20.65 19.83 22.48 23.65 23.72 22.93 23.05 24.58 25.58 27.02 27.74 28.30 28.64 27.08 24.56 24.86 29.26
32.05 31.25 30.66 30.27 29.80 30.01 29.97 28.68 26.07 26.09 27.56 22.11 21.67 16.72 15.65 19.13 18.27 14.49 19.80 22.07 22.64 21.29 22.27 21.64 19.68 17.76 18.42 17.40 20.41 19.51 18.81 19.37 18.68 19.01 20.23 19.65 21.85 22.12 22.76 22.89 23.23 23.68 22.58 22.53
31.62 30.42 29.56 29.40 28.42 28.19 27.23 27.07 26.49 24.59 23.24 19.77 14.50 13.73 14.98 21.29 17.14 18.80 14.81 20.42 22.04 14.04 18.75 20.27 18.62 12.21 15.44 14.68 17.78 15.85 15.85 16.64 13.38 15.02 14.51 15.85 16.81 16.99 17.65 18.40 18.62 18.63 18.48 17.65
31.65 31.29 29.84 28.28 26.96 27.21 27.00 24.77 22.32 20.85 17.43 15.24 13.91 15.77 17.26 20.54 20.58 17.89 16.76 21.14 20.41 15.98 19.18 17.29 12.66 8.85 8.85 11.52 13.47 14.44 12.39 13.74 10.56 10.80 11.01 12.69 13.09 13.12 14.21 13.48 13.48 13.68 13.67 14.60
31.18 30.79 30.19 29.42 26.71 25.62 25.11 26.28 25.74 23.77 16.96 21.45 15.92 12.32 19.74 13.08 10.97 20.02 18.32 14.21 9.36 9.30 10.18 12.62 11.64 9.92 5.85 3.63 7.58 11.90 9.92 11.19 9.47 8.78 8.14 9.74 9.50 10.68 11.09 10.05 10.03 10.98 11.15 11.30
30.02 29.91 28.44 26.46 26.14 24.91 24.95 25.19 24.52 23.70 23.23 23.11 21.93 23.04 21.76 20.37 12.16 12.54 9.31 9.84 12.98 10.90 6.67 6.67 8.37 7.62 3.41 0.77 3.29 8.81 8.74 9.56 6.30 7.08 5.42 6.21 4.90 6.98 6.45 7.21 8.02 8.23 9.14 9.60
29.41 26.46 25.56 25.13 23.84 22.61 22.79 22.60 20.68 20.12 19.56 14.47 14.36 9.88 12.57 12.54 13.04 12.13 8.93 8.59 9.78 9.35 5.56 1.70 1.67 2.40 4.04 1.33 0.60 0.48 0.41 6.59 3.02 6.49 3.50 1.46 2.20 3.14 1.73 4.19 5.00 6.48 7.12 7.48
27.31 26.08 24.43 23.11 23.33 22.75 21.25 20.04 17.82 13.40 11.07 6.43 7.52 7.07 16.61 12.14 6.89 9.06 4.43 2.76 2.21 2.39 0.25 -0.39 0.07 1.92 3.24 4.21 -1.03 1.04 -2.58 -1.94 -1.85 4.87 -3.19 -5.87 -0.42 -0.15 1.22 2.61 3.84 4.69 5.18 5.90

GFSNGP_sfc_wetblb_024.txt.gz
Wetbulb
39.05 41.60 41.47 39.90 39.98 40.72 38.59 37.37 32.13 35.95 36.58 40.49 41.52 42.08 42.26 43.68 44.12 47.13 48.04 48.32 47.53 47.14 48.61 49.23 48.71 48.19 46.22 45.05 44.70 43.80 42.24 41.53 41.24 42.00 41.33 39.56 38.64 38.31 38.67 38.85 38.52 38.05 37.74 37.63
35.05 39.54 39.64 37.22 39.68 39.24 39.71 39.64 38.76 38.16 37.54 41.78 42.06 42.14 42.22 43.03 44.55 43.61 44.53 46.09 48.42 48.03 47.92 47.91 48.14 47.62 48.00 45.47 44.05 43.73 42.09 41.66 42.31 41.59 40.15 39.91 38.87 37.63 37.69 38.42 39.34 38.65 37.82 37.12
31.03 34.45 34.43 29.49 35.43 38.34 39.58 40.12 39.99 34.42 38.16 41.27 40.89 42.15 41.79 42.55 44.06 43.96 44.67 45.90 47.74 47.65 48.18 48.21 47.80 48.28 47.52 45.97 44.04 42.67 42.78 43.45 41.46 40.77 39.70 38.94 37.48 36.76 37.01 37.22 37.15 37.06 36.38 36.48
27.82 28.06 22.02 37.52 41.86 41.41 39.03 38.88 40.19 40.34 39.98 42.12 42.55 42.73 43.24 43.11 43.12 43.68 44.61 45.37 46.06 47.50 47.85 47.29 46.94 47.60 45.22 43.74 42.68 42.61 41.82 40.04 39.69 38.93 37.56 37.72 37.26 37.46 37.42 37.48 36.52 34.68 35.15 36.07
26.42 26.37 32.57 37.09 39.57 38.60 36.82 35.93 40.69 39.70 40.95 42.35 43.42 43.32 43.06 45.35 44.96 43.73 42.18 40.77 39.63 39.29 41.67 43.32 44.75 43.10 42.60 41.09 39.17 37.41 36.81 37.83 38.08 37.52 37.34 36.95 37.37 36.74 37.17 36.17 35.39 34.85 35.32 34.60
27.92 24.39 21.14 33.82 40.91 43.17 41.42 31.04 42.17 41.75 41.14 41.37 40.35 32.64 39.52 44.56 43.15 39.32 38.70 38.29 37.88 37.94 38.04 37.41 37.74 38.73 37.42 36.83 36.64 35.90 36.92 36.78 37.41 38.04 37.94 37.11 37.40 37.04 36.22 35.64 34.41 34.35 34.10 33.87
22.00 21.84 28.73 39.01 43.34 42.39 30.03 31.33 42.74 42.83 42.46 41.73 39.98 40.64 43.37 40.19 38.40 38.31 37.53 36.90 37.59 36.83 35.89 36.04 37.69 38.31 36.56 36.19 35.44 37.12 38.16 38.72 39.05 38.74 38.23 38.22 36.52 36.00 34.76 33.22 31.96 30.60 31.11 31.07
30.50 24.84 25.68 43.54 41.23 35.28 37.48 41.72 42.93 42.57 42.58 42.55 43.42 43.84 41.04 39.00 37.67 36.89 35.29 36.15 36.71 35.94 35.83 37.16 37.74 37.70 36.41 36.19 38.37 39.20 39.34 39.02 38.81 38.45 37.48 36.80 34.13 33.07 32.29 30.62 28.93 28.92 26.42 28.34
33.29 32.23 40.98 42.49 42.50 44.68 43.78 42.62 42.37 43.61 44.36 45.25 43.59 40.11 37.81 36.51 35.26 34.74 35.13 35.17 36.33 35.90 35.37 37.64 38.33 37.86 36.30 37.12 38.52 38.61 38.07 36.03 34.88 34.79 34.38 33.76 31.99 31.18 29.53 28.70 25.35 27.35 27.02 24.27
36.72 40.39 41.25 42.13 44.44 44.95 45.34 44.89 44.18 44.47 44.81 43.40 38.33 37.27 36.15 35.83 35.15 35.07 35.48 35.19 35.30 35.79 34.90 34.55 36.00 35.96 35.29 35.29 34.58 33.91 32.74 32.59 32.54 31.70 31.80 31.76 31.37 30.26 29.14 26.07 25.41 27.72 27.56 26.66
37.23 40.79 43.59 44.13 44.44 43.87 41.79 41.07 40.23 39.94 39.53 38.45 37.54 36.31 35.89 35.22 35.10 34.70 34.44 34.66 34.35 33.56 34.12 34.33 33.71 33.67 34.20 34.15 33.50 31.71 31.36 31.25 31.04 28.32 29.49 29.86 30.01 29.79 29.57 29.32 29.04 28.37 27.85 26.94
32.93 42.02 41.03 40.98 42.31 42.69 41.02 39.81 39.50 38.40 37.48 37.84 37.15 35.55 35.54 34.56 34.84 33.84 32.77 32.77 32.33 32.60 32.55 33.00 33.16 32.92 33.41 33.81 32.74 31.27 30.70 29.52 28.39 27.56 27.40 28.93 29.48 29.89 32.16 32.58 32.63 32.34 32.31 30.32
42.94 43.85 41.45 40.00 40.29 40.75 38.87 38.54 38.27 37.30 37.03 35.47 35.84 35.47 35.13 33.31 32.76 33.93 33.20 32.77 32.59 33.03 33.07 32.18 31.72 31.12 32.12 32.24 31.93 30.94 29.61 29.67 28.85 28.38 27.93 27.88 27.93 28.04 28.03 30.44 32.52 33.41 32.93 32.77
42.55 42.00 39.39 39.92 36.49 38.38 37.91 37.60 37.76 36.58 36.47 36.01 36.09 35.48 34.04 33.54 33.48 33.01 32.58 33.14 32.65 32.48 31.71 31.05 30.69 30.93 31.95 33.33 32.70 30.87 29.69 29.45 28.52 28.85 28.61 29.17 28.53 28.71 30.21 31.18 30.92 30.31 31.19 31.20
40.18 41.27 39.61 38.31 37.41 36.48 37.04 36.46 35.25 35.56 35.52 34.70 35.25 34.66 33.52 32.28 31.68 31.62 31.85 31.53 31.46 30.89 30.45 31.16 30.10 29.96 32.84 33.20 32.09 30.61 30.49 29.86 29.12 26.77 30.13 30.93 31.06 31.18 31.17 31.20 31.56 31.08 30.57 27.21
38.74 38.24 37.70 36.07 35.64 35.58 35.77 36.13 34.63 32.53 32.05 31.44 30.88 31.25 32.25 32.29 31.22 30.83 30.26 29.74 29.33 29.05 29.99 27.38 26.39 28.20 30.21 29.32 28.04 27.97 27.82 26.58 26.03 27.36 27.07 27.20 28.81 29.39 30.04 31.18 31.71 31.74 30.70 28.63
35.42 33.66 34.58 34.01 34.49 34.78 35.53 34.89 33.24 31.10 29.83 28.93 29.25 29.95 29.51 28.76 27.98 27.29 27.37 29.27 29.68 28.56 27.32 25.51 24.59 27.07 26.47 25.38 22.99 22.58 22.29 23.10 22.49 23.98 24.23 24.67 25.07 25.32 26.18 26.02 26.90 28.02 29.74 31.47
39.60 38.15 37.05 36.16 34.24 32.75 31.52 31.01 30.06 29.62 29.66 30.62 29.00 25.07 23.25 22.69 23.94 24.42 24.59 25.36 27.01 24.47 24.12 24.75 23.32 22.70 22.18 22.21 22.21 21.97 21.55 21.66 22.98 23.18 23.27 22.52 23.08 24.86 25.45 26.22 26.59 26.63 27.88 30.89
38.91 37.26 36.15 35.03 33.82 31.43 29.85 29.32 29.55 29.80 29.22 28.41 24.19 23.30 22.68 21.48 23.57 23.43 23.64 20.50 18.29 19.73 21.89 22.43 21.67 19.46 19.68 20.16 20.20 20.81 18.71 17.72 18.76 18.52 19.15 18.48 19.07 20.53 20.43 20.54 22.36 22.93 24.57 25.31
34.62 34.57 33.79 32.72 32.12 30.37 29.15 29.03 29.37 28.79 27.48 24.05 21.86 21.75 22.43 19.72 16.28 17.72 20.58 19.16 19.61 20.40 23.24 20.37 19.00 17.94 18.02 18.43 15.85 17.19 14.86 15.76 13.20 14.06 13.30 13.39 14.65 14.46 15.98 17.10 17.52 17.13 17.42 17.88
31.49 31.01 30.49 30.11 29.70 30.16 28.25 26.72 25.98 25.17 25.48 21.24 20.87 18.10 16.77 19.11 16.58 14.95 18.85 20.18 20.05 19.90 21.14 18.16 17.04 16.11 16.67 13.85 15.23 8.73 10.27 10.92 8.34 9.61 8.25 9.62 10.91 9.91 11.75 11.93 12.58 13.08 13.14 14.00
30.41 29.29 28.94 28.99 28.16 27.09 26.60 26.54 26.07 23.96 22.03 18.91 15.53 12.73 16.88 20.73 17.71 18.56 14.00 18.21 19.92 11.36 16.43 18.06 16.72 7.55 11.66 8.24 13.02 5.81 8.83 10.51 7.07 6.22 5.89 7.80 7.38 6.52 8.64 8.04 7.67 8.91 10.48 11.15
30.09 29.37 28.34 27.05 26.83 26.83 25.92 24.10 22.66 21.36 18.33 16.88 15.44 15.98 19.44 20.48 19.37 13.76 13.28 19.39 18.65 11.80 16.45 10.12 6.50 3.84 3.24 -0.57 -0.89 -1.24 0.21 2.69 -1.12 0.54 -0.72 4.57 3.66 3.77 5.68 4.15 5.57 6.81 7.12 8.20
30.03 29.16 28.38 27.30 26.52 25.13 23.48 23.93 24.53 22.41 18.56 20.13 15.10 12.45 19.61 13.93 8.84 18.03 16.35 9.10 4.38 2.89 3.10 2.73 3.30 3.30 0.35 -4.68 -5.41 -5.22 -5.04 -1.05 -6.31 -3.24 -0.54 -2.54 -2.55 1.70 0.78 0.33 2.25 3.38 4.76 6.62
30.19 29.64 26.93 25.79 25.75 24.60 25.86 25.08 23.49 23.54 22.20 20.92 20.52 21.55 20.32 18.39 10.76 10.15 4.60 5.20 8.71 6.09 1.24 -1.42 1.30 0.21 -5.41 -8.31 -8.49 -8.49 -9.39 -7.04 -9.94 -4.68 -5.41 -11.03 -5.09 -2.15 -3.26 -1.87 -0.37 0.48 2.68 2.76
28.53 26.09 24.56 23.86 23.32 23.30 23.03 21.74 18.99 18.90 17.87 13.53 12.36 4.01 11.40 12.82 12.24 9.30 4.09 3.02 4.42 3.42 -0.75 -6.13 -7.58 -6.86 -7.58 -2.50 -7.76 -9.03 -9.03 -6.56 -8.70 -3.77 -8.85 -11.21 -8.70 -4.52 -4.49 -2.63 -1.15 0.03 0.90 1.76
24.97 23.92 22.87 21.63 22.17 21.87 20.31 18.99 16.37 13.44 10.26 6.20 6.62 5.31 10.76 6.63 1.21 3.70 -3.05 -4.14 -3.95 -5.22 -7.76 -6.49 -8.67 -5.95 -6.31 -7.40 -4.68 -4.50 -7.94 -10.12 -10.66 -5.41 -14.29 -16.65 -12.67 -8.46 -6.49 -3.67 -2.36 -1.55 -0.75 0.11

GFSNGP_sfc_wetblb_027.txt.gz
Wetbulb
36.71 37.74 39.85 39.19 39.14 38.76 36.96 36.04 31.82 35.39 34.76 39.61 39.67 40.64 40.95 41.20 42.43 45.38 47.46 47.15 46.83 46.58 47.76 48.79 48.65 47.76 47.13 45.20 45.30 44.34 42.84 41.77 41.38 43.44 42.71 41.96 40.31 38.56 37.25 37.00 37.00 36.75 37.15 37.86
34.32 37.81 37.57 36.08 38.62 38.35 37.94 37.77 37.03 36.74 35.91 39.62 39.91 39.40 40.28 41.37 42.63 42.71 44.67 46.64 46.79 46.63 47.35 47.38 47.97 47.09 45.30 45.50 44.49 43.01 41.95 41.80 43.24 43.47 41.68 39.43 38.74 38.06 37.18 37.86 38.40 37.68 37.54 36.77
30.09 32.67 32.83 29.06 34.26 37.00 38.06 38.97 38.67 33.69 38.35 39.49 39.08 40.52 39.47 40.44 42.20 42.91 44.23 45.76 46.41 45.71 46.24 46.74 46.69 47.18 45.82 45.16 44.08 42.29 41.66 42.85 42.63 40.57 38.68 37.74 37.55 37.55 37.45 37.11 37.54 37.31 36.66 36.16
27.19 28.16 21.62 36.65 39.90 39.60 37.64 37.05 37.85 38.12 38.95 39.99 39.95 40.17 41.07 41.46 41.30 41.48 41.87 41.52 40.59 40.06 44.23 45.61 45.58 45.77 43.88 42.02 40.93 40.40 39.17 38.82 38.95 38.26 37.70 38.08 37.89 37.43 37.42 38.05 37.42 36.42 35.34 35.11
27.22 26.81 31.73 36.05 37.55 37.50 36.02 34.80 38.73 38.42 39.89 40.99 41.63 41.21 41.41 42.84 40.39 38.69 37.88 37.37 36.76 36.59 36.93 37.99 39.99 40.71 38.65 36.94 37.06 37.01 36.43 37.38 38.32 37.99 37.27 37.61 37.19 37.35 38.02 37.56 35.91 34.95 34.30 33.35
26.24 24.62 22.92 34.17 38.65 41.47 40.12 30.30 40.45 39.96 39.94 40.58 38.69 31.33 38.13 40.77 38.79 36.84 36.41 35.99 35.79 35.87 36.74 36.83 36.69 37.27 36.06 35.46 35.33 34.94 35.73 36.97 38.36 38.69 38.28 37.68 37.74 37.71 37.69 36.05 34.38 33.44 32.17 31.82
22.83 22.89 28.33 36.59 41.16 40.75 30.17 32.04 41.01 41.17 40.70 39.65 38.26 38.52 39.89 37.70 35.85 35.62 35.83 35.85 36.43 36.08 35.41 35.69 36.56 36.80 35.33 35.47 35.75 37.73 39.19 40.18 40.68 40.39 39.63 38.69 37.96 37.35 36.08 33.51 31.37 28.93 29.10 29.28
25.16 21.86 25.33 40.62 40.18 34.40 36.87 39.58 41.74 41.34 41.78 41.17 40.43 38.14 37.01 36.40 34.80 35.35 34.75 35.28 35.88 35.18 35.06 35.46 36.41 36.78 35.90 36.97 39.47 40.56 40.44 39.97 39.87 39.26 38.49 38.07 35.82 33.04 31.69 30.31 28.26 28.09 25.91 27.97
32.95 31.96 39.19 40.78 39.24 41.37 42.33 41.75 41.07 41.55 42.78 43.50 38.34 36.59 36.07 34.14 34.56 34.60 34.37 34.02 34.47 34.17 33.79 35.08 36.36 37.20 35.95 36.78 39.08 38.64 37.57 36.26 35.04 34.16 33.57 32.90 31.20 30.37 29.30 28.37 25.66 26.86 27.26 26.89
34.87 38.67 40.01 40.50 42.52 43.09 42.07 42.35 43.38 43.61 43.54 41.01 36.29 35.80 34.22 34.35 34.44 34.30 33.56 33.14 33.62 33.56 33.05 32.94 34.98 34.83 34.90 34.76 33.51 32.90 31.94 31.49 31.43 30.98 30.94 30.52 30.51 30.37 28.96 26.37 25.81 27.56 27.53 27.80
35.71 39.47 41.40 42.10 41.58 40.16 39.70 39.79 38.69 38.44 38.32 37.22 36.07 34.85 34.85 34.19 34.17 33.80 33.11 33.30 33.09 32.36 31.74 31.48 32.24 32.25 32.54 32.54 32.19 30.87 30.81 30.84 30.57 28.43 28.89 29.13 29.44 29.39 29.28 29.43 29.62 29.33 28.76 28.73
32.98 41.39 40.06 41.01 40.53 40.78 39.33 38.00 38.04 37.18 35.85 36.54 36.29 34.75 34.58 33.52 33.57 32.79 32.43 32.16 31.33 31.14 31.21 30.95 30.60 30.89 31.74 32.27 31.07 29.96 29.83 29.10 28.19 27.81 27.52 28.61 28.69 29.39 32.17 32.42 32.44 32.84 32.56 31.05
40.75 41.43 40.28 39.49 38.89 39.39 37.82 37.60 37.44 36.62 36.09 34.73 35.18 34.74 34.16 33.07 33.54 33.57 31.99 31.31 30.69 29.96 30.21 30.32 30.42 30.14 30.84 31.11 30.66 30.04 28.66 29.31 28.99 28.45 28.40 28.01 28.48 28.14 27.33 30.79 32.84 32.73 32.87 33.34
40.35 40.12 37.25 37.71 35.98 37.57 37.00 36.69 36.82 35.44 35.27 35.09 34.61 35.36 34.33 32.89 32.03 31.73 30.16 30.69 30.95 30.64 30.23 29.39 28.12 28.12 30.01 30.09 28.88 28.55 28.32 27.95 26.47 26.41 26.59 27.11 26.69 27.66 29.03 28.05 27.75 29.54 32.34 32.52
38.36 39.69 38.79 37.23 36.48 35.41 35.70 35.23 34.05 33.67 34.32 34.86 35.68 34.46 32.78 31.36 30.06 29.23 29.94 30.58 30.82 29.80 26.53 25.74 25.46 26.07 27.67 26.10 25.47 25.63 24.78 24.22 23.94 23.41 23.11 23.09 23.78 24.03 24.59 24.85 25.58 26.83 27.77 28.46
37.16 36.84 36.53 35.07 34.17 34.08 34.33 33.82 32.74 32.13 32.32 32.25 32.01 31.92 31.33 30.40 29.45 28.91 30.42 30.48 28.15 24.60 23.46 19.30 24.06 23.57 24.49 23.24 22.69 22.44 21.91 21.40 20.29 22.14 22.56 22.69 22.96 22.81 23.61 23.26 23.93 24.35 24.83 24.96
34.41 33.07 33.55 33.13 33.18 33.63 33.54 33.85 32.57 30.93 30.75 30.24 29.70 29.22 28.64 27.12 27.22 27.86 29.07 27.44 23.63 22.37 23.72 21.84 20.64 21.70 22.42 21.83 21.37 21.03 20.11 19.95 18.77 20.18 19.48 19.44 18.97 18.64 20.23 20.09 19.88 20.23 19.80 20.72
38.82 37.67 36.92 35.82 34.22 31.78 31.01 31.01 30.16 29.86 29.22 28.76 25.14 23.29 21.98 22.24 23.45 24.33 26.24 24.40 20.67 21.13 21.91 20.91 19.96 20.05 20.44 20.52 20.25 18.88 17.51 17.51 16.04 15.30 16.77 14.18 15.15 16.48 15.84 16.22 16.66 16.19 15.99 16.96
37.62 36.25 35.00 33.50 32.64 30.79 29.75 29.46 29.50 29.35 27.26 26.02 23.71 22.32 21.89 21.72 23.45 22.42 20.50 17.16 15.56 18.54 20.60 19.90 19.93 18.09 17.76 18.42 17.27 15.80 13.94 11.79 10.81 13.17 11.32 9.94 11.48 10.85 10.44 12.20 11.34 12.00 12.13 13.03
34.64 33.92 32.68 31.18 30.98 30.04 29.07 29.06 28.80 28.13 26.66 24.07 22.63 22.47 22.03 18.90 19.52 17.10 17.52 17.58 18.82 20.61 20.70 18.40 17.42 16.70 15.85 15.58 11.80 13.77 10.01 5.68 9.02 8.03 6.79 6.83 6.66 5.00 6.59 8.77 6.93 6.93 7.88 9.28
32.12 31.31 30.27 29.57 28.76 28.90 29.03 27.45 25.94 24.64 25.13 22.26 21.80 18.98 18.55 18.51 17.74 14.80 17.24 18.13 19.18 19.62 19.41 16.47 15.66 15.20 14.88 11.23 13.10 2.01 3.58 0.21 -1.13 2.16 -2.51 1.74 2.81 1.90 2.69 4.94 2.71 3.88 5.27 5.95
30.81 29.88 29.04 28.66 27.03 26.19 25.97 25.76 24.12 23.04 21.44 18.28 16.11 16.54 17.14 18.32 16.31 16.56 13.09 17.49 19.08 11.11 15.76 15.30 14.55 5.55 9.04 5.45 9.23 -1.79 3.25 1.18 0.06 -1.06 -2.87 -2.87 -2.11 -2.54 -0.03 -0.74 -1.04 1.60 2.59 2.95
29.85 29.55 28.68 27.35 26.38 25.77 25.40 23.62 21.64 20.39 17.91 16.43 16.64 17.87 19.14 19.54 18.52 14.75 14.62 18.20 17.16 9.73 14.26 6.85 3.42 1.44 -0.53 -5.77 -6.14 -8.49 -7.41 -6.50 -9.40 -7.95 -9.04 -13.57 -13.03 -8.49 -2.93 -3.45 -3.30 -1.84 -1.04 0.34
28.89 28.31 27.42 26.19 25.06 24.61 23.49 23.62 22.79 20.62 17.61 19.48 15.82 15.03 18.97 14.03 11.97 17.10 14.81 7.28 3.10 0.21 0.73 -2.33 -1.06 0.21 -4.69 -9.76 -10.31 -12.12 -11.21 -12.12 -14.66 -14.11 -9.04 -11.76 -16.65 -12.31 -10.69 -7.85 -5.87 -3.69 -2.85 -1.15
28.22 26.93 26.06 25.12 25.07 24.13 24.23 24.13 22.57 22.33 21.40 21.42 20.86 20.27 18.97 17.11 10.34 10.08 4.08 3.77 7.09 3.76 -1.24 -5.77 -2.15 -4.32 -11.03 -12.85 -13.39 -14.11 -14.30 -14.66 -16.65 -14.66 -16.11 -18.65 -15.38 -13.06 -12.52 -11.79 -8.18 -5.38 -3.88 -3.26
26.95 24.49 23.95 24.11 23.55 23.09 22.28 22.25 20.47 19.31 17.61 14.51 14.65 9.36 9.04 11.32 10.71 9.28 3.01 1.43 2.80 0.87 -3.06 -10.13 -11.39 -12.12 -12.48 -9.58 -10.49 -11.03 -12.48 -11.26 -15.20 -13.93 -17.20 -19.01 -17.56 -14.51 -13.62 -10.65 -9.35 -7.04 -6.20 -4.63
22.48 22.43 21.72 20.84 21.00 20.46 19.92 19.66 18.70 17.50 15.05 13.99 14.40 12.21 11.33 8.26 4.39 5.06 -3.06 -4.14 -5.77 -8.68 -10.13 -11.58 -13.03 -10.13 -10.49 -13.57 -12.66 -8.31 -8.86 -13.75 -16.11 -13.21 -20.28 -22.45 -19.02 -19.55 -16.50 -14.01 -11.54 -9.23 -7.86 -6.61

GFSNGP_sfc_wetblb_030.txt.gz
Wetbulb
35.44 37.07 37.82 37.55 37.80 36.63 35.50 34.78 31.49 34.28 33.16 38.29 39.58 39.76 40.50 40.19 40.05 41.95 45.21 46.91 47.18 47.31 47.24 47.85 48.37 48.04 47.12 44.63 44.18 44.16 43.48 41.89 40.09 39.82 40.46 40.64 41.39 39.72 39.10 38.78 38.52 38.21 37.93 37.90
33.47 36.36 36.68 35.14 37.02 36.56 36.25 35.77 35.02 35.21 34.77 39.82 38.76 38.19 39.23 39.03 41.68 42.49 44.41 45.47 45.66 45.43 46.06 47.44 48.11 47.37 47.02 44.96 43.99 43.80 42.62 40.92 42.51 42.21 41.75 39.79 39.27 39.16 38.68 38.24 38.03 37.81 37.18 37.27
30.39 32.22 33.04 29.40 33.69 36.31 35.93 36.99 37.29 32.81 37.52 38.68 37.14 38.64 37.82 38.78 41.58 41.55 40.91 40.97 41.81 43.42 44.73 45.17 45.90 46.80 44.90 44.19 43.58 42.11 40.74 41.61 41.93 41.99 40.30 38.54 38.63 37.97 37.45 37.12 37.59 37.69 38.09 37.74
26.88 27.95 21.78 35.86 38.34 38.09 37.09 37.15 37.17 36.89 37.01 38.15 38.88 38.57 39.44 39.96 39.50 39.19 38.58 37.87 36.88 37.10 38.72 39.81 43.30 42.80 41.43 40.82 39.79 39.31 39.23 39.51 40.27 38.89 38.18 38.98 38.16 37.61 37.84 38.35 38.43 38.23 37.40 36.52
27.49 26.64 30.80 34.58 36.70 36.31 35.54 35.21 38.16 36.62 38.03 39.00 39.80 39.81 39.10 37.97 37.14 36.13 35.75 35.10 34.40 35.48 36.05 35.94 36.07 36.47 36.37 35.76 36.18 36.53 36.28 37.03 37.92 38.98 38.57 38.63 37.77 38.12 38.48 38.27 37.69 36.77 36.36 35.40
25.08 24.12 23.31 33.78 38.97 39.62 39.05 30.28 38.62 39.57 38.84 39.13 38.65 29.58 36.26 36.93 36.24 34.89 34.71 34.76 34.95 35.60 35.50 35.21 34.92 35.75 34.92 34.34 34.74 34.76 36.26 37.49 38.89 39.37 38.68 38.26 38.48 38.15 38.41 37.49 36.08 35.58 33.20 32.27
21.47 22.84 29.50 36.98 39.05 39.54 30.27 32.58 39.31 40.56 39.80 38.73 36.72 36.33 36.82 35.20 34.34 34.81 34.91 34.87 35.40 34.91 34.01 33.95 34.94 35.77 35.37 36.32 36.47 37.92 38.77 39.11 40.14 40.67 39.88 39.02 38.26 38.00 37.48 36.43 33.36 30.24 29.47 29.20
25.32 21.99 26.99 38.91 38.48 34.39 37.20 37.59 39.48 39.83 40.35 39.19 37.67 35.89 34.88 34.58 34.19 34.11 33.62 34.34 34.95 34.43 34.20 35.09 35.62 37.00 36.10 36.40 37.84 38.73 39.75 40.23 39.76 39.38 38.90 38.35 35.98 33.89 31.54 30.34 29.24 28.50 26.28 28.44
33.61 32.87 38.80 39.37 38.27 40.55 40.26 40.07 40.29 40.69 41.08 40.59 36.49 35.09 34.27 33.67 33.31 33.26 32.73 32.47 33.12 33.68 33.96 34.96 35.47 35.89 35.09 36.13 36.80 35.25 33.99 32.76 32.28 32.66 32.20 31.68 30.70 30.17 29.47 28.40 25.51 26.96 27.52 27.64
34.75 37.66 38.12 40.11 40.62 40.44 40.45 40.03 41.14 41.65 41.93 39.48 35.64 34.51 33.31 33.29 33.11 32.57 31.89 31.67 32.32 32.54 31.71 31.31 32.59 32.75 32.23 32.19 31.41 31.01 30.19 29.88 29.92 29.69 29.93 29.54 29.36 29.44 28.19 26.06 26.01 28.12 28.03 28.12
34.36 38.17 39.59 41.22 41.25 40.28 39.06 39.66 39.00 38.02 37.54 36.15 34.86 33.48 33.67 33.09 32.79 32.46 31.82 32.08 31.94 31.51 31.15 30.05 31.14 31.06 31.26 30.69 30.39 29.96 30.03 29.78 29.16 27.85 27.92 28.22 28.62 28.35 28.40 28.61 29.03 28.83 28.92 28.51
34.75 40.14 40.07 39.53 40.29 39.79 38.82 37.29 37.43 36.28 34.85 35.28 35.26 33.96 33.89 32.68 32.76 31.98 31.31 31.75 31.97 30.97 30.44 30.11 30.23 29.84 30.09 29.85 29.35 28.62 28.48 27.98 26.72 26.24 25.36 27.26 27.55 27.07 30.48 31.62 32.04 32.59 32.74 31.48
41.32 41.50 38.43 37.87 37.87 38.19 36.82 36.24 36.46 35.62 35.48 33.74 34.27 34.17 33.47 31.89 31.56 32.69 32.22 31.04 30.35 30.34 30.01 28.61 27.65 27.27 27.52 27.80 28.15 27.37 26.12 26.32 25.06 25.00 24.85 24.35 23.82 23.62 22.16 25.60 29.01 29.52 30.48 30.87
39.70 40.12 37.13 37.56 36.18 36.62 36.23 35.56 35.92 34.67 34.43 34.15 33.61 33.76 32.97 32.43 32.21 31.35 30.58 30.88 30.76 29.06 26.63 26.06 25.95 25.19 24.70 24.54 25.13 23.99 23.59 23.25 21.85 21.76 20.98 21.37 19.74 21.71 22.12 21.90 21.08 22.00 26.29 27.22
37.89 38.67 38.69 36.34 35.77 34.58 34.80 34.52 33.16 32.54 32.99 32.94 33.52 33.04 32.61 30.82 29.99 30.18 30.61 29.81 26.31 25.12 24.85 24.63 22.72 22.15 23.18 23.55 22.89 22.05 21.93 20.75 20.09 17.89 18.24 18.95 19.60 19.45 19.88 19.93 18.96 19.27 20.90 20.57
36.32 36.32 36.14 34.51 33.45 33.54 33.71 33.43 32.36 31.99 32.71 32.36 31.99 31.65 30.95 30.05 29.63 29.80 29.81 28.73 24.60 22.45 21.91 17.72 20.09 21.34 22.33 22.10 21.53 20.35 20.19 19.27 17.85 18.40 17.70 17.12 16.50 16.41 17.22 16.95 17.24 16.90 16.92 16.07
33.42 32.34 32.51 32.12 32.59 32.67 32.85 33.10 32.67 31.80 31.69 31.56 30.60 29.82 28.77 28.81 28.52 26.99 24.42 23.69 22.20 21.25 20.44 19.33 19.03 21.11 21.50 20.92 19.87 17.63 17.82 16.96 13.82 15.44 14.92 13.86 13.12 13.63 12.88 12.91 12.69 12.51 12.39 12.42
38.94 37.19 36.15 34.79 33.58 31.92 31.20 31.05 31.11 31.35 30.57 30.15 27.48 26.57 26.84 26.97 26.24 24.24 22.17 21.83 20.97 19.69 19.74 19.07 19.00 19.59 19.30 18.63 17.70 15.82 14.87 12.71 13.01 12.33 11.47 9.99 10.34 10.60 8.79 9.60 9.28 7.65 7.74 9.30
36.56 35.25 34.65 34.01 32.95 31.79 30.20 29.67 29.61 28.59 27.20 26.40 25.67 24.73 24.60 24.44 24.35 22.08 19.89 17.85 17.16 18.73 18.29 18.41 19.42 16.96 16.53 16.95 14.99 13.17 11.59 5.76 7.82 9.79 6.82 4.80 4.91 5.12 3.78 5.35 5.29 3.29 4.23 5.64
32.95 33.29 32.39 31.33 31.25 30.26 28.69 28.80 28.58 27.09 26.44 25.41 24.26 23.56 22.63 20.91 19.35 17.38 17.76 17.63 19.69 20.06 19.21 17.43 16.47 15.67 14.57 14.38 12.00 11.85 7.66 0.69 6.01 3.48 -0.03 1.34 -5.70 -6.98 -5.73 0.49 0.70 -0.03 0.30 2.04
30.88 30.37 29.56 29.26 28.57 28.94 29.05 28.90 26.98 25.47 25.52 25.01 24.02 22.25 21.49 19.18 17.30 15.76 16.50 16.73 18.62 19.59 18.00 15.78 15.27 14.53 13.59 10.78 11.46 -2.09 -0.85 -5.16 -5.92 -4.43 -10.96 -11.87 -12.59 -8.45 -8.46 -8.06 -7.24 -4.81 -2.69 -0.99
30.34 29.04 28.22 27.99 26.82 25.90 25.96 25.88 25.36 24.21 22.27 20.19 19.18 19.09 18.29 17.80 15.17 15.62 12.53 17.13 18.28 13.48 14.95 14.25 13.68 5.77 8.08 6.35 6.99 -4.80 -0.31 -2.35 -4.46 -7.15 -10.05 -12.77 -15.49 -15.31 -12.44 -11.32 -9.90 -7.00 -4.81 -4.32
30.01 29.18 27.86 27.03 26.19 24.57 23.79 23.12 22.33 21.23 19.63 18.64 17.69 18.10 18.61 18.79 17.94 14.74 14.14 17.26 16.42 10.98 13.63 8.21 3.81 1.39 -1.38 -7.33 -8.60 -11.32 -9.87 -10.60 -12.77 -13.32 -14.77 -19.48 -19.84 -20.75 -15.86 -11.74 -9.66 -9.64 -8.21 -6.26
28.57 27.74 26.30 25.96 25.00 23.52 21.54 21.93 21.79 20.19 19.16 19.84 16.63 16.41 17.98 13.85 11.48 16.20 14.60 7.79 4.61 2.45 2.01 -2.08 -0.81 0.10 -5.52 -11.50 -12.77 -14.59 -14.59 -16.22 -17.85 -19.66 -14.04 -16.40 -22.74 -22.56 -17.68 -16.78 -13.76 -10.64 -9.51 -8.04
27.02 26.44 25.84 25.10 24.36 23.66 22.63 22.08 21.98 21.95 21.35 21.03 20.51 19.89 18.92 17.43 13.73 12.69 10.26 9.56 9.48 5.78 0.44 -4.80 -2.48 -6.07 -13.50 -15.31 -15.86 -15.67 -15.49 -17.67 -19.30 -20.93 -19.66 -22.56 -21.29 -20.75 -18.95 -17.70 -16.64 -14.30 -10.96 -9.56
24.66 23.54 23.34 23.25 22.80 22.97 23.07 22.12 19.51 19.28 18.77 16.94 16.57 15.65 14.07 14.41 12.99 12.12 8.80 6.10 5.26 1.45 -2.08 -9.33 -11.14 -14.22 -15.31 -13.50 -15.13 -16.22 -11.69 -10.06 -16.76 -18.39 -19.66 -21.84 -23.83 -18.81 -19.87 -17.39 -17.73 -15.27 -13.48 -11.55
21.69 21.81 20.71 19.43 19.48 19.58 19.92 20.11 18.80 16.71 16.17 16.43 15.81 13.82 12.78 10.78 9.03 8.73 3.93 2.54 -1.53 -7.88 -11.14 -10.78 -13.32 -11.69 -13.50 -16.58 -16.22 -14.41 -12.41 -13.14 -17.49 -14.95 -22.20 -25.65 -25.83 -24.20 -22.22 -20.79 -18.83 -17.05 -14.76 -13.16

GFSNGP_sfc_wetblb_033.txt.gz
Wetbulb
38.84 39.36 40.41 40.54 40.43 39.58 39.19 40.06 38.11 40.19 37.67 42.80 45.39 46.01 46.23 45.04 45.24 46.28 48.07 50.25 51.31 52.44 53.32 53.18 53.08 52.95 52.75 51.84 49.36 49.27 47.96 47.91 48.06 46.78 46.27 45.71 44.27 42.88 42.19 42.47 41.54 40.83 41.88 40.73
37.00 39.05 39.01 38.34 40.31 40.37 39.93 39.14 39.24 39.26 39.08 45.02 45.31 44.65 44.23 43.79 46.02 46.58 46.53 47.95 48.76 49.86 50.70 51.20 52.04 52.50 51.00 50.02 48.22 48.44 48.19 47.25 45.79 45.59 44.86 43.59 42.82 41.27 40.69 39.84 39.57 41.47 41.03 40.52
34.00 35.87 37.97 33.85 37.69 39.59 40.39 41.02 41.79 38.10 44.04 44.05 43.17 43.23 43.16 44.70 45.04 43.64 42.99 43.65 44.70 45.87 46.62 47.99 49.34 50.20 50.01 49.02 48.19 47.12 46.20 45.68 45.18 44.59 42.50 41.78 40.94 39.74 38.54 38.74 40.15 40.50 40.84 41.28
32.78 32.72 29.63 40.97 41.96 42.37 41.74 41.78 42.04 41.52 42.52 43.21 43.35 42.47 42.91 44.51 44.07 41.56 40.96 40.76 41.10 42.48 43.11 43.94 45.32 44.92 45.04 45.35 44.69 44.55 44.16 43.67 43.49 42.59 40.41 39.35 39.18 39.14 39.75 41.35 40.74 40.86 41.55 41.23
33.03 32.71 35.66 38.26 40.07 40.45 39.91 41.50 42.97 42.27 42.10 42.40 42.64 43.39 40.61 39.62 40.78 39.89 39.15 39.48 39.64 40.30 40.59 41.08 41.23 41.73 41.76 41.25 41.34 41.12 40.46 40.64 41.00 41.16 40.57 40.34 39.54 39.45 39.75 40.06 40.90 40.99 39.96 38.27
30.51 31.17 29.77 39.47 42.57 42.99 43.54 36.51 43.37 42.91 42.23 42.15 42.55 41.31 42.72 39.44 39.02 38.06 38.78 39.52 39.11 39.31 39.66 39.63 39.37 40.67 40.04 39.65 39.82 39.24 40.19 40.76 41.63 41.91 41.70 41.20 41.66 41.61 40.76 40.64 39.97 37.89 36.77 37.86
29.82 33.76 35.85 41.21 42.11 43.52 36.00 40.03 43.53 43.91 44.09 43.89 41.82 43.39 42.33 38.94 37.67 38.45 38.50 37.87 38.56 38.97 38.05 38.81 40.42 40.99 39.73 40.09 39.60 41.01 41.80 42.16 42.31 42.47 41.55 41.28 40.39 39.66 38.85 38.19 37.95 38.26 36.48 37.00
31.74 32.84 32.64 42.19 40.39 39.39 44.75 43.24 44.08 44.62 45.17 44.12 40.40 38.17 38.32 37.82 36.93 37.26 37.16 37.64 38.52 38.01 38.11 39.44 40.91 40.39 39.06 38.73 41.27 41.69 40.35 38.55 37.90 37.40 37.37 37.63 37.93 37.53 36.83 36.43 35.54 35.36 34.93 35.39
39.23 39.82 45.20 42.98 45.51 45.06 44.10 44.62 43.75 45.09 44.64 42.45 38.87 37.71 37.31 36.35 36.35 36.61 37.05 37.15 38.42 37.95 37.75 38.56 39.07 39.10 36.07 35.74 36.60 36.52 35.97 35.09 35.10 35.31 35.38 35.47 35.69 35.41 35.28 35.28 34.31 33.98 33.58 33.81
40.23 42.58 42.21 43.31 44.18 45.33 44.77 45.43 44.80 46.09 45.44 42.78 39.72 37.58 36.29 35.88 35.42 35.50 36.46 36.61 36.82 35.71 34.27 33.68 34.60 34.50 34.91 35.06 35.55 35.01 34.14 33.65 33.62 33.45 33.29 33.62 33.75 33.75 33.06 32.68 31.80 31.30 31.26 31.14
39.01 40.81 43.05 44.45 44.68 45.77 43.67 44.10 43.50 43.36 43.18 41.10 38.42 36.76 36.30 35.33 35.19 35.38 35.20 34.75 35.02 33.81 33.17 32.49 32.81 32.18 33.06 33.76 34.13 32.40 31.89 30.92 30.50 30.28 29.88 29.81 30.14 29.92 29.54 30.78 30.46 29.60 30.01 30.01
38.41 44.07 44.41 44.64 46.20 43.57 42.70 42.47 42.17 40.07 38.20 38.89 38.51 36.48 36.38 35.11 35.33 34.66 33.57 33.87 33.19 32.79 31.46 30.53 29.47 28.80 29.99 31.10 31.00 30.13 28.63 28.27 27.33 27.95 27.91 27.77 27.36 27.36 28.14 27.57 28.01 28.02 28.25 28.67
43.94 43.94 41.38 40.11 40.77 41.78 40.59 40.56 40.03 39.35 38.38 36.77 36.91 36.64 35.65 34.39 34.39 33.49 33.48 33.18 32.42 30.33 29.11 27.95 27.29 26.44 27.47 28.19 28.21 26.83 25.97 25.71 25.96 25.64 25.45 24.85 24.72 24.22 23.29 26.07 25.92 25.63 25.64 26.12
41.67 42.55 40.49 39.89 40.15 39.55 38.92 38.12 37.74 36.93 36.97 36.85 35.91 35.79 35.05 33.78 33.02 32.71 32.09 31.10 29.36 28.30 28.26 27.46 25.51 24.01 25.74 26.62 25.81 25.12 24.58 22.78 24.12 24.25 23.77 23.44 22.88 22.51 22.53 21.93 20.91 22.26 23.37 22.71
39.17 39.51 40.98 38.59 37.40 36.29 36.36 36.07 34.87 34.05 34.28 34.43 35.41 34.49 33.90 32.62 31.61 30.74 30.08 28.42 27.84 27.59 26.34 25.53 24.14 23.20 25.17 25.53 24.15 23.36 23.07 22.25 22.35 22.39 21.77 20.31 20.65 20.62 20.57 19.52 19.52 19.11 19.90 19.66
36.96 37.50 37.53 36.56 35.45 35.07 35.32 35.29 33.84 33.56 34.05 33.80 33.38 33.23 32.71 32.01 30.72 27.99 26.79 27.68 26.69 24.14 23.52 20.54 21.70 23.13 24.06 24.10 22.40 22.08 21.42 18.95 18.88 19.86 19.08 18.07 18.00 17.60 17.01 16.57 16.91 16.30 15.64 15.06
35.33 33.85 34.07 33.92 34.10 34.19 34.80 35.46 34.89 34.09 33.55 32.73 31.23 31.31 31.12 29.64 27.84 26.68 25.97 24.33 22.35 21.46 21.08 20.99 20.98 22.83 22.28 22.08 20.83 20.03 19.94 18.04 15.87 17.20 16.66 15.45 15.33 14.81 13.85 13.39 14.18 13.46 12.80 13.03
40.59 38.28 37.40 36.28 34.89 33.48 33.35 33.81 33.65 33.15 31.63 30.45 30.07 29.40 28.49 28.01 25.72 24.55 23.60 22.11 20.98 19.95 19.93 19.83 20.57 20.66 20.01 19.51 18.53 17.73 16.03 15.47 16.05 14.28 14.14 12.52 11.54 11.73 11.20 10.42 11.72 10.26 10.10 10.91
37.61 36.02 35.40 34.30 33.74 32.65 32.20 31.67 30.66 29.38 28.84 29.03 28.78 27.99 28.06 26.43 24.48 23.49 22.63 21.17 19.73 18.97 18.45 19.71 19.30 18.12 17.65 17.50 16.68 15.66 13.80 13.02 13.39 12.43 11.02 8.83 9.29 8.51 7.99 8.43 8.84 8.03 7.58 7.80
32.43 32.40 32.14 31.34 31.56 30.41 28.60 28.85 28.96 28.56 29.07 27.65 26.54 25.59 24.19 23.03 22.08 21.02 21.94 21.10 21.71 20.79 19.91 18.57 17.72 16.39 15.79 15.23 13.97 14.51 12.85 11.26 10.37 9.88 8.36 7.40 6.55 5.61 5.81 4.39 5.12 5.57 5.61 5.93
30.40 30.25 29.66 29.31 28.94 29.37 29.33 29.33 28.34 26.89 26.82 27.01 25.67 23.79 22.58 20.81 20.11 19.96 19.58 18.81 19.41 19.79 18.56 17.35 16.79 15.90 15.22 14.35 14.08 12.72 11.21 9.36 8.29 7.67 6.03 4.94 4.20 4.27 3.78 3.30 3.67 3.73 3.79 4.27
29.46 28.52 28.06 27.81 26.86 26.50 27.33 27.47 26.61 25.39 24.00 22.79 22.39 21.15 20.00 19.07 18.80 18.41 19.26 19.69 20.15 18.34 17.88 17.00 15.79 10.61 12.66 11.65 12.57 11.39 10.33 8.55 7.74 6.66 6.17 4.87 3.86 2.28 1.86 1.62 1.15 1.71 2.06 2.24
29.06 28.78 27.70 26.31 24.98 24.27 24.50 24.02 23.38 22.73 21.64 21.34 21.27 21.29 21.06 20.36 20.07 18.69 17.01 18.31 18.56 15.92 16.50 15.06 10.46 7.99 6.67 11.49 10.70 9.28 8.57 6.53 5.69 4.79 4.67 3.37 2.25 0.94 0.15 -0.37 -1.20 -0.57 -0.32 0.33
27.54 26.58 25.36 25.58 25.25 23.75 21.85 22.01 22.30 21.62 21.03 20.74 19.86 20.72 20.34 18.34 18.13 19.02 18.67 15.89 14.61 14.75 13.98 12.31 10.94 7.45 5.86 9.32 8.48 7.80 6.59 6.40 5.30 4.17 3.73 -3.75 1.59 -0.25 -0.46 -2.20 -3.11 -2.10 -2.35 -2.29
26.97 26.62 26.22 25.04 23.25 22.23 22.22 22.39 22.24 22.03 21.93 21.51 20.88 20.62 20.14 19.75 20.28 17.46 16.85 15.44 14.00 13.48 13.27 5.29 5.96 3.82 7.73 7.41 6.96 5.84 5.67 5.38 4.88 2.97 2.56 1.38 0.03 -1.60 -1.56 -2.54 -4.36 -4.21 -4.56 -3.85
22.97 22.17 21.60 21.99 22.70 23.32 23.18 22.69 20.73 20.91 20.48 19.12 18.59 18.27 17.56 17.57 16.37 15.61 14.46 13.19 12.72 10.14 11.49 9.07 7.77 6.58 6.35 5.98 5.63 4.30 4.17 4.97 4.02 2.75 0.14 0.00 -1.02 -2.38 -3.46 -4.93 -5.92 -5.76 -5.54 -5.20
18.78 19.24 18.64 17.68 18.47 18.71 18.97 19.38 19.14 17.88 18.65 18.96 17.76 17.20 15.75 14.88 13.66 12.93 10.71 11.17 10.43 8.84 7.99 7.80 6.73 4.94 6.02 5.00 4.03 4.33 3.87 3.99 0.75 1.71 0.90 -1.34 -2.85 -3.48 -5.66 -6.92 -7.13 -7.49 -7.47 -7.12

GFSNGP_sfc_wetblb_036.txt.gz
Wetbulb
44.11 44.63 44.46 43.88 43.67 44.68 43.34 44.25 41.54 43.74 44.24 47.03 48.89 50.49 51.24 51.25 50.47 51.01 51.23 53.07 55.61 57.87 59.20 59.36 59.39 59.61 59.79 58.78 57.83 57.55 56.52 56.28 55.95 55.69 55.49 54.98 54.00 52.82 51.52 49.42 46.25 43.04 41.68 42.29
41.88 44.43 43.90 42.25 44.21 44.77 45.26 45.24 45.30 45.63 45.00 49.97 51.32 51.78 50.96 50.06 50.09 51.13 52.15 53.51 54.91 56.06 57.15 57.08 57.27 57.55 56.78 55.78 55.27 55.31 54.50 53.74 52.58 51.78 51.28 50.31 48.26 46.08 43.75 42.44 41.21 40.96 40.77 42.34
38.20 42.54 41.84 37.71 42.95 44.46 45.46 46.82 46.55 43.03 47.27 50.18 49.58 49.87 50.66 50.09 50.87 50.74 51.08 51.57 51.96 52.64 53.43 54.13 54.55 55.49 54.65 53.94 53.80 53.07 51.98 50.99 50.25 49.55 48.00 47.06 44.35 42.17 40.34 39.74 41.32 41.25 41.75 42.20
39.42 37.64 32.66 44.03 48.20 48.30 46.37 47.36 48.74 48.27 49.00 49.85 50.10 50.37 49.68 51.54 50.93 49.13 48.96 49.16 49.98 50.82 51.22 51.78 52.26 52.01 52.07 51.89 51.28 50.36 49.46 48.57 48.41 47.44 46.07 45.26 43.80 41.61 41.20 42.08 41.51 41.64 41.96 43.14
38.25 37.05 41.72 42.47 44.31 45.24 44.99 45.51 49.75 48.65 49.82 49.98 48.86 48.39 46.43 47.97 49.93 48.53 48.20 48.09 48.52 49.35 49.46 49.72 49.53 49.76 49.16 48.49 48.14 47.19 46.32 46.05 46.09 45.95 44.79 44.30 43.67 43.22 43.50 44.71 44.45 43.97 42.59 42.55
37.25 35.88 34.26 44.08 48.54 50.13 49.09 42.03 50.30 50.29 49.73 48.86 47.81 44.57 48.49 46.36 46.03 45.95 47.03 47.39 47.15 47.45 47.73 47.66 47.68 48.31 47.41 46.49 46.06 44.89 44.99 45.12 45.84 45.90 45.44 44.71 44.50 44.05 44.76 45.48 42.59 40.93 39.11 38.59
39.49 39.13 42.42 47.71 48.10 49.25 40.27 44.22 51.01 51.28 50.84 49.70 47.42 50.10 49.13 46.67 45.53 46.26 45.93 45.49 46.46 46.77 45.99 46.41 47.26 47.35 45.66 45.06 44.02 44.98 45.45 45.60 45.28 45.11 44.22 43.97 42.83 42.51 41.93 42.16 41.59 41.44 40.11 40.82
40.94 38.47 36.51 48.55 46.17 44.63 50.55 51.54 51.67 51.46 51.90 50.76 49.45 47.46 45.78 45.48 44.33 44.18 43.98 44.28 45.32 44.94 44.82 45.88 46.53 46.01 44.53 43.42 44.61 44.20 42.38 39.68 38.19 39.11 39.41 40.72 40.49 40.59 40.24 40.24 39.16 38.62 39.24 38.76
43.69 44.35 51.21 49.53 51.28 52.15 53.01 52.38 50.74 51.67 51.72 51.73 46.61 45.70 45.19 44.22 44.14 44.04 44.32 44.55 44.98 44.26 43.54 44.48 45.18 44.61 42.36 41.38 41.38 40.40 40.17 39.59 39.38 39.51 39.62 39.76 39.62 39.27 39.39 39.10 37.83 36.81 35.59 35.69
43.92 48.95 49.36 50.14 51.38 50.61 51.14 51.38 51.42 51.98 51.85 49.71 46.92 45.79 44.77 44.01 43.49 43.37 44.15 43.93 43.90 42.25 40.50 39.58 40.76 40.73 40.63 40.31 40.52 39.61 38.44 37.96 38.05 36.64 37.15 36.94 37.70 36.16 35.47 34.41 33.43 32.53 32.49 32.36
46.17 49.35 47.18 49.11 50.99 52.09 50.42 50.06 49.86 51.39 51.37 49.59 47.56 45.58 44.55 43.32 42.67 43.18 43.18 42.36 42.07 40.45 38.94 38.01 38.85 38.53 39.16 39.30 39.13 37.15 36.24 35.14 34.67 34.23 33.80 33.90 33.56 33.00 31.77 32.59 29.81 29.43 30.21 30.12
45.37 50.75 50.64 52.05 53.26 52.51 50.28 49.20 50.11 50.30 49.14 49.44 47.63 45.20 44.44 42.85 43.06 42.33 40.81 40.77 39.86 38.88 37.52 36.44 36.26 35.90 35.68 36.95 37.02 35.40 33.28 32.39 31.57 32.48 32.75 32.42 31.91 32.49 26.99 26.95 26.41 26.11 25.81 27.03
48.97 48.15 49.63 48.10 48.07 52.26 50.40 50.22 50.16 49.29 49.38 46.95 46.66 45.07 43.72 42.25 41.83 39.25 40.17 39.77 38.33 37.00 34.96 34.02 33.11 30.96 33.47 33.52 33.28 32.12 30.97 30.30 30.42 30.11 30.37 29.37 29.64 28.99 28.26 28.78 25.97 24.97 24.08 23.76
46.77 45.74 45.56 45.09 46.99 47.49 48.39 48.33 46.50 48.58 47.61 46.62 44.81 43.81 42.45 41.15 39.26 39.41 38.69 38.57 36.55 33.69 32.06 32.12 30.07 30.16 31.43 31.75 30.67 29.41 28.09 25.43 29.45 29.43 29.07 28.75 28.15 27.49 27.61 25.57 24.51 25.68 25.04 22.41
44.20 43.63 43.51 44.22 44.31 43.54 44.49 43.40 42.52 42.72 42.35 42.36 42.78 41.73 40.77 38.40 38.20 38.15 37.04 35.15 33.59 31.61 31.10 30.51 28.63 28.55 30.23 30.05 29.08 28.32 28.30 27.72 27.58 27.52 25.99 24.78 26.07 25.87 25.16 24.00 23.38 23.46 23.59 23.10
41.80 42.56 42.44 41.92 40.00 40.48 41.19 41.41 41.60 40.21 40.42 40.05 39.68 38.63 39.07 38.71 36.70 34.93 33.09 31.60 28.88 27.99 28.86 25.84 25.98 27.79 28.86 28.26 27.84 27.42 24.62 21.31 23.26 25.24 24.92 24.10 24.04 23.22 22.29 21.68 21.53 21.76 21.03 20.07
40.49 38.99 38.76 38.48 39.04 39.44 40.17 40.89 40.60 39.13 38.63 38.25 37.39 37.65 36.45 33.96 31.84 29.21 26.78 25.43 24.97 24.52 24.94 24.84 25.34 26.61 26.19 26.23 26.26 26.90 25.91 23.39 19.49 23.22 22.37 21.39 21.46 20.85 20.22 19.72 19.35 19.59 18.98 18.59
44.11 42.96 42.52 42.21 39.84 38.72 38.47 38.50 38.28 37.23 36.96 36.10 32.65 31.28 29.71 28.41 26.41 25.48 24.44 23.53 22.96 22.81 23.06 23.32 23.60 23.86 23.88 23.26 23.23 22.68 21.98 21.44 21.00 19.96 20.59 19.71 18.32 18.87 18.21 17.47 17.34 16.84 16.83 16.79
41.11 40.14 39.52 39.13 38.70 37.77 36.98 34.69 32.87 31.72 30.83 30.63 30.30 29.59 28.60 27.62 26.43 24.60 24.01 22.60 21.45 20.78 20.70 21.76 20.65 21.15 20.42 19.24 20.51 20.68 19.69 19.32 19.46 18.88 18.45 14.65 17.82 16.59 16.17 15.30 14.96 14.93 14.73 14.76
34.37 34.91 34.55 33.04 32.76 31.43 29.26 30.07 30.22 29.88 30.32 29.67 28.21 26.32 24.86 25.03 25.17 24.36 24.86 23.63 23.52 21.75 21.58 20.33 19.95 19.05 18.55 17.14 17.08 19.23 18.27 17.93 16.85 17.34 16.21 15.29 15.61 14.34 14.11 11.77 11.73 13.09 13.73 13.65
30.06 29.96 29.21 29.12 29.02 29.96 30.35 30.53 29.31 28.42 29.74 29.39 27.60 25.44 23.57 23.86 24.07 23.78 22.45 19.89 19.86 20.82 20.01 19.68 19.79 19.21 18.86 18.62 18.50 18.96 17.61 17.27 16.30 15.50 14.58 13.77 13.16 12.84 12.09 12.14 12.13 12.04 12.11 12.08
29.11 28.31 28.03 27.80 27.17 27.03 28.39 28.54 27.85 26.51 25.58 24.31 23.77 23.35 22.53 21.69 21.39 21.02 22.74 21.93 20.82 20.50 20.43 20.03 18.75 15.26 16.14 13.47 17.50 17.59 16.59 15.02 14.79 14.39 13.65 12.78 11.70 10.94 10.72 10.49 9.64 10.01 10.02 10.41
28.76 27.99 27.17 26.02 25.66 25.38 25.73 25.66 25.61 25.45 24.59 24.78 24.51 24.54 23.49 23.07 23.21 22.29 20.16 20.92 21.45 19.46 19.78 18.96 14.64 13.06 10.80 17.25 16.71 15.46 14.53 12.78 12.51 12.18 11.81 11.57 10.92 10.09 9.17 8.60 8.27 7.61 7.91 7.85
27.07 26.73 26.34 26.79 26.68 25.40 23.23 23.92 23.81 23.47 23.75 23.56 23.56 23.68 23.60 22.90 22.08 22.58 21.88 19.74 18.43 19.11 18.53 17.17 15.51 10.46 10.49 16.10 14.80 13.71 12.64 12.78 11.99 12.08 11.48 6.91 9.92 9.10 8.52 7.43 6.36 6.76 6.11 5.57
26.29 26.44 26.52 25.73 24.45 24.27 24.53 24.65 24.31 24.05 23.51 23.14 23.06 23.07 23.24 23.49 24.14 21.52 21.15 19.24 17.05 17.33 18.46 11.78 9.39 8.13 14.55 14.33 13.39 11.99 11.96 12.15 11.86 11.04 10.12 9.69 8.78 7.75 7.58 7.20 5.30 5.14 3.50 3.70
22.37 21.92 22.11 22.37 23.23 24.15 24.57 24.50 23.07 23.71 23.85 22.65 22.31 22.77 22.30 21.58 20.65 20.23 19.03 17.35 16.95 14.32 16.65 16.58 15.29 13.95 13.63 12.89 12.11 11.23 10.92 11.17 10.63 10.13 8.60 7.91 7.85 6.91 6.14 5.06 3.58 3.41 3.16 2.98
19.19 20.21 20.61 19.76 20.16 20.72 20.90 20.82 21.08 20.40 20.95 21.51 21.11 21.21 20.53 20.12 18.49 18.09 16.24 17.56 16.45 14.99 15.05 14.72 14.36 12.43 11.77 11.44 11.17 11.10 10.61 10.44 8.83 8.05 7.24 7.23 6.79 6.02 4.82 3.47 2.45 1.97 1.11 0.24

GFSNGP_sfc_wetblb_039.txt.gz
Wetbulb
45.16 45.68 45.74 45.27 45.14 45.58 44.25 45.05 41.96 44.13 44.44 48.08 50.40 50.81 51.65 53.51 53.17 52.46 53.24 54.01 55.84 59.12 60.83 61.59 61.91 62.25 62.72 62.43 62.45 61.80 60.57 60.45 59.36 58.05 57.15 55.37 53.75 52.99 52.85 52.30 51.00 46.05 45.30 43.67
42.50 45.20 44.88 43.26 45.03 45.06 45.18 45.43 45.22 45.38 45.07 50.93 51.77 51.76 51.22 51.79 52.22 52.61 53.60 54.96 56.48 58.59 60.23 60.32 60.59 61.00 60.31 59.63 59.36 59.59 58.68 57.98 57.15 56.84 55.99 55.15 54.48 52.78 51.68 47.04 45.70 43.34 42.73 41.98
38.66 44.10 43.92 39.77 43.76 44.68 45.60 46.74 46.41 43.24 47.61 50.81 50.52 50.64 51.52 52.26 52.58 53.30 54.40 55.31 56.54 57.77 58.62 58.87 58.84 58.83 57.42 56.78 57.12 56.41 54.96 54.12 53.46 52.76 51.39 50.20 48.56 46.70 44.79 43.81 44.40 42.43 43.08 41.85
39.82 41.25 33.52 43.99 48.85 48.46 46.33 47.30 48.76 48.36 49.53 50.74 51.54 51.99 53.05 53.93 53.66 53.72 54.23 54.52 55.12 55.53 55.61 56.21 56.43 55.81 55.51 55.09 54.27 53.33 52.35 51.58 51.47 50.43 48.76 47.57 46.64 45.27 44.32 44.19 43.48 41.85 41.98 42.00
38.45 38.67 41.78 44.01 46.73 47.00 46.04 45.58 49.62 49.27 50.66 51.53 52.14 52.21 50.97 53.13 54.71 54.04 53.93 54.16 54.19 54.44 53.97 53.94 53.68 53.73 52.92 51.88 51.39 50.49 49.49 49.15 48.95 48.55 47.49 46.73 45.68 45.24 45.09 44.68 44.35 44.05 44.57 43.54
40.93 36.11 33.24 43.61 48.69 51.57 50.71 42.72 50.43 50.79 50.75 50.92 51.21 46.73 49.97 52.29 53.25 52.58 52.50 52.42 52.17 52.41 52.39 51.96 51.79 52.01 50.60 49.61 48.97 47.95 48.08 48.06 48.41 48.25 47.47 46.28 44.87 44.20 44.47 44.29 43.26 43.72 42.64 41.82
40.21 38.81 42.33 48.01 50.18 51.96 41.81 43.51 51.84 51.82 52.04 51.52 49.93 51.80 53.24 51.87 50.90 51.42 51.34 51.21 51.53 51.40 50.74 50.74 51.28 50.81 48.91 48.27 47.06 47.71 48.08 48.07 47.61 47.20 45.85 45.23 44.92 44.68 44.43 43.65 43.41 42.53 41.33 41.98
41.68 38.97 36.73 50.57 50.05 45.68 50.56 54.19 53.58 54.03 53.68 52.73 53.03 52.84 51.11 50.23 49.94 49.88 49.44 49.33 50.45 49.67 49.36 50.28 50.52 49.50 47.78 46.82 47.82 47.63 46.81 45.42 44.35 43.83 43.09 43.85 43.11 42.22 41.42 41.53 40.68 40.46 39.85 39.96
44.65 44.61 51.50 52.42 52.22 53.82 54.30 53.35 54.40 54.48 54.07 53.63 53.33 51.07 50.18 49.35 49.33 49.02 48.85 49.35 49.80 49.01 48.14 48.79 49.18 48.75 46.62 45.71 45.45 44.42 44.00 42.62 41.74 41.65 41.53 41.97 41.30 40.75 40.55 39.92 38.55 36.84 35.82 35.69
45.92 49.11 50.54 52.27 53.40 54.15 54.87 54.99 55.36 55.16 54.42 54.15 52.95 51.34 49.99 49.37 48.83 48.47 49.26 48.80 48.97 47.59 46.56 46.25 47.19 46.50 45.41 45.05 44.47 43.07 41.39 40.89 40.67 39.98 39.15 39.27 38.97 37.65 36.89 36.05 34.73 33.60 33.03 32.81
46.12 48.11 50.20 52.06 53.47 54.62 54.61 54.79 54.00 53.81 54.03 53.88 53.01 50.80 49.88 48.88 48.61 48.92 48.75 48.29 47.55 46.24 44.71 43.51 44.04 43.31 43.45 42.99 42.51 40.31 39.41 38.50 37.74 36.92 36.81 36.03 35.41 34.40 33.52 30.96 29.72 30.17 30.35 30.20
44.17 49.33 50.42 51.32 53.89 54.40 54.60 53.96 53.34 52.85 52.75 53.84 52.53 50.65 50.30 49.16 48.97 48.59 47.63 46.64 45.53 44.43 43.04 42.20 41.75 41.33 41.53 41.60 40.75 38.52 36.39 35.88 35.51 35.21 34.96 34.80 34.16 31.65 27.51 28.14 26.52 26.08 25.21 25.92
49.35 51.76 51.42 53.21 52.01 52.50 53.46 54.28 53.86 53.12 53.43 52.13 52.23 51.10 50.16 48.70 48.28 44.81 46.22 45.05 43.74 42.51 41.57 40.56 39.28 37.80 38.63 39.04 38.39 36.51 34.81 33.16 32.16 32.94 33.13 32.15 32.09 31.40 31.29 27.47 26.61 25.88 24.61 23.22
52.57 49.86 47.59 50.02 50.23 50.09 51.78 53.23 50.93 53.09 53.33 52.69 51.45 50.51 49.33 47.75 45.84 44.95 43.55 43.85 42.93 40.66 38.48 36.67 34.80 32.97 34.57 35.26 34.10 32.67 31.41 28.20 32.65 32.07 31.67 31.43 30.78 29.92 30.20 28.37 27.03 28.18 25.27 23.67
48.32 48.10 47.60 47.32 47.95 47.59 48.69 48.61 48.73 49.73 50.25 50.11 50.02 48.38 47.19 44.96 43.38 43.47 43.55 41.68 38.83 36.09 34.20 33.07 30.32 30.03 32.32 33.54 32.22 31.36 30.75 30.34 30.67 29.91 28.06 26.98 28.15 27.98 27.51 26.62 25.61 25.45 25.95 25.56
46.68 46.50 47.06 45.89 47.39 46.00 45.81 45.76 46.23 46.26 46.62 46.64 45.89 45.68 45.22 43.94 43.43 40.23 37.98 36.44 32.63 30.33 28.13 27.06 27.38 28.85 30.13 30.33 29.23 27.08 24.58 23.99 26.43 27.79 26.70 26.32 25.95 25.63 24.82 23.98 23.56 23.88 23.54 22.68
44.12 45.38 45.89 44.27 43.82 42.97 43.60 44.88 45.04 44.02 44.17 43.82 43.51 42.92 41.80 36.42 32.62 28.89 26.54 27.38 26.29 25.92 26.17 25.52 25.38 26.51 27.26 28.49 28.99 28.55 27.80 24.77 21.87 25.50 24.95 24.12 24.04 23.37 22.70 22.08 21.49 21.81 21.69 20.84
45.09 45.25 45.20 45.91 43.94 42.73 41.99 42.77 42.14 41.69 40.50 38.36 33.84 32.29 30.54 27.23 25.58 24.79 24.48 24.51 23.77 23.37 24.24 24.26 24.56 24.95 24.62 24.82 24.73 24.29 24.06 23.60 23.50 22.53 22.33 21.98 20.72 21.29 21.06 20.27 19.98 19.74 19.88 20.04
37.78 38.02 38.61 39.83 40.40 37.99 34.91 33.19 32.18 31.73 31.50 31.03 29.43 27.32 26.51 24.95 24.09 23.78 23.95 22.68 21.96 20.61 20.84 22.13 22.23 22.18 20.91 20.83 22.35 22.34 21.45 21.59 21.39 21.07 20.59 17.24 19.69 20.10 19.13 18.65 18.01 17.81 17.92 17.95
30.88 31.41 31.14 30.87 32.10 31.55 30.19 30.75 30.47 29.05 29.02 28.34 27.10 25.62 24.58 24.99 25.08 25.40 25.51 23.79 23.93 21.88 21.82 21.13 21.12 20.34 19.22 18.45 19.51 20.56 20.30 20.13 19.29 19.36 19.32 16.73 18.42 17.10 17.55 16.03 15.96 16.64 17.12 17.09
28.58 28.70 28.00 28.25 28.51 29.71 30.33 30.80 30.21 29.01 29.26 27.86 25.86 24.91 24.92 25.14 24.51 24.11 21.87 19.23 20.86 21.76 21.21 20.98 20.68 19.98 19.66 19.54 19.97 20.60 19.60 19.18 18.13 17.89 17.39 17.15 16.75 16.93 16.30 16.38 16.08 15.64 15.57 15.49
28.92 28.19 28.08 27.83 27.03 27.11 28.27 28.43 27.58 26.52 25.59 24.85 24.69 24.29 23.55 22.96 23.41 23.87 24.37 20.85 20.96 21.58 21.57 21.15 19.53 16.96 17.58 16.63 19.87 20.02 18.74 18.16 16.90 16.83 16.48 15.97 15.17 14.58 14.73 14.51 13.83 13.85 13.46 13.25
28.49 28.09 27.49 26.42 25.72 26.00 27.10 27.14 27.08 27.14 26.16 26.00 25.60 25.31 24.69 24.76 25.21 22.72 19.92 22.01 22.05 21.72 21.81 20.35 16.29 14.85 13.35 19.25 19.21 18.00 17.33 16.14 15.76 15.34 14.98 14.80 14.43 13.67 13.15 12.33 12.30 11.79 11.46 11.47
27.72 27.67 27.29 27.51 27.09 25.72 23.84 24.83 25.05 24.80 24.43 24.18 24.34 25.92 25.83 24.04 23.03 23.20 22.75 21.08 20.77 21.48 20.62 18.57 16.67 13.37 12.72 17.93 17.15 16.44 15.65 15.43 15.12 15.10 14.92 13.07 13.31 13.05 12.33 11.55 10.57 10.96 10.05 9.49
24.66 25.15 25.73 25.75 24.96 25.15 25.47 25.77 25.34 25.15 24.64 24.14 24.03 24.02 24.09 24.52 24.26 22.98 22.50 20.34 18.87 20.30 19.88 14.14 13.14 12.35 16.44 16.25 16.02 14.94 14.40 14.54 14.64 13.15 11.80 12.09 11.76 11.32 11.29 10.82 9.71 9.30 8.05 7.08
23.48 22.78 22.71 22.66 22.89 24.13 24.69 24.51 22.67 23.44 24.43 23.37 22.56 23.39 23.33 23.15 22.49 21.83 20.37 19.25 18.66 17.76 17.79 17.78 16.50 15.56 15.71 15.76 14.96 13.82 13.65 13.32 13.03 12.93 11.68 10.76 10.86 10.44 10.05 9.37 8.69 7.83 7.06 6.74
20.47 21.27 21.38 20.58 20.99 20.85 20.86 20.42 20.09 19.38 19.66 21.94 21.46 21.94 21.65 21.76 20.42 19.74 18.89 18.95 18.09 17.38 17.20 16.97 16.43 15.17 13.83 12.88 12.48 13.16 13.27 12.76 12.00 11.08 9.77 9.27 9.14 9.09 8.46 7.91 7.25 6.23 5.05 4.09

GFSNGP_sfc_wetblb_042.txt.gz
Wetbulb
44.99 45.56 45.46 45.23 44.44 44.65 44.23 45.29 41.38 44.02 43.77 46.57 49.19 50.07 49.77 52.71 53.61 53.44 53.42 53.99 54.84 57.20 59.69 61.14 61.90 62.22 62.65 62.87 61.85 62.31 62.02 59.62 57.70 57.27 56.29 54.87 53.91 53.28 52.33 51.54 50.79 47.94 45.61 43.79
42.29 45.36 44.65 42.65 45.03 45.70 45.18 45.00 44.67 45.18 44.79 50.31 50.99 50.38 50.90 51.60 51.88 52.12 52.72 53.09 54.28 56.17 59.95 60.53 61.06 61.21 61.28 59.65 60.05 60.20 59.12 56.64 57.22 56.68 55.30 54.77 53.34 52.23 50.08 47.53 44.68 43.42 42.56 42.05
38.01 43.99 42.88 37.09 42.93 44.26 45.65 46.79 45.64 42.00 46.92 49.93 49.34 50.49 51.15 51.88 51.81 51.91 52.85 54.63 56.18 57.02 59.52 60.07 60.41 59.94 58.66 58.42 58.82 57.87 55.48 55.04 55.49 54.72 53.01 50.50 48.58 46.63 44.20 43.01 42.62 41.68 41.60 41.94
37.88 39.33 30.95 42.89 48.22 47.39 45.49 46.13 47.29 47.44 48.36 49.41 49.95 51.38 52.83 53.92 53.86 53.44 54.36 55.18 56.60 57.98 58.40 58.66 58.72 57.92 56.81 56.75 55.23 53.74 52.81 52.03 51.69 50.24 48.15 46.62 45.65 43.92 43.09 42.54 41.40 41.48 40.95 41.22
36.50 35.89 40.42 42.60 45.77 45.40 44.43 44.02 48.76 47.82 48.64 50.08 50.95 51.80 52.33 54.19 55.47 55.21 55.28 55.64 56.09 56.57 56.78 56.21 55.02 54.84 53.89 52.85 52.19 51.23 50.11 49.88 49.32 48.23 46.35 45.43 43.79 42.99 42.66 42.31 41.64 41.14 41.66 42.19
39.49 34.04 31.41 42.43 47.62 49.86 49.22 39.90 50.12 49.97 49.63 50.02 51.40 45.84 49.85 52.93 54.83 54.44 55.09 55.24 54.46 54.42 54.00 53.25 52.96 52.52 51.03 49.77 49.16 48.10 48.20 47.99 48.11 47.49 46.51 45.05 44.64 44.27 44.10 44.06 43.15 42.81 41.89 41.40
37.86 36.26 41.01 47.38 48.82 49.72 38.73 41.95 52.25 52.01 51.60 51.28 50.93 52.28 53.66 53.63 53.47 54.04 53.79 53.14 53.13 52.45 51.19 51.18 51.40 50.63 48.57 47.91 46.82 47.83 48.08 47.85 47.48 46.73 44.73 44.16 43.59 43.67 43.21 42.52 41.70 39.63 39.22 38.70
38.89 36.45 33.59 49.97 48.94 43.43 49.31 51.37 54.24 52.82 53.41 54.30 54.44 53.33 52.50 52.36 51.92 51.70 51.18 51.29 51.51 50.29 49.74 50.32 50.51 49.34 47.40 46.17 47.41 47.55 46.90 45.97 45.06 44.25 44.09 44.39 43.17 41.79 41.41 39.93 37.53 36.11 35.02 34.50
40.77 41.29 45.14 47.65 49.52 52.76 54.33 53.45 54.50 53.69 55.11 54.94 53.65 52.21 51.72 50.68 50.61 50.49 50.52 49.91 50.78 49.51 48.71 49.28 49.61 48.70 46.30 46.18 46.62 45.24 43.99 43.10 42.87 42.37 42.01 41.47 39.57 38.68 37.98 37.36 34.18 31.51 30.85 31.17
40.78 43.54 44.65 47.13 51.79 53.61 53.94 54.27 54.67 54.91 55.27 55.19 53.16 52.26 50.70 50.24 49.89 49.29 49.59 49.34 49.72 48.63 47.61 47.24 48.25 48.08 46.24 45.29 44.83 43.82 41.42 40.03 39.67 38.55 38.24 38.09 36.95 36.17 34.72 31.71 30.59 29.95 29.61 28.56
43.42 45.61 47.14 48.70 50.29 51.67 53.73 55.09 54.90 54.82 54.23 53.14 53.95 52.20 50.99 49.91 49.21 49.03 48.67 48.89 48.84 47.39 46.59 46.30 46.36 45.09 44.97 44.63 43.32 40.84 39.48 38.40 36.63 35.87 35.15 33.41 29.87 30.87 28.42 26.76 27.56 28.01 26.80 27.19
41.46 47.35 48.55 49.55 52.13 53.28 52.65 52.16 52.93 54.09 53.03 53.59 53.94 52.74 51.59 49.86 49.50 48.87 48.31 48.19 47.33 46.86 45.27 44.41 43.91 42.82 42.74 42.55 41.29 38.64 36.43 34.78 33.05 32.92 32.21 33.01 29.87 27.36 29.25 27.45 26.87 26.18 25.53 25.46
47.96 50.52 50.65 51.36 51.11 52.33 51.43 51.94 53.06 54.00 53.73 52.39 53.88 52.86 51.58 49.40 49.26 46.11 48.21 47.08 45.56 43.86 42.54 41.84 40.75 39.81 40.13 40.05 38.37 35.91 32.58 33.04 30.86 31.10 30.62 29.63 29.38 28.55 24.88 25.97 26.96 26.24 25.34 24.46
49.98 50.51 49.30 50.30 48.26 48.71 49.60 49.73 51.85 52.39 53.14 52.98 52.78 51.87 50.63 49.25 47.74 47.39 45.90 45.63 43.95 41.96 40.25 38.12 35.81 33.76 34.84 34.45 32.44 30.05 29.63 30.98 30.72 29.81 29.79 29.85 28.96 28.52 27.93 26.95 24.46 23.60 24.81 24.31
46.73 48.08 47.19 47.95 47.91 48.57 48.74 49.24 48.36 49.13 50.77 50.94 51.45 49.96 48.87 47.00 45.63 45.27 44.80 43.10 40.55 37.37 35.04 32.88 31.17 30.87 32.73 32.64 30.95 29.68 29.59 29.40 29.16 27.62 26.27 26.40 27.39 26.92 26.51 25.68 25.22 24.26 24.46 22.43
45.89 47.14 47.50 46.72 46.72 46.55 46.17 46.28 45.63 47.72 48.02 47.47 47.44 47.11 46.41 45.21 42.63 38.97 37.61 35.67 32.57 30.05 28.42 26.17 26.06 28.06 29.33 27.73 26.35 25.11 25.15 25.74 27.33 26.68 26.01 25.67 25.58 24.97 24.44 23.76 23.20 23.01 22.62 21.81
41.60 41.48 42.48 42.89 44.92 43.33 43.51 44.46 45.04 44.65 44.02 40.29 38.71 34.21 30.62 28.05 26.62 26.07 25.88 26.05 25.49 25.11 25.34 24.99 24.10 26.27 27.10 28.10 27.62 26.84 24.56 22.79 23.04 24.99 24.03 23.19 23.16 23.02 22.26 21.95 21.23 21.05 20.78 15.16
39.53 39.04 38.42 39.67 41.55 39.78 36.34 35.39 34.56 34.56 33.09 30.74 28.86 27.62 26.26 25.12 23.68 23.42 23.51 23.66 23.06 22.65 23.87 24.87 24.54 23.40 23.57 23.63 23.80 23.84 23.79 23.34 22.86 21.82 22.19 21.77 19.88 20.62 20.56 19.85 19.67 19.00 19.14 19.00
32.63 32.01 32.47 32.61 33.19 32.22 31.15 30.21 29.98 29.50 28.71 27.50 25.25 24.11 24.31 23.84 23.13 22.83 23.16 21.83 20.38 19.25 20.90 23.06 22.65 21.18 20.35 21.48 22.49 22.01 21.46 21.40 20.97 20.59 19.94 17.57 18.88 20.08 19.37 18.78 17.64 17.20 16.81 16.83
28.61 29.13 28.83 28.72 29.67 29.46 28.22 28.53 28.14 26.96 26.74 25.87 24.90 23.41 22.77 23.77 24.11 23.37 22.74 20.80 21.22 21.09 22.32 21.91 20.94 19.11 18.47 18.98 20.55 20.41 20.25 19.89 18.78 19.17 19.48 16.45 17.50 17.52 16.65 16.54 16.42 15.96 15.74 15.49
26.83 26.95 26.62 26.56 26.12 26.44 26.23 26.60 25.62 24.56 25.62 25.69 24.08 22.74 22.59 23.22 23.16 22.25 19.95 18.20 20.80 22.02 21.94 21.56 20.39 19.19 18.80 19.17 19.96 20.54 19.74 18.92 18.33 18.07 17.62 17.33 16.89 16.39 16.22 15.58 15.63 14.80 14.14 14.07
26.94 26.01 25.71 25.63 25.16 25.31 26.66 26.74 25.84 25.02 24.72 24.20 24.38 24.00 23.05 22.04 21.67 21.11 21.79 19.60 21.35 22.06 21.57 19.59 17.58 16.38 16.69 17.23 19.66 19.57 18.34 18.04 17.21 17.01 16.51 16.10 15.24 14.44 13.99 13.88 12.88 12.74 12.16 10.18
26.73 26.34 25.73 24.61 24.10 24.08 24.60 24.27 24.20 24.33 23.83 23.65 22.96 22.79 22.35 23.04 24.69 21.05 18.48 22.32 23.00 22.31 19.59 17.36 16.16 15.75 14.84 18.01 18.78 18.09 17.42 15.97 15.82 15.68 15.32 14.77 14.33 13.27 12.01 11.64 11.13 9.89 9.14 9.60
26.66 26.62 26.21 26.59 25.97 24.63 23.03 24.46 24.74 24.56 23.99 23.83 23.28 23.19 24.33 21.73 21.31 21.87 21.74 21.23 20.18 19.04 17.78 17.07 14.93 13.77 11.69 17.90 17.55 16.41 15.39 14.88 14.39 14.56 14.14 12.03 12.98 12.56 12.22 10.30 9.04 9.02 8.39 7.47
23.80 24.00 24.48 24.53 24.25 24.13 24.64 25.01 25.03 24.46 23.50 22.88 22.71 22.62 22.40 22.69 21.48 21.52 20.92 19.62 18.30 19.86 15.82 13.54 13.21 13.30 16.33 16.45 15.68 14.31 13.97 13.70 13.27 11.12 11.34 10.82 10.48 10.28 10.03 9.78 8.63 7.44 6.19 2.77
22.40 21.63 21.57 21.44 21.24 21.75 22.30 22.25 20.16 20.09 22.98 20.88 21.27 22.18 22.13 22.26 22.00 20.81 19.60 18.92 17.77 17.22 17.39 17.51 15.44 14.42 14.66 13.48 11.90 11.99 12.58 12.83 12.16 11.69 10.46 9.34 8.61 7.76 7.60 8.19 7.49 6.37 5.88 4.44
18.87 20.17 19.85 19.20 20.14 19.76 19.48 17.96 18.31 17.73 17.94 19.91 18.97 19.93 19.71 19.99 19.23 18.51 17.78 17.44 16.90 16.43 15.64 15.01 14.97 13.67 13.57 11.84 12.00 11.72 11.09 10.99 10.28 9.46 8.21 7.59 7.18 6.58 6.56 5.96 5.45 4.30 2.79 1.74

GFSNGP_sfc_wetblb_045.txt.gz
Wetbulb
41.47 43.24 43.50 43.57 43.11 42.64 40.89 41.58 38.32 39.52 40.71 43.53 45.78 46.34 46.82 49.04 50.29 51.18 50.25 49.26 50.67 53.12 54.48 55.82 56.34 57.36 58.82 58.70 60.16 60.58 60.45 58.13 55.70 54.24 54.44 53.66 53.67 53.15 52.92 52.12 50.57 48.64 47.21 45.97
37.74 42.01 43.17 40.76 42.88 43.11 43.06 42.53 43.12 43.82 42.30 48.19 48.88 47.23 47.54 49.75 50.00 49.69 49.84 48.99 50.07 54.93 56.69 57.76 57.92 57.58 57.32 57.18 56.95 58.77 56.96 55.90 55.11 54.20 53.53 53.27 52.64 51.44 50.46 48.11 46.48 44.92 43.08 43.02
33.64 39.51 39.65 34.09 40.08 41.94 42.64 44.61 43.67 38.89 43.09 45.73 45.90 48.55 47.46 48.17 49.23 49.03 49.35 49.35 50.28 53.31 57.08 57.68 57.20 56.73 55.43 55.85 56.21 55.16 55.05 55.27 54.71 54.36 53.28 51.33 48.39 46.05 44.27 43.10 42.31 41.59 41.43 41.32
30.31 35.26 28.81 39.88 45.75 44.83 42.82 44.18 44.84 44.01 44.63 45.11 45.70 47.18 47.45 49.33 48.32 48.59 49.57 51.24 52.10 55.13 55.36 56.05 56.05 55.57 55.49 54.35 52.31 52.44 52.05 51.75 50.86 48.34 46.07 44.86 44.34 43.04 41.90 41.19 39.94 37.90 38.63 39.43
31.63 32.46 36.76 40.30 42.74 42.03 40.93 40.63 45.35 44.01 44.88 45.39 46.28 45.13 45.50 49.23 49.03 49.28 50.35 51.45 52.37 53.20 54.18 53.34 53.44 53.05 52.13 50.96 50.00 49.32 48.23 47.49 46.31 45.06 43.07 41.82 40.49 39.68 39.41 39.36 38.89 38.45 39.14 38.62
31.65 29.67 28.33 38.00 44.55 47.40 46.07 36.01 45.81 46.13 45.73 45.67 45.20 38.62 43.03 48.38 51.10 50.51 50.74 51.39 51.20 50.98 50.88 50.71 49.14 50.03 48.79 47.40 47.11 46.45 46.24 45.51 45.13 44.27 42.67 41.30 40.32 39.83 39.60 39.14 39.13 40.12 40.33 40.59
30.70 31.61 33.78 43.61 46.48 47.92 35.68 36.32 46.99 48.27 47.38 46.80 44.14 45.18 47.42 49.55 49.55 50.31 50.47 50.11 49.76 49.67 48.63 47.22 47.79 47.75 45.40 44.41 43.89 45.08 45.67 45.50 44.84 43.99 42.68 42.33 41.66 41.40 40.88 40.46 40.87 38.74 36.77 36.27
33.98 31.06 29.19 45.04 46.08 40.06 42.57 47.15 48.81 48.88 47.70 47.16 48.54 48.03 48.62 48.94 48.83 48.94 48.31 48.52 48.17 47.01 46.46 45.99 46.42 46.00 43.63 43.18 44.84 44.88 44.36 43.14 42.39 41.94 42.50 42.24 41.17 40.26 40.02 38.11 35.67 32.52 30.81 29.30
37.06 35.95 44.08 45.12 46.47 47.31 47.27 46.20 49.83 49.25 50.59 49.57 48.19 48.17 47.97 47.72 47.25 47.31 47.26 46.56 46.92 46.09 44.87 45.27 45.47 45.40 43.05 42.43 43.62 42.79 42.19 41.54 41.46 41.82 41.87 41.09 37.79 35.60 35.33 34.68 31.28 28.99 30.20 28.52
38.96 42.01 43.35 45.08 46.33 49.16 49.95 49.47 49.38 51.18 50.37 49.30 48.69 47.68 46.56 46.71 46.19 45.88 45.31 44.72 44.90 44.88 44.15 43.02 44.57 44.44 43.35 43.00 42.77 41.83 40.58 39.56 38.00 35.72 34.88 32.99 34.01 32.54 30.04 27.75 27.22 27.42 27.49 26.58
39.12 42.70 44.48 45.40 46.37 49.98 49.65 50.65 49.87 50.71 50.21 49.79 49.44 47.70 47.04 45.81 45.13 44.64 44.83 44.64 44.88 43.40 42.67 41.77 42.97 42.35 42.50 42.42 41.89 38.67 36.86 35.24 33.78 31.22 28.93 28.37 29.00 27.18 25.22 25.84 27.26 25.60 25.34 26.32
34.49 44.55 44.95 46.19 47.59 49.33 49.76 50.01 50.65 49.32 49.25 50.34 48.09 47.94 47.00 45.31 44.88 44.23 43.74 44.07 43.78 42.60 41.62 41.17 41.07 40.70 40.47 39.83 38.40 35.31 33.01 31.70 29.76 29.20 27.75 27.46 26.88 25.34 27.78 27.46 27.53 27.85 27.57 25.10
43.23 46.43 46.38 46.91 46.97 47.90 48.03 48.01 48.68 48.84 48.25 48.77 48.88 47.68 46.84 44.88 44.58 41.94 43.87 43.56 42.34 40.08 39.05 37.28 33.70 32.14 34.85 35.32 34.11 32.35 29.80 30.60 29.19 28.51 28.36 27.69 25.33 24.45 22.88 25.77 27.03 26.53 25.99 25.99
44.62 45.52 44.87 44.25 43.48 46.29 46.71 46.53 47.41 47.61 48.57 48.32 49.22 47.88 46.10 45.04 43.93 43.68 42.01 40.43 38.74 34.30 31.70 30.27 29.44 28.63 30.47 31.11 30.40 29.38 29.03 28.92 28.28 28.20 27.89 27.35 26.55 26.50 24.96 24.01 22.69 22.94 24.98 24.26
41.47 45.01 44.31 45.32 45.38 44.52 44.83 44.95 44.24 44.56 45.24 45.65 46.55 45.50 44.67 42.77 40.99 39.34 37.47 33.97 31.85 29.02 27.40 27.38 26.43 26.03 27.79 28.05 27.64 27.71 27.79 26.59 25.14 24.97 25.57 25.86 26.22 25.54 25.47 24.72 23.07 22.98 22.59 22.31
40.88 41.23 42.10 42.28 42.08 40.83 39.49 39.40 38.88 35.15 33.66 31.82 31.59 31.25 31.64 30.70 29.08 29.00 29.17 27.55 24.16 22.73 24.09 23.87 25.15 26.92 27.35 26.43 26.01 25.53 25.60 26.43 26.02 25.66 25.27 24.80 24.54 23.85 23.36 22.74 22.44 22.36 21.79 19.62
36.51 35.24 36.44 36.46 35.45 34.97 34.31 34.08 32.60 30.64 29.31 28.51 28.20 28.02 27.00 25.55 24.58 23.88 23.85 24.40 23.64 23.21 23.33 23.35 23.48 25.69 26.95 27.38 25.65 23.94 23.35 24.09 24.30 23.72 22.48 22.38 22.34 21.79 21.65 21.04 20.50 20.39 18.83 16.21
34.37 33.38 33.81 34.03 32.98 31.65 30.23 29.64 28.20 27.38 26.46 26.32 25.36 24.64 23.51 22.99 22.10 22.44 22.50 22.49 21.19 20.29 20.88 21.68 22.72 23.41 23.61 24.18 24.14 23.89 23.39 22.95 21.99 21.18 21.92 20.21 19.09 19.51 19.98 19.28 19.14 18.20 17.61 15.80
29.43 28.83 29.55 29.14 28.75 27.47 26.54 25.94 25.50 25.46 25.01 24.57 23.28 21.94 22.18 21.80 21.41 20.92 20.86 19.70 18.83 18.01 19.22 21.06 22.08 21.15 21.83 22.75 22.27 21.83 21.21 20.74 20.56 20.46 19.97 18.08 18.53 19.35 17.94 17.43 15.97 15.64 15.66 15.84
26.75 26.88 26.32 25.64 25.95 25.66 24.86 25.47 25.31 24.34 24.21 22.92 21.82 20.56 19.58 19.66 19.98 19.20 19.40 18.16 19.48 19.93 21.51 20.91 20.42 19.44 19.70 20.60 21.13 20.85 20.01 18.98 18.89 18.81 17.59 16.39 15.85 14.30 14.04 14.52 14.85 14.10 12.56 12.17
24.57 25.03 24.68 24.20 23.81 24.12 24.16 24.16 23.48 22.65 23.70 23.80 22.51 21.38 20.89 21.13 21.07 20.28 18.31 16.84 19.90 21.20 20.53 19.42 19.32 17.93 17.89 19.46 20.33 19.61 18.66 17.64 16.91 16.47 14.77 13.78 13.55 12.63 10.00 9.99 11.28 10.72 9.47 9.09
23.84 23.03 22.77 22.45 21.88 22.26 23.61 24.11 24.02 23.50 23.16 23.00 22.49 21.57 19.97 19.06 19.13 19.12 20.00 18.80 21.14 19.79 18.25 17.32 16.71 16.01 16.07 17.65 18.50 17.05 16.73 15.24 14.10 13.09 10.35 8.52 6.20 4.34 5.61 5.37 4.68 4.87 2.79 0.27
24.50 24.25 23.48 22.67 22.11 22.24 22.78 22.48 22.23 21.47 20.80 21.24 21.17 20.05 19.54 20.99 21.16 18.09 16.76 20.54 18.96 17.31 16.42 15.30 14.15 13.31 12.69 16.56 14.75 12.78 10.77 9.26 7.76 6.44 8.18 9.92 9.80 7.65 3.74 1.44 3.75 1.83 -3.01 -1.38
23.42 24.21 24.18 24.58 23.99 22.91 21.18 22.27 22.52 21.72 20.76 21.06 20.12 21.38 20.53 18.59 18.15 19.48 19.17 17.46 15.38 14.67 13.63 12.29 12.18 11.56 10.49 11.15 10.74 8.69 6.59 5.08 5.09 3.87 3.40 2.01 -2.16 -0.49 3.22 1.60 0.75 1.77 0.53 -1.58
20.57 20.43 20.11 20.17 20.22 19.95 20.09 19.95 21.11 20.87 20.33 19.96 19.94 20.60 20.09 19.60 17.55 17.89 16.56 15.85 16.84 13.41 10.12 8.43 9.14 8.79 8.50 5.57 4.52 4.24 3.85 8.36 8.49 4.97 5.65 2.00 -0.69 -6.08 -6.63 -3.93 1.27 0.72 -1.26 -2.50
18.93 17.93 17.83 17.99 16.99 16.13 17.37 16.80 14.72 15.81 18.55 16.00 16.63 17.03 16.12 16.69 16.68 17.54 15.77 13.56 14.12 12.56 12.08 10.43 11.32 8.59 6.84 2.29 -2.69 -1.03 -3.02 -1.46 2.72 3.98 -1.94 -5.36 -7.71 -7.17 -5.18 -1.46 -2.47 -2.30 -5.36 -8.62
14.11 15.00 15.24 14.98 16.29 15.87 13.33 11.94 11.44 11.19 10.93 12.40 12.81 13.32 12.25 11.92 10.56 9.88 6.64 7.42 8.19 4.56 2.33 0.81 1.86 3.93 3.91 1.05 -0.58 -0.22 -3.22 -4.82 -4.27 -1.41 -4.09 -9.35 -11.52 -12.25 -5.72 -3.73 -7.89 -11.34 -14.06 -15.15

GFSNGP_sfc_wetblb_048.txt.gz
Wetbulb
39.32 41.05 42.06 41.07 41.57 41.65 39.22 38.56 34.47 37.29 38.61 43.58 44.71 45.17 46.48 47.14 48.25 48.61 48.84 47.68 49.15 51.00 52.75 53.21 53.88 55.41 56.18 57.65 57.90 59.21 59.13 59.02 59.05 59.35 59.48 58.12 56.83 54.15 53.04 52.36 52.03 50.56 49.75 48.98
35.60 40.40 40.52 39.35 41.43 42.22 42.29 41.10 39.66 40.76 39.99 46.30 48.18 45.90 44.85 47.59 48.33 47.96 48.24 48.37 48.41 52.28 53.04 54.59 56.39 57.04 57.03 57.33 58.49 59.41 59.01 59.06 59.32 57.39 56.89 54.95 54.27 53.45 51.87 50.40 49.77 48.06 47.46 45.21
30.22 37.42 38.07 32.54 39.09 40.90 40.55 41.66 42.35 37.56 42.26 46.10 45.04 45.80 45.84 46.92 47.89 48.17 48.10 47.26 47.29 51.83 54.76 55.94 56.90 56.67 55.87 56.59 58.21 58.93 59.12 57.70 55.67 55.41 54.83 53.61 52.08 50.32 48.45 47.63 46.68 43.96 43.24 42.78
30.43 32.42 28.45 39.07 43.67 43.36 41.67 42.67 42.69 42.55 43.90 44.65 45.00 45.98 46.71 48.03 48.95 47.99 47.50 47.29 47.22 52.68 54.87 55.48 55.02 54.65 54.05 55.02 54.91 55.37 55.31 54.74 54.15 52.44 50.52 49.65 48.76 46.15 45.04 45.16 44.55 42.69 41.45 41.72
30.11 30.69 35.52 38.53 41.77 40.68 39.98 40.45 44.19 43.32 43.98 44.34 45.18 43.43 43.27 47.23 47.77 48.06 47.88 48.11 49.72 53.41 54.14 54.03 54.49 54.02 52.07 52.08 52.40 51.84 50.87 50.39 49.40 48.44 46.39 45.76 44.24 44.04 42.59 41.11 40.25 39.75 40.07 39.91
31.50 27.82 26.75 36.30 42.76 46.41 44.23 33.40 43.68 44.00 44.69 44.62 44.04 36.50 41.09 46.80 47.85 48.17 49.25 51.14 51.93 51.88 52.41 52.79 51.34 50.88 49.40 48.00 47.87 46.50 46.16 46.76 46.38 45.03 43.57 40.95 39.58 38.88 39.20 39.56 38.54 38.14 37.15 36.75
30.31 29.59 34.03 41.37 44.09 45.75 35.30 35.17 44.62 47.22 46.09 43.75 41.94 43.03 45.44 46.84 48.78 49.45 50.09 51.04 50.54 51.77 51.62 49.56 49.29 49.09 46.71 46.31 45.01 45.15 44.36 43.43 42.54 41.94 40.56 39.86 38.95 38.60 38.32 38.41 38.40 37.05 34.78 33.30
31.83 30.63 28.10 44.97 43.64 38.52 41.78 44.16 45.63 47.19 45.65 45.56 46.39 46.97 45.94 47.92 48.43 48.45 48.42 48.05 48.81 48.04 46.94 45.88 47.46 46.84 44.58 43.42 44.06 44.41 43.39 42.42 41.49 40.84 40.96 40.60 39.53 39.09 39.42 38.99 35.03 32.57 30.10 27.87
35.64 34.02 43.77 45.82 44.22 47.21 46.51 44.77 46.31 45.56 46.75 47.60 47.10 45.75 46.83 46.77 47.85 48.30 48.23 46.36 46.53 45.81 43.53 43.25 44.15 45.23 42.74 41.68 42.80 42.17 41.61 40.81 40.63 40.93 40.61 40.28 38.99 37.36 37.02 35.30 32.84 29.58 28.11 25.29
37.92 40.45 42.69 43.85 46.46 48.17 48.55 47.41 48.33 48.41 48.59 48.52 46.94 47.32 46.97 46.08 45.69 45.07 44.74 44.40 44.43 43.96 42.49 41.08 42.38 42.63 42.12 42.20 42.20 41.23 39.83 39.45 38.48 36.25 32.86 32.47 32.27 32.81 32.04 29.12 29.07 29.64 27.70 25.19
38.34 41.18 42.57 43.59 45.04 47.54 47.82 48.61 47.72 47.78 47.81 48.49 49.18 47.85 47.42 46.29 45.03 44.61 43.84 43.95 44.13 43.15 41.86 40.48 41.32 41.12 41.60 41.38 40.98 38.19 36.03 32.51 29.73 29.62 28.78 26.03 25.48 26.18 26.61 27.53 27.98 27.91 27.26 26.72
34.37 41.72 41.06 42.34 45.35 47.44 46.67 47.84 47.88 46.98 47.09 47.51 48.04 47.37 47.42 45.87 44.75 44.39 43.36 43.25 42.24 41.00 40.14 39.67 40.27 39.61 38.77 38.38 37.17 33.93 30.77 28.71 27.32 27.06 26.29 25.09 24.66 24.61 28.46 28.96 29.36 28.72 27.52 25.51
39.39 42.28 44.04 44.34 44.76 45.93 45.78 45.74 46.92 46.93 46.51 46.15 47.97 46.80 46.48 44.15 43.54 41.11 43.33 42.01 40.31 36.50 33.49 32.95 32.47 32.45 33.83 33.93 32.95 30.65 28.65 28.20 27.27 26.72 25.74 25.16 25.78 25.27 23.39 25.89 27.50 27.35 26.78 25.72
40.47 42.46 41.93 43.14 41.81 43.11 42.92 44.06 44.16 41.44 40.55 38.27 41.76 46.18 43.60 42.88 42.16 40.30 36.53 33.45 31.87 30.57 29.32 28.56 28.11 28.42 30.90 31.24 30.16 28.74 28.28 28.50 27.64 27.31 27.37 27.16 26.21 25.35 25.47 24.32 22.73 23.07 25.33 24.30
38.02 39.48 39.50 40.20 38.61 37.18 37.76 38.52 35.16 33.32 32.60 31.86 31.37 36.30 38.65 34.73 31.53 30.12 29.82 29.19 28.10 27.02 26.39 26.10 25.79 26.25 28.64 29.31 27.97 26.78 26.00 25.95 26.29 25.97 26.10 25.96 26.02 25.99 25.90 25.07 25.00 23.93 23.43 22.56
37.33 37.19 37.55 35.62 33.80 33.35 32.37 31.86 30.44 29.22 28.91 27.96 26.69 26.56 25.65 25.16 24.25 23.61 24.75 25.69 24.80 24.06 25.24 25.16 25.59 26.49 27.99 28.00 27.35 26.72 26.29 26.10 25.92 25.30 24.87 24.53 24.55 24.14 23.56 22.83 22.23 22.11 21.76 19.51
33.51 31.98 33.43 33.74 31.76 29.78 29.15 29.21 28.60 27.33 26.18 25.84 25.48 25.54 24.58 23.65 22.62 22.04 21.88 22.21 21.74 21.85 22.91 23.09 23.10 25.19 25.88 25.28 24.48 24.35 24.23 24.05 23.75 23.65 23.27 22.94 22.44 21.92 21.87 21.22 20.66 20.28 18.32 17.52
32.16 30.99 30.60 30.28 28.45 27.12 26.12 26.34 25.70 25.28 24.40 24.32 24.17 23.01 21.58 20.77 19.48 19.54 19.86 20.38 19.59 19.05 20.24 21.59 22.83 23.14 23.30 23.62 23.48 23.16 22.54 22.16 22.15 21.85 21.04 19.56 19.63 20.29 19.71 19.55 19.15 18.09 17.60 16.89
27.08 26.31 26.52 26.24 26.22 25.27 24.64 24.03 23.64 23.52 23.13 22.86 21.50 20.04 20.42 20.05 19.68 19.74 19.87 18.68 17.27 16.26 17.65 20.41 22.19 21.34 21.43 22.22 21.67 21.11 20.33 19.87 20.71 20.25 19.35 18.40 17.62 18.46 16.90 16.58 16.36 16.04 15.98 15.82
25.03 25.10 24.79 24.16 24.80 24.34 23.36 23.76 23.64 22.71 22.87 21.98 20.84 19.35 18.17 18.43 18.76 18.16 18.10 16.59 17.92 18.60 19.80 19.40 19.38 19.00 20.19 20.75 20.80 19.78 18.90 18.25 18.10 17.66 16.71 16.31 15.72 14.50 14.65 14.89 14.19 13.19 11.64 11.76
22.25 22.55 22.41 22.37 22.08 22.94 23.34 23.37 22.31 20.75 21.04 21.06 19.49 18.57 18.41 19.20 19.33 18.62 16.54 14.81 17.05 18.27 17.92 17.40 17.45 17.53 18.71 19.26 18.58 17.48 16.73 15.54 15.03 14.54 13.36 12.34 10.92 10.75 9.57 9.03 8.71 7.45 6.92 6.28
22.14 21.56 21.43 21.36 20.72 20.36 21.12 21.41 21.56 21.06 20.23 20.07 20.12 19.49 18.49 18.35 18.75 18.07 17.59 15.42 16.63 16.35 15.68 14.80 15.22 15.53 16.91 16.54 15.60 14.14 13.40 12.49 11.79 11.28 9.32 8.75 7.94 7.47 6.60 4.84 3.63 2.40 2.21 -3.29
23.34 22.91 22.27 21.32 20.47 20.44 20.76 20.36 19.99 19.41 19.06 18.83 17.62 17.25 16.74 17.25 17.70 15.60 13.09 16.41 16.11 14.33 13.90 13.38 13.91 13.53 12.89 11.71 10.53 9.23 7.45 6.05 4.14 3.25 2.88 2.01 1.89 2.27 2.46 4.16 3.42 2.01 -4.38 -3.66
20.62 21.25 20.69 20.41 20.86 20.33 18.67 19.59 19.78 19.30 18.76 18.35 17.03 17.11 16.10 13.98 14.60 16.49 14.77 12.88 11.15 10.21 10.20 9.54 9.10 8.39 5.92 5.40 4.22 2.66 1.86 2.28 4.13 0.15 -0.09 -2.93 -8.73 -11.27 -11.09 -13.63 -9.64 -8.73 -5.11 -3.13
18.19 17.92 17.73 17.33 16.59 16.39 16.99 18.55 18.22 17.79 17.09 16.29 16.44 16.88 16.85 16.66 13.00 12.53 12.63 13.26 13.47 10.24 9.55 6.46 4.80 2.08 0.70 -0.69 -2.79 -4.38 -6.74 -6.92 -7.28 -9.46 -10.36 -12.72 -14.71 -15.80 -16.16 -14.17 -10.36 -6.74 -8.37 -9.46
16.69 15.61 15.28 14.75 13.77 13.69 14.15 13.91 12.93 14.18 13.12 10.90 10.98 10.88 10.21 11.26 11.86 10.84 8.90 6.15 6.90 4.13 2.63 -0.07 -1.22 -2.70 -4.57 -4.38 -6.01 -8.19 -10.73 -8.01 -5.11 -4.76 -12.36 -14.71 -16.53 -14.90 -14.71 -13.63 -14.53 -15.62 -16.89 -17.98
12.18 13.14 12.55 12.34 12.55 10.66 9.68 9.23 8.69 7.23 4.43 4.57 4.97 5.13 5.29 4.24 6.41 6.72 -0.64 -1.47 -2.61 -3.47 -7.28 -9.64 -8.19 -5.84 -6.92 -11.09 -10.73 -11.27 -10.91 -11.09 -9.28 -9.64 -15.80 -18.34 -17.98 -15.80 -15.44 -17.43 -19.79 -21.42 -21.78 -20.15

GFSNGP_sfc_wetblb_051.txt.gz
Wetbulb
38.40 39.84 39.69 38.60 38.69 39.36 37.71 37.40 34.10 36.17 36.76 41.29 42.99 43.99 44.66 46.35 46.11 46.39 47.33 45.61 47.55 49.18 50.81 52.38 53.93 54.60 55.49 55.53 55.73 56.42 56.24 56.22 56.19 56.77 57.76 58.07 57.84 58.23 58.63 57.66 55.93 53.80 51.37 51.62
35.31 39.29 39.05 36.73 39.03 39.89 39.93 39.25 38.35 38.81 37.41 43.81 45.34 45.49 44.10 45.50 46.30 46.33 47.05 47.37 46.91 50.62 51.07 51.98 53.08 53.88 54.92 55.87 56.20 56.65 56.03 56.28 57.31 57.49 57.52 57.36 57.56 58.35 56.11 53.82 53.49 52.28 51.63 50.44
29.84 35.83 35.57 31.17 36.43 38.73 39.61 41.78 41.16 36.56 40.31 44.21 44.11 44.66 44.93 45.90 45.63 46.49 47.53 48.51 47.39 47.70 51.54 52.27 53.05 53.55 53.84 54.77 55.42 56.19 56.58 56.79 57.15 57.56 57.61 57.42 56.27 53.43 52.87 51.45 49.76 47.94 46.32 47.07
29.95 30.68 27.09 35.88 40.25 42.06 40.61 42.02 42.56 42.92 43.50 44.57 44.42 45.45 45.84 45.94 45.79 46.55 47.56 48.05 46.93 46.21 51.00 53.71 54.01 54.29 53.48 55.09 55.75 56.11 56.30 56.29 57.08 57.44 56.75 53.78 52.29 50.65 48.19 47.38 46.12 44.79 44.32 43.87
25.11 28.31 32.38 34.94 40.46 38.33 37.72 37.81 42.97 42.74 43.52 44.33 44.46 41.46 42.06 44.85 45.57 46.94 47.83 48.86 47.87 46.16 50.62 52.92 53.61 52.75 53.08 55.26 55.21 55.29 55.28 54.46 53.94 53.34 51.01 50.31 47.98 46.53 45.22 44.13 43.52 43.66 42.86 43.75
30.75 26.39 22.95 32.18 40.74 44.37 44.55 34.71 43.34 44.30 42.91 43.61 43.17 35.36 40.79 45.49 45.26 46.04 46.42 45.87 48.18 50.84 52.10 53.17 51.37 52.65 52.44 53.25 53.58 52.71 51.74 50.62 50.19 49.53 48.92 46.70 45.44 43.59 43.46 42.80 41.46 40.26 38.58 39.29
28.94 28.31 30.84 37.86 42.22 44.89 33.30 33.89 44.33 44.95 44.31 43.21 40.17 41.68 45.22 44.95 45.34 46.53 46.68 48.44 50.09 51.72 52.38 51.92 50.40 50.97 48.92 48.24 48.99 48.41 48.90 47.24 46.24 45.76 44.37 43.03 40.59 40.46 39.70 39.51 38.64 35.39 32.56 33.10
31.67 28.56 24.58 43.80 42.24 36.32 40.13 43.03 44.47 45.63 45.39 43.93 44.63 45.11 45.31 45.53 45.65 47.10 48.03 48.93 49.97 49.19 47.23 47.57 48.37 48.55 45.66 44.16 43.94 43.90 42.50 42.08 41.48 40.89 40.65 40.22 39.75 39.36 38.84 37.09 34.17 31.21 29.52 27.98
32.73 32.07 40.26 44.33 42.88 44.97 44.84 45.11 45.68 46.05 47.09 46.32 44.90 45.32 45.38 45.44 45.24 45.30 46.26 46.17 46.91 46.44 44.00 44.26 45.50 46.26 43.51 42.15 42.49 41.38 40.73 39.84 40.21 40.22 39.12 38.43 37.32 36.80 34.62 33.33 32.80 30.33 28.52 26.13
35.60 38.62 41.04 43.10 45.43 46.08 46.03 47.00 48.14 48.83 46.85 46.97 45.65 46.53 46.52 45.49 45.06 44.55 44.35 44.13 43.53 43.53 42.42 41.03 42.39 42.54 41.78 41.93 41.73 40.77 39.21 38.35 36.32 33.75 31.74 31.41 32.13 33.60 32.22 31.27 31.60 29.59 27.36 24.53
35.17 38.92 41.25 43.13 43.45 45.01 46.78 48.57 48.08 48.04 47.09 46.67 46.47 46.86 46.06 46.32 44.92 44.21 44.20 43.11 43.17 42.11 40.44 40.22 40.73 40.64 41.10 40.99 40.62 36.90 33.55 32.29 30.42 28.86 27.65 27.06 27.96 29.27 28.82 29.68 31.86 29.00 26.44 24.55
32.58 40.01 39.31 41.01 43.23 43.77 45.03 45.10 45.13 44.87 45.41 45.99 46.08 45.80 46.64 45.98 44.91 43.16 42.76 41.98 41.29 40.21 39.63 39.30 38.80 37.51 38.17 38.83 36.56 33.14 30.22 29.36 27.77 26.36 26.10 26.12 25.58 25.47 29.52 30.08 30.23 29.76 28.65 26.63
38.13 39.55 40.15 42.74 42.57 40.25 41.73 40.52 39.19 37.48 35.89 34.25 36.66 42.71 45.27 42.49 41.47 38.48 38.82 36.04 34.48 33.94 33.52 33.06 32.07 31.52 32.34 33.02 32.64 30.78 28.47 28.12 26.90 26.50 25.89 24.96 24.65 24.13 22.32 25.99 27.57 27.20 26.66 25.93
39.48 39.44 40.56 39.41 36.41 36.81 36.29 37.20 36.14 33.48 32.28 30.43 31.95 34.35 34.85 33.17 32.37 30.92 29.51 29.43 29.24 28.60 28.15 28.25 28.27 27.75 29.53 30.20 29.72 28.89 28.66 28.78 27.85 27.25 26.63 26.26 25.87 25.64 25.57 23.91 21.99 23.01 25.70 25.15
36.21 38.70 37.89 37.05 35.26 33.23 33.25 32.67 29.66 27.93 27.79 26.76 26.93 26.03 26.56 25.38 25.29 26.19 27.26 27.55 27.09 26.45 26.43 26.83 26.74 27.15 28.68 28.67 27.99 27.69 27.15 26.82 26.71 26.62 26.74 26.78 26.74 26.44 25.89 25.42 24.35 22.84 22.83 22.99
34.47 36.60 36.80 33.24 31.29 30.43 29.68 29.03 27.05 26.16 25.62 24.94 24.01 23.65 23.42 23.17 22.95 23.08 23.53 24.53 23.72 22.85 24.03 23.97 24.34 25.89 27.44 27.26 26.58 26.07 25.77 25.86 25.78 25.41 24.89 24.70 24.56 23.98 23.38 22.87 22.54 22.79 21.85 19.99
31.72 31.11 31.13 30.40 28.24 27.06 26.61 26.77 26.25 25.42 25.00 24.11 23.55 23.70 23.24 22.53 21.64 21.09 21.02 21.60 21.18 21.21 21.76 21.84 21.89 23.98 24.69 24.87 24.65 23.93 23.55 23.32 23.19 22.68 21.96 21.66 21.56 21.24 21.38 20.72 20.18 19.45 17.87 18.13
28.94 27.77 27.82 27.42 25.70 24.58 23.80 24.45 23.95 23.71 22.97 22.70 22.43 20.96 19.71 18.69 17.98 18.09 18.51 18.99 18.46 18.10 19.51 21.08 21.79 22.10 22.28 22.64 22.73 22.33 21.81 21.63 21.02 19.81 19.40 18.99 19.68 19.98 19.01 18.65 18.27 17.38 17.15 16.96
25.73 24.55 24.81 24.85 24.52 23.40 22.98 22.34 22.38 21.98 21.42 20.95 19.34 17.90 18.27 18.09 17.92 17.62 18.09 17.06 15.84 15.06 16.64 19.94 22.06 20.71 20.70 21.33 20.78 20.41 19.60 19.13 18.67 18.05 17.89 17.46 16.66 16.39 15.64 15.51 15.51 15.01 15.14 14.22
23.27 23.47 22.81 22.39 22.86 22.40 20.96 20.82 20.71 20.12 20.51 19.81 18.90 17.77 16.74 16.84 16.64 15.70 15.37 13.60 14.75 15.81 18.08 18.61 19.17 18.79 18.76 18.69 19.06 17.60 16.67 15.76 15.87 14.82 14.24 14.06 13.49 12.67 13.01 12.89 12.05 10.53 9.03 8.88
20.89 20.96 20.41 20.14 19.76 20.59 20.78 20.91 19.80 18.74 19.24 19.03 17.64 16.95 16.83 17.43 17.18 16.03 14.05 12.10 14.76 16.41 16.85 17.15 17.51 17.01 16.69 16.31 15.61 14.59 14.07 13.34 12.33 10.78 9.44 7.93 7.31 6.96 5.27 4.77 4.61 2.70 -0.68 -1.96
21.07 20.43 19.94 19.63 18.67 18.38 19.33 20.18 19.45 18.60 18.13 17.99 18.21 18.34 15.89 15.11 14.43 13.73 14.22 12.85 14.68 15.02 15.33 14.62 13.49 12.08 11.74 12.22 11.55 9.93 9.25 8.02 6.65 5.50 2.79 1.93 -0.21 -2.50 -5.39 -5.39 -5.94 -5.94 -7.02 -8.47
20.87 21.21 20.18 19.05 18.04 18.01 18.61 18.10 17.30 16.83 15.60 15.08 14.24 14.25 14.06 14.35 14.70 11.35 9.11 13.27 13.45 11.85 11.40 9.35 7.96 6.98 5.88 5.43 3.90 2.35 1.65 1.28 0.48 -0.74 -2.33 -5.94 -10.47 -12.46 -11.56 -11.74 -12.46 -13.19 -13.55 -7.75
19.17 19.41 18.22 18.85 19.44 17.91 16.06 17.20 17.47 16.83 15.77 16.10 14.70 13.73 13.96 11.81 11.96 13.32 12.01 7.73 6.17 7.08 5.95 4.29 2.92 1.59 -1.16 -2.56 -3.61 -5.21 -6.84 -10.47 -12.64 -13.73 -11.19 -13.19 -18.99 -18.99 -18.45 -19.17 -15.18 -16.09 -14.09 -11.01
16.73 16.48 16.36 15.91 15.10 15.40 16.76 16.03 14.97 14.15 13.16 12.56 12.53 13.55 13.88 13.37 8.78 10.21 10.12 8.41 8.35 4.35 0.98 -3.59 -3.04 -5.75 -7.75 -10.65 -13.19 -15.18 -15.54 -14.82 -15.00 -16.45 -18.45 -19.17 -19.90 -20.62 -20.80 -18.45 -18.26 -17.90 -18.99 -20.08
14.40 12.67 12.12 12.67 12.26 12.54 12.28 12.11 10.34 9.91 9.00 7.03 7.03 5.57 6.30 7.42 6.43 4.91 1.52 0.10 0.71 -2.40 -5.96 -11.37 -11.37 -11.57 -12.82 -12.10 -16.63 -17.36 -15.91 -10.83 -13.91 -15.36 -18.63 -20.08 -20.80 -18.08 -19.35 -18.81 -21.53 -21.71 -23.34 -24.43
11.24 11.10 10.58 9.67 9.61 8.26 7.62 7.38 5.10 1.08 -2.88 -3.96 -2.18 -0.18 1.55 -0.18 -1.85 -1.17 -8.29 -8.84 -10.11 -12.82 -16.45 -17.72 -17.18 -13.19 -14.66 -18.45 -16.45 -15.73 -14.46 -16.09 -16.45 -16.09 -22.07 -22.61 -21.16 -19.71 -19.53 -21.71 -24.79 -25.70 -26.42 -27.15

GFSNGP_sfc_wetblb_054.txt.gz
Wetbulb
38.37 38.70 38.61 36.58 36.50 37.03 35.01 34.94 32.44 34.26 34.99 40.08 43.50 43.22 44.13 45.24 44.91 44.94 45.69 45.44 45.56 47.54 49.39 52.02 52.38 52.91 53.76 54.18 54.09 54.13 52.96 52.22 51.82 52.67 53.59 54.21 54.97 55.78 56.21 56.91 57.01 57.31 57.15 56.38
33.63 38.29 35.70 34.05 36.89 36.70 37.03 36.61 36.47 37.00 35.99 41.85 44.64 44.29 43.15 44.61 44.77 44.56 45.33 46.17 46.25 46.81 48.58 48.83 51.94 52.74 53.21 53.86 54.41 54.57 53.60 53.12 53.49 53.11 53.33 53.64 54.72 55.51 56.56 57.09 57.31 57.53 55.82 54.88
28.20 33.65 33.88 29.19 32.81 33.73 36.30 38.53 38.69 34.21 38.80 43.00 42.23 43.64 43.74 45.20 44.95 45.07 45.44 46.12 46.47 46.54 47.92 50.68 51.02 52.66 52.78 53.64 54.18 53.84 54.11 54.31 54.40 54.57 54.30 54.61 55.39 56.63 56.82 56.90 56.84 53.78 52.55 51.75
28.48 28.99 22.72 33.81 39.37 39.76 36.40 37.80 38.34 38.94 41.94 43.00 43.54 45.69 46.07 45.55 45.05 45.17 45.40 46.23 46.59 47.08 46.86 48.94 51.10 51.85 53.02 52.51 53.30 53.84 53.78 53.86 54.21 54.50 55.07 55.27 56.66 56.50 55.87 53.13 51.47 50.08 47.42 48.47
23.92 25.14 30.29 33.07 38.15 37.82 36.07 34.96 39.33 39.74 43.20 43.90 44.20 42.10 41.47 43.74 43.86 44.94 45.16 45.94 46.46 46.30 45.43 47.03 49.82 51.04 51.99 52.40 52.49 53.07 53.83 53.93 53.85 54.10 54.63 53.35 52.28 50.48 49.41 47.06 46.32 45.41 44.40 43.88
29.44 21.81 19.90 29.10 37.28 42.40 42.09 30.44 42.19 42.31 42.25 42.68 42.92 34.40 41.17 45.48 44.73 44.76 44.83 45.12 45.67 44.38 47.55 49.11 50.59 52.51 52.91 53.46 53.32 53.47 53.39 52.52 52.32 51.90 50.60 49.17 46.82 45.36 44.51 44.50 42.30 40.90 39.95 41.12
29.13 27.55 28.23 35.81 40.85 43.97 30.59 29.36 41.18 43.15 42.98 42.67 40.10 40.93 45.29 46.80 46.01 45.64 44.99 45.84 46.43 48.34 49.06 50.40 50.26 51.76 52.19 53.48 51.74 49.11 48.81 48.38 48.98 48.37 45.96 43.98 41.93 42.27 41.70 39.89 37.23 35.25 33.61 34.18
30.24 28.57 22.23 40.48 40.66 35.44 38.36 40.68 42.08 42.74 42.58 42.74 44.30 45.24 44.88 45.54 44.97 45.68 46.16 46.98 48.66 47.83 47.26 46.64 48.57 48.53 48.14 46.41 46.31 46.38 46.08 44.60 42.66 41.71 41.56 41.22 40.24 39.42 37.92 35.75 33.15 31.42 30.07 29.13
30.54 29.78 37.09 41.85 40.32 43.16 44.02 42.57 43.74 43.36 44.85 44.61 44.04 44.57 45.69 45.40 45.28 45.38 44.91 44.93 45.08 44.23 43.57 44.13 45.94 46.68 43.01 41.36 43.20 43.58 41.71 40.46 40.16 39.47 39.14 39.60 38.08 36.39 34.99 34.12 32.59 31.14 30.20 27.16
32.40 35.08 37.06 40.25 41.94 42.22 42.49 43.77 45.50 46.29 45.62 46.68 44.81 44.96 43.76 44.51 45.23 44.11 43.62 44.35 44.48 43.31 41.57 40.15 41.60 42.30 42.29 42.10 42.23 41.89 38.62 37.17 36.32 34.76 33.57 33.60 33.79 34.03 33.87 32.86 30.92 29.76 27.98 25.60
33.01 36.65 38.96 40.85 42.05 39.68 41.81 43.89 44.64 46.23 46.05 42.05 40.57 40.69 42.54 43.73 43.73 43.47 43.61 42.98 42.26 40.65 39.58 38.88 40.47 40.52 41.38 41.82 39.21 35.08 33.63 32.28 31.59 31.07 30.51 29.33 28.77 29.44 30.08 31.39 32.19 30.35 28.61 26.37
28.56 38.71 38.30 39.25 40.80 38.11 39.72 38.50 37.97 37.03 36.07 35.26 35.27 38.20 42.02 38.81 38.38 39.17 38.76 38.40 37.11 35.80 34.51 33.67 33.62 33.74 35.81 36.72 35.86 33.81 31.32 30.08 29.18 29.17 28.44 28.21 27.71 26.94 30.59 30.77 30.05 29.13 28.18 26.61
37.04 38.56 38.75 40.22 38.01 36.10 35.30 35.36 35.30 33.19 31.52 30.36 31.35 31.32 31.92 28.71 29.71 30.53 29.84 30.48 29.53 29.64 29.59 28.64 28.57 28.75 30.76 31.79 31.81 30.36 28.34 27.86 27.28 27.00 26.59 25.95 25.95 25.07 22.69 26.23 28.60 28.29 27.89 27.31
38.44 38.07 39.40 36.57 34.32 33.37 32.75 33.16 32.16 29.83 28.25 27.15 27.28 27.57 26.73 26.69 27.00 26.59 26.74 27.92 28.38 28.09 27.71 27.87 27.65 27.61 29.30 29.44 28.58 28.32 28.08 28.22 27.51 27.08 26.75 26.42 25.70 25.43 25.42 23.65 22.05 23.12 26.35 26.04
34.11 35.78 37.06 35.81 33.29 31.16 31.00 30.33 27.94 25.77 25.16 24.48 24.44 24.12 24.10 23.19 22.92 23.65 25.69 26.00 25.47 24.91 24.96 25.88 26.00 26.67 28.84 28.95 28.26 28.29 27.78 27.22 27.15 26.85 26.87 26.87 26.61 26.24 25.51 24.22 22.76 22.02 22.54 23.29
32.35 35.11 35.48 31.37 29.53 28.57 28.39 28.11 25.86 24.73 24.34 23.80 22.98 22.84 22.54 22.07 21.29 21.14 21.65 21.91 20.63 19.87 21.70 21.45 22.43 24.29 26.23 26.27 25.62 25.04 24.68 24.60 24.54 24.35 23.99 23.62 23.66 23.27 22.87 22.54 22.61 21.90 20.59 18.98
28.70 29.37 28.62 27.32 25.27 24.69 24.66 25.83 24.90 23.71 23.27 22.43 21.94 22.07 21.32 20.29 19.47 18.78 18.76 19.49 19.46 19.45 20.02 19.91 19.94 22.22 23.10 23.43 23.02 22.49 21.74 21.32 21.21 20.95 20.76 20.81 20.68 20.16 20.32 19.80 18.73 17.64 16.64 17.81
26.70 26.16 26.39 26.04 24.34 22.85 22.53 23.05 22.42 22.01 20.61 20.35 20.02 18.89 17.58 16.66 16.00 16.05 16.71 17.63 17.38 17.16 18.66 19.70 20.20 20.68 20.62 20.99 21.28 21.06 19.95 19.58 19.15 18.38 18.46 17.67 17.11 17.34 16.59 16.39 16.25 15.76 16.28 15.68
24.65 24.00 23.87 23.55 23.48 22.49 21.38 20.41 20.18 19.91 19.34 18.60 16.89 15.03 15.23 15.08 14.88 15.14 15.79 15.07 14.56 14.24 16.16 18.65 20.29 18.20 18.48 19.46 18.82 18.41 17.63 16.80 16.47 16.15 16.16 14.77 14.41 14.47 13.42 12.75 11.73 11.41 11.53 11.34
22.00 22.39 22.22 21.63 22.20 21.07 19.45 19.50 19.76 18.84 19.16 18.29 17.27 15.63 14.39 14.56 14.72 13.95 13.60 11.85 13.75 15.16 17.14 16.91 16.61 16.02 16.12 16.20 16.82 16.04 14.95 14.01 13.72 12.36 11.83 10.93 8.94 7.64 7.80 7.70 6.52 3.44 -0.63 -0.81
19.85 19.80 19.12 18.71 18.39 18.87 19.28 19.66 18.79 17.61 17.87 16.44 14.21 13.12 12.43 13.35 14.14 13.90 11.73 10.28 13.56 14.92 14.18 13.36 13.33 13.01 13.19 13.12 12.48 10.69 9.68 8.18 6.67 4.99 2.89 0.47 0.03 -1.47 -4.05 -6.04 -5.32 -8.40 -8.58 -8.76
19.30 18.55 18.05 18.01 16.89 16.39 17.48 17.64 17.19 16.13 15.78 15.77 15.70 14.34 12.62 11.42 10.99 10.67 11.30 10.86 11.92 10.87 10.63 9.96 9.23 6.88 7.68 7.88 7.32 4.95 5.02 3.67 1.99 1.27 -2.17 -4.61 -8.05 -10.57 -14.92 -14.56 -14.56 -14.38 -16.37 -13.66
19.49 19.25 18.31 17.38 16.26 15.98 16.59 15.76 15.09 14.51 13.42 13.04 11.99 11.63 11.61 11.94 11.81 8.71 6.97 10.84 10.44 8.01 7.65 4.07 3.53 2.54 1.67 1.24 -0.13 -2.04 -3.95 -5.35 -6.77 -9.67 -13.66 -17.28 -19.46 -20.00 -18.19 -17.82 -18.55 -19.09 -17.64 -13.84
18.34 18.27 18.30 18.30 17.65 15.94 13.88 14.73 15.14 14.79 13.59 13.64 11.62 10.72 11.40 8.92 9.22 10.95 9.29 4.53 2.53 2.13 0.41 -1.89 -2.62 -3.87 -6.59 -8.22 -9.30 -11.12 -12.93 -15.47 -17.10 -20.18 -17.10 -19.28 -24.53 -23.99 -22.72 -22.54 -18.37 -20.91 -20.73 -19.64
16.15 15.99 15.85 15.16 14.71 14.12 13.84 13.18 11.97 11.51 10.84 9.65 9.40 10.16 10.23 10.02 4.35 5.53 2.81 1.67 3.08 -2.42 -6.95 -10.39 -8.22 -10.39 -14.56 -18.01 -18.91 -19.46 -18.55 -19.09 -20.73 -21.27 -22.18 -22.90 -23.63 -23.63 -24.17 -23.99 -24.17 -23.81 -24.53 -24.71
12.84 11.62 11.72 12.02 11.82 11.21 10.72 9.95 7.22 7.06 7.42 4.53 3.93 1.95 0.04 1.88 1.46 0.41 -2.73 -4.34 -3.48 -6.63 -10.94 -18.91 -18.91 -19.28 -20.36 -18.01 -21.09 -20.73 -18.91 -15.66 -18.91 -19.46 -22.90 -23.45 -23.45 -20.91 -22.72 -21.99 -25.26 -25.44 -26.71 -25.80
9.22 9.47 9.20 8.29 7.52 6.90 6.35 5.54 2.19 -2.43 -6.22 -7.67 -3.38 -0.48 -3.37 -6.61 -8.40 -4.81 -13.66 -15.47 -16.56 -18.37 -20.91 -22.18 -21.99 -17.64 -18.55 -20.00 -16.19 -17.64 -17.82 -19.09 -20.36 -20.00 -25.26 -24.71 -23.81 -25.44 -25.80 -26.71 -26.89 -26.35 -26.35 -27.80

GFSNGP_sfc_wetblb_057.txt.gz
Wetbulb
38.93 39.14 39.26 37.64 37.55 38.66 37.16 37.78 34.44 37.22 37.62 42.63 45.15 46.72 48.87 49.71 48.95 49.35 50.07 50.30 50.06 50.62 53.53 54.58 54.85 55.77 55.94 55.98 56.19 55.92 54.62 54.62 54.60 55.45 55.70 55.89 56.08 56.20 56.48 56.68 56.00 57.19 57.66 57.36
34.13 37.99 37.35 34.76 37.80 36.62 38.27 38.50 38.42 39.20 39.26 44.45 45.89 47.10 46.82 48.19 48.41 48.79 49.65 49.91 51.07 51.07 50.73 52.77 54.58 55.23 55.99 56.20 56.77 56.73 55.63 54.53 55.54 56.03 55.77 55.89 56.26 56.29 56.79 57.28 57.53 57.81 58.05 57.36
29.83 34.85 34.22 30.73 36.13 36.64 37.94 39.23 39.14 35.31 39.40 43.00 45.29 45.47 45.96 47.54 49.12 47.71 48.92 49.49 50.34 50.86 51.70 52.47 53.73 55.10 55.80 56.86 57.15 56.52 56.26 56.07 55.99 55.80 55.40 55.66 56.01 56.18 56.58 56.98 58.08 58.08 57.76 57.55
30.18 31.39 23.68 35.36 40.83 40.48 40.21 40.77 40.89 40.04 40.70 45.15 45.81 47.08 48.31 48.16 47.87 48.72 48.70 48.93 50.19 51.04 52.27 53.07 53.95 54.77 56.24 56.54 56.65 56.47 56.11 55.95 56.03 56.12 55.43 55.61 55.31 55.45 56.67 57.69 57.83 56.92 56.31 56.21
28.98 28.58 31.99 35.42 38.06 38.66 38.48 37.16 41.76 42.28 44.30 45.53 46.91 46.74 48.20 48.71 49.65 49.31 49.79 49.18 48.72 50.45 51.24 52.04 51.78 53.84 54.53 55.11 56.23 55.63 55.68 55.99 56.14 56.41 56.14 56.35 56.11 56.40 57.22 53.66 50.66 48.38 47.44 47.13
29.96 26.41 23.21 33.37 39.04 44.11 42.48 32.77 43.20 43.88 44.00 44.16 45.52 42.01 45.40 49.48 49.21 49.19 49.87 50.10 49.29 49.43 49.18 49.75 51.14 52.95 53.52 54.09 54.83 55.21 55.63 56.12 56.39 56.52 56.37 55.62 54.53 51.95 47.22 47.06 43.44 42.83 41.27 41.56
30.18 28.79 31.69 38.17 40.77 43.74 31.21 33.95 43.61 44.30 44.65 44.28 43.04 45.92 48.21 48.69 49.05 49.32 48.78 49.36 51.08 51.94 50.86 51.42 52.95 54.31 53.80 54.72 53.90 52.91 53.61 53.47 52.12 51.81 48.93 46.70 44.51 43.85 42.31 39.89 37.70 35.61 33.97 35.66
32.06 28.33 25.57 40.30 42.69 37.25 40.65 44.15 44.37 45.45 45.11 44.79 46.26 46.99 47.32 47.79 47.42 47.78 47.54 48.30 48.88 49.29 48.71 50.06 52.36 54.14 52.39 48.28 48.73 48.76 47.15 45.20 44.08 43.97 43.41 42.76 42.00 40.96 38.33 36.49 33.64 32.35 31.28 30.56
34.08 33.80 39.89 43.58 42.87 42.71 43.33 42.48 44.08 44.86 46.52 46.46 46.66 46.62 46.37 45.60 46.12 46.27 46.21 46.88 47.26 46.88 45.65 44.77 46.95 49.99 46.49 44.66 45.06 43.98 42.56 41.26 40.86 40.50 40.37 39.90 38.13 36.67 35.06 34.46 33.03 31.74 30.41 28.69
35.59 38.70 39.37 41.97 42.93 41.42 42.35 41.02 40.52 42.59 40.15 39.59 38.05 40.10 41.61 43.71 43.39 43.30 43.81 43.77 44.77 44.15 42.44 41.53 42.60 43.52 44.15 43.77 43.40 41.42 38.87 37.93 36.88 35.58 34.72 34.97 35.08 35.24 33.89 32.56 31.70 30.61 29.24 27.52
35.82 38.62 40.63 41.18 39.71 39.22 40.24 40.22 39.26 39.32 37.41 35.61 34.79 35.67 38.33 35.60 35.09 36.04 36.32 37.48 38.28 38.35 37.58 36.82 37.74 37.44 38.71 39.77 39.55 37.81 36.21 35.04 33.84 32.77 31.73 30.31 29.98 31.22 31.10 31.32 32.91 31.44 29.35 27.99
34.32 39.03 38.04 39.39 38.42 37.52 37.84 36.15 35.48 34.23 33.99 33.23 32.59 31.86 32.59 31.09 31.39 31.43 30.97 31.76 32.46 32.01 31.47 31.13 32.71 33.64 34.18 35.99 36.81 35.29 33.61 32.90 32.14 31.58 31.22 30.13 28.48 27.66 30.28 29.96 29.77 29.33 28.50 27.47
36.28 38.77 39.16 40.68 36.77 35.39 34.48 34.14 32.94 30.80 29.71 28.52 29.53 29.80 29.69 28.87 29.12 28.94 28.86 28.60 28.36 28.49 29.17 29.61 29.39 29.93 30.56 31.90 31.93 31.49 30.56 30.13 28.82 28.28 28.02 27.05 26.84 26.09 24.11 27.13 29.05 28.66 28.43 28.20
37.27 38.02 38.17 35.38 33.71 33.09 32.38 32.10 30.60 29.39 27.99 27.01 27.31 27.82 26.86 26.34 26.38 25.98 25.44 25.86 26.04 25.87 26.18 26.90 26.79 26.74 29.57 30.51 29.89 29.14 28.57 28.31 28.03 27.68 27.51 27.51 27.28 27.66 27.34 25.53 24.39 24.98 27.09 26.96
32.66 34.95 36.64 34.64 32.37 30.49 30.77 30.24 28.02 26.10 25.62 24.55 25.24 24.68 24.43 22.74 21.96 22.02 23.89 24.49 24.13 23.56 23.64 23.93 23.98 24.25 26.97 26.86 26.01 26.52 26.80 26.64 26.84 26.77 26.84 27.32 28.04 27.31 26.12 24.65 23.71 22.97 22.73 22.57
30.59 32.96 32.87 29.90 28.02 27.38 27.36 27.01 24.80 24.63 24.35 23.37 22.56 22.12 21.43 21.07 20.34 20.28 20.96 21.08 19.87 18.98 20.76 20.43 20.94 23.03 24.76 24.68 23.98 23.63 23.76 23.80 24.39 25.39 25.53 25.23 25.38 24.80 24.54 23.90 22.99 21.93 20.81 20.55
27.21 27.89 27.85 25.63 24.71 24.40 24.01 24.66 23.92 22.60 21.66 21.11 21.38 21.59 20.55 19.45 19.13 18.48 18.68 19.49 19.05 18.91 19.88 20.03 20.10 21.94 22.85 23.06 23.44 22.92 22.40 22.53 22.10 22.43 22.37 22.47 22.36 21.95 21.87 21.26 20.04 19.43 18.93 19.25
26.44 26.13 26.18 25.47 23.68 22.61 22.02 22.15 21.66 20.75 19.19 18.98 18.61 17.88 16.76 16.12 15.53 16.10 17.25 18.12 17.22 16.50 17.68 18.75 19.54 20.12 20.14 21.15 21.73 21.50 20.93 20.55 20.05 19.27 19.36 19.30 19.20 19.31 18.72 18.13 18.16 16.99 16.12 15.62
24.78 23.41 23.36 22.86 22.85 21.87 20.85 19.74 19.46 19.06 18.51 17.66 15.91 14.66 14.77 14.67 14.88 15.30 15.89 15.03 14.53 13.94 15.22 17.55 18.54 17.89 18.22 18.93 19.34 19.44 18.69 18.19 17.75 17.21 16.71 15.60 15.87 15.47 14.97 14.52 13.80 13.97 14.09 13.58
21.42 21.58 20.96 20.82 21.50 20.48 18.98 19.42 18.80 17.71 17.68 16.81 15.96 14.96 14.06 14.19 14.91 14.15 13.50 11.35 12.09 13.18 14.67 14.98 15.23 14.92 14.73 14.29 15.58 15.48 14.82 14.47 13.61 12.41 12.18 11.61 11.60 11.24 11.21 9.57 10.83 10.84 11.33 10.97
18.82 19.18 18.53 17.79 17.14 17.64 18.01 18.56 17.19 15.61 15.82 15.37 13.56 12.18 11.35 12.08 13.17 13.75 11.06 9.24 10.73 12.25 12.48 11.72 12.37 12.74 12.63 12.75 12.75 12.24 11.52 10.47 9.53 8.51 8.61 8.28 8.39 8.28 8.02 8.02 7.90 7.70 7.70 7.74
18.88 17.82 17.15 17.11 16.11 15.84 16.58 16.91 16.64 15.61 15.13 14.63 14.02 13.38 12.48 11.48 10.87 9.96 10.41 9.35 10.49 9.74 10.37 10.48 9.82 6.68 8.17 9.55 10.06 9.40 8.52 8.15 7.90 7.71 6.97 6.77 6.25 5.45 4.89 4.73 4.33 4.58 4.88 5.01
19.08 18.27 17.72 16.52 15.58 15.40 15.72 15.24 14.37 13.87 12.63 11.92 11.07 11.19 11.34 11.13 11.41 9.39 7.17 9.68 10.24 8.03 8.45 6.46 3.85 3.32 3.90 6.70 6.57 5.91 5.31 4.74 4.58 4.08 3.88 3.40 3.54 3.54 3.34 2.84 2.50 2.69 2.26 2.14
18.76 18.33 17.48 17.61 16.99 15.65 13.78 14.68 14.86 14.30 13.11 12.46 10.56 10.90 11.54 9.47 9.41 10.38 8.82 4.68 2.64 3.59 3.97 3.67 1.81 -0.45 1.67 5.06 4.72 4.23 4.41 3.99 3.38 3.51 3.02 -1.40 1.57 1.63 1.69 0.47 0.64 1.16 0.27 -0.79
16.91 16.46 16.18 15.67 14.59 13.65 13.26 12.97 12.26 11.39 10.52 9.81 9.60 10.00 10.38 10.37 8.37 6.87 6.96 5.75 3.96 3.89 3.36 -4.34 -4.00 -3.06 3.00 3.24 2.86 2.37 2.24 2.67 1.70 2.29 1.35 0.99 0.15 -0.57 0.05 -0.56 -1.91 -1.71 -2.30 -2.84
13.99 12.83 12.71 12.65 12.42 12.14 11.75 11.27 9.60 9.61 9.16 7.00 5.83 5.74 5.41 6.37 5.72 5.86 4.37 2.12 3.10 1.00 1.77 1.02 -0.01 0.99 1.51 1.66 1.17 0.66 1.75 2.07 1.69 0.99 -1.21 -0.60 -1.17 -1.00 -2.52 -3.16 -4.19 -4.74 -5.74 -6.39
10.54 10.55 10.71 9.41 9.16 9.31 9.53 8.64 8.13 5.62 4.78 5.98 4.59 5.42 4.26 4.29 3.22 3.67 -1.45 2.26 1.82 0.64 0.07 -0.30 -0.20 -0.96 0.71 1.12 1.24 0.81 0.77 0.62 -5.25 -1.06 -2.09 -1.88 -2.86 -3.42 -5.52 -6.58 -6.91 -7.43 -8.15 -8.68

GFSNGP_sfc_wetblb_060.txt.gz
Wetbulb
39.84 40.44 41.08 40.43 40.53 41.59 41.11 41.90 38.10 40.79 41.08 44.57 47.11 47.56 49.36 51.33 51.94 52.53 53.45 54.39 55.33 55.55 56.80 58.59 59.19 60.29 60.33 60.44 60.27 60.35 59.25 58.51 59.09 59.60 59.47 59.35 59.25 59.38 59.45 59.46 59.18 59.18 59.37 59.85
35.46 39.13 39.50 37.17 40.02 41.10 41.26 42.60 42.72 43.28 42.65 47.93 48.24 49.02 49.71 50.85 51.88 51.26 51.56 53.62 55.05 55.68 55.99 56.11 58.22 59.55 60.30 60.19 60.19 60.25 59.30 59.04 59.24 59.24 59.02 58.80 58.81 58.83 58.91 58.86 58.42 58.63 58.84 58.81
31.23 36.94 36.55 32.97 38.21 39.98 42.20 44.05 43.76 40.41 44.54 46.40 45.59 48.16 50.04 51.27 51.37 51.11 51.79 52.26 52.93 53.78 54.61 55.80 56.92 58.01 59.52 60.76 61.22 60.10 59.38 59.22 59.12 59.12 58.79 58.82 58.81 58.54 58.30 58.42 58.81 58.61 59.32 59.25
32.19 33.92 25.43 38.06 44.36 44.16 42.93 43.83 45.45 43.52 44.35 46.67 48.36 50.66 51.93 52.02 52.17 52.20 52.28 53.09 54.11 54.06 54.80 55.39 56.39 56.79 58.68 60.11 60.90 60.51 59.88 59.37 59.42 59.15 58.72 58.93 58.72 58.23 58.65 59.16 58.95 59.21 59.42 59.69
31.05 31.28 35.05 37.55 40.46 40.70 41.42 40.36 44.29 43.82 45.34 47.12 49.06 50.75 50.91 52.34 51.98 52.18 52.91 53.78 54.08 55.62 55.61 55.29 55.41 55.62 56.13 57.20 58.97 59.87 59.70 59.89 60.05 59.40 58.90 58.63 58.01 58.42 58.77 59.02 59.05 59.08 59.01 59.19
33.30 28.31 26.00 37.08 42.66 45.69 44.45 35.40 44.88 45.29 45.18 45.98 47.54 44.11 48.68 51.52 52.01 51.72 52.92 53.93 54.15 55.37 56.52 56.79 55.84 56.37 55.26 56.39 57.52 57.87 58.93 59.78 60.54 60.16 59.04 58.99 59.28 58.83 58.99 58.88 57.11 48.98 42.70 43.33
32.08 30.89 34.22 41.59 43.49 46.36 33.56 36.99 45.74 46.38 46.65 47.00 45.63 47.98 50.60 52.32 51.34 51.91 52.07 52.28 53.32 54.48 54.12 53.47 54.94 56.24 56.32 56.80 56.53 57.94 58.86 59.18 59.27 59.76 59.45 59.54 57.68 53.50 48.63 42.62 38.98 36.62 34.92 35.64
32.95 29.70 27.57 43.89 43.42 37.90 43.34 46.48 46.61 47.52 48.35 47.90 48.75 49.99 49.64 49.64 49.91 49.59 49.63 50.32 50.98 50.85 49.73 47.64 49.15 54.22 55.06 51.82 52.55 54.24 52.80 50.29 48.50 48.30 46.56 46.51 44.81 41.71 40.64 38.42 35.17 33.48 32.41 31.30
36.42 36.29 44.53 46.45 45.27 46.16 46.56 45.10 44.52 45.12 45.85 45.65 46.55 46.07 46.56 47.20 45.17 44.85 45.36 46.02 47.40 46.22 43.19 42.71 43.16 45.20 45.04 44.34 44.87 43.96 42.45 40.90 40.06 39.80 39.90 41.24 40.69 39.47 38.56 36.85 34.43 32.38 30.75 29.58
38.18 41.35 43.18 45.02 45.86 45.93 45.62 44.24 44.12 43.89 43.28 43.21 42.90 43.16 43.77 42.50 40.39 40.49 37.84 39.97 41.36 40.26 36.00 34.86 37.22 38.36 39.86 42.57 41.54 40.59 38.15 36.21 35.45 35.22 34.15 34.65 35.63 35.56 34.18 33.25 31.94 30.93 29.34 27.40
38.98 42.06 44.06 43.40 42.99 43.77 44.70 44.35 42.95 42.37 41.22 39.61 39.99 40.63 40.85 40.14 38.57 38.03 35.18 35.30 35.46 34.56 32.38 31.87 32.93 33.54 36.27 38.42 37.88 35.48 34.43 33.42 32.61 31.70 30.49 29.34 29.31 30.82 31.06 31.86 32.63 30.14 28.84 27.93
36.56 41.87 41.44 42.08 41.49 41.48 42.21 41.06 39.85 38.70 37.98 38.36 36.48 36.06 35.27 34.14 35.06 33.51 31.97 31.83 31.99 31.27 29.94 30.49 30.77 31.38 32.49 34.47 36.15 33.58 32.44 32.10 31.77 31.45 30.66 29.11 27.53 27.04 29.89 30.12 29.93 29.53 28.96 28.05
40.96 42.20 42.51 42.97 40.78 39.74 38.85 36.55 36.25 35.68 34.77 34.12 34.40 34.07 33.29 30.10 29.45 28.96 28.21 27.94 27.65 27.91 28.38 28.40 27.71 27.68 30.12 31.13 31.93 31.13 30.31 30.00 29.43 28.97 28.69 27.61 27.44 26.36 24.30 27.70 29.30 29.32 29.29 29.20
39.65 39.97 39.66 39.55 38.31 37.47 36.69 34.86 33.44 33.51 33.06 31.25 31.20 30.29 28.72 27.02 26.24 25.55 24.93 25.27 25.62 25.46 24.76 25.39 25.13 25.50 27.48 29.55 28.99 28.28 28.04 28.42 29.19 28.82 29.29 29.54 29.40 29.45 29.09 26.91 25.44 25.74 27.73 27.86
34.24 35.39 35.17 35.04 32.84 31.28 32.03 31.96 29.66 27.56 27.16 26.25 25.66 24.12 23.86 21.99 21.56 22.02 23.45 23.80 23.61 22.69 23.04 23.72 23.80 24.23 26.57 27.09 26.12 27.06 27.77 27.41 28.45 29.03 29.59 29.55 29.45 28.67 27.85 26.53 24.96 24.43 24.75 24.81
33.98 34.66 31.60 29.22 27.94 28.09 28.10 27.58 25.35 23.82 23.89 23.97 23.27 23.04 22.79 22.61 21.62 21.12 21.20 20.95 19.59 19.94 21.61 21.26 21.77 24.22 26.81 27.65 27.45 27.19 26.40 26.04 27.19 27.55 27.87 27.89 28.24 27.51 26.39 25.53 24.74 24.17 23.18 23.48
30.84 29.83 29.33 26.68 26.01 25.45 25.13 25.33 24.89 22.78 22.75 22.94 23.33 23.30 22.88 21.92 20.16 19.92 19.66 19.97 19.58 19.94 20.55 20.94 21.28 22.99 25.01 25.92 27.06 27.03 26.60 25.67 24.74 24.74 24.37 24.81 24.33 23.51 24.04 23.84 21.73 19.87 19.13 20.48
28.38 28.34 27.95 28.02 26.21 24.77 24.04 24.02 23.37 22.74 20.99 20.73 20.02 19.59 18.45 18.05 17.71 17.98 18.68 19.46 18.66 17.63 18.53 19.45 20.12 21.50 21.55 23.83 24.94 25.05 24.73 23.81 23.32 22.05 21.89 21.91 21.45 21.62 21.37 20.76 20.26 19.44 18.92 18.29
27.12 25.77 25.76 25.02 24.55 23.38 21.89 20.82 19.94 19.51 19.21 18.91 18.07 17.10 17.14 16.94 16.96 16.53 17.31 16.80 15.95 15.31 15.47 17.75 18.43 18.32 18.41 19.66 22.32 22.77 22.18 21.45 21.06 20.16 19.91 19.02 19.05 18.89 18.61 18.67 18.18 17.67 17.61 17.16
23.23 23.54 23.44 22.58 22.69 20.99 19.14 19.42 19.36 18.41 18.86 18.62 17.99 16.95 16.09 15.77 15.74 15.06 14.12 12.32 13.17 14.25 15.38 16.31 17.59 16.87 17.26 16.97 18.43 19.08 19.21 18.53 17.32 16.43 16.65 16.99 16.85 16.70 15.90 13.77 15.42 15.87 15.91 14.99
20.86 20.74 19.75 19.08 19.00 19.51 19.29 19.22 17.93 16.27 16.64 16.73 15.56 13.94 13.19 13.95 14.58 15.69 14.62 12.65 13.00 14.24 14.80 13.76 14.05 15.75 16.22 17.12 17.22 17.22 16.26 15.81 15.32 14.94 14.35 14.18 13.96 13.52 13.67 13.68 13.33 13.09 13.30 13.23
20.57 18.94 18.17 18.05 17.30 16.97 18.20 18.38 17.93 17.20 16.27 15.66 15.18 14.69 14.08 13.87 12.82 12.00 11.82 12.37 13.53 11.96 13.56 13.26 12.60 9.69 12.60 13.12 14.16 13.72 13.09 12.73 12.55 12.80 12.13 12.14 12.04 11.91 11.27 11.02 10.72 10.88 11.19 11.02
20.10 19.37 18.72 17.67 17.17 17.17 17.61 16.99 16.36 15.87 14.60 14.32 13.88 14.36 14.60 15.05 15.91 14.22 10.47 12.10 13.15 11.04 12.25 10.42 7.69 8.06 10.12 13.18 12.87 12.19 11.37 10.83 10.73 10.27 10.18 10.10 9.92 9.73 9.66 8.47 9.46 8.95 8.64 7.90
20.06 19.84 19.22 19.97 19.71 18.81 16.76 17.17 16.92 15.92 14.45 14.14 13.29 14.16 15.59 14.29 13.54 14.02 12.48 8.93 7.87 8.77 7.91 7.21 6.66 6.85 9.46 12.14 11.45 10.76 10.99 10.68 10.34 10.04 9.87 6.97 9.23 8.62 7.92 6.97 6.54 7.61 6.73 5.65
19.70 19.85 19.46 18.69 17.59 16.93 16.48 16.17 15.62 15.08 14.49 14.19 13.92 14.24 14.15 14.99 13.20 12.47 12.95 10.85 7.78 10.43 10.42 5.20 5.16 6.68 10.43 10.48 9.27 9.03 9.34 8.89 7.32 8.66 8.12 7.82 7.31 6.65 6.95 6.55 4.89 4.77 3.61 4.07
17.88 17.25 17.19 17.33 17.56 17.88 17.59 17.63 16.25 16.16 15.42 13.21 12.93 13.45 13.44 13.23 12.68 12.92 10.76 8.57 8.82 8.19 9.08 9.17 7.33 9.02 9.53 8.40 8.27 7.09 7.88 8.21 7.65 7.27 5.13 6.36 5.69 5.45 4.35 3.46 2.88 2.72 2.28 1.78
16.55 16.49 16.82 15.98 16.05 15.93 16.14 15.76 15.08 13.28 13.86 13.57 11.22 12.54 12.44 12.30 10.87 10.85 8.60 10.25 9.81 9.02 9.11 8.69 8.84 6.72 7.06 7.00 7.60 7.37 7.38 7.57 3.77 4.30 5.56 5.11 4.39 4.10 2.56 1.41 1.62 1.11 0.43 -0.42

GFSNGP_sfc_wetblb_063.txt.gz
Wetbulb
41.08 42.25 43.02 41.65 41.19 41.81 40.72 41.47 38.06 41.30 41.97 45.77 47.71 48.70 48.94 50.95 52.62 53.29 53.90 54.43 55.78 56.42 57.61 59.14 60.77 61.93 62.29 62.51 62.57 62.43 61.28 60.27 60.94 62.32 62.50 62.06 62.40 62.43 62.44 62.27 62.28 62.34 62.07 62.18
37.19 40.81 41.41 39.87 42.29 43.39 43.20 43.51 43.41 43.63 43.28 49.25 50.20 49.25 49.00 51.15 51.86 52.29 53.26 54.30 55.23 55.72 56.24 56.77 57.57 59.62 61.28 61.95 62.28 62.54 61.57 61.66 61.43 61.88 61.70 61.74 61.81 61.89 62.12 62.02 61.80 62.00 61.17 61.07
30.93 37.56 36.93 34.17 39.67 41.13 42.17 44.48 44.36 40.39 45.42 48.51 46.99 47.72 49.16 50.14 51.93 52.01 52.65 53.47 54.24 55.21 56.03 56.92 57.45 57.87 58.49 60.81 62.83 62.16 61.96 61.66 61.72 62.03 61.37 61.38 61.69 61.09 61.19 61.20 61.68 61.03 60.86 60.83
32.86 34.27 25.18 39.22 44.42 44.99 43.24 45.30 46.37 46.04 45.93 47.24 48.19 49.81 50.71 53.17 51.86 51.85 52.04 52.86 54.23 55.44 56.36 57.85 58.35 58.18 58.16 58.68 60.09 61.61 61.21 61.31 61.63 61.76 61.38 61.50 60.92 60.35 60.70 60.94 60.70 60.35 60.47 60.56
31.13 31.93 36.25 38.30 41.03 42.33 42.22 41.68 45.77 44.81 45.81 46.93 48.34 49.36 50.42 53.30 52.94 51.85 52.30 53.31 54.16 55.16 56.56 57.35 57.46 58.41 58.32 57.06 57.54 59.19 60.90 61.21 61.45 61.84 60.85 61.00 60.86 60.78 60.99 60.88 60.56 60.77 60.55 59.95
34.43 28.63 26.86 38.31 44.11 46.42 46.66 37.78 46.08 46.29 45.85 46.31 47.77 43.19 47.73 51.94 52.88 52.51 53.07 53.28 52.98 54.39 54.69 50.93 50.21 52.93 56.34 57.33 57.16 56.96 58.20 60.30 62.02 61.96 61.21 60.65 61.05 61.14 61.46 61.32 60.42 59.23 52.62 45.67
32.29 31.71 35.94 42.85 44.60 46.40 35.24 37.88 46.72 47.33 47.90 47.70 46.12 48.70 51.39 52.52 52.07 52.46 52.08 51.13 51.58 52.46 48.83 43.06 42.27 45.07 55.01 56.32 55.64 57.46 59.09 59.37 60.08 61.34 61.43 61.26 61.54 60.62 59.35 53.86 44.28 39.24 36.15 36.39
33.64 30.43 28.14 45.37 43.87 39.49 44.26 47.60 47.10 48.01 47.74 47.46 49.04 50.19 50.10 50.64 49.09 48.50 47.99 47.87 48.26 48.15 44.70 39.40 38.21 38.92 42.06 43.53 46.17 48.19 49.43 47.28 46.52 46.74 47.93 49.43 49.03 45.60 42.41 39.75 36.42 34.57 33.87 31.65
36.15 35.95 45.50 47.87 46.44 48.00 48.19 46.66 46.38 46.60 46.85 46.70 46.85 46.43 47.93 47.46 46.51 46.12 45.38 45.42 44.27 43.50 40.50 37.23 35.32 35.63 34.58 38.48 41.12 40.53 39.38 38.28 37.82 37.70 37.83 38.15 38.54 38.30 37.65 37.38 35.26 32.40 31.18 29.29
39.60 42.45 44.43 46.37 47.83 47.67 47.88 46.69 46.62 46.63 46.18 45.56 44.16 45.74 45.12 45.43 44.59 43.84 43.21 42.38 40.79 39.62 35.59 34.37 34.15 33.28 33.61 35.65 37.80 36.84 34.70 33.84 32.87 31.83 31.50 32.51 33.12 33.97 33.93 32.61 31.78 30.50 28.69 27.18
40.47 42.79 45.40 45.18 45.89 45.75 46.52 46.52 45.17 45.20 44.04 42.46 42.06 42.63 41.31 41.25 39.01 38.03 38.03 37.56 37.54 35.96 33.58 31.07 31.87 31.79 32.40 33.52 35.06 33.98 33.06 32.35 31.47 30.33 29.49 28.64 28.76 29.59 29.29 29.91 31.17 29.63 28.50 27.93
38.40 44.00 44.23 42.13 45.02 44.68 44.48 43.08 42.00 41.59 41.30 41.37 39.74 38.70 37.35 34.77 32.48 31.05 30.18 30.70 30.27 31.13 30.48 28.22 29.12 28.89 30.46 31.46 31.83 31.32 29.95 30.09 29.78 29.36 29.89 27.78 27.46 26.87 29.96 30.15 30.13 29.88 29.72 28.69
42.38 44.62 44.96 44.43 43.27 42.95 41.80 39.97 39.50 38.88 37.97 37.68 37.13 35.82 33.39 30.05 28.74 27.95 26.97 26.46 27.21 25.96 26.27 26.52 26.80 26.70 27.97 30.07 30.38 29.25 29.26 29.37 28.82 28.94 28.65 27.30 26.82 25.77 23.90 27.16 29.29 29.48 29.66 29.48
41.38 41.66 41.50 39.10 34.61 36.18 38.12 37.85 36.57 35.60 33.38 32.68 32.46 30.88 28.53 26.01 24.66 23.97 23.72 24.74 25.60 24.79 24.86 25.47 25.73 27.03 28.92 29.59 30.08 29.23 29.54 30.19 30.34 29.78 29.72 29.27 28.79 27.92 27.25 25.02 23.46 23.78 27.19 27.17
37.73 38.61 37.89 36.00 33.90 32.49 33.19 32.86 30.71 29.19 29.76 28.33 27.73 27.26 27.05 25.54 24.66 23.96 25.05 26.67 25.81 24.55 24.16 24.74 24.71 25.58 29.22 29.63 28.86 27.38 29.45 30.17 30.24 30.12 30.42 30.01 29.64 28.43 27.20 26.27 25.68 24.78 25.21 25.61
36.36 35.31 34.24 31.76 29.81 29.29 29.32 28.39 27.36 26.18 25.83 24.89 24.37 24.30 24.81 25.03 24.48 23.69 23.57 23.29 21.53 21.11 22.23 22.14 21.89 24.81 28.17 29.73 29.33 28.22 27.14 26.94 27.46 28.14 28.16 27.90 27.98 27.07 26.08 24.58 22.33 21.80 22.04 24.24
32.65 31.08 31.75 30.46 30.11 29.11 28.04 27.82 27.40 26.54 26.33 25.45 25.49 25.57 24.89 23.97 22.93 21.19 21.27 21.42 20.15 20.05 20.48 20.24 20.86 22.13 25.82 27.62 27.49 26.92 26.69 25.84 25.10 26.06 25.59 25.32 25.22 24.53 23.11 21.90 20.50 19.17 19.42 21.53
29.83 29.68 30.58 29.97 28.11 26.48 25.73 25.95 25.38 24.53 22.75 22.41 22.02 21.41 20.03 19.17 18.98 19.12 19.77 20.08 19.12 17.98 19.27 19.84 20.48 21.19 21.64 25.10 25.70 25.35 25.16 24.28 23.63 22.75 22.62 22.73 22.39 22.22 22.22 21.38 20.62 19.78 19.34 19.13
28.48 27.49 27.34 26.72 26.54 25.05 23.57 22.15 21.48 21.39 20.53 20.31 18.91 17.27 17.08 16.93 16.86 16.50 16.93 16.42 15.92 14.68 15.24 19.04 19.24 19.83 19.60 20.61 23.16 23.36 22.31 21.75 21.56 21.52 21.32 20.46 19.81 19.85 20.12 20.27 19.67 19.13 18.48 17.60
24.82 25.41 24.67 23.35 23.56 22.34 20.46 20.39 20.60 19.55 20.17 19.93 19.04 17.58 16.30 16.85 17.52 16.61 15.70 12.92 13.86 15.43 16.17 16.33 18.73 18.46 18.89 19.08 20.26 20.92 20.27 20.13 19.22 17.83 17.76 18.14 18.32 17.90 17.52 15.72 16.88 17.06 16.70 16.21
22.51 22.10 21.37 20.54 20.00 20.32 19.87 19.94 18.61 17.25 18.05 17.81 15.80 14.14 13.58 14.04 13.90 17.02 16.93 14.29 14.06 15.64 15.97 14.86 14.31 17.15 17.59 18.38 18.97 18.78 18.48 17.99 17.23 17.01 16.82 16.62 16.70 15.84 15.27 15.33 15.44 15.09 14.66 14.59
21.89 20.85 19.95 19.82 19.24 19.10 20.11 20.31 19.65 18.59 17.88 17.32 17.08 17.25 17.04 16.58 14.72 13.39 12.93 14.45 15.14 13.81 14.80 13.75 12.95 12.49 15.33 16.16 17.01 16.46 15.65 15.30 15.30 15.27 14.80 14.84 14.73 14.40 13.72 13.65 13.04 13.20 13.04 12.71
21.90 21.35 20.67 19.60 19.23 19.29 19.47 18.73 18.25 17.73 16.21 15.91 15.32 15.49 15.27 15.51 16.27 15.19 11.81 12.98 14.09 11.73 13.82 11.14 9.04 10.85 13.71 16.33 16.17 15.79 14.94 14.08 13.86 13.74 13.02 13.45 12.89 12.76 12.36 10.79 11.48 11.62 11.00 9.96
21.99 22.15 21.68 22.00 21.89 20.31 18.16 18.47 18.09 16.81 15.70 15.61 14.80 15.38 18.27 16.97 16.05 16.82 15.04 12.19 10.76 11.47 9.44 9.12 8.96 9.92 12.72 14.95 14.24 13.84 13.64 13.19 12.76 13.06 12.71 10.67 11.85 11.23 10.85 10.06 9.19 9.73 9.25 8.47
22.38 22.01 21.52 20.96 19.97 19.31 18.50 18.35 17.95 17.51 17.20 17.05 16.81 16.72 16.37 17.17 15.97 14.85 15.40 13.74 10.31 13.40 14.05 8.19 8.79 10.70 13.47 13.38 12.34 11.86 12.51 12.38 10.22 10.70 10.63 10.60 10.07 9.59 9.57 9.04 8.08 7.12 6.46 7.25
21.54 21.25 21.01 21.04 21.23 21.73 21.44 21.83 20.36 20.01 19.16 16.86 16.58 16.74 16.74 16.68 16.01 16.60 14.20 11.63 12.28 12.00 12.92 13.09 10.96 11.54 12.59 11.92 11.33 10.77 10.78 11.27 10.43 9.76 8.30 9.27 8.95 8.58 8.01 6.80 6.06 6.42 6.00 5.51
20.28 20.28 20.49 19.94 19.92 19.74 20.01 19.61 19.66 17.92 18.16 17.82 15.50 16.65 16.34 16.33 13.95 14.58 12.02 13.94 13.81 13.15 13.31 12.83 12.67 10.08 9.64 9.11 10.73 10.47 10.48 10.49 8.39 7.18 7.21 8.06 7.67 7.59 6.59 5.44 4.98 4.65 4.31 3.64

GFSNGP_sfc_wetblb_066.txt.gz
Wetbulb
38.43 40.62 41.36 39.73 39.71 41.52 38.83 40.16 36.36 39.62 40.80 45.15 47.26 48.44 49.08 51.19 51.63 52.67 53.41 54.05 54.51 54.92 55.59 56.58 59.17 61.24 61.68 62.11 61.88 61.20 59.98 59.07 59.16 60.18 60.61 60.48 59.91 59.93 60.18 60.13 60.08 60.06 59.27 58.67
35.03 40.59 40.95 39.24 40.81 41.53 42.03 42.42 41.44 42.14 41.48 47.30 49.99 50.42 49.66 50.42 51.38 51.00 51.54 52.66 53.95 55.02 55.73 56.05 56.71 57.14 57.38 61.02 61.84 62.13 60.70 59.83 59.98 59.72 60.46 60.13 60.22 60.46 60.55 60.28 59.82 59.80 59.22 59.18
31.15 36.46 36.68 34.43 39.79 40.72 41.52 42.70 43.56 37.62 42.25 46.00 47.53 47.29 48.55 50.20 50.29 49.89 50.35 51.48 52.51 53.44 54.88 56.02 55.50 56.23 56.18 57.49 58.00 61.49 61.15 61.08 60.83 60.32 59.64 59.85 60.06 59.90 59.46 59.24 59.37 58.93 58.97 59.03
31.15 33.08 25.85 39.09 44.99 44.63 42.73 43.00 44.51 45.18 45.70 46.99 47.59 48.86 50.92 51.32 50.11 49.85 50.62 51.07 51.65 52.85 53.66 51.57 50.47 50.43 51.34 53.64 57.05 57.57 59.23 60.93 61.24 60.86 59.98 59.82 59.54 59.04 59.11 59.17 58.68 58.54 58.60 58.61
30.70 30.53 34.56 37.40 40.88 41.42 41.60 40.82 44.15 43.78 46.13 47.01 47.94 49.27 49.20 51.62 51.61 50.82 50.89 50.64 51.12 51.63 49.04 46.86 44.93 46.38 50.13 54.20 55.14 57.07 55.43 57.23 60.60 60.82 60.21 60.07 59.09 58.56 58.93 58.44 58.21 58.11 58.50 58.12
32.39 27.95 25.66 37.94 43.56 45.89 46.01 36.24 45.09 45.58 45.51 45.74 46.77 42.02 44.63 50.24 50.42 49.54 49.57 48.79 48.74 48.59 45.27 42.12 41.09 43.25 46.48 46.65 46.50 45.58 47.28 51.26 51.92 52.22 60.28 59.54 59.46 58.85 58.76 58.86 57.80 55.78 42.84 40.18
30.71 29.39 34.22 41.83 44.68 46.31 34.92 36.68 46.11 47.06 46.69 46.76 44.94 46.60 48.34 49.41 48.27 47.87 47.58 45.93 46.47 45.57 40.91 38.25 38.25 39.73 39.72 40.41 39.68 41.90 43.30 45.16 45.61 45.18 48.32 50.25 54.51 52.47 55.04 44.33 39.04 35.96 34.11 33.97
31.58 29.24 27.23 44.94 43.75 38.73 43.46 46.22 46.45 46.05 46.20 46.31 46.99 47.19 47.63 46.99 45.97 45.27 44.51 43.32 42.95 41.84 39.63 37.60 36.48 36.09 36.46 36.03 38.03 38.39 37.17 36.89 37.15 37.64 39.13 43.78 43.55 41.99 41.13 39.09 36.37 33.13 31.30 30.19
34.70 34.13 44.98 47.18 45.82 47.40 47.54 45.41 45.78 45.68 45.82 45.87 45.54 44.87 45.52 44.47 43.47 42.35 40.87 39.97 40.00 38.89 36.16 35.14 34.28 34.16 32.96 35.22 36.39 35.05 33.61 32.37 32.26 32.28 32.86 34.31 36.23 37.26 35.97 34.76 32.92 31.15 30.12 28.76
38.36 40.69 43.88 45.26 46.39 46.87 46.83 45.25 45.44 45.16 44.09 43.35 43.03 42.39 41.99 39.67 37.23 35.87 34.55 34.64 34.66 34.05 31.21 30.64 31.18 31.40 31.74 34.16 34.65 33.51 31.57 31.02 30.66 29.56 28.87 29.93 30.35 30.09 31.02 31.68 30.44 29.14 27.95 26.57
39.25 42.01 43.73 43.46 44.23 45.47 44.27 43.98 43.72 43.64 42.16 40.43 41.12 38.93 38.30 34.16 32.38 31.46 30.28 30.68 30.50 29.12 27.86 27.77 28.69 28.95 30.79 31.89 33.60 31.46 30.53 29.64 28.91 29.06 28.60 27.68 28.29 28.41 27.95 28.76 29.21 27.54 27.51 27.61
36.79 41.57 40.98 40.12 42.49 44.19 41.30 40.00 40.45 39.47 39.72 38.74 38.20 36.10 34.45 30.23 29.02 27.77 26.78 27.22 26.70 26.70 26.70 27.25 28.21 28.56 29.47 31.09 31.67 30.68 29.59 29.02 28.37 27.71 27.65 27.48 26.43 25.94 29.95 30.25 30.06 29.98 29.77 28.41
38.52 43.42 41.91 40.45 40.15 41.88 39.60 38.47 38.02 36.11 36.03 35.22 33.40 32.66 29.51 26.47 26.09 26.06 25.57 25.03 24.99 25.08 26.00 26.98 27.73 27.55 28.55 28.97 30.98 30.32 29.72 30.24 30.07 29.56 28.90 27.73 26.38 24.65 22.74 25.61 28.37 28.31 28.70 28.89
39.95 42.57 37.26 37.07 35.11 37.20 37.31 36.79 35.51 33.87 32.36 31.73 30.89 29.76 28.14 26.16 25.97 25.55 25.36 25.35 25.37 24.46 24.82 25.19 25.30 27.09 29.32 29.46 28.58 28.89 29.58 29.68 29.28 28.87 27.87 26.67 25.50 24.67 24.40 22.78 21.50 22.47 26.64 26.61
38.24 38.03 36.47 35.97 35.09 33.65 34.11 33.18 30.47 28.79 27.93 27.29 27.55 26.67 26.04 23.95 23.02 22.94 24.35 24.75 23.54 22.32 22.14 22.08 21.66 23.25 28.52 29.12 27.49 26.91 27.54 27.85 28.19 28.16 28.44 27.95 27.05 24.69 23.67 22.94 22.40 22.35 24.73 24.67
36.97 35.75 33.79 31.34 30.18 30.44 29.75 28.56 26.46 25.16 25.04 24.98 24.98 24.56 24.39 23.50 22.22 20.98 20.42 20.05 18.33 17.36 18.62 19.01 19.14 20.72 25.95 27.71 27.30 26.17 25.25 24.77 25.38 25.80 25.65 24.40 23.40 22.26 20.93 19.85 19.42 19.14 19.19 20.88
33.67 29.34 31.92 30.16 29.22 28.55 27.85 28.14 27.27 25.94 25.41 24.67 24.46 24.37 23.22 21.86 20.76 19.83 19.01 18.35 17.56 17.19 17.67 18.18 18.30 20.15 21.59 24.33 25.23 25.18 24.45 23.63 22.66 23.19 22.62 22.51 22.73 21.80 20.89 19.59 18.49 17.48 17.36 19.07
30.32 30.00 30.34 29.89 27.66 26.23 25.38 25.07 24.09 23.05 21.64 21.11 19.90 18.96 17.51 16.65 16.21 16.62 17.01 17.45 16.43 14.61 16.68 18.40 19.40 19.46 19.72 21.46 22.77 22.64 22.46 22.24 21.78 20.86 20.49 19.71 20.42 20.95 19.96 19.16 18.43 17.58 17.04 16.61
28.06 26.71 26.72 26.22 25.87 23.94 22.56 21.04 20.65 20.77 19.65 18.41 17.55 16.06 16.23 15.88 15.70 15.33 15.62 14.70 13.69 12.18 12.93 16.13 19.63 18.91 18.54 19.91 20.99 21.18 19.96 18.64 18.39 18.41 19.03 17.64 16.62 15.94 16.16 17.10 16.27 15.62 15.25 14.51
24.37 24.42 23.96 22.87 22.58 21.35 19.83 20.41 20.52 19.66 19.48 18.64 17.15 16.40 15.57 16.11 17.06 14.94 13.75 12.14 13.14 14.18 14.93 14.37 16.91 16.91 17.56 17.97 17.87 19.17 18.25 17.47 17.36 16.75 16.16 15.72 15.36 14.32 15.02 12.26 13.82 13.88 13.69 12.77
21.33 21.19 20.10 19.36 18.94 19.60 19.09 19.44 18.44 16.75 17.05 16.69 14.89 13.31 12.95 13.18 12.74 15.08 14.96 11.22 12.67 15.27 14.29 13.21 13.63 15.50 16.66 16.47 16.59 16.49 16.13 15.43 14.84 14.43 14.16 14.39 13.76 13.59 12.84 12.91 12.79 12.26 11.99 11.60
21.13 20.20 19.79 19.67 18.89 19.11 20.22 20.25 19.29 18.48 17.92 17.23 16.94 16.26 15.03 13.31 12.03 11.68 11.19 12.31 12.75 12.29 12.18 11.13 11.84 11.02 14.37 15.68 16.27 15.01 14.56 14.13 13.65 13.17 12.75 12.34 12.15 11.56 10.62 10.18 9.91 10.02 10.13 9.12
21.47 20.89 20.53 19.66 19.06 18.68 19.29 18.65 17.81 17.14 15.65 15.58 15.28 15.12 14.46 14.11 14.34 13.02 8.92 11.86 12.45 10.17 10.96 8.94 7.38 8.12 12.59 14.60 14.40 13.92 13.26 12.31 11.96 11.85 10.65 11.38 10.64 9.78 9.08 7.48 8.31 8.58 7.86 6.25
21.92 21.51 20.80 21.15 21.09 19.73 17.07 17.26 17.09 15.95 15.17 15.69 14.98 15.11 17.62 16.33 15.54 15.77 13.60 9.03 7.18 10.51 8.39 8.16 7.33 8.26 11.06 13.17 12.13 11.98 12.09 10.37 8.83 10.29 10.46 7.86 9.57 8.84 8.72 7.85 6.12 7.31 5.48 4.65
22.45 22.19 21.84 21.36 19.85 18.66 18.38 18.23 17.71 17.56 17.43 17.08 17.08 16.87 16.31 16.06 14.60 12.91 14.01 12.41 9.88 11.28 12.59 5.91 5.69 9.36 12.63 11.41 11.31 9.74 10.07 10.78 8.89 9.16 7.68 8.08 8.13 6.14 7.26 6.03 3.93 3.49 2.90 3.42
22.56 21.32 20.54 20.94 21.26 21.48 21.15 21.10 19.78 19.53 18.76 16.56 16.07 16.63 16.65 16.63 15.54 15.56 13.39 10.81 12.56 10.94 12.94 13.02 10.62 9.85 10.47 9.67 10.00 9.67 9.38 9.99 9.10 7.49 5.26 7.28 6.90 6.20 5.65 4.18 2.53 2.90 2.47 1.24
20.68 20.71 20.49 19.73 19.34 18.61 17.82 18.34 19.09 17.51 17.34 17.30 15.34 16.14 15.72 15.72 13.02 12.94 10.23 13.86 13.41 13.58 13.09 12.92 12.95 10.42 9.82 7.86 9.43 9.54 9.34 9.42 7.43 6.03 4.89 6.33 5.83 5.51 4.24 2.63 2.05 1.45 0.97 0.04

GFSNGP_sfc_wetblb_069.txt.gz
Wetbulb
35.82 36.71 38.52 38.83 36.47 39.20 37.29 38.01 36.28 39.05 39.46 43.75 45.73 46.30 47.51 48.51 49.18 49.79 50.63 51.35 51.54 52.47 52.51 52.25 52.88 53.41 54.62 55.64 57.38 57.45 57.35 57.44 57.04 57.07 56.81 56.69 56.73 57.42 58.50 58.09 57.76 57.50 56.69 56.11
32.32 37.54 37.78 36.84 39.50 40.01 40.72 40.63 40.19 40.65 40.16 45.82 48.74 48.80 48.23 47.95 48.29 47.93 48.83 50.06 51.39 51.09 49.98 48.99 48.51 49.49 50.93 52.12 54.47 56.73 57.26 56.75 57.95 57.83 57.59 57.02 56.82 56.84 57.35 58.30 58.03 58.19 57.68 57.33
27.98 34.97 34.28 31.20 37.33 39.36 40.88 42.13 41.10 37.11 42.53 47.01 45.93 46.65 46.55 46.18 47.41 47.19 47.77 48.87 49.02 47.45 45.74 44.83 43.97 45.54 46.05 51.44 51.90 53.41 52.65 53.26 56.88 57.64 58.07 57.89 57.88 57.31 56.98 57.35 58.28 57.72 57.70 58.18
28.13 31.57 24.58 37.27 42.28 43.75 41.42 42.87 42.91 43.57 44.99 45.97 46.88 47.98 47.81 47.35 46.21 45.54 45.92 47.24 45.84 43.90 42.16 41.32 40.91 41.83 46.02 46.83 46.63 47.26 46.95 48.13 49.64 49.09 50.55 55.63 58.32 58.17 58.33 58.46 57.83 57.93 58.31 58.51
25.18 28.13 33.06 36.59 39.98 39.15 39.47 37.81 43.56 42.89 44.40 46.74 47.93 46.99 44.63 46.12 45.92 44.09 43.76 45.09 43.25 41.13 39.79 38.78 38.50 40.28 41.95 41.86 42.18 42.57 42.53 44.48 45.25 44.34 45.02 48.38 52.86 57.28 58.08 57.62 57.47 57.44 57.66 57.44
27.50 24.85 25.48 36.51 42.05 45.18 44.77 34.20 43.07 45.26 44.84 45.58 45.95 38.72 40.44 43.96 44.79 42.62 42.80 42.88 40.19 38.55 37.49 36.37 36.48 38.98 39.05 38.97 38.83 38.64 39.25 39.60 40.11 39.89 40.86 41.33 44.63 45.34 56.00 57.38 56.98 54.87 41.87 38.98
25.96 25.62 31.38 40.29 43.40 45.32 32.82 35.48 44.50 45.05 44.65 43.70 41.27 42.30 43.82 43.67 41.85 40.84 40.04 39.53 39.84 37.17 33.95 34.00 34.63 36.34 35.88 36.43 35.71 36.35 36.57 35.89 35.20 35.27 36.30 36.56 40.11 41.54 43.04 45.21 41.83 37.66 34.36 33.40
28.33 25.00 23.87 43.42 43.43 37.80 40.84 43.80 43.66 43.54 44.37 42.94 43.61 42.98 40.52 39.17 36.57 35.93 34.82 35.02 35.44 33.68 32.10 31.72 32.28 32.52 32.88 33.33 35.31 34.73 33.47 31.92 31.43 31.72 32.73 32.77 32.94 35.43 36.68 36.76 33.95 32.06 30.92 30.44
31.12 29.15 41.28 44.45 43.26 45.45 45.06 42.41 41.61 40.85 41.99 41.79 40.50 37.63 36.06 34.36 32.85 31.89 31.76 31.30 32.29 30.87 29.66 29.73 30.15 30.82 30.46 32.31 33.93 32.69 31.11 29.53 29.45 29.62 30.30 30.39 29.46 30.10 31.84 32.66 31.98 30.39 29.45 28.35
35.83 36.63 41.00 43.21 43.83 43.82 43.02 41.31 40.68 40.17 40.07 39.16 37.10 35.23 32.56 31.10 30.02 29.59 29.41 28.72 29.52 28.72 27.63 27.66 29.20 29.90 30.84 32.12 32.47 31.36 29.09 28.51 28.18 27.66 28.04 29.05 29.09 28.43 27.96 28.51 28.44 28.99 28.39 27.48
37.22 40.30 40.59 41.82 41.05 40.42 40.46 41.42 39.75 38.37 37.54 37.01 34.93 31.29 29.71 27.87 27.44 27.28 27.13 27.47 27.39 26.94 26.90 27.04 28.32 28.54 29.59 31.55 31.84 30.07 29.38 28.68 27.85 27.49 26.93 26.59 27.29 27.62 27.23 28.35 28.40 27.15 27.24 27.70
33.88 38.83 37.15 37.57 39.16 40.32 38.17 36.30 36.32 35.37 32.77 33.01 31.77 28.25 26.91 25.38 25.93 25.50 24.94 25.74 25.71 25.92 25.98 27.02 27.85 28.04 28.42 30.15 30.88 30.14 28.78 28.57 28.48 27.40 26.14 25.55 24.59 24.70 29.26 29.67 30.25 30.26 30.30 28.97
37.90 38.46 37.54 37.10 38.22 37.58 34.91 33.76 33.16 32.46 31.32 28.86 28.02 26.75 25.62 24.82 25.06 25.65 24.74 23.84 23.31 22.83 22.92 23.85 24.86 26.69 27.30 27.80 28.06 28.13 27.45 27.20 27.01 25.90 24.44 23.92 23.88 23.35 21.60 25.45 28.02 27.88 28.57 29.55
38.51 37.78 33.80 34.94 33.23 35.65 34.03 32.33 31.32 29.58 29.67 28.62 27.43 26.65 25.48 24.72 24.08 23.37 22.00 21.72 21.42 20.91 20.87 21.32 21.55 22.73 26.81 25.89 24.61 25.29 25.45 25.73 26.47 25.96 25.42 24.89 24.03 23.72 23.48 21.83 20.96 21.74 25.16 25.68
34.97 35.16 33.95 33.59 32.48 31.31 31.20 29.27 26.60 24.99 25.34 25.01 25.04 23.24 22.07 20.07 18.65 18.77 20.82 20.08 19.53 18.91 18.98 19.54 19.36 19.55 25.31 26.42 24.39 23.17 23.44 23.67 24.27 23.20 23.37 22.94 21.94 21.01 20.46 19.40 19.12 20.16 20.67 20.92
33.99 32.57 30.96 29.58 28.80 28.15 27.21 25.64 22.95 22.41 23.12 22.48 21.08 20.63 19.71 18.92 18.28 17.95 18.16 18.10 16.05 15.22 16.46 16.18 17.20 18.38 21.23 24.66 23.66 22.87 22.01 22.88 22.40 22.12 22.34 21.22 20.19 19.13 18.37 17.75 17.09 17.00 17.29 17.78
29.95 28.26 29.17 27.05 26.42 26.40 26.08 26.13 24.95 23.27 21.56 22.23 22.44 22.11 20.91 19.53 18.10 16.42 15.36 15.29 14.67 14.75 15.57 15.79 14.90 17.64 19.35 20.86 19.99 21.05 21.64 21.07 20.00 18.84 18.97 19.60 18.90 19.09 18.29 16.26 14.18 13.37 13.86 15.39
28.20 28.05 28.45 27.22 24.75 22.99 22.01 22.12 20.96 19.95 18.55 18.24 17.11 15.73 14.28 13.89 13.43 13.71 13.72 11.94 9.44 9.40 11.39 13.58 15.68 16.96 17.67 18.81 19.52 18.52 18.04 18.20 18.89 17.51 16.64 14.59 14.92 16.90 15.50 14.28 13.77 12.34 10.96 11.29
25.08 23.89 23.84 23.09 21.90 20.32 19.26 18.62 18.08 17.81 16.93 15.78 14.36 12.73 12.59 10.98 7.57 6.92 5.59 5.59 3.81 5.56 7.03 10.95 17.66 14.96 16.28 18.57 18.06 17.34 16.12 13.55 14.99 15.06 15.41 11.80 12.08 12.12 10.71 11.50 11.19 9.07 8.08 8.45
20.40 20.63 20.43 19.51 19.57 18.85 17.70 17.62 17.61 16.64 15.86 14.56 12.48 10.86 8.77 7.33 3.49 5.00 4.47 5.45 5.74 7.24 11.56 12.50 14.01 15.17 15.79 15.66 15.45 15.41 14.06 13.02 13.63 13.45 12.05 9.88 6.17 5.00 5.60 5.82 7.29 6.64 6.59 7.29
17.12 17.10 16.44 15.52 15.37 15.82 15.27 13.76 13.44 11.86 10.83 9.40 8.03 4.43 3.08 1.99 4.79 2.41 5.94 6.62 7.81 10.71 11.15 11.07 10.89 11.22 14.89 14.03 13.63 11.16 10.26 9.49 9.12 7.61 3.96 5.95 3.80 2.51 1.54 0.91 -0.39 -1.97 -0.06 1.54
17.01 16.79 16.04 15.92 15.68 15.57 14.07 12.07 12.17 12.13 11.59 10.48 6.88 7.57 6.23 7.78 4.03 6.48 3.81 7.93 10.25 5.85 7.87 8.31 8.68 6.40 9.80 9.93 11.42 6.81 8.61 7.22 4.99 4.52 3.70 0.45 -1.49 -3.94 -8.28 -5.74 1.57 1.93 -4.69 -6.11
18.15 18.25 16.77 14.99 14.70 15.33 15.05 14.14 13.69 13.82 11.72 9.95 8.35 7.72 9.81 11.23 11.52 6.12 2.79 10.02 9.89 4.35 7.76 2.60 1.64 5.02 3.38 5.10 4.23 1.84 0.35 -0.09 3.83 4.05 -3.20 -5.74 -7.19 -7.56 -2.32 -6.83 -9.19 -0.41 -7.74 -9.19
18.83 18.78 18.15 18.10 17.66 17.21 14.87 15.61 15.85 14.46 10.66 12.42 8.26 9.54 15.19 9.27 7.93 10.85 8.74 3.34 2.62 -0.26 -3.19 -3.74 1.09 3.82 1.56 -2.21 -3.03 -1.56 1.06 -7.21 -7.78 -6.29 -4.90 -4.65 -8.10 -9.73 -4.29 -9.91 -10.09 -11.55 -12.46 -8.64
21.50 21.58 21.46 20.48 18.52 17.01 17.70 17.73 16.62 16.39 15.55 15.55 14.99 14.53 13.49 12.68 4.48 3.82 1.63 1.00 5.71 7.11 0.48 -2.09 -0.30 2.06 1.50 -5.28 -0.04 -7.07 -7.20 -1.27 -5.42 -8.36 -10.14 -3.23 -3.94 -11.54 -3.57 -9.56 -13.90 -12.81 -6.10 -6.83
21.76 18.96 18.35 19.10 17.75 17.06 17.01 17.83 15.69 15.18 14.43 9.77 6.36 2.09 3.13 7.65 8.60 9.95 5.65 3.23 5.97 3.64 2.91 -0.95 -3.97 -7.07 -6.95 -6.18 -7.29 -4.90 -6.58 -2.17 -5.97 -9.49 -10.26 -11.05 -8.28 -9.91 -7.74 -10.64 -13.36 -12.63 -12.99 -14.63
18.40 16.81 17.12 15.54 15.62 14.45 13.29 14.48 13.67 10.52 4.34 5.60 5.61 1.52 6.98 4.88 1.37 3.14 4.36 1.69 -1.69 2.59 -3.35 -3.86 -0.20 1.01 -3.99 -7.57 -5.00 -4.36 -6.03 -5.78 -5.74 -6.24 -9.77 -9.37 -4.85 -10.46 -9.19 -10.46 -14.08 -14.81 -14.26 -11.72

GFSNGP_sfc_wetblb_072.txt.gz
Wetbulb
35.14 35.85 35.90 37.01 37.23 38.02 36.89 37.04 34.33 37.13 38.51 42.73 45.27 46.69 47.70 47.64 48.04 48.79 48.60 47.15 47.08 46.82 46.44 46.87 48.24 49.03 51.94 52.54 53.49 56.23 56.43 56.22 55.82 55.71 55.88 56.23 56.23 56.63 57.30 57.20 57.14 57.20 56.68 56.48
31.14 36.07 36.09 33.71 37.19 38.80 37.62 38.84 38.28 39.14 38.77 45.76 48.11 48.45 47.20 46.95 46.73 46.81 46.39 45.92 44.30 43.15 42.59 41.99 42.94 45.27 47.40 47.92 48.50 49.56 49.66 52.63 54.12 56.22 56.24 55.71 55.81 55.88 56.26 56.29 56.55 56.67 56.55 56.51
25.75 32.43 32.53 30.09 35.55 38.41 38.37 40.82 40.12 37.05 41.76 45.67 45.67 46.02 45.79 44.51 45.32 44.97 43.77 42.34 41.10 40.45 39.34 39.17 39.74 42.50 42.30 43.78 45.04 44.62 45.52 46.85 46.23 47.62 48.62 53.66 56.11 55.96 55.63 55.65 56.45 56.45 56.36 56.58
26.29 29.10 22.57 35.14 39.10 40.18 40.01 41.89 43.14 42.41 43.77 45.79 43.51 43.92 43.93 43.77 42.93 42.45 40.91 38.97 37.81 37.11 36.57 36.89 38.24 39.62 41.02 41.09 41.25 41.30 41.83 42.25 42.76 43.13 44.05 45.55 48.17 50.10 56.27 56.24 55.82 56.20 57.04 56.91
23.40 24.22 29.16 33.48 39.23 39.31 39.01 38.41 43.14 42.90 45.68 44.65 43.18 42.12 39.65 41.47 41.76 40.62 38.83 37.08 35.96 35.51 34.75 34.87 35.27 38.54 38.97 37.79 37.34 36.86 36.71 37.73 38.53 39.10 40.73 41.67 42.56 44.06 45.65 47.50 56.40 56.24 57.14 57.14
26.73 21.98 20.94 34.09 40.56 44.19 44.12 34.39 43.40 45.77 44.64 43.46 43.43 35.45 35.95 38.78 38.22 37.86 37.13 35.80 33.90 33.39 32.99 32.42 33.43 36.57 36.31 35.12 34.64 33.66 33.25 33.69 35.33 35.95 37.31 36.37 38.74 39.93 41.24 43.65 45.57 44.44 37.14 35.35
24.52 22.97 27.41 37.39 42.65 44.89 32.64 35.21 44.77 46.19 45.91 43.68 39.15 38.51 36.99 36.61 34.85 34.91 34.38 33.76 33.76 32.15 30.62 30.93 32.55 34.59 33.72 33.90 32.02 32.31 31.98 31.53 31.59 32.68 33.58 33.48 34.96 36.28 37.08 35.64 34.36 32.63 30.62 29.97
25.04 23.02 21.31 40.05 42.73 35.56 41.31 43.39 44.23 43.42 41.84 38.73 37.44 36.24 34.50 33.26 31.95 31.36 31.32 31.79 32.20 30.65 29.67 30.56 31.63 32.54 31.70 31.54 32.32 31.53 30.56 29.34 29.19 30.44 31.05 31.17 31.90 32.99 33.37 32.61 31.01 30.29 29.72 28.73
28.57 27.79 39.05 42.12 42.19 44.16 43.30 40.44 41.09 40.40 40.31 38.27 35.19 33.17 31.87 30.08 29.33 29.00 29.07 29.56 30.21 29.39 28.83 29.23 30.22 31.13 30.26 30.91 31.45 30.18 28.78 28.09 28.26 28.13 28.74 29.16 28.74 29.42 29.84 30.53 29.80 28.73 28.24 27.52
34.27 35.55 38.48 39.68 40.83 40.57 39.97 38.14 39.36 38.67 37.77 35.71 32.15 30.86 29.01 28.56 28.14 27.42 27.47 27.33 28.46 28.13 27.13 27.23 28.84 29.24 30.98 31.78 31.07 29.62 28.27 27.67 27.20 26.76 26.65 27.68 28.28 28.36 27.81 27.72 27.90 27.99 27.81 27.08
35.79 37.39 36.91 37.47 38.06 38.66 37.91 36.79 35.24 35.15 33.80 31.61 30.12 28.06 27.51 26.50 26.22 26.21 25.95 26.18 26.23 25.94 26.00 26.32 27.24 27.45 28.56 30.46 30.42 28.75 28.56 27.84 26.51 25.56 25.12 25.53 26.53 27.14 27.09 28.57 28.68 26.74 27.24 27.83
31.92 35.06 36.30 36.72 36.97 36.49 34.12 33.89 33.33 30.59 28.66 28.88 27.76 25.80 25.42 24.52 25.07 24.27 23.32 22.99 22.07 22.71 23.19 24.59 25.53 25.22 25.92 28.04 29.00 27.57 26.22 25.19 24.86 24.27 23.89 23.68 23.38 23.72 28.01 27.78 28.60 29.55 29.67 28.54
34.28 36.09 34.54 35.11 34.71 34.11 31.35 30.66 30.33 28.82 27.59 25.32 25.79 25.35 24.71 23.69 23.76 23.34 21.27 20.83 20.53 20.60 21.08 21.84 22.55 24.18 24.05 23.41 24.56 24.96 25.43 25.58 24.16 23.41 22.38 21.52 21.24 20.41 19.37 22.85 25.50 25.86 26.46 26.88
37.79 35.78 31.33 32.83 30.98 31.17 29.61 28.72 29.18 27.61 26.65 25.81 24.99 24.40 23.19 21.46 20.63 19.55 18.84 19.05 19.41 19.41 19.49 20.15 20.41 19.98 24.48 22.74 21.97 21.61 22.94 22.68 22.59 21.39 19.77 18.98 18.22 18.19 18.29 18.81 17.09 17.58 21.85 22.97
32.96 33.58 31.82 31.21 29.86 28.03 27.86 26.52 24.88 24.05 23.56 22.03 22.01 20.43 19.65 18.11 17.78 17.76 18.70 18.76 18.73 17.49 17.05 17.53 17.61 17.48 19.94 21.55 19.91 18.97 20.57 21.41 19.66 19.16 18.85 18.12 18.51 17.53 16.74 16.42 16.63 16.66 16.51 17.00
32.24 30.88 29.99 28.39 27.17 26.44 25.56 24.66 22.49 21.01 19.76 18.39 17.06 17.24 17.07 16.97 16.53 16.21 16.28 16.22 14.17 13.12 14.55 13.23 14.32 14.43 17.24 17.33 16.99 17.55 17.62 18.52 17.92 18.39 18.35 17.37 16.55 15.42 14.82 14.19 13.40 13.58 13.52 13.06
30.14 27.42 27.60 26.58 26.58 26.20 25.19 24.91 23.75 22.67 21.48 20.44 19.58 19.41 18.33 16.65 15.15 13.82 12.65 12.74 10.94 9.22 9.96 10.96 11.08 13.16 15.11 14.10 13.65 14.79 15.22 16.25 14.13 14.98 14.78 17.09 16.15 15.88 14.85 13.50 11.81 11.15 10.89 11.68
27.27 28.37 27.85 26.41 23.79 22.78 21.55 21.42 20.88 19.93 17.89 17.01 15.05 13.05 10.90 11.16 10.91 9.49 7.16 7.08 7.02 7.38 7.51 7.39 10.89 12.80 14.62 14.78 15.56 15.44 14.61 15.56 15.36 13.38 13.19 12.05 13.46 13.44 11.89 11.08 10.37 9.57 9.78 8.20
24.13 23.40 23.16 22.26 21.67 20.41 18.89 17.55 16.93 16.41 15.41 14.09 12.70 10.39 9.80 8.69 7.67 4.09 1.87 2.24 1.79 3.80 4.76 7.91 16.51 13.18 13.42 16.39 15.10 14.27 12.92 11.49 12.67 12.22 11.66 7.88 8.04 9.15 7.81 8.44 8.25 6.76 7.07 6.53
19.32 19.75 19.32 18.61 18.87 17.45 15.77 15.37 15.48 14.10 13.11 12.55 10.96 9.45 5.87 0.32 0.02 0.90 0.90 1.71 0.25 3.00 7.62 10.02 11.53 12.13 13.72 12.95 11.97 12.28 10.37 8.50 11.23 9.72 6.62 5.05 0.88 -1.36 2.37 3.92 4.04 1.46 -1.19 4.29
14.17 14.95 14.45 13.72 12.26 12.17 10.48 10.88 9.34 7.74 5.29 5.46 4.98 1.39 1.44 1.78 -2.21 -2.72 3.27 5.46 6.72 8.62 9.89 9.65 10.04 10.84 12.79 10.48 9.94 4.25 3.59 0.66 0.16 -0.55 -3.53 -7.52 -5.97 -4.80 -4.07 -7.15 -6.79 -9.87 -8.78 -6.79
10.73 12.89 11.92 12.33 12.90 12.47 11.09 10.61 10.86 8.19 7.04 4.83 0.86 -0.46 2.35 5.40 5.31 6.36 2.73 7.12 9.04 5.25 6.78 7.30 8.42 2.30 6.78 6.54 6.20 0.04 3.45 2.64 0.35 -1.26 -4.61 -8.78 -11.69 -14.22 -15.67 -12.77 -10.96 -13.68 -15.13 -14.22
13.89 14.24 13.19 10.75 10.75 10.88 11.95 11.04 10.53 9.84 8.51 7.69 6.28 6.59 9.35 11.02 9.31 3.19 2.89 9.04 8.56 2.59 6.87 1.72 0.39 -1.04 -2.37 -1.91 -4.98 -9.53 -8.49 -7.33 -6.97 -6.61 -8.06 -13.14 -13.50 -12.41 -12.77 -12.77 -14.04 -15.13 -16.58 -12.23
15.25 15.31 14.33 14.11 14.57 15.16 13.48 14.65 14.80 12.98 8.24 11.54 7.40 7.57 10.52 5.15 1.24 9.31 7.79 2.38 0.05 -4.52 -5.03 -6.08 -0.45 -1.62 -5.16 -10.05 -11.50 -9.15 -10.96 -14.22 -14.04 -15.67 -10.23 -8.78 -15.67 -12.77 -14.95 -15.13 -14.04 -18.76 -15.67 -10.78
18.84 18.32 18.29 18.02 17.60 15.58 16.06 16.18 14.86 14.67 14.31 14.10 13.25 12.87 13.10 11.67 3.52 3.54 -2.49 -2.03 2.39 1.07 -3.70 -6.25 -2.80 -3.89 -11.25 -12.07 -10.60 -13.50 -10.96 -7.88 -12.23 -15.36 -15.86 -12.59 -11.32 -7.70 -12.05 -15.67 -17.85 -16.58 -16.58 -14.77
20.12 17.87 17.34 17.37 16.21 15.96 16.41 16.45 13.46 13.80 12.53 6.30 3.59 -2.29 -3.55 1.06 3.38 3.05 -0.21 -0.40 1.99 3.94 -1.02 -6.61 -8.11 -10.78 -11.72 -10.90 -11.88 -11.69 -12.41 -6.44 -10.24 -12.81 -15.32 -14.95 -14.04 -11.14 -12.41 -15.67 -18.03 -17.31 -18.76 -19.84
16.75 15.66 15.11 13.88 13.57 13.05 12.69 13.56 10.19 7.53 6.81 1.97 2.51 -2.83 -1.23 -4.63 -4.69 0.86 2.07 -4.17 -2.98 -4.99 -7.70 -10.78 -3.72 0.51 -2.67 -7.73 -6.62 -4.44 -6.98 -10.23 -12.05 -9.33 -13.50 -14.95 -15.67 -16.58 -15.13 -14.77 -17.85 -19.66 -20.57 -19.66

GFSNGP_sfc_wetblb_075.txt.gz
Wetbulb
33.34 34.30 34.51 33.95 33.93 36.46 35.13 36.44 33.86 35.14 36.48 41.42 43.46 44.33 45.73 47.20 46.23 43.46 42.12 42.86 42.94 42.24 42.74 44.14 46.31 46.93 47.89 49.15 48.92 50.65 55.50 55.30 54.68 54.94 54.77 54.57 54.61 55.33 55.61 55.55 56.17 56.55 56.15 55.58
28.88 33.41 33.57 30.61 33.48 35.02 36.03 37.89 37.40 37.50 36.33 45.00 47.41 47.90 46.86 46.22 43.90 41.29 39.73 39.38 38.94 39.60 39.70 40.02 40.67 41.92 43.34 43.66 44.71 46.72 46.35 46.35 46.74 48.25 51.60 55.48 55.11 55.19 55.45 56.08 56.10 55.70 55.51 55.71
23.19 29.00 29.11 26.29 32.64 32.99 35.67 39.82 38.56 34.28 40.01 45.26 45.76 46.05 45.58 44.27 41.89 39.27 37.97 37.04 36.44 36.21 36.38 37.45 38.80 39.87 39.28 40.02 41.60 41.87 42.17 42.76 43.10 44.26 45.09 45.70 47.73 50.38 54.34 55.41 56.15 56.27 56.36 56.15
23.96 26.75 18.34 31.59 36.31 39.90 37.59 40.00 41.38 41.81 43.52 45.21 41.82 40.79 41.73 43.27 40.19 37.68 36.37 35.46 34.72 34.69 34.67 35.03 37.50 38.32 37.83 37.29 36.48 36.87 37.20 37.77 38.91 39.97 41.44 42.06 43.47 44.19 44.48 45.90 48.76 54.59 56.07 56.48
21.00 21.95 26.18 29.74 37.47 38.16 37.78 38.57 43.46 42.77 43.20 39.82 38.94 38.47 36.44 39.39 38.48 36.33 35.02 34.40 33.73 33.51 33.76 34.29 35.92 36.39 35.43 34.22 33.79 33.33 33.07 34.21 35.40 36.47 37.30 37.57 38.51 39.05 40.54 42.83 41.56 40.91 37.35 36.70
25.14 20.10 17.18 30.66 37.01 42.87 41.45 34.03 43.01 44.69 42.13 39.77 42.15 34.63 34.37 36.60 36.20 34.42 33.69 33.25 32.44 32.35 32.25 32.45 33.96 35.53 33.20 31.76 31.25 30.32 30.51 31.16 33.34 33.92 33.79 34.15 35.84 35.89 37.01 36.78 34.55 32.76 30.76 31.11
23.06 21.65 25.21 34.22 37.51 41.16 29.13 34.95 43.84 45.78 42.97 43.10 38.80 38.30 34.99 34.78 33.28 33.45 33.19 32.39 32.49 31.38 30.33 31.04 32.96 33.66 31.61 30.16 28.73 29.45 30.34 30.33 30.72 31.24 31.54 32.01 33.06 33.87 34.05 33.03 32.12 30.37 29.55 29.40
23.99 23.25 20.12 38.87 40.17 33.53 37.69 42.61 41.45 41.48 39.49 35.29 34.71 33.77 32.67 31.73 31.21 31.06 30.01 30.35 30.65 29.58 29.19 30.35 31.55 32.08 30.11 29.17 29.14 29.35 29.01 28.58 28.53 29.09 29.93 30.71 30.83 31.37 31.78 31.43 30.19 29.77 29.22 28.47
28.02 27.12 37.01 38.13 39.03 40.40 42.05 40.10 39.44 38.74 37.56 35.47 33.58 32.04 30.62 28.81 28.45 28.40 28.48 28.53 29.05 28.68 28.61 29.06 29.84 31.08 29.43 29.41 29.01 28.37 27.12 26.74 27.24 28.15 28.56 28.82 28.54 28.25 28.14 29.05 29.02 28.34 27.97 27.23
33.63 35.54 35.60 36.64 36.46 36.53 38.70 39.16 39.26 39.18 37.04 34.75 31.20 29.85 28.15 28.02 27.28 26.81 27.48 27.38 28.01 27.40 26.43 26.61 27.90 28.40 29.81 30.58 28.92 27.70 26.03 25.43 26.51 26.46 26.39 27.22 27.56 27.88 27.13 26.79 26.32 26.53 26.79 26.89
33.38 35.98 35.65 35.00 35.66 35.10 34.33 34.41 33.15 32.59 32.00 30.54 29.14 27.54 27.20 26.26 25.76 25.17 24.41 25.03 25.42 25.45 24.90 24.74 25.70 25.77 27.34 29.08 28.52 26.42 26.12 25.46 24.76 25.08 25.36 24.90 25.63 26.03 25.88 27.17 27.52 25.19 25.23 25.92
30.46 36.83 35.61 33.60 34.15 34.41 32.23 30.84 30.33 28.84 27.29 27.90 26.81 25.56 25.60 23.90 23.82 22.66 21.95 22.77 22.73 23.11 22.99 23.99 24.30 23.67 24.06 25.66 27.90 25.50 24.27 23.78 22.91 22.61 22.24 22.23 22.29 22.70 26.17 26.29 26.94 26.89 27.12 26.22
33.22 34.51 32.62 33.10 33.22 32.88 29.90 28.96 28.27 27.04 26.29 24.75 25.01 24.63 23.47 21.90 21.93 22.25 20.79 20.71 20.40 20.74 21.31 21.82 22.28 22.68 22.18 21.33 23.60 23.70 23.56 20.07 19.20 18.32 18.12 17.44 17.07 17.27 15.47 19.14 23.45 24.42 24.73 24.67
34.81 36.38 30.76 31.73 27.21 28.37 27.78 26.92 27.26 25.61 25.78 24.83 23.65 22.87 21.71 20.22 19.75 18.91 18.46 19.10 19.21 18.85 19.01 19.76 19.75 19.00 20.80 19.73 20.44 22.43 21.43 20.80 19.01 17.23 16.48 16.40 15.85 16.16 16.25 15.36 13.62 14.06 18.79 20.67
31.24 30.99 29.26 28.92 27.85 26.74 26.78 25.77 23.70 22.06 21.30 20.51 20.96 20.17 19.97 17.92 16.62 16.74 17.97 18.26 18.11 16.35 16.00 16.86 16.36 15.72 17.49 19.19 17.45 16.32 18.29 17.85 16.97 16.32 15.87 15.50 15.38 14.29 13.59 12.76 12.13 11.38 11.66 12.76
30.68 29.51 28.89 27.12 25.91 25.54 24.82 23.31 20.47 18.61 17.54 16.20 15.96 16.37 16.47 16.37 15.33 14.66 14.46 14.78 12.93 10.89 12.03 10.30 12.92 11.48 13.84 13.81 13.67 13.99 14.31 15.02 13.82 15.15 15.61 14.70 13.57 12.49 11.76 10.78 9.96 9.44 8.45 7.93
28.39 26.70 26.95 26.02 25.18 24.78 23.98 23.64 21.68 20.37 19.48 18.58 17.91 17.86 16.60 15.03 13.19 11.51 10.37 10.92 8.54 7.24 7.69 7.32 6.69 9.20 11.72 10.89 10.99 11.48 13.32 13.25 11.70 12.83 13.84 13.27 12.23 11.68 10.76 8.78 7.75 7.26 5.95 4.84
26.30 25.35 25.17 25.13 23.50 21.89 21.09 21.38 20.15 18.88 16.63 16.06 14.59 12.35 10.43 9.87 7.34 5.29 2.62 1.34 2.97 5.19 5.10 5.22 7.34 10.10 11.19 11.73 13.14 13.33 12.83 13.12 12.76 11.21 10.76 9.62 10.45 9.87 7.76 6.73 6.59 5.37 3.33 3.04
22.53 22.00 22.07 21.37 20.63 19.58 18.09 16.33 15.67 15.17 14.26 13.31 10.56 6.99 5.12 2.43 0.32 -3.15 -3.45 0.77 0.27 1.93 4.32 5.63 15.78 12.01 11.89 14.67 12.74 11.73 10.16 8.60 9.95 8.90 9.06 4.46 4.57 6.17 3.57 1.70 0.68 -0.95 1.04 1.68
17.62 17.99 17.71 16.67 16.84 15.73 13.77 13.75 13.20 11.53 10.85 8.43 6.40 4.84 2.57 -3.31 -4.57 -1.63 -0.12 -1.33 -1.50 3.15 7.80 9.11 10.95 11.90 11.47 9.86 9.48 9.07 7.10 4.93 8.54 4.54 2.44 1.08 -3.32 -5.84 -3.67 -1.87 -1.51 -5.48 -8.02 -6.21
13.21 13.75 13.25 12.14 11.12 12.02 12.07 12.02 12.05 10.12 9.42 8.86 7.45 2.64 -0.89 -4.04 -5.31 -4.75 1.50 2.94 3.79 7.35 8.98 8.51 9.14 9.70 10.08 7.99 6.92 1.61 1.52 -0.56 -2.48 -3.75 -7.31 -11.10 -9.47 -8.38 -11.83 -15.81 -14.73 -15.81 -13.46 -13.28
12.90 12.50 11.69 11.99 11.76 10.89 11.12 10.96 9.92 6.89 4.63 1.27 -3.53 -4.58 -1.28 2.93 -0.52 1.72 -2.59 4.20 7.19 2.22 5.63 6.60 6.71 -0.68 3.85 3.61 4.23 -1.41 1.27 -0.20 -2.99 -4.04 -9.29 -13.28 -15.45 -17.26 -17.81 -17.63 -16.18 -17.26 -18.17 -19.08
14.16 13.92 13.59 12.52 12.32 12.14 11.60 11.12 9.43 8.99 5.81 5.06 4.83 3.93 6.20 9.34 8.37 2.52 1.37 7.86 7.39 2.26 6.56 1.33 -1.10 -2.83 -4.22 -6.63 -8.26 -11.46 -10.74 -10.74 -11.28 -12.37 -13.82 -16.54 -17.26 -19.08 -16.90 -15.45 -17.63 -19.80 -19.80 -16.72
15.04 15.14 14.34 14.66 15.07 14.62 12.89 13.60 14.14 12.49 7.47 10.65 6.96 3.63 9.13 3.64 0.50 8.97 7.58 2.55 -2.93 -6.10 -4.97 -7.11 -5.30 -4.39 -8.38 -12.55 -13.82 -14.54 -15.27 -16.36 -16.54 -18.35 -13.28 -13.64 -17.99 -17.99 -18.71 -20.16 -17.45 -21.07 -20.89 -16.54
17.32 17.18 16.71 16.35 16.16 15.22 15.26 15.13 14.08 13.77 13.00 12.98 12.93 12.91 11.68 10.55 1.68 2.03 -2.73 -1.75 0.49 -0.84 -4.71 -8.74 -5.48 -8.38 -14.74 -16.00 -16.00 -15.63 -15.09 -15.63 -16.18 -18.54 -17.81 -17.45 -16.18 -16.72 -18.35 -20.53 -20.71 -19.98 -21.07 -21.25
20.38 19.29 18.66 18.79 17.12 16.28 15.93 15.58 12.39 12.30 11.66 6.76 6.09 -3.13 -4.41 -1.15 1.96 1.77 -3.03 -3.21 -0.53 0.19 -4.21 -9.65 -12.55 -14.36 -14.73 -12.96 -14.73 -15.27 -14.18 -8.20 -11.46 -14.73 -17.81 -16.72 -18.71 -16.36 -16.72 -16.36 -19.08 -18.17 -19.98 -20.16
16.11 14.06 13.67 12.68 12.36 11.97 11.87 13.05 10.24 8.87 8.44 7.85 6.03 1.70 -0.60 -6.75 -6.93 -2.26 -4.03 -6.57 -6.02 -6.57 -10.19 -12.91 -13.46 -8.92 -9.83 -11.83 -11.28 -11.28 -12.55 -8.92 -6.21 -6.02 -11.83 -15.27 -19.26 -18.17 -15.63 -12.91 -14.54 -15.81 -19.08 -23.07

GFSNGP_sfc_wetblb_078.txt.gz
Wetbulb
31.11 32.34 32.89 32.20 31.97 33.00 32.05 34.43 32.11 33.16 35.26 39.75 42.84 43.52 45.02 45.17 41.66 39.69 38.53 38.87 40.15 41.09 42.03 43.10 44.37 45.22 46.84 47.10 48.65 50.44 54.76 52.17 49.93 53.37 55.45 54.83 54.59 54.02 54.18 55.05 54.62 54.27 53.72 54.42
27.66 30.62 30.08 27.35 29.38 30.49 31.61 33.85 35.79 36.24 36.33 43.36 46.12 47.27 45.84 43.95 40.63 37.60 36.34 36.42 36.59 37.01 38.25 39.20 40.35 40.70 40.83 41.79 42.55 44.20 44.35 44.54 45.77 46.84 48.18 47.80 50.19 53.88 55.39 55.37 55.92 55.91 55.58 55.48
23.57 27.79 27.14 22.76 28.49 29.63 31.63 34.66 36.29 32.48 38.32 43.73 44.17 45.80 44.33 41.53 39.63 36.95 35.57 34.93 34.79 34.83 35.33 36.37 36.86 37.14 36.48 37.45 39.16 39.25 39.53 40.11 40.81 42.39 42.60 43.89 45.49 45.42 45.84 46.37 47.75 52.19 53.93 55.80
23.31 25.39 14.80 26.93 33.84 34.13 36.23 38.51 39.06 40.19 42.98 43.55 40.47 39.61 41.12 40.79 37.98 35.97 34.88 34.15 33.46 33.70 34.38 35.65 35.75 35.23 34.92 34.59 34.30 34.51 35.14 36.03 37.27 38.57 38.67 39.82 40.29 40.20 41.05 42.95 39.84 38.62 38.04 39.00
19.85 21.30 24.75 27.99 34.72 34.82 33.25 33.08 41.34 41.62 41.15 39.64 37.90 36.92 35.09 36.71 36.30 34.74 33.87 33.51 33.05 33.05 33.51 34.17 34.50 33.69 33.29 31.77 31.55 31.45 31.93 33.21 34.11 35.20 35.90 36.96 36.78 37.22 37.53 36.48 34.90 33.96 33.59 33.57
24.66 19.22 14.88 26.47 34.37 37.62 37.27 29.40 42.64 44.19 39.81 38.10 39.74 33.96 32.26 34.94 34.28 32.99 32.78 32.40 31.85 32.29 32.33 32.92 33.54 33.01 30.76 29.76 29.34 29.41 30.25 30.63 32.07 33.19 33.47 33.57 34.40 34.63 34.70 34.05 32.29 31.67 30.43 30.98
23.17 20.73 24.58 32.50 37.19 40.12 26.11 29.86 40.65 43.67 40.98 40.47 38.37 36.64 33.59 33.51 32.38 32.31 31.72 31.21 31.37 31.15 30.21 31.03 32.63 32.09 29.58 28.63 27.79 29.03 29.87 30.14 30.44 31.12 31.30 32.35 32.65 33.26 32.80 32.06 31.11 29.85 29.11 29.37
24.84 22.25 19.12 37.90 38.02 31.65 37.20 39.74 37.32 37.34 39.42 34.09 33.00 32.37 31.80 31.54 30.06 29.68 28.94 29.45 30.38 29.62 28.93 29.78 31.37 30.59 28.27 27.26 28.32 28.58 28.73 28.62 28.58 29.09 29.78 30.31 29.89 30.10 30.88 30.85 29.77 29.11 28.84 28.65
27.18 26.29 34.97 35.96 35.31 38.70 40.55 38.84 36.16 33.90 34.26 34.38 31.93 30.65 29.70 28.55 28.25 27.82 27.69 27.86 29.07 28.21 27.43 27.98 28.76 30.21 27.73 27.45 27.38 26.92 27.27 26.90 27.07 27.38 27.76 28.61 28.51 28.03 27.84 28.24 28.02 27.55 27.24 26.82
32.91 35.47 35.42 36.04 35.47 34.24 34.07 34.32 36.95 37.23 35.32 33.62 29.37 29.08 28.04 27.30 26.68 26.15 26.35 26.49 26.89 25.98 25.14 25.14 26.53 26.76 28.56 28.21 27.54 26.15 25.27 25.97 26.36 25.46 25.91 26.36 26.53 26.82 26.60 26.22 25.60 25.85 25.52 24.89
31.30 35.81 34.84 35.11 34.70 33.28 31.91 31.35 30.36 30.82 31.24 30.03 28.81 27.05 26.34 24.69 23.68 23.47 23.87 24.47 24.52 24.20 23.68 23.50 24.43 24.56 25.48 27.53 26.93 25.09 24.93 24.77 23.59 24.24 24.32 23.92 24.90 24.89 24.82 25.68 26.05 24.17 24.11 24.72
27.83 32.17 33.71 32.23 33.96 33.91 30.05 29.10 29.20 27.30 26.08 26.94 26.53 24.38 23.42 21.64 21.98 22.09 21.74 22.30 21.76 22.25 21.84 22.09 22.31 22.20 22.94 25.52 26.67 24.74 22.16 20.46 19.59 19.85 19.85 20.59 21.27 21.24 25.25 25.35 25.94 26.04 26.26 25.00
31.59 32.76 30.46 30.08 30.51 30.55 28.08 27.67 27.22 26.18 25.64 23.58 23.66 23.01 21.93 21.04 21.22 21.72 20.09 20.01 19.95 20.00 20.63 20.74 20.06 19.73 20.75 23.52 21.36 19.49 17.83 16.47 16.18 16.16 15.68 14.80 13.16 13.74 11.80 15.69 21.77 22.76 23.43 23.71
31.96 32.88 28.14 28.21 25.50 27.50 25.67 24.86 25.30 23.76 23.77 22.63 21.89 21.64 20.48 19.19 19.27 18.52 18.02 18.40 18.56 18.25 18.27 18.72 18.22 16.99 18.34 19.05 22.50 19.08 16.68 16.07 15.57 15.07 13.82 13.03 12.18 13.17 12.34 11.09 9.08 9.65 15.79 18.38
29.83 29.87 28.48 28.44 27.82 26.52 25.41 24.01 21.55 20.43 20.23 19.96 20.84 19.56 18.77 16.93 15.86 16.54 17.57 17.66 17.30 15.36 15.16 15.61 15.02 13.70 15.30 16.75 15.11 13.29 15.45 14.54 12.25 11.83 13.12 12.90 12.77 11.70 10.80 9.73 8.32 7.45 8.13 9.87
29.90 29.04 27.87 25.94 25.19 24.45 23.29 21.34 18.24 16.22 15.87 15.39 15.69 16.07 15.85 15.37 14.07 13.29 13.38 13.81 11.98 10.33 10.76 8.59 11.04 9.41 11.11 11.55 11.28 10.97 10.51 13.12 11.96 12.34 11.27 10.96 10.55 9.56 8.97 8.09 6.70 5.52 4.52 4.32
28.57 27.00 25.96 24.43 23.70 23.36 21.98 21.57 19.98 18.80 18.13 17.33 17.00 17.01 15.47 13.69 12.35 11.05 10.19 10.40 8.96 7.68 7.76 6.74 3.93 5.42 9.16 8.80 8.69 7.12 7.09 10.16 9.37 10.98 11.42 10.28 9.03 8.27 7.52 5.77 4.82 3.77 2.01 -0.97
24.66 24.45 25.69 24.79 22.60 21.28 20.69 20.26 19.20 18.20 16.26 15.56 14.28 12.59 10.65 9.65 7.88 6.53 4.92 5.53 6.07 5.79 4.50 5.08 6.06 9.33 10.02 10.05 11.15 11.20 10.16 10.99 10.97 9.32 9.00 7.63 8.09 7.37 4.89 4.36 4.32 2.59 -0.08 -0.86
21.90 21.54 21.38 20.80 20.24 18.98 17.36 15.54 14.75 14.05 13.16 12.12 10.09 7.34 5.50 3.85 3.13 0.09 -0.18 2.44 2.20 1.40 3.94 4.61 15.19 9.94 9.75 13.21 11.08 9.90 7.70 5.81 7.54 7.34 6.98 2.31 2.08 3.30 -0.71 -2.08 -2.78 -5.68 -2.63 -1.67
16.36 16.84 16.06 14.57 15.12 14.48 12.23 10.69 9.85 10.04 9.85 8.59 5.84 3.08 -0.08 -3.70 -3.37 -1.88 -3.22 -1.87 0.26 4.69 8.67 8.11 9.76 9.84 9.50 7.99 7.19 7.36 5.35 2.96 6.44 1.91 -0.03 -1.42 -8.94 -13.29 -9.30 -4.77 -5.68 -11.30 -14.56 -12.02
11.75 12.03 9.83 9.10 7.79 7.36 6.83 5.49 9.32 9.10 7.94 3.86 2.72 -1.55 -2.51 -5.68 -6.04 -5.50 0.89 3.12 4.90 8.00 9.04 8.14 8.10 8.02 8.21 6.22 4.94 -1.77 -1.51 -4.46 -6.46 -7.50 -11.66 -14.74 -16.37 -13.11 -16.92 -18.91 -16.01 -17.10 -16.01 -15.10
5.94 7.83 6.45 7.07 8.34 7.72 6.75 7.53 7.58 6.37 4.78 2.11 -1.96 -0.75 2.12 4.28 2.01 3.43 -0.19 4.91 7.44 3.49 6.11 6.30 6.04 -1.75 1.98 2.70 2.96 -4.61 -1.41 -2.33 -6.06 -7.13 -11.84 -15.47 -17.10 -18.55 -19.46 -20.36 -18.01 -18.91 -20.54 -22.17
10.67 11.84 11.26 9.66 9.80 9.31 11.00 10.06 8.73 7.52 4.87 0.94 0.37 2.29 5.28 7.46 6.58 1.05 0.28 7.00 7.20 2.89 6.37 0.32 -3.26 -5.68 -7.13 -10.42 -12.38 -14.02 -12.93 -12.75 -12.75 -14.02 -16.37 -19.64 -20.00 -21.27 -18.91 -17.10 -18.55 -20.91 -21.45 -19.27
13.16 13.28 12.32 12.77 13.40 13.77 11.59 12.42 13.40 10.85 4.10 8.54 4.13 1.67 9.44 2.77 0.06 8.48 7.17 0.80 -3.84 -7.13 -6.05 -8.03 -7.49 -6.22 -10.57 -14.92 -15.29 -16.55 -16.92 -18.01 -18.19 -20.72 -16.01 -16.55 -18.73 -19.64 -20.72 -22.17 -19.46 -21.45 -23.26 -21.63
16.52 16.20 15.23 14.62 14.75 13.51 14.48 14.33 13.16 13.01 12.51 12.29 11.50 10.80 10.27 8.89 0.10 0.59 -3.03 -2.66 -0.78 -2.26 -5.60 -9.48 -7.49 -9.85 -16.92 -17.46 -17.64 -17.10 -17.10 -18.37 -18.91 -21.27 -19.64 -20.36 -18.91 -20.72 -21.45 -22.72 -21.81 -21.63 -23.44 -23.26
18.10 17.35 17.09 18.39 15.98 14.21 13.78 13.73 10.41 10.91 10.31 4.37 3.75 -2.97 -3.74 -2.78 0.92 0.69 -3.61 -4.47 -2.66 -1.94 -5.68 -10.93 -14.38 -14.92 -16.01 -15.29 -16.74 -17.28 -16.37 -12.75 -13.47 -15.10 -17.46 -18.37 -20.72 -18.01 -19.82 -17.10 -20.91 -18.91 -18.19 -18.37
13.91 12.15 12.25 10.97 10.64 10.06 9.26 11.20 9.03 5.87 5.13 3.81 4.65 0.90 -0.51 -8.03 -9.30 -4.59 -6.04 -8.40 -10.39 -10.39 -11.30 -14.20 -16.01 -12.93 -8.58 -9.48 -12.75 -13.65 -15.10 -14.92 -9.85 -11.12 -16.55 -15.47 -17.64 -17.10 -17.64 -15.83 -14.56 -14.74 -18.19 -20.54

GFSNGP_sfc_wetblb_081.txt.gz
Wetbulb
32.87 33.45 33.96 33.47 32.21 32.51 31.28 33.05 29.33 32.43 33.67 38.17 41.73 44.56 45.23 41.93 39.98 38.04 37.08 36.86 37.21 38.01 38.95 40.71 41.69 43.49 45.49 46.11 48.41 52.36 49.94 49.10 48.91 49.86 54.75 55.78 56.16 57.62 57.83 57.52 56.51 56.45 56.65 57.34
28.87 32.24 30.79 28.72 30.95 30.88 31.68 32.99 33.40 34.72 34.61 42.43 44.50 47.07 45.44 41.04 38.86 36.72 35.51 35.30 35.43 35.85 35.92 36.25 37.30 39.25 40.34 41.05 42.02 43.73 43.15 43.18 44.32 44.91 45.46 47.00 48.32 48.20 50.69 50.85 50.01 55.52 55.16 55.08
24.79 29.63 29.23 25.54 29.90 30.76 32.62 36.99 36.76 32.89 38.16 43.10 43.63 45.44 44.01 40.49 37.84 35.32 34.07 34.15 34.12 34.26 34.50 34.22 34.55 35.43 35.60 36.55 38.50 38.51 38.80 39.50 40.42 41.48 41.75 42.54 43.27 43.80 43.89 42.36 42.41 41.61 41.03 44.02
25.54 27.07 17.55 29.90 35.77 35.90 33.62 37.18 37.90 39.23 42.33 43.38 40.94 39.39 39.50 39.36 37.08 35.10 33.85 33.09 32.98 33.60 34.00 33.47 34.37 33.90 33.88 34.72 34.89 35.27 35.03 35.85 37.14 38.86 39.03 39.73 39.51 39.66 38.82 37.69 36.29 36.23 36.12 36.78
23.47 23.53 27.13 30.73 33.79 32.81 31.47 31.67 42.04 41.67 41.36 39.86 37.41 35.97 33.28 35.22 35.03 33.66 33.22 32.75 32.75 33.34 33.88 34.06 33.10 33.08 33.33 33.07 33.01 32.85 32.03 33.22 34.63 36.19 36.46 37.23 36.33 35.51 35.35 34.53 33.36 32.73 32.56 32.47
26.00 19.92 17.25 28.65 35.86 40.46 39.35 29.89 39.05 39.89 41.37 38.36 38.47 34.11 30.90 34.76 33.13 31.96 31.60 31.91 31.75 32.28 32.77 32.75 32.57 32.86 31.61 30.71 30.74 30.34 30.98 31.59 33.14 33.85 34.19 34.19 34.44 33.80 33.61 32.71 31.49 31.18 30.13 30.86
25.88 23.74 27.13 35.02 38.33 40.98 26.67 30.68 38.35 37.36 41.08 42.18 37.14 34.02 31.80 32.17 30.83 31.42 31.54 31.61 31.86 31.04 30.74 31.03 31.73 31.56 29.25 29.24 28.33 29.84 30.73 31.00 31.36 32.15 31.97 32.53 33.04 33.20 32.68 32.08 31.51 30.95 30.05 30.13
26.70 23.57 20.73 36.65 37.72 32.32 36.06 39.44 36.25 34.92 34.83 31.49 30.60 29.90 29.72 29.67 29.15 29.28 29.35 29.93 30.01 28.86 28.21 30.16 30.95 29.73 27.64 26.73 28.68 29.54 29.40 29.01 29.37 29.97 30.67 31.32 31.42 31.37 32.02 31.75 30.88 29.98 29.93 29.19
29.49 29.39 35.69 35.50 34.80 35.25 38.71 37.50 36.42 34.21 32.88 31.48 29.03 27.48 27.87 27.47 27.95 27.88 27.51 27.61 28.21 27.28 26.57 27.45 28.79 29.31 26.58 27.08 28.26 28.39 27.79 27.41 27.84 28.28 28.60 29.01 29.37 29.18 29.27 29.76 29.39 28.56 28.33 27.57
32.82 35.29 35.23 35.63 34.83 33.99 33.27 31.82 33.43 34.17 33.37 30.71 27.40 27.66 26.89 26.49 25.74 25.27 25.67 25.44 26.44 25.70 24.85 24.69 26.38 27.75 27.71 28.01 28.36 27.88 27.01 26.92 27.20 27.04 27.19 27.60 27.99 28.33 27.82 27.56 27.23 27.14 26.76 26.48
30.78 33.93 33.81 33.36 33.99 33.72 31.65 31.21 29.60 29.75 29.85 29.21 27.57 25.66 24.61 23.65 23.54 23.70 23.64 24.20 24.94 24.48 23.78 23.79 25.17 25.64 27.33 28.15 27.89 26.31 25.39 25.24 25.71 25.72 25.32 25.39 26.23 26.18 25.96 27.32 27.24 25.76 26.08 26.33
27.74 30.32 31.15 29.23 30.50 30.99 29.13 28.73 29.20 27.86 25.97 26.38 25.19 23.23 23.21 22.01 22.56 22.58 22.63 23.37 23.36 23.43 23.22 22.75 23.15 23.52 24.70 25.15 25.48 24.98 24.17 23.59 23.60 23.79 23.59 23.83 23.17 22.33 24.88 25.16 25.30 25.29 25.42 25.62
30.57 30.94 29.62 29.39 29.68 30.10 27.81 27.68 27.45 25.96 25.34 23.06 23.37 22.98 22.52 21.29 21.67 21.99 21.18 21.27 21.23 21.30 21.96 21.72 21.49 21.25 23.03 23.40 21.97 21.13 21.44 22.02 21.92 22.17 21.86 21.12 20.78 20.56 18.11 18.73 21.24 21.76 22.76 23.02
32.89 31.45 27.36 28.78 25.20 26.67 25.63 25.13 25.38 24.18 23.78 23.05 22.25 22.40 21.58 20.42 20.30 19.73 19.22 19.65 19.89 20.04 19.78 20.20 19.53 18.49 20.40 22.32 21.46 20.07 20.32 18.22 21.51 20.94 20.98 20.24 19.63 18.75 18.19 17.25 15.58 15.28 16.31 18.51
29.58 30.17 28.53 28.19 27.41 25.80 25.70 24.42 22.28 21.48 21.47 20.88 21.55 20.49 19.73 17.96 17.02 17.66 18.70 18.80 18.66 17.65 17.38 17.76 16.94 16.14 18.52 19.27 18.94 19.96 21.32 20.12 19.97 19.59 18.95 18.09 18.20 17.09 16.35 15.30 14.35 13.98 14.87 13.80
29.69 28.95 28.18 26.11 24.75 23.86 22.71 21.27 18.89 17.56 17.48 17.18 16.91 16.75 16.50 16.29 15.58 15.18 15.21 15.95 14.87 12.93 13.33 12.19 13.83 13.57 15.75 17.16 18.49 18.89 18.53 16.25 17.58 18.67 17.94 17.24 16.75 15.64 14.50 13.55 12.50 11.88 11.05 11.15
27.06 25.26 25.35 24.10 23.53 22.82 21.82 21.52 20.85 19.64 19.05 18.30 17.49 17.34 16.39 15.01 14.21 13.21 12.60 12.54 11.34 11.00 12.07 12.28 12.27 12.71 14.15 15.08 17.76 18.55 18.84 17.78 15.34 17.69 16.80 16.04 15.27 14.03 13.38 12.37 11.38 10.53 9.38 8.16
25.32 26.59 26.94 25.13 23.00 21.58 20.80 20.86 20.08 18.92 17.02 16.46 15.23 13.95 12.68 12.33 10.53 9.24 9.21 10.93 11.15 10.19 10.61 11.62 13.22 14.21 14.44 15.49 16.82 17.62 17.48 16.90 16.47 15.28 14.99 14.49 13.95 13.58 12.82 11.92 11.02 10.18 9.66 7.01
22.77 22.37 22.58 22.24 21.79 20.08 18.66 17.33 16.25 15.05 14.08 13.06 11.21 8.63 7.67 7.55 7.52 6.57 8.30 8.26 8.84 10.54 10.10 12.50 15.02 13.66 14.21 15.12 15.36 15.98 15.64 15.26 14.41 13.50 13.24 10.44 12.27 11.66 11.31 11.19 10.10 9.83 9.50 8.56
17.60 17.94 17.70 17.02 17.26 16.56 13.85 13.60 13.59 11.60 11.38 9.32 7.31 6.66 5.56 4.08 4.71 5.06 7.52 6.91 7.88 10.26 12.29 12.64 13.12 13.00 12.37 11.01 11.66 13.91 14.08 13.69 12.46 11.65 11.76 10.70 10.64 10.01 9.30 6.42 8.60 8.48 8.77 8.14
12.32 12.71 11.78 11.17 10.96 11.67 10.99 11.97 11.52 9.45 7.90 7.08 7.32 5.15 5.23 3.89 2.94 3.61 7.80 9.91 9.50 11.13 11.75 10.99 12.13 12.45 12.34 11.63 11.56 11.77 11.41 10.80 10.32 10.06 9.94 9.20 9.02 8.75 8.09 7.99 8.42 8.43 8.25 7.74
11.86 11.23 10.25 11.02 11.31 10.66 11.34 11.53 9.42 7.56 7.16 4.85 2.57 3.12 4.49 6.80 5.83 6.85 5.60 9.93 11.35 7.84 10.56 11.48 10.69 3.39 8.37 8.69 10.92 11.03 9.94 9.42 9.03 9.68 8.65 8.42 8.80 8.65 7.96 7.36 7.25 7.09 6.45 5.73
13.23 13.25 12.18 10.79 10.54 10.84 11.15 10.71 9.55 9.23 7.37 6.26 5.89 7.79 10.93 11.56 11.86 9.89 8.52 9.46 11.42 8.47 11.13 9.92 2.67 1.25 0.48 8.79 8.85 8.37 8.00 7.39 7.42 6.93 7.19 6.53 6.36 6.16 6.70 6.97 6.70 5.76 5.52 5.46
14.40 14.73 14.27 14.62 14.88 14.57 13.18 13.76 13.78 11.75 9.85 10.49 8.31 7.45 12.23 11.47 10.76 11.73 10.68 5.21 2.69 7.38 9.14 8.27 4.77 0.64 1.04 7.86 7.66 7.41 7.06 7.32 6.56 6.05 6.51 -2.87 5.96 4.62 5.01 4.66 4.48 6.03 3.76 1.28
16.47 16.42 16.29 16.69 16.13 15.68 15.37 15.34 14.88 14.64 14.39 14.11 13.44 12.90 12.72 12.52 12.19 11.06 10.79 10.17 6.32 7.26 10.38 0.09 -0.18 -2.12 7.13 8.03 7.75 7.20 7.41 7.63 7.47 6.30 6.11 5.74 5.39 4.88 5.39 4.87 3.02 4.17 3.84 3.16
18.52 17.86 18.34 18.18 18.11 17.75 17.26 16.48 15.41 15.22 14.84 13.69 13.54 12.42 11.42 10.48 11.13 11.24 10.07 5.56 8.95 6.74 11.08 10.18 7.72 7.46 7.68 7.40 6.94 5.94 6.91 7.44 6.44 6.37 4.36 5.10 5.22 4.30 4.12 4.24 3.61 3.61 3.44 3.26
17.09 15.48 16.15 15.30 14.85 14.85 15.47 15.94 15.49 14.91 13.93 14.03 13.63 12.44 11.71 10.51 9.73 8.63 5.39 10.63 10.44 9.47 9.37 9.81 8.64 6.12 7.58 7.69 7.77 7.69 7.35 7.23 3.27 6.18 6.30 5.34 4.59 4.58 3.70 3.18 3.51 3.43 2.08 0.39

GFSNGP_sfc_wetblb_084.txt.gz
Wetbulb
35.22 35.54 36.02 35.62 35.29 36.17 35.19 36.22 32.13 35.30 35.61 40.08 43.85 45.36 46.26 44.17 41.51 38.04 36.31 35.75 36.02 36.63 37.34 38.89 40.81 42.76 44.49 47.27 49.96 52.57 51.17 50.22 49.79 50.23 52.90 55.14 56.53 57.85 58.95 59.01 58.53 58.99 58.62 58.25
30.05 34.82 33.97 31.69 34.23 34.43 34.59 35.06 36.02 37.79 38.28 45.01 47.25 47.24 44.69 42.91 39.96 36.04 34.52 34.11 34.51 34.74 34.72 34.83 36.04 37.83 39.40 41.00 43.40 44.98 44.74 44.04 45.43 46.01 46.06 46.13 47.23 48.28 47.92 47.73 45.50 46.42 46.38 48.03
25.02 32.30 31.73 28.59 32.97 34.57 35.79 38.75 38.82 35.27 40.93 45.59 45.31 44.72 42.02 40.01 38.06 35.19 33.64 33.10 33.05 33.32 33.22 33.16 33.48 35.25 35.39 37.36 39.37 39.80 39.51 40.72 41.48 42.18 42.17 42.68 42.70 41.41 40.15 40.14 40.52 40.12 39.74 39.14
28.14 29.06 21.00 32.73 39.59 38.03 35.72 39.05 39.95 40.40 42.57 42.00 40.45 37.40 37.66 37.88 36.41 34.56 34.05 32.81 32.62 33.06 32.39 32.73 33.66 34.02 35.04 35.67 35.64 36.39 36.46 37.50 38.83 39.75 39.01 39.29 38.99 37.90 36.52 36.33 35.48 35.41 35.39 35.72
26.78 27.13 30.07 32.89 35.77 35.56 34.37 35.28 40.29 39.47 40.87 41.23 37.23 35.33 32.00 34.57 34.15 33.44 32.55 31.83 32.82 33.74 32.85 32.83 33.02 33.56 33.97 33.92 33.82 34.25 34.23 34.88 36.10 37.32 36.92 36.80 35.22 34.84 34.81 33.62 32.97 32.43 32.99 32.70
29.54 19.33 19.54 33.29 38.25 42.32 41.49 32.25 41.05 40.75 39.37 38.94 38.50 35.49 28.52 32.66 33.02 31.95 31.65 32.19 31.83 32.33 32.33 32.62 32.61 33.38 32.54 31.31 31.52 32.21 32.55 33.03 36.03 35.12 35.27 34.97 34.85 33.86 33.99 33.51 32.49 32.26 31.19 32.02
28.77 26.43 30.66 37.26 39.83 42.34 30.24 31.57 40.57 37.67 35.80 37.85 37.58 31.86 30.19 31.16 30.93 31.98 31.95 31.74 32.31 32.05 31.00 30.83 32.38 32.72 30.61 30.70 30.38 31.87 32.44 33.20 34.08 34.47 34.50 35.08 35.24 35.48 35.04 34.17 33.66 32.76 31.71 31.72
30.48 26.32 23.63 38.85 39.47 33.74 36.30 39.47 37.61 34.61 32.73 29.72 29.07 29.17 29.53 30.29 30.07 30.35 30.14 30.45 31.18 30.41 30.26 32.03 32.67 31.31 29.49 29.45 31.05 31.37 31.61 31.44 31.66 32.84 33.38 33.92 34.53 34.60 34.95 34.85 33.78 33.13 32.29 31.40
33.31 32.52 36.49 36.23 35.70 37.22 37.02 36.30 35.55 34.10 32.41 30.64 29.73 28.84 28.82 28.06 28.53 28.72 28.72 28.36 29.39 29.06 29.36 30.17 30.67 31.49 29.34 29.39 30.43 30.70 30.57 30.96 30.24 30.90 32.39 33.53 33.38 33.06 33.32 33.92 33.04 31.96 31.68 30.82
35.19 34.14 33.61 34.60 34.88 34.11 33.70 32.76 32.95 33.61 32.67 31.40 28.32 27.84 27.48 27.69 27.49 27.26 27.71 27.33 27.96 27.68 27.35 27.29 28.98 29.70 30.08 30.55 31.17 30.44 30.04 29.45 29.00 28.87 29.68 30.54 29.88 30.44 31.05 30.99 30.75 30.24 30.10 29.26
33.98 33.16 32.60 32.00 32.74 33.42 32.53 32.19 30.89 31.53 30.97 29.07 28.11 26.66 26.70 25.85 25.81 26.33 26.91 27.47 28.04 26.84 26.44 26.14 27.21 27.10 29.06 30.71 30.97 29.62 29.36 28.93 28.42 28.13 26.87 25.83 26.24 27.29 26.34 27.09 27.70 27.79 27.33 27.60
29.53 31.72 32.47 30.07 31.20 32.52 30.21 29.60 30.81 29.23 27.40 28.02 27.08 25.51 25.54 24.35 25.25 25.49 25.31 26.10 26.03 26.19 25.54 25.53 25.89 25.99 26.40 28.36 29.59 28.98 28.47 27.94 28.03 27.96 27.61 27.01 25.77 23.27 24.50 24.88 24.99 24.84 24.98 26.42
30.85 32.16 30.81 30.87 30.66 31.72 30.13 29.38 29.18 28.08 27.44 25.28 25.95 25.70 25.03 23.91 24.09 24.18 24.01 23.83 23.86 24.06 24.53 24.88 24.73 24.73 26.13 25.94 26.58 27.26 27.40 27.44 27.33 27.05 26.96 26.53 26.69 25.67 21.85 20.96 20.88 22.08 22.40 22.50
33.49 33.20 29.62 30.15 27.74 28.99 28.84 28.16 27.98 27.49 27.01 26.41 25.75 25.91 25.13 25.02 24.97 24.10 23.02 23.83 24.74 24.38 24.07 24.41 23.38 22.66 24.81 26.35 26.26 25.42 25.43 25.12 27.11 27.11 26.71 26.48 25.47 24.79 24.54 23.70 21.53 19.96 17.79 19.01
31.70 32.29 30.29 29.68 29.19 28.35 29.01 28.94 26.99 25.66 25.22 24.68 25.12 24.22 24.10 22.73 21.85 21.70 22.60 23.44 23.21 22.44 21.86 21.72 20.90 20.48 23.38 23.97 23.92 25.25 26.70 25.73 25.89 25.17 24.60 24.36 24.30 23.40 22.63 21.64 20.72 20.45 21.16 18.79
30.70 30.45 29.79 28.16 27.48 27.22 26.85 25.71 24.06 22.36 21.94 21.27 21.01 20.62 20.94 21.46 20.72 19.99 19.58 20.13 19.21 17.37 17.68 16.87 17.32 18.02 20.50 23.62 24.95 24.99 23.53 21.73 23.89 24.91 23.98 23.29 23.02 22.04 20.95 20.40 19.59 18.57 17.02 16.77
28.39 26.89 27.19 26.19 26.51 26.33 25.24 25.66 24.93 23.59 23.18 22.25 21.33 21.63 21.15 19.98 19.12 17.48 16.85 16.82 16.26 16.51 17.55 17.20 17.04 17.48 19.05 20.59 23.77 25.12 24.93 23.18 21.20 23.32 22.48 22.11 21.37 20.34 20.05 19.32 18.18 17.01 14.85 12.42
29.87 31.03 30.46 28.62 26.13 24.88 24.17 24.31 23.93 23.31 21.83 21.11 19.38 18.07 16.43 16.04 14.58 13.67 14.31 15.30 15.13 14.34 16.18 17.25 17.22 18.53 18.25 19.84 21.89 23.24 23.44 22.60 21.96 21.04 21.27 20.59 20.10 19.83 19.18 18.31 17.40 16.62 16.18 13.15
27.53 26.87 26.66 25.78 25.66 24.38 23.02 21.65 20.38 19.12 17.71 17.01 15.31 13.24 12.72 12.71 13.27 13.54 14.49 14.15 14.77 15.51 14.82 16.46 17.00 17.77 18.04 17.83 20.65 22.03 21.66 20.89 20.21 19.60 18.87 17.32 18.85 18.43 18.27 17.94 16.70 16.01 15.84 14.95
22.52 23.07 23.16 21.96 21.88 20.57 18.19 17.59 17.43 15.57 14.92 13.69 12.19 11.88 10.94 9.90 11.05 11.71 13.34 12.80 13.81 15.91 16.57 16.32 17.22 17.30 17.04 16.03 16.87 20.44 20.22 19.82 18.52 18.14 17.65 17.83 18.03 17.33 15.69 12.14 14.80 15.39 15.85 15.37
18.93 18.66 17.80 16.81 16.14 16.78 17.05 16.73 15.69 14.08 12.98 13.55 13.27 11.25 10.58 10.56 9.52 10.30 14.69 18.07 14.56 14.90 15.20 14.42 16.05 17.73 17.54 16.64 18.28 18.62 18.30 17.74 17.09 16.95 16.63 16.52 17.16 15.98 15.72 15.82 15.64 15.60 15.47 14.77
17.75 16.79 16.27 16.00 16.38 16.10 16.53 16.14 14.36 13.05 12.74 11.02 9.39 10.13 10.93 11.70 10.62 11.87 10.71 15.72 16.86 11.58 16.18 16.97 16.06 10.08 13.48 13.33 16.99 17.03 15.94 15.77 15.90 16.52 16.61 16.27 16.15 15.95 15.44 15.00 14.08 14.15 13.41 12.73
18.07 17.79 16.93 15.88 16.40 16.61 16.26 15.27 14.26 14.05 12.55 11.63 11.40 13.34 16.91 17.68 18.12 17.44 16.46 14.42 17.81 13.15 16.76 15.70 9.44 8.98 9.31 15.35 15.69 15.50 14.88 13.94 13.98 13.72 14.01 13.84 13.83 13.52 13.08 12.80 12.67 12.53 11.68 11.57
18.21 18.17 17.72 17.76 17.43 17.34 16.17 16.55 17.19 15.98 15.03 14.90 13.84 13.78 16.95 18.72 17.70 18.24 16.36 12.45 10.50 13.15 15.55 14.30 11.39 6.75 7.50 15.78 15.20 14.80 14.58 14.85 14.41 14.18 13.57 4.59 12.95 12.23 11.79 11.28 10.23 11.52 10.86 8.88
19.46 19.33 19.06 19.13 19.35 20.05 19.18 19.02 18.49 18.03 17.42 18.06 16.79 16.27 16.76 18.80 18.47 17.71 18.03 15.97 11.01 12.42 16.14 7.69 7.37 7.03 13.67 15.35 14.77 13.54 13.57 13.75 13.62 12.75 12.33 11.89 11.50 10.99 11.45 11.35 10.06 10.26 10.20 9.66
21.75 23.10 22.84 22.03 22.56 22.94 22.43 21.48 21.85 21.46 20.97 19.73 19.96 20.88 20.19 19.52 17.84 17.50 16.57 13.57 14.90 13.62 15.68 16.87 14.84 14.13 14.65 14.12 13.48 13.13 12.89 13.25 12.49 12.29 11.04 11.15 11.25 10.86 10.59 10.31 10.05 10.05 9.91 9.88
22.49 21.52 21.72 21.19 21.30 21.29 21.73 21.42 21.53 20.97 19.93 19.74 18.48 19.95 19.43 19.14 18.30 15.97 13.93 17.11 16.74 16.26 16.07 16.00 15.89 14.07 14.53 14.11 13.84 13.79 13.74 13.38 12.03 11.96 12.08 11.80 11.43 11.33 10.74 10.10 10.13 10.10 9.59 8.48

GFSNGP_sfc_wetblb_087.txt.gz
Wetbulb
36.77 37.94 38.24 37.40 37.26 38.64 37.16 38.23 34.39 37.38 37.21 40.76 45.11 46.18 48.78 47.95 45.21 42.52 39.52 37.66 35.14 34.75 35.13 35.75 37.79 39.87 42.11 44.52 49.40 53.26 51.71 51.08 50.87 52.13 55.85 56.08 54.87 52.62 56.51 55.18 55.75 56.21 57.94 58.02
34.09 37.35 37.13 34.84 37.38 37.35 36.85 36.63 36.32 37.32 38.61 45.47 47.57 49.34 46.42 43.51 41.02 38.55 36.72 34.51 33.86 33.35 33.47 33.51 34.70 36.29 38.24 39.84 42.37 45.25 45.28 44.95 45.72 46.48 47.18 46.58 45.52 45.33 44.81 44.31 43.90 44.22 42.97 42.19
29.20 34.04 33.88 30.01 35.13 35.63 36.91 39.53 39.95 35.76 40.73 44.16 39.13 36.08 35.94 37.47 36.00 34.37 33.80 33.32 33.02 32.06 32.32 32.94 33.74 35.29 34.91 37.06 38.77 39.83 40.89 41.41 41.67 41.84 41.34 41.01 40.49 39.19 38.93 38.63 38.72 37.92 37.85 37.80
28.53 30.20 21.57 33.69 40.34 39.47 37.23 40.27 40.83 40.34 41.83 39.91 35.34 33.09 32.71 33.36 33.24 32.29 32.17 33.29 33.62 32.74 32.14 33.17 33.53 34.78 35.04 36.21 35.85 36.24 36.90 38.37 39.11 38.44 37.82 37.74 36.78 35.40 35.09 35.26 34.77 34.69 34.71 34.64
27.83 25.66 29.95 34.62 37.41 37.33 36.48 36.46 40.50 39.57 41.03 40.42 35.82 34.61 31.54 33.24 32.39 31.13 31.67 31.31 32.35 33.11 32.76 32.81 33.23 33.18 33.15 33.26 33.75 34.61 34.20 35.33 36.63 36.79 35.49 34.92 33.84 33.70 33.64 32.87 32.67 32.54 33.43 33.24
31.45 24.51 21.83 32.54 39.77 42.41 41.91 32.72 40.03 39.84 38.25 38.73 39.49 34.46 29.68 32.22 32.45 31.49 31.47 31.66 31.27 31.61 32.31 32.91 32.97 33.60 32.16 31.57 31.77 31.74 32.22 33.33 34.72 35.28 35.21 33.94 33.27 33.86 34.01 33.20 32.37 32.20 31.53 32.46
30.28 28.39 32.51 38.69 41.35 42.96 30.72 32.40 39.09 38.46 35.12 31.77 30.09 30.38 30.19 31.61 31.30 31.67 31.85 32.19 33.20 32.20 30.97 31.26 32.88 32.90 31.41 30.86 30.88 31.93 32.76 33.71 34.06 35.05 34.88 34.35 34.74 35.63 35.22 34.79 33.87 33.23 32.53 32.48
31.86 28.25 25.21 39.68 40.44 34.91 35.54 39.27 37.32 34.94 32.44 29.04 29.08 29.36 29.83 30.95 31.66 31.88 30.95 32.16 32.46 31.34 31.15 31.85 32.02 31.59 30.41 30.54 32.49 32.14 32.12 32.71 33.35 34.40 35.28 35.10 35.73 36.09 35.75 35.15 34.29 33.47 32.47 31.65
34.65 32.30 37.08 38.08 35.82 37.22 36.76 34.09 34.62 33.21 33.31 31.91 30.15 30.00 30.21 29.83 30.61 30.51 30.25 30.01 30.72 30.07 29.77 30.47 31.33 31.87 29.63 30.53 31.76 32.33 32.05 31.92 32.27 31.59 31.92 33.34 33.69 33.79 34.12 34.58 33.76 32.30 31.60 30.72
35.76 33.43 33.86 35.67 37.36 36.09 34.30 32.69 33.88 35.05 33.57 32.13 29.37 29.76 29.40 29.72 29.91 30.17 30.30 29.97 30.17 28.85 27.55 27.45 29.97 30.80 30.62 31.78 32.07 31.23 29.76 28.47 28.39 28.58 29.01 29.93 29.04 27.77 27.30 30.66 30.53 30.80 30.30 29.29
32.17 32.96 34.44 34.85 34.39 34.17 33.09 32.74 32.49 32.30 32.31 30.89 30.34 29.18 29.45 28.94 28.85 28.96 29.00 29.22 28.96 27.89 27.62 27.11 27.73 28.01 30.40 32.62 32.64 30.41 30.08 29.59 28.62 27.20 26.11 24.64 25.21 26.15 25.93 26.41 27.13 27.64 26.71 27.25
29.34 33.08 33.49 30.79 33.15 33.60 31.06 31.29 31.48 30.44 28.58 29.86 29.06 27.12 27.41 26.55 27.60 27.83 27.20 27.45 26.75 26.72 26.46 26.44 26.78 26.64 27.50 29.88 31.16 30.71 29.47 29.12 29.37 29.03 28.49 26.94 24.61 22.67 24.70 24.98 24.93 25.06 25.47 26.22
31.69 32.67 32.33 32.43 32.57 33.68 31.28 30.67 30.41 29.42 28.68 27.13 28.26 28.20 27.15 25.99 26.43 26.76 26.48 26.14 25.78 25.48 25.71 25.56 25.31 25.57 27.52 27.83 29.12 29.45 28.75 28.68 28.43 28.73 28.49 27.99 27.27 25.51 21.47 20.96 21.86 22.34 22.39 22.65
34.59 34.17 30.87 32.20 29.70 31.47 30.95 30.97 30.91 30.08 29.67 28.53 28.59 28.46 28.45 27.08 27.22 26.93 26.24 27.06 27.61 27.30 26.45 25.68 24.41 24.20 26.19 27.99 28.36 27.93 27.95 27.59 28.19 28.32 28.18 27.77 27.24 26.85 27.15 25.69 22.89 19.99 18.93 19.55
32.88 33.74 32.25 31.99 31.80 31.24 32.48 32.07 29.60 27.93 27.48 27.24 28.19 27.36 26.78 25.24 24.20 24.42 25.94 25.61 24.92 23.78 22.89 22.70 21.93 22.23 25.90 26.66 25.36 26.48 27.79 27.15 27.17 27.04 26.89 26.58 26.37 25.56 25.05 24.34 23.43 23.02 22.59 21.26
32.48 32.20 31.92 30.59 29.95 30.11 30.04 29.24 26.71 24.82 24.53 24.06 23.90 23.90 24.00 23.78 22.97 22.16 21.65 21.93 20.69 18.90 19.49 18.09 18.41 20.36 22.83 26.17 27.73 27.18 25.65 24.81 26.30 27.04 26.34 25.58 25.24 24.36 23.46 22.94 22.03 20.38 18.36 18.59
30.52 29.34 29.73 28.89 29.20 28.67 28.17 28.46 27.52 26.36 25.75 24.77 24.46 25.17 24.84 23.07 21.56 19.78 18.92 19.20 18.55 18.96 19.52 18.75 18.70 19.32 21.54 22.93 26.39 27.47 27.14 25.37 24.26 25.77 25.02 24.71 24.07 23.41 22.97 22.39 20.96 18.94 15.73 14.92
31.75 32.49 31.85 30.36 28.32 26.85 26.16 26.24 26.32 25.43 23.49 22.68 21.28 19.87 17.68 17.37 16.44 16.29 16.87 17.87 17.26 16.75 18.01 18.48 19.12 20.58 19.77 21.61 24.24 25.80 25.46 24.70 24.23 23.56 23.64 22.99 22.73 22.83 22.06 21.16 20.44 19.71 19.02 15.94
29.79 29.08 28.85 27.85 27.53 26.43 25.06 23.30 22.07 21.09 20.53 19.76 17.79 15.69 15.50 15.52 16.26 16.36 17.52 18.06 19.01 18.71 17.50 18.72 19.37 20.02 19.71 19.35 22.43 24.46 24.15 23.39 22.84 22.36 21.89 21.13 21.85 21.41 21.35 21.00 19.93 19.26 18.94 17.96
25.69 25.99 25.58 24.48 24.51 23.25 20.36 20.24 20.03 17.85 17.19 15.82 15.27 14.46 13.23 12.73 14.18 14.97 16.24 14.83 15.71 17.88 18.84 18.29 20.14 19.81 19.60 18.82 19.53 23.00 22.55 22.25 21.06 20.26 19.24 20.70 20.63 20.22 18.49 14.28 17.02 18.24 18.25 17.79
22.45 22.05 20.66 19.85 19.65 20.10 19.79 19.34 17.95 15.42 15.61 16.49 15.70 13.63 13.20 13.62 13.00 13.30 18.51 21.64 17.65 16.59 17.23 17.06 17.66 18.90 19.45 17.92 21.29 21.49 20.87 20.40 19.71 19.45 18.92 19.08 19.61 18.92 18.24 17.81 17.78 17.55 16.98 16.59
21.48 20.09 19.57 19.79 19.66 19.31 18.95 18.08 16.82 15.93 15.06 13.50 12.65 13.67 14.42 15.74 14.48 15.78 14.39 17.45 19.44 13.68 18.51 19.73 17.62 12.11 14.83 13.51 19.89 19.31 18.62 18.33 18.43 18.65 18.52 17.95 17.71 17.43 17.21 16.79 15.95 16.04 15.67 15.37
21.12 20.86 20.31 19.76 19.67 19.04 18.47 17.73 17.22 16.61 15.31 14.62 15.01 17.45 18.86 19.27 20.01 19.56 19.70 17.42 20.33 14.97 19.40 17.41 11.74 11.07 11.47 18.09 18.56 17.97 17.18 16.21 16.12 16.17 16.29 15.80 15.78 15.46 15.23 15.11 14.80 14.43 14.18 13.78
21.39 21.03 20.59 20.56 20.03 20.21 19.19 19.18 19.87 18.58 17.34 17.50 16.09 16.06 19.23 21.74 22.11 21.29 19.74 14.74 13.02 14.79 15.63 15.28 13.30 10.73 9.15 17.04 16.91 16.52 15.95 16.28 15.79 15.96 15.43 9.42 15.18 14.66 14.41 13.74 13.00 13.63 13.51 12.58
21.90 21.40 21.21 21.05 21.81 23.11 21.54 21.33 20.80 20.35 19.52 21.18 19.83 19.52 18.97 21.40 19.83 21.00 20.84 18.88 12.45 13.32 18.71 11.32 11.01 10.60 14.79 16.45 16.41 15.36 15.41 15.82 15.84 14.81 14.06 14.20 14.08 13.74 14.01 13.95 13.34 13.10 12.83 12.37
23.40 24.50 25.05 24.98 25.69 26.03 25.54 23.95 23.97 24.90 23.61 22.72 22.41 22.82 22.79 21.76 21.04 19.36 18.99 16.22 17.49 16.46 17.51 19.62 17.44 16.43 16.67 16.56 16.10 15.57 15.39 15.14 15.35 15.23 14.12 13.44 13.70 13.60 13.28 12.95 12.85 12.66 12.43 12.51
24.70 24.30 24.49 24.25 25.00 24.84 24.01 23.82 23.26 23.31 23.19 22.24 21.47 24.13 22.25 21.47 20.77 17.99 17.66 18.94 18.81 18.72 18.48 18.38 18.44 17.37 17.27 16.50 15.81 16.07 16.07 16.03 15.27 14.89 14.34 13.63 13.20 13.50 13.38 12.99 12.83 12.62 12.26 11.63

GFSNGP_sfc_wetblb_090.txt.gz
Wetbulb
32.83 33.75 33.47 34.15 35.69 38.18 36.55 36.94 32.95 35.17 35.07 39.72 41.66 41.60 41.90 42.99 42.07 39.43 37.18 35.91 34.96 33.60 34.09 34.99 36.22 36.76 38.26 40.71 46.02 51.35 51.44 50.92 51.15 51.47 52.68 51.84 50.32 52.10 51.50 50.58 48.61 48.24 47.01 45.71
27.66 33.26 34.13 32.71 37.06 36.66 35.76 36.47 36.78 37.60 37.24 41.88 40.37 38.23 38.22 37.41 36.29 34.22 33.38 33.32 33.05 32.70 33.07 33.10 34.05 34.69 36.31 37.42 40.45 43.99 44.83 45.00 45.33 45.67 45.31 44.33 43.53 43.43 43.40 42.35 42.20 41.52 40.27 40.09
23.78 30.37 33.39 30.57 35.29 36.86 37.25 39.17 38.67 34.02 37.73 41.46 37.80 33.93 32.07 33.56 32.34 31.27 31.34 31.34 31.42 31.54 32.01 32.54 32.70 34.09 33.96 35.68 37.83 39.16 39.85 40.61 41.12 40.27 39.58 39.56 38.83 38.28 38.16 37.55 37.40 36.65 37.13 37.61
23.98 27.16 23.71 34.63 40.63 39.77 38.23 38.33 39.47 39.27 39.32 39.02 34.90 32.41 32.06 32.44 30.94 30.08 29.97 30.34 31.23 31.60 31.81 32.56 32.83 33.22 34.00 34.40 34.85 35.09 36.22 37.06 37.60 37.12 36.16 36.10 35.53 34.87 34.80 34.82 34.51 34.05 33.97 34.94
25.74 26.03 31.48 34.50 37.76 37.37 36.51 35.06 38.36 37.45 38.20 38.37 35.90 33.37 30.37 31.87 31.41 30.30 30.59 30.62 30.78 31.54 33.14 32.62 32.48 32.66 32.93 32.59 33.18 32.93 32.46 33.21 35.34 35.39 34.30 34.00 33.16 33.09 33.22 32.97 32.73 32.33 32.45 32.42
29.78 24.22 21.73 33.45 38.82 42.40 41.25 32.05 37.58 37.35 34.91 33.37 37.05 32.70 27.05 31.47 32.36 31.26 31.90 31.46 30.91 31.24 31.60 31.71 31.93 32.66 31.76 31.20 31.51 31.20 31.75 32.05 34.03 34.87 34.18 33.29 33.20 32.91 33.22 32.50 31.15 30.55 30.10 31.17
28.60 27.02 31.15 35.13 39.36 41.73 29.50 30.44 35.87 35.43 32.29 29.61 26.96 27.73 29.69 31.48 30.80 31.91 31.91 32.10 32.79 31.61 30.31 31.01 32.01 32.76 31.16 30.63 30.14 31.70 32.10 32.28 32.93 33.53 33.69 33.93 34.29 34.40 33.81 32.77 31.49 30.01 28.90 28.97
30.76 27.67 24.61 36.91 37.58 31.93 33.17 35.48 34.69 33.29 31.41 28.63 29.08 29.45 30.22 31.07 31.16 31.28 31.41 32.09 31.94 30.55 30.37 31.57 31.75 31.07 30.07 30.18 32.08 32.55 32.02 31.75 31.54 31.42 32.39 33.30 33.05 33.62 33.94 32.69 31.56 30.75 30.06 28.97
32.45 29.99 35.09 36.28 34.47 35.26 35.77 33.67 33.60 33.10 32.41 31.01 29.22 28.81 29.57 29.71 29.88 29.84 30.89 30.45 30.65 29.69 30.22 31.25 31.83 32.53 29.61 30.12 30.87 29.72 29.05 29.22 29.38 30.27 29.97 29.76 27.99 29.74 31.65 31.90 30.76 29.74 28.38 27.05
33.84 33.38 33.06 34.44 34.61 34.40 34.08 32.98 34.11 33.92 32.63 31.03 28.34 29.32 29.67 30.49 30.25 29.83 30.05 29.65 30.09 28.77 27.41 27.41 29.25 31.55 31.55 31.83 31.96 29.74 27.90 26.92 26.70 25.62 25.60 26.70 26.64 26.01 25.33 27.54 27.21 28.12 27.36 25.09
31.48 33.22 32.94 32.36 32.76 33.07 32.91 32.46 31.17 31.98 32.03 30.74 29.53 28.59 28.60 28.23 28.43 28.73 28.91 29.07 28.70 27.52 26.40 25.92 27.08 27.50 29.75 31.32 31.83 30.26 29.56 28.60 26.95 25.27 23.73 23.20 23.83 23.94 23.79 24.79 26.63 24.24 22.89 23.64
27.40 31.31 32.29 30.41 31.81 32.52 30.90 31.14 30.98 29.38 28.78 29.61 28.47 26.86 26.79 26.11 27.15 27.10 26.72 27.41 26.72 26.46 25.74 25.81 26.34 26.67 27.41 29.60 30.45 29.35 28.46 28.62 28.52 27.37 25.25 23.38 21.38 20.59 24.48 24.75 25.25 25.46 25.82 23.79
30.51 32.41 31.70 31.82 31.88 32.72 30.50 30.10 30.15 29.10 29.12 28.02 28.45 27.58 26.99 26.06 26.75 27.36 27.61 27.35 26.49 25.76 25.20 25.33 25.19 25.37 28.28 28.45 28.33 28.26 28.37 28.55 28.11 28.11 28.32 27.35 24.71 20.99 16.91 19.59 22.38 22.75 23.16 23.67
35.45 34.35 30.74 32.01 29.22 31.64 31.13 30.84 31.07 30.06 29.84 29.49 29.20 29.12 28.31 26.90 26.50 25.49 24.82 25.69 25.71 24.91 24.04 23.33 23.57 24.37 26.00 27.28 28.45 27.66 27.21 27.08 27.02 26.89 26.93 26.75 25.99 25.96 24.86 21.71 18.15 17.12 20.64 20.87
31.93 33.21 32.17 32.87 32.44 32.14 32.84 31.53 28.77 27.39 27.21 26.98 27.99 27.05 26.04 24.27 23.39 23.59 24.49 23.69 22.57 21.04 20.30 20.28 19.96 20.75 23.85 26.40 24.82 24.39 26.64 26.61 26.14 25.71 25.38 24.99 24.90 24.18 23.57 22.43 21.29 18.99 19.39 19.16
32.25 32.57 32.26 30.67 30.32 29.92 28.89 27.78 25.36 24.33 24.45 24.20 23.83 23.62 23.80 22.83 21.58 20.51 20.56 21.04 19.12 17.57 18.30 16.61 17.52 18.98 21.68 22.68 27.00 25.25 24.41 24.32 24.93 25.58 24.88 24.10 23.79 22.81 21.95 20.82 18.43 16.07 14.37 14.90
31.82 30.00 30.30 29.54 28.42 28.01 27.58 27.70 26.99 25.97 25.49 24.82 24.53 24.81 23.66 21.62 19.67 18.11 17.64 18.44 18.20 17.71 17.76 17.94 17.93 17.41 19.29 21.10 25.20 26.30 25.71 24.65 22.65 23.88 23.16 23.14 22.50 21.38 21.08 19.73 17.30 14.27 12.16 11.47
31.81 31.22 30.95 29.65 27.56 26.37 25.91 26.05 25.01 23.69 21.74 20.67 19.11 17.95 15.83 15.76 15.49 15.91 16.32 16.31 15.38 15.02 16.61 16.69 16.85 17.69 17.54 19.28 21.13 24.45 23.91 23.14 22.63 21.71 21.45 20.75 21.19 21.43 20.31 19.09 18.44 17.09 14.89 12.69
29.40 28.27 27.80 27.37 26.94 25.11 22.88 21.25 20.58 20.63 19.99 18.85 16.13 14.25 14.31 14.10 15.37 15.89 17.24 16.51 17.93 16.29 16.03 17.79 20.62 19.10 18.81 18.65 19.82 23.59 22.82 22.24 21.90 21.17 21.00 18.99 20.11 19.54 18.62 18.54 17.19 16.06 16.26 14.76
25.36 25.21 24.18 23.12 22.87 21.49 19.86 20.23 19.13 16.68 15.74 15.19 13.51 12.92 12.30 11.33 12.50 13.16 14.79 13.84 14.65 16.44 17.80 17.60 19.95 19.59 18.66 18.57 16.81 21.78 21.40 21.13 20.22 18.40 17.54 18.85 18.17 18.06 13.78 9.65 13.82 15.66 15.71 15.48
21.90 21.47 20.74 20.41 19.81 20.03 19.87 19.11 16.05 14.91 15.17 14.67 13.81 12.01 11.52 12.82 12.38 11.91 16.52 18.12 16.56 16.14 17.16 16.30 15.85 14.77 17.27 14.51 16.04 20.51 19.71 19.09 18.35 17.95 17.26 17.14 16.43 16.41 15.10 14.41 14.79 14.22 13.53 12.54
21.16 20.06 20.23 20.40 19.58 18.05 17.30 17.27 16.68 14.86 13.70 12.12 10.11 10.63 11.65 15.26 13.18 14.17 12.37 16.40 17.49 9.98 17.44 17.08 14.59 8.28 11.76 8.59 18.83 18.35 17.54 16.87 16.96 16.99 16.39 16.07 15.42 15.35 15.86 14.96 12.96 14.00 12.91 12.93
21.20 21.00 20.76 20.84 18.89 18.02 18.27 17.67 16.28 15.93 13.63 13.05 14.10 16.71 17.52 18.84 19.05 17.72 17.23 17.35 18.91 12.85 17.34 13.63 8.08 6.97 7.82 14.22 17.59 17.28 16.20 15.13 14.52 14.61 14.92 13.85 13.69 13.68 12.58 12.91 11.47 9.60 9.54 11.03
21.69 21.72 20.85 20.90 20.37 20.39 18.97 19.18 19.92 18.50 15.87 17.42 14.77 13.42 17.17 19.33 21.26 20.89 17.83 11.65 9.97 9.77 14.13 13.29 10.64 7.14 4.18 15.12 16.82 15.91 15.32 15.40 14.67 15.24 14.75 7.46 13.73 13.56 13.19 11.60 9.03 10.18 8.82 7.34
21.97 21.67 21.52 21.97 22.82 22.74 21.95 21.81 21.06 20.91 20.35 21.57 20.39 20.44 19.24 21.21 19.37 19.69 19.38 16.62 12.29 11.41 17.25 10.43 7.44 6.68 12.25 15.56 16.04 14.71 14.38 15.00 15.46 12.57 11.22 10.74 12.10 11.07 12.27 12.30 11.15 11.06 9.59 7.50
23.82 24.78 25.13 24.74 24.96 25.16 24.85 23.77 23.04 24.39 23.43 23.28 23.67 23.74 23.11 22.27 20.83 18.77 19.77 15.09 16.98 15.19 16.80 17.82 15.22 13.77 15.39 15.46 15.82 15.32 14.39 14.60 14.19 14.06 14.16 12.11 12.25 12.55 11.49 11.16 10.26 10.26 9.97 8.91
25.15 24.85 24.44 23.95 24.23 23.88 22.14 21.31 21.95 22.64 22.84 21.88 21.49 23.81 23.05 22.42 21.79 18.04 15.84 18.76 18.68 18.98 19.09 19.20 19.10 17.41 17.37 16.91 14.86 14.12 14.88 15.45 14.02 14.33 12.74 12.53 10.04 9.69 10.33 10.71 10.74 10.73 8.36 6.20

GFSNGP_sfc_wetblb_093.txt.gz
Wetbulb
28.75 30.05 30.52 30.56 31.02 32.36 31.86 35.09 31.23 33.13 33.93 36.37 36.85 37.27 36.68 36.65 35.47 33.64 32.36 32.36 32.43 32.20 32.84 33.63 34.50 35.43 37.02 38.83 41.81 46.26 49.97 50.23 50.17 50.73 50.53 49.97 49.78 48.93 47.89 47.43 47.50 47.84 46.39 45.51
24.36 29.15 30.48 28.66 31.55 33.81 33.93 35.21 35.42 35.04 35.14 37.26 36.59 35.81 34.38 33.17 32.68 31.14 30.52 30.36 31.06 31.56 32.14 32.29 33.04 34.38 35.49 37.38 40.73 40.41 41.50 43.10 45.01 45.01 43.89 43.14 42.73 42.36 41.74 41.25 41.02 41.25 40.56 40.61
17.55 28.50 27.71 25.29 33.45 33.72 34.91 37.00 35.74 33.08 35.27 37.07 32.66 31.40 30.77 31.00 30.45 29.59 29.57 29.53 29.96 30.74 31.23 32.01 32.31 33.82 34.01 35.12 36.72 37.26 36.73 37.64 38.32 39.46 39.26 38.47 38.16 37.99 37.33 36.98 37.43 37.19 37.03 36.54
20.96 24.60 19.73 32.47 39.50 38.35 34.51 34.26 35.86 35.18 34.83 33.63 31.18 30.69 30.45 30.86 29.37 28.50 28.74 29.23 29.51 30.30 31.22 31.80 32.50 33.22 34.28 34.47 34.39 34.14 34.07 34.71 35.39 35.53 35.67 35.85 35.37 34.84 34.69 34.47 34.10 34.32 34.49 34.90
22.21 22.16 30.11 32.27 35.10 34.86 33.84 31.11 34.52 32.59 32.75 33.51 31.53 30.62 28.56 30.53 30.02 29.17 29.23 29.38 30.06 30.96 31.43 31.71 31.92 32.49 32.81 32.41 32.78 32.56 32.53 32.86 33.40 33.96 33.52 33.28 32.61 32.34 32.60 32.17 31.94 31.88 32.46 33.31
26.02 21.94 22.54 29.83 33.96 37.94 39.13 27.53 33.84 32.37 29.92 30.94 33.79 29.57 24.33 30.15 30.64 30.16 30.56 30.44 30.08 30.51 31.10 30.74 31.73 32.37 31.74 31.13 30.86 30.70 31.38 32.10 33.43 33.53 33.23 32.54 32.56 31.82 31.56 30.86 30.01 29.94 29.62 31.11
24.06 23.16 28.23 31.84 34.77 37.92 26.03 27.62 32.42 30.59 28.32 26.80 24.79 26.94 29.11 30.80 30.60 31.28 31.14 31.07 31.18 30.81 29.64 30.24 31.47 31.65 30.00 29.77 29.62 30.79 31.64 31.44 31.04 32.01 32.27 32.52 32.58 32.50 31.41 30.31 29.36 28.51 28.21 28.81
28.16 25.68 21.38 32.91 33.85 29.02 32.53 33.69 32.24 30.43 28.55 26.84 27.89 28.05 28.26 28.51 28.72 29.66 29.45 29.95 30.65 29.84 29.90 31.36 31.32 30.14 28.13 27.29 28.65 28.81 28.55 28.71 28.70 28.95 29.67 30.21 31.80 31.87 31.95 31.09 29.60 28.84 28.20 27.69
30.26 27.94 32.12 32.63 31.90 34.29 34.89 32.86 31.74 30.12 30.24 28.83 25.69 25.94 26.21 27.04 28.47 28.94 28.55 28.56 28.88 28.17 27.98 28.45 31.14 30.57 27.68 28.02 28.65 27.59 26.66 25.97 25.89 26.46 26.71 26.65 26.23 26.93 28.09 30.08 28.30 26.71 25.75 24.62
30.49 30.40 30.43 31.91 32.68 32.86 32.69 31.70 31.80 31.33 29.93 29.40 25.89 26.51 26.76 27.38 28.02 27.74 28.11 27.69 27.65 26.53 25.51 25.64 27.89 29.89 31.28 30.80 29.40 27.46 25.42 24.57 24.79 24.49 24.16 24.71 24.80 25.22 25.40 25.20 24.25 25.28 23.71 22.74
30.62 31.67 30.95 31.03 31.78 32.18 31.05 30.77 30.04 30.64 29.51 27.46 26.18 25.88 26.17 26.14 26.51 26.66 26.75 26.75 26.44 25.26 25.09 25.43 26.70 27.25 29.40 31.07 30.94 29.70 27.55 25.84 24.16 23.32 22.77 22.85 23.80 23.69 23.88 25.26 24.31 22.05 22.16 22.67
24.21 29.95 30.03 29.54 30.89 31.58 30.45 29.38 28.98 27.21 25.66 26.92 26.30 24.89 25.71 24.79 25.95 25.79 25.42 25.96 25.27 25.30 24.72 24.81 25.40 26.37 27.46 28.34 29.01 27.86 27.54 27.76 25.60 23.75 22.06 20.93 20.22 20.42 25.20 25.59 25.91 25.76 24.78 22.68
28.78 31.48 30.72 30.83 31.94 32.12 29.55 28.73 28.49 27.73 26.29 24.62 26.09 26.21 26.16 25.87 27.10 27.36 26.27 25.30 24.05 23.49 23.97 23.52 23.26 23.41 24.77 26.66 26.38 25.76 25.95 26.11 26.53 26.77 25.69 21.41 19.07 17.44 15.28 19.51 23.58 24.14 24.69 25.30
33.01 31.93 27.34 31.22 28.51 30.53 30.09 29.65 29.79 28.83 28.98 28.90 28.02 27.16 25.91 24.36 23.63 22.48 21.33 21.49 21.31 20.79 20.52 20.94 20.63 20.00 22.21 24.51 25.23 24.81 24.48 24.34 24.04 24.42 23.85 23.23 22.20 20.12 20.00 17.12 15.29 16.40 22.33 22.91
31.38 31.95 31.22 33.05 32.47 31.02 30.30 29.16 26.91 25.83 26.12 25.93 26.14 24.46 22.73 20.24 19.32 19.74 21.31 20.89 19.75 18.34 17.67 18.02 17.74 17.12 20.02 22.13 21.85 21.22 23.13 21.48 20.55 21.00 21.72 22.14 22.48 21.70 20.76 19.08 17.09 15.90 16.66 17.90
32.09 31.38 31.54 29.47 28.47 27.91 27.30 25.64 23.55 22.66 22.52 21.76 21.91 21.42 20.43 19.78 18.62 18.36 18.75 19.03 16.77 15.44 16.76 13.62 14.93 14.28 17.26 18.48 21.98 20.19 20.20 21.05 20.65 20.39 20.23 20.06 20.09 20.04 18.34 15.69 13.52 11.88 11.65 11.88
30.11 28.99 29.28 27.17 27.09 27.07 25.80 25.83 25.47 25.23 23.40 21.84 22.84 22.20 20.58 18.84 17.38 16.02 15.55 15.75 13.27 11.07 10.58 10.58 8.92 11.22 13.99 14.76 16.12 19.07 18.27 19.73 18.35 20.29 19.55 19.11 18.19 17.60 17.09 13.80 11.20 9.96 7.73 6.06
29.65 28.98 29.43 27.95 26.26 24.65 23.04 22.67 21.66 20.77 19.04 18.46 16.82 15.44 13.75 13.36 11.72 8.59 7.82 6.69 5.59 7.83 7.87 7.95 7.50 11.04 12.78 14.06 17.07 19.40 17.97 18.01 18.55 16.54 17.17 15.30 17.71 17.70 15.29 15.30 13.17 9.27 7.11 7.34
25.81 24.97 25.27 24.89 23.37 21.59 20.33 19.13 18.21 17.71 15.99 13.41 11.21 7.11 3.23 1.99 2.53 2.87 4.51 8.09 4.30 4.25 7.15 9.52 17.61 13.66 14.53 16.38 15.58 18.56 16.87 14.37 16.54 15.86 17.36 14.91 11.34 12.62 11.35 10.97 7.76 6.10 9.28 8.11
22.16 22.03 21.55 20.62 20.29 18.47 15.92 12.78 12.25 10.70 6.14 7.26 4.41 3.71 1.93 0.31 -0.13 2.14 3.41 3.94 4.61 7.31 9.96 11.99 13.96 13.76 14.50 14.53 10.76 16.54 14.59 12.80 15.78 9.96 8.18 8.55 5.53 1.15 0.61 3.11 3.96 4.30 3.85 5.72
18.23 17.87 16.47 15.36 14.43 13.60 11.32 10.07 10.45 9.19 6.74 6.27 5.00 1.32 1.66 1.73 1.48 0.22 8.52 12.23 8.69 10.70 13.15 11.62 10.91 10.10 12.29 9.50 12.54 8.29 9.62 8.28 7.91 5.45 1.55 1.54 6.80 4.14 0.40 -0.58 1.93 0.72 -0.16 -0.14
13.36 14.62 15.41 14.97 11.86 10.30 7.98 8.84 9.02 5.74 4.65 2.85 1.60 1.67 1.94 5.73 3.33 6.35 3.09 11.07 13.21 6.49 12.51 11.10 10.40 2.93 7.10 4.21 12.87 4.43 6.86 6.01 5.10 4.47 3.94 2.18 0.61 0.47 5.27 8.27 2.98 3.69 1.97 0.08
19.98 19.81 18.75 12.18 10.78 10.15 10.83 10.37 7.73 8.69 4.03 1.81 2.59 5.04 8.17 13.78 14.16 10.60 9.87 13.76 14.45 8.78 12.14 5.98 2.83 0.80 0.29 2.64 1.50 1.38 1.08 5.88 1.53 0.20 -0.12 -2.63 -3.99 -3.82 -2.90 -0.70 -0.42 -0.01 -1.59 1.73
18.48 17.32 15.86 16.36 16.34 16.57 14.92 15.83 16.23 15.36 7.66 10.95 7.43 5.23 12.90 8.53 14.30 16.17 11.99 5.62 2.59 -0.05 2.31 0.56 -0.34 2.31 -1.48 -2.90 6.91 2.07 -0.09 -0.60 -1.03 5.98 5.18 1.30 1.89 6.52 3.08 2.14 -1.92 -4.02 -4.65 -4.22
18.95 18.98 19.12 17.98 19.33 19.25 19.91 19.96 18.95 18.40 17.49 18.50 17.46 16.49 16.61 17.15 9.40 9.27 9.40 7.14 6.71 3.76 3.00 4.40 3.00 1.41 -4.21 -2.98 0.84 -0.42 -0.99 -0.76 1.89 -1.33 -4.20 -5.81 -4.85 -3.73 -4.27 -0.70 3.26 1.79 0.61 -3.04
21.29 20.53 20.97 22.24 21.27 20.31 20.03 19.15 16.99 19.18 18.35 13.36 14.54 15.01 13.40 11.20 10.68 9.59 6.06 7.35 8.35 6.91 3.01 2.98 1.92 2.07 1.27 1.81 -1.08 2.08 1.36 1.85 3.29 3.29 2.56 6.57 3.51 2.25 2.06 4.55 2.53 0.98 -0.56 0.39
21.32 19.36 19.85 19.29 19.77 18.38 15.64 16.54 14.14 11.37 9.69 6.33 5.61 9.96 18.76 17.14 11.77 8.72 5.64 3.72 5.34 5.16 10.31 11.63 13.15 12.44 10.67 9.01 5.04 2.08 0.56 0.66 3.23 4.82 1.44 0.90 0.26 -3.44 -4.82 -2.65 -1.42 1.14 1.13 0.37

GFSNGP_sfc_wetblb_096.txt.gz
Wetbulb
27.48 27.89 27.60 26.50 26.55 27.75 27.89 30.24 28.68 32.19 33.22 33.24 34.96 34.38 33.75 34.11 33.21 31.55 30.46 30.49 30.91 30.86 31.33 32.19 32.99 34.26 35.87 37.73 40.03 42.31 44.90 48.92 51.06 51.14 50.91 50.18 48.82 47.67 47.51 47.15 46.85 47.88 47.31 46.18
22.91 26.81 27.19 26.11 28.83 30.04 30.51 34.08 34.00 35.93 32.71 35.14 34.86 34.32 32.14 31.23 30.82 29.11 28.57 29.33 29.91 30.16 30.55 31.11 31.96 32.87 34.40 35.63 37.86 39.53 40.26 40.18 43.71 43.42 43.61 43.28 42.75 42.22 41.94 41.19 40.94 40.49 39.45 39.45
16.52 25.19 25.64 20.00 26.83 30.12 33.55 34.56 35.41 30.97 33.79 34.28 30.96 29.37 28.82 29.18 28.74 27.59 28.25 28.82 29.28 29.32 29.99 30.99 31.44 32.57 32.67 34.24 36.10 36.96 36.27 37.87 38.33 38.69 37.60 37.56 38.33 37.91 37.05 36.95 37.19 36.51 36.26 35.91
18.96 23.59 15.10 30.64 37.91 35.92 32.48 32.78 33.61 33.43 32.62 32.00 29.10 28.80 28.65 29.32 27.72 27.08 27.58 28.08 28.84 29.60 29.90 30.87 31.85 32.32 32.93 33.27 33.55 34.46 33.72 33.95 34.47 34.80 33.76 33.98 33.87 33.52 33.91 34.27 34.03 34.21 33.84 34.19
19.34 19.94 24.43 28.56 33.24 32.18 32.12 28.51 31.97 30.62 31.28 31.11 29.51 28.98 27.22 29.89 29.31 28.11 28.27 28.84 28.94 29.89 30.47 31.00 31.25 31.76 32.00 31.27 31.64 31.41 32.11 31.96 32.53 33.22 31.95 32.06 31.22 31.03 31.61 31.63 31.52 31.91 32.91 32.63
23.46 19.73 18.52 27.74 30.73 34.52 36.30 25.04 30.64 29.27 27.35 31.75 31.05 26.95 23.46 29.10 30.13 29.44 29.44 29.30 28.91 29.82 29.61 29.17 30.14 30.64 28.84 28.48 28.56 29.06 29.95 30.92 32.44 32.91 31.99 30.84 30.47 30.01 30.59 30.25 29.84 30.22 30.10 31.36
21.84 21.78 27.06 29.89 31.82 35.45 25.13 25.04 29.57 28.12 26.95 26.88 25.20 26.71 28.69 30.26 29.48 29.80 29.48 29.18 28.48 28.27 28.80 28.85 29.11 29.49 27.47 27.10 26.28 27.68 29.10 29.37 29.48 30.47 31.72 31.94 31.70 31.38 30.33 29.43 28.88 28.41 28.41 29.24
25.17 22.83 20.18 31.31 31.87 28.29 31.39 31.48 29.78 28.32 27.70 26.29 25.72 25.47 25.15 27.29 26.86 27.66 27.01 26.75 27.15 26.42 26.50 28.74 29.25 27.94 26.22 25.41 27.12 27.63 27.51 26.76 26.57 26.97 28.13 29.44 30.31 30.62 29.67 28.37 26.82 26.64 26.79 27.25
27.59 23.83 30.63 32.05 30.96 33.99 33.53 30.52 30.17 29.44 28.67 27.18 25.91 24.06 25.57 26.37 27.16 26.62 25.42 25.44 25.60 25.45 25.73 27.19 29.33 29.22 26.30 26.83 26.97 26.21 25.37 25.12 25.15 25.44 25.68 26.29 26.28 26.90 26.56 26.96 25.88 24.89 24.86 24.76
27.97 29.03 29.91 30.86 31.24 31.39 31.49 30.22 31.14 30.53 28.54 28.31 25.53 25.25 25.29 25.75 25.74 25.51 25.38 24.59 25.28 24.89 24.81 25.34 27.54 28.63 29.99 30.17 28.38 26.12 24.27 23.55 23.86 24.37 24.12 24.54 25.23 25.13 24.03 23.62 23.27 23.28 23.44 23.46
27.19 29.47 29.97 30.21 31.29 30.38 30.01 30.26 29.45 28.95 27.73 25.60 25.30 24.49 24.53 24.09 24.09 24.36 24.50 24.76 24.52 23.73 23.59 24.09 25.90 26.73 28.02 29.62 30.33 26.76 24.94 23.93 22.86 22.55 22.61 23.34 24.27 24.35 23.77 24.45 23.91 22.00 22.68 23.53
23.13 29.23 28.81 28.20 30.02 31.84 29.32 28.08 27.48 25.79 24.83 24.70 24.17 23.28 23.43 23.18 23.66 23.72 23.22 23.51 22.81 23.01 22.42 22.55 23.21 23.63 24.72 26.72 27.83 27.62 27.11 25.07 23.10 21.32 20.54 20.71 21.00 21.74 26.52 26.82 26.58 26.48 26.27 25.14
27.16 30.50 29.76 30.49 30.92 29.76 27.76 27.24 26.58 25.34 24.76 23.78 24.81 25.32 24.72 22.83 22.67 23.47 21.38 20.95 20.62 20.60 21.34 21.60 21.27 20.93 22.03 24.09 24.37 23.26 22.95 23.89 24.95 22.89 20.50 18.28 17.38 17.34 16.98 21.58 25.65 25.96 26.40 26.91
33.37 30.66 27.99 29.23 27.15 29.30 28.85 28.99 29.70 28.95 28.15 26.15 24.52 23.50 22.18 21.10 20.98 19.78 19.03 19.20 19.53 19.70 19.84 20.19 19.88 18.69 20.16 22.54 23.01 22.42 21.85 21.42 21.87 21.16 21.70 20.38 18.35 18.66 17.72 16.36 15.46 16.20 21.02 24.12
29.59 30.51 29.36 30.39 30.22 29.62 28.83 26.88 24.90 24.41 23.98 22.41 21.72 20.42 19.97 18.81 18.17 18.62 19.20 19.34 18.85 17.88 17.21 17.18 16.50 15.65 17.66 19.67 20.07 18.58 22.14 19.46 17.38 18.27 19.07 19.42 20.40 19.17 17.77 16.16 14.49 14.15 15.78 17.15
30.87 30.68 28.41 26.02 27.39 27.27 25.32 24.11 22.42 21.45 21.45 19.68 18.89 18.49 18.57 18.04 17.67 17.21 17.11 17.05 15.05 13.21 13.72 11.17 13.60 12.65 14.85 15.83 19.14 18.74 17.87 19.10 17.99 17.86 17.47 18.16 17.96 16.40 14.72 13.09 11.90 11.50 11.40 9.77
28.15 27.25 27.13 26.20 25.48 24.14 23.47 24.05 23.95 22.56 22.72 21.61 20.27 19.99 18.75 17.02 15.89 14.79 14.03 14.22 11.35 8.69 8.20 7.82 6.37 9.63 11.94 12.44 15.06 14.22 15.13 16.29 14.58 16.81 16.75 16.64 15.66 14.71 12.65 10.39 9.46 9.84 9.39 7.14
29.53 29.30 28.95 27.14 24.73 23.50 22.81 22.98 22.40 21.32 19.49 18.44 16.06 13.85 11.86 11.55 11.02 8.19 6.72 4.36 6.41 7.41 7.09 5.53 5.10 9.58 11.86 14.44 16.15 17.21 15.59 16.30 16.77 15.17 15.60 14.04 14.96 15.09 12.38 10.62 10.37 9.95 6.75 5.74
25.88 25.53 25.14 24.84 24.13 22.50 20.90 19.15 17.40 16.24 14.14 12.28 10.75 7.19 3.34 -0.51 -0.85 -1.18 -0.63 1.88 -0.90 2.03 4.86 6.31 16.55 11.88 12.39 14.65 14.93 15.75 13.45 11.54 14.21 15.13 14.80 9.34 8.83 11.45 7.29 4.31 4.81 2.66 4.80 5.29
20.87 21.35 20.85 19.51 19.13 17.18 13.81 10.84 11.42 9.23 5.23 6.37 2.96 1.62 0.84 -1.92 -4.26 -1.79 -1.15 2.11 2.42 5.14 6.74 9.54 11.86 11.98 12.75 13.10 9.67 13.70 11.65 9.51 13.19 7.87 6.26 6.08 -1.11 -3.79 -2.48 1.46 2.72 3.83 1.09 -1.27
15.05 15.06 13.72 12.80 10.40 9.44 7.97 5.39 7.33 5.89 2.63 1.50 2.72 -2.96 -2.67 -3.11 -3.14 -3.00 4.01 9.69 6.92 9.01 12.43 10.13 9.33 8.92 11.04 7.97 11.21 2.61 4.47 2.29 5.57 4.47 -0.99 -1.18 4.37 3.89 -1.72 -6.07 -2.09 -3.35 -2.26 -0.81
8.24 10.45 9.79 8.33 7.54 4.75 2.85 4.54 6.67 3.23 1.64 -0.27 -3.72 -4.27 -2.30 4.16 0.36 3.29 1.12 9.45 11.72 6.18 10.04 9.45 8.63 0.56 5.07 3.89 8.79 -0.23 3.46 2.40 1.02 1.42 -0.19 -0.17 -0.66 -0.10 2.03 2.50 2.16 1.98 -1.02 -5.53
13.28 11.39 10.01 7.85 7.82 7.91 6.02 5.39 2.32 3.54 0.81 -0.78 0.06 2.50 5.78 11.48 12.19 7.53 6.86 13.20 13.42 7.08 10.79 4.72 1.14 -1.04 -2.55 -4.91 -2.81 -5.37 -3.72 -1.18 -3.74 -5.17 -6.43 -9.71 -9.52 -10.06 -8.25 -4.81 -4.01 -3.41 -2.45 -2.28
13.53 14.18 11.71 11.94 12.89 14.38 13.13 13.65 13.19 12.85 3.71 8.87 6.61 3.38 12.26 9.25 5.75 13.71 11.10 5.85 2.84 2.73 2.14 -1.10 -2.41 0.77 -3.28 -7.10 -4.26 -3.53 -6.07 -6.80 -5.89 -3.17 3.44 -2.27 -8.43 -8.25 -5.89 -8.43 -7.52 -10.97 -11.15 -8.43
17.21 17.10 16.84 15.83 16.62 16.48 17.55 17.40 17.02 17.06 15.83 16.36 16.27 16.11 14.16 15.78 8.79 8.98 5.10 4.37 4.85 1.95 0.91 -1.21 1.01 0.17 -6.81 -9.00 -8.61 -6.61 -5.53 -7.34 -6.25 -6.80 -7.41 -9.21 -9.20 -9.70 -9.88 -9.52 -7.16 -3.90 -5.53 -3.01
20.00 19.17 19.24 20.40 20.20 19.11 18.30 18.59 16.74 16.54 16.40 10.79 11.99 10.52 9.73 10.17 11.77 9.89 6.66 4.53 6.48 5.19 2.84 -0.67 -2.31 -1.28 -3.61 -2.03 -1.58 -3.39 -1.55 -0.13 -4.08 -4.28 -1.21 3.14 -2.63 -4.44 -3.53 -2.26 -6.07 -4.26 -4.62 -8.07
20.79 18.40 18.92 18.19 18.32 17.35 16.37 16.67 12.43 9.45 6.71 4.06 5.85 5.71 11.37 13.46 11.44 10.12 7.27 5.85 7.42 5.97 6.91 8.07 9.36 9.47 9.82 8.57 8.21 5.97 5.28 4.18 -1.46 -0.42 -4.44 -3.90 -3.90 0.08 0.20 -0.35 -5.53 -8.43 -7.88 -7.70

GFSNGP_sfc_wetblb_099.txt.gz
Wetbulb
26.14 26.96 27.12 25.24 24.51 25.69 24.43 25.25 20.83 25.38 30.18 33.29 34.12 32.75 32.19 32.10 31.16 30.11 29.44 29.67 29.69 29.39 30.32 31.32 32.22 33.13 34.43 35.84 38.23 38.67 40.30 41.71 45.29 50.72 51.74 52.07 50.69 50.18 49.64 49.51 49.89 50.31 48.29 46.13
23.60 25.48 25.25 23.19 25.67 26.48 27.34 28.60 28.26 29.26 31.18 34.78 33.79 32.56 30.27 29.36 28.53 27.66 27.75 28.31 29.12 29.45 30.16 30.14 31.27 32.13 33.05 34.01 35.83 37.05 36.58 36.16 39.02 41.59 44.16 42.66 42.53 42.61 43.07 41.66 41.07 40.89 39.85 39.54
15.15 23.88 23.48 18.56 24.75 26.57 28.12 33.13 32.53 30.50 31.81 32.83 29.86 27.82 26.76 27.41 27.24 26.49 27.03 27.58 28.14 28.65 29.70 30.13 30.51 31.92 31.32 32.33 34.20 34.54 34.29 35.23 34.26 35.20 36.40 36.75 36.86 36.68 36.60 36.76 37.35 36.32 36.00 35.65
16.55 20.10 11.46 26.77 32.61 32.92 30.26 31.50 33.96 33.19 33.35 31.39 28.15 28.03 28.31 28.28 26.73 26.31 27.05 27.06 27.84 28.79 28.97 30.01 30.31 30.74 30.85 31.37 31.27 32.00 32.00 32.81 33.76 33.05 32.50 32.85 32.85 32.59 33.08 33.65 33.65 33.80 33.62 33.58
13.01 16.24 23.11 26.33 30.70 30.01 29.27 26.19 30.64 30.09 31.31 29.32 28.65 27.94 26.22 29.13 28.49 27.27 27.69 27.84 28.53 29.38 29.40 29.54 29.15 30.02 29.46 28.68 29.03 28.78 28.94 30.02 31.68 32.01 31.90 31.39 30.24 30.41 31.09 31.23 31.09 31.45 31.83 31.99
18.45 16.90 16.49 25.20 29.82 34.71 34.46 22.89 29.08 28.29 27.60 30.21 29.05 26.61 22.96 28.08 28.67 27.81 27.98 27.55 26.84 28.75 28.85 28.13 28.17 28.71 26.93 26.30 26.42 26.06 27.19 27.77 29.59 31.50 31.41 30.54 30.30 29.61 30.25 30.14 29.26 29.77 29.84 30.84
19.77 18.43 24.13 28.29 30.94 34.01 25.77 23.92 28.16 27.67 27.11 29.20 26.26 25.89 27.07 27.77 26.91 27.30 27.52 27.81 28.14 27.80 27.81 27.27 28.12 27.39 24.40 24.20 24.24 25.95 27.11 27.44 27.60 28.50 29.72 30.31 29.76 29.43 29.33 28.89 28.75 28.25 28.39 28.97
22.10 20.34 19.24 30.19 30.82 27.56 28.92 29.88 28.24 27.21 26.51 25.21 24.99 25.40 25.25 25.87 25.80 25.72 24.88 25.47 26.50 26.59 26.62 28.75 27.38 25.35 23.47 23.60 24.98 25.56 25.97 25.76 25.62 26.41 27.19 27.84 28.00 28.00 27.77 27.42 26.57 26.72 26.88 27.29
25.23 22.96 29.86 30.49 29.53 32.61 32.12 29.47 29.09 27.20 26.81 26.08 23.56 23.43 24.01 24.23 24.50 24.72 24.97 25.05 25.91 25.40 25.63 27.01 28.09 27.96 24.67 24.99 24.92 24.75 23.85 24.24 24.63 25.29 25.32 25.95 25.00 25.05 25.04 25.69 25.62 25.76 26.07 25.90
26.59 28.07 28.64 29.79 30.02 30.51 30.38 29.02 28.86 28.44 27.67 25.34 22.89 22.74 23.33 23.92 23.65 23.68 24.13 23.88 24.94 24.08 23.32 23.94 25.77 26.69 28.64 27.11 25.76 23.53 22.55 22.80 23.51 24.32 24.10 24.91 24.63 24.55 23.59 23.10 23.50 23.86 24.41 24.84
26.00 28.63 28.51 29.23 29.30 29.27 28.87 28.39 26.99 26.59 25.45 24.67 23.83 22.91 23.11 22.40 23.13 23.53 23.50 23.49 23.38 22.44 22.04 22.27 23.45 24.12 25.19 27.08 27.78 24.63 23.22 22.73 22.06 22.11 22.54 23.69 24.57 24.08 24.20 25.61 25.15 23.26 24.36 25.79
21.60 28.47 27.72 27.00 29.66 29.82 27.00 25.84 25.73 23.44 22.21 23.95 22.81 22.09 23.21 21.88 21.84 21.22 20.43 21.12 20.47 20.97 20.98 20.85 21.76 21.79 23.08 25.03 25.85 25.79 24.94 22.62 21.07 20.56 20.56 21.07 22.17 23.25 27.53 27.69 27.72 27.61 27.74 26.76
25.93 29.40 28.85 28.81 29.23 28.45 25.88 25.50 25.30 24.17 23.78 23.19 23.04 22.46 21.83 20.66 21.06 21.29 18.61 19.07 19.14 19.36 20.31 20.62 20.27 20.08 21.01 23.39 23.11 21.07 20.42 21.22 20.85 19.19 17.60 16.55 15.91 16.59 16.19 19.77 24.10 26.39 27.21 26.76
30.35 28.50 24.72 28.45 26.16 28.70 27.96 27.19 27.86 26.20 24.91 23.97 22.87 22.55 21.31 19.79 19.59 17.91 17.18 17.97 18.65 18.42 18.17 18.78 18.60 17.33 19.02 21.92 22.79 21.63 20.21 19.18 19.70 19.01 17.71 16.82 15.52 16.27 16.22 15.40 14.47 15.09 21.77 23.64
29.82 29.47 27.72 28.31 28.37 28.13 27.76 26.82 24.30 23.20 22.55 21.48 21.55 20.79 20.06 17.78 16.58 16.57 17.78 18.09 18.02 16.20 15.58 15.76 15.31 14.63 16.47 20.21 19.20 18.22 20.68 17.73 15.87 15.98 15.31 16.37 16.94 15.71 15.04 13.85 13.07 12.93 14.83 15.72
29.96 29.20 29.44 27.78 27.04 25.98 25.25 24.27 22.35 21.41 20.79 19.16 18.30 17.55 17.32 16.78 15.83 15.25 15.47 15.38 13.29 10.91 11.23 7.71 11.11 10.03 13.41 16.05 17.93 17.38 16.28 17.15 15.89 15.54 14.84 14.59 13.69 12.79 12.17 11.98 10.94 10.13 10.56 9.12
26.74 25.14 25.64 24.92 24.57 24.18 23.28 23.08 22.69 22.33 21.57 20.30 18.96 18.80 17.27 15.98 14.69 13.51 12.31 12.10 8.54 5.68 4.20 4.02 3.51 7.69 11.35 11.86 13.88 12.48 13.61 14.97 12.79 15.22 14.67 13.62 11.55 10.19 9.96 8.11 8.54 8.78 5.00 2.58
29.70 28.59 28.19 26.84 24.82 23.72 23.00 23.12 23.07 22.41 20.10 18.73 15.76 13.09 10.43 10.01 10.13 6.48 2.76 0.97 3.82 5.35 3.73 3.26 3.68 8.98 10.46 12.48 14.76 15.44 14.23 14.79 15.48 13.59 13.66 11.11 12.09 12.31 8.61 7.93 7.98 6.60 3.53 1.52
26.78 25.91 25.76 25.22 24.83 23.37 21.73 19.85 18.02 16.84 15.16 13.61 12.73 9.11 3.74 -1.70 -2.24 -2.60 -2.97 0.20 -1.68 0.86 3.79 3.39 14.96 10.59 11.86 14.15 13.94 13.70 11.60 10.13 12.66 13.22 12.65 8.80 7.33 8.08 3.60 1.76 1.24 -0.85 2.02 2.75
20.90 20.80 20.02 18.42 17.64 16.83 13.97 11.38 11.67 9.58 5.97 7.17 4.48 1.91 1.99 -4.42 -7.32 -4.05 -3.00 1.32 1.64 4.47 5.58 8.16 10.39 10.89 11.89 12.29 8.62 12.04 10.06 6.95 11.36 6.17 2.94 3.42 -4.66 -6.79 -3.69 0.30 1.17 -1.33 -4.60 -5.14
13.62 13.99 12.38 10.90 7.31 7.15 4.31 2.51 6.05 4.45 -0.40 -2.92 0.67 -4.16 -3.22 -5.14 -5.87 -6.05 3.14 8.20 6.08 7.83 11.21 9.12 8.11 7.89 10.11 7.63 8.80 -1.20 1.73 -0.82 -0.67 0.26 -1.70 -1.88 -0.25 0.83 -5.14 -6.41 -3.15 -0.63 -0.63 -1.70
6.72 9.11 6.27 5.11 6.28 3.36 0.38 1.91 4.61 0.48 -0.79 -3.02 -8.22 -8.40 -3.66 3.87 0.25 3.25 0.01 8.54 10.85 4.87 8.77 8.12 7.18 -0.67 3.55 3.55 6.89 -1.92 1.80 1.38 -0.88 -1.93 -3.18 -4.05 -5.14 -4.23 -0.97 0.41 1.09 0.38 -2.80 -2.46
9.44 8.46 7.96 5.26 5.56 4.44 4.90 4.21 0.00 1.97 -0.54 -1.74 -0.98 0.92 5.68 9.68 10.09 6.48 5.97 12.50 12.56 6.36 9.63 4.44 -0.31 -1.95 -3.58 -7.07 -6.05 -7.32 -6.05 -5.68 -5.87 -5.87 -8.59 -12.21 -11.49 -12.39 -10.58 -8.22 -7.32 -7.68 -6.77 -5.87
9.56 10.41 9.00 9.68 11.27 13.02 11.95 12.60 11.86 11.13 1.31 7.13 3.82 -1.16 9.30 6.71 4.25 12.78 11.00 5.45 3.26 0.13 -1.00 -2.66 -2.77 -0.34 -4.50 -9.42 -8.77 -8.59 -9.13 -9.49 -9.31 -10.04 -7.50 -6.77 -13.48 -14.75 -12.21 -1.70 -7.86 -11.85 -13.66 -11.67
15.54 15.03 14.89 14.38 15.37 14.61 16.16 16.04 15.17 15.89 15.09 15.76 15.44 15.23 12.48 14.46 7.50 7.11 3.25 2.38 3.22 1.32 -0.20 -1.89 -1.82 -1.51 -7.51 -10.64 -11.30 -10.40 -8.95 -9.85 -9.13 -11.49 -9.31 -10.40 -9.52 -10.40 -11.67 -12.57 -10.76 -9.31 -10.40 -5.14
18.90 17.50 17.25 18.47 18.57 17.91 17.24 16.78 13.66 14.03 13.28 9.16 8.59 5.80 7.84 8.55 9.99 10.48 4.65 2.30 2.54 4.04 1.91 2.39 -1.35 -0.57 1.05 0.78 0.34 -1.61 -1.81 -0.47 -1.92 -3.89 -6.05 -3.88 -4.79 -5.50 -7.86 -6.77 -8.04 -5.68 -6.95 -5.68
19.50 18.59 18.69 16.76 16.32 16.65 15.43 15.39 13.82 9.84 8.89 7.19 6.10 2.37 3.83 3.87 7.24 9.52 8.23 5.91 6.44 6.14 7.54 6.27 7.86 7.64 6.09 6.23 7.09 8.26 9.45 8.44 7.00 6.28 2.96 -1.78 -2.61 -3.15 -3.15 -3.15 -4.05 -4.78 -5.68 -7.13

GFSNGP_sfc_wetblb_102.txt.gz
Wetbulb
25.32 25.22 26.17 25.24 24.73 24.73 22.64 23.16 18.62 21.61 22.50 27.93 32.86 31.06 30.26 30.31 30.34 28.86 28.23 28.35 28.85 28.76 29.49 30.11 30.35 31.54 32.41 33.64 35.80 37.72 37.46 37.14 37.09 39.44 43.91 49.85 52.40 55.14 55.14 54.15 53.37 51.44 48.81 46.82
22.08 25.46 25.33 22.59 23.44 24.04 24.40 24.85 24.74 25.55 24.72 34.55 32.03 30.46 28.69 28.03 28.13 26.78 26.78 27.09 28.14 28.45 28.71 29.03 29.23 29.93 30.71 31.62 33.31 35.80 35.83 35.53 36.58 35.05 36.56 37.91 41.27 43.25 42.39 41.22 41.04 41.27 39.51 39.39
13.18 22.40 22.04 16.68 22.50 24.06 26.17 29.60 26.88 21.53 27.91 31.44 28.14 26.35 25.69 25.96 26.28 25.74 26.10 26.71 27.39 27.49 28.16 28.58 28.64 29.76 29.26 30.05 31.54 32.26 33.30 34.32 34.97 34.79 33.01 33.29 34.60 36.26 35.91 35.86 36.10 35.22 35.18 35.17
16.16 19.29 8.54 19.83 32.23 31.24 29.18 29.23 31.09 33.61 33.17 30.83 27.18 27.13 26.83 26.97 25.74 25.68 25.90 26.02 26.98 27.58 27.71 28.11 28.68 28.40 29.36 29.57 29.65 29.43 29.64 31.52 32.80 33.58 32.78 32.29 32.10 31.72 32.23 32.75 32.36 32.96 32.68 33.46
11.58 11.81 18.64 24.51 27.99 27.71 27.38 24.63 28.64 30.48 28.82 27.79 26.77 26.43 25.30 28.17 27.56 26.69 26.34 26.52 26.85 28.36 27.92 27.75 27.40 27.88 27.48 27.11 27.37 27.46 27.31 28.43 29.81 31.27 31.60 31.22 30.05 30.15 30.63 30.28 30.28 30.66 31.39 31.71
13.07 11.44 12.81 22.47 28.71 32.27 33.37 22.24 28.33 28.65 29.92 27.95 28.24 24.92 21.67 26.61 27.13 26.67 27.44 27.16 26.87 27.67 27.99 26.86 26.65 27.20 25.67 24.72 24.88 24.57 25.79 27.05 28.90 29.22 28.92 28.78 29.24 28.85 29.89 30.03 29.65 30.18 29.90 30.61
17.13 17.08 20.99 26.50 28.17 33.31 23.56 20.96 27.39 26.88 27.91 30.76 23.69 24.42 25.02 26.52 25.75 25.93 25.77 26.61 27.42 26.91 26.36 27.78 26.83 26.40 23.31 23.35 22.70 24.87 26.30 26.52 26.67 27.58 27.70 28.35 28.11 28.49 28.47 28.32 28.32 28.09 27.91 28.67
21.27 18.12 16.99 28.82 29.34 24.96 27.03 28.46 26.85 25.96 26.07 24.46 23.84 23.75 23.95 24.35 24.50 24.66 24.32 24.72 25.43 25.19 25.09 26.73 27.93 25.61 23.73 22.63 24.51 24.75 24.99 24.55 24.92 25.63 26.27 26.83 26.74 26.85 27.41 27.88 27.31 27.07 26.79 26.69
24.45 22.20 28.60 29.58 28.41 30.93 31.10 27.95 26.83 26.07 26.10 25.14 23.03 22.10 22.49 21.99 23.03 23.51 23.11 23.48 24.33 23.73 23.83 24.56 25.34 26.77 24.10 24.06 23.06 23.05 22.33 23.33 24.07 24.47 24.39 24.76 24.11 24.70 25.02 25.70 25.95 26.22 26.37 25.83
26.21 26.89 27.73 28.68 29.13 29.61 29.45 27.66 28.01 27.53 26.04 24.61 21.74 22.06 21.08 21.89 21.85 21.63 21.69 21.65 22.86 21.93 21.72 22.20 23.83 24.78 25.71 26.36 24.22 22.71 21.33 21.18 22.10 24.29 23.67 23.70 24.53 24.98 24.31 23.53 24.10 25.26 25.51 25.65
25.89 27.77 27.41 27.84 27.96 28.18 27.37 27.03 25.64 25.68 24.83 23.30 22.55 21.74 21.45 20.63 20.88 21.04 20.70 21.26 21.70 21.06 20.79 20.69 21.53 21.96 22.89 24.66 26.25 23.20 21.73 21.80 20.84 21.39 23.03 24.60 24.76 25.53 25.23 26.65 26.62 24.79 25.73 26.07
20.39 27.93 26.60 25.67 28.25 28.04 25.90 24.75 24.81 23.62 22.28 22.98 21.97 19.83 19.10 18.07 19.38 19.72 19.84 20.52 19.66 19.67 19.80 19.51 20.07 20.10 21.69 23.65 24.49 23.98 21.89 20.02 19.35 19.44 19.04 19.64 20.43 20.43 25.66 27.57 27.88 27.92 28.09 26.96
24.84 27.75 26.37 27.59 27.26 27.20 25.23 24.79 24.65 23.90 22.66 20.60 21.52 20.56 20.41 19.90 20.01 20.85 19.14 18.91 18.61 18.04 18.73 19.36 18.48 18.14 19.07 22.32 21.36 19.16 17.90 18.00 17.34 17.12 16.79 16.50 15.66 14.84 15.22 19.25 24.17 25.50 25.85 25.96
28.32 28.22 23.72 27.13 24.28 26.37 26.34 26.85 26.07 24.14 23.64 22.73 21.50 21.48 20.44 18.66 18.33 17.66 17.35 18.04 17.88 17.00 16.63 17.08 17.38 15.57 17.06 21.02 21.59 19.41 18.28 17.41 17.08 16.18 16.26 16.04 15.59 15.71 15.58 14.58 13.66 13.98 19.38 21.45
29.00 27.96 26.03 26.75 27.30 27.71 26.97 25.43 23.37 22.23 21.59 21.20 21.50 20.18 19.11 16.73 15.34 15.44 16.73 17.14 16.81 14.54 13.74 14.67 14.30 12.73 14.38 18.63 17.99 16.45 19.53 15.90 13.68 13.83 15.11 14.90 15.04 14.06 13.73 13.00 12.13 11.87 13.01 13.90
28.14 27.31 26.85 25.93 24.81 25.01 24.49 23.54 21.86 20.54 19.17 17.71 16.98 16.93 16.46 15.49 14.56 13.85 13.43 13.48 12.15 9.43 9.37 6.20 10.36 7.94 10.89 13.26 15.26 15.35 14.51 15.46 13.73 13.37 12.79 12.45 12.03 12.24 12.08 11.49 10.11 9.22 8.61 7.76
25.36 24.97 26.60 25.26 24.24 24.18 23.61 23.20 22.42 21.59 20.87 19.67 18.56 17.79 16.28 14.71 13.53 12.17 10.11 9.97 6.36 2.85 2.83 2.47 2.22 5.87 9.48 9.99 11.95 11.39 12.12 13.82 12.08 14.24 13.15 11.61 9.84 9.36 9.06 7.44 6.92 6.61 3.73 -0.08
29.05 27.78 27.63 26.33 24.53 23.21 22.86 23.62 23.53 21.96 19.78 18.74 14.92 12.01 10.19 9.50 8.00 4.15 0.04 -1.77 0.19 2.95 2.51 2.07 3.26 8.26 9.64 11.57 13.23 13.80 13.04 13.74 14.29 12.28 12.25 9.64 10.33 10.38 7.29 6.60 6.42 5.01 2.41 1.64
27.84 26.64 26.07 25.70 24.94 23.50 22.32 20.57 18.19 17.22 14.78 12.12 10.67 7.47 5.59 -0.32 -0.83 -1.71 -3.34 -3.61 -3.73 -0.30 2.10 2.95 14.36 10.05 10.97 13.29 12.58 12.42 10.92 8.82 11.05 11.27 10.65 7.20 4.80 7.09 2.65 0.32 0.01 -1.92 0.75 1.43
21.57 21.69 20.89 19.05 17.87 17.39 13.35 9.24 11.17 9.38 4.56 6.56 5.35 3.81 2.26 -3.71 -7.88 -6.24 -5.34 0.20 1.48 3.93 4.50 7.75 9.70 10.56 11.37 10.90 7.53 10.65 8.78 5.67 9.95 6.02 3.31 2.71 -5.70 -7.88 -6.61 -0.99 0.61 -1.89 -6.79 -5.16
14.28 13.43 11.30 9.46 4.92 4.56 4.52 2.22 5.86 3.69 -2.22 -2.94 1.67 -2.65 -1.11 -4.61 -7.16 -7.15 2.03 7.01 5.56 6.97 10.30 7.80 6.92 6.67 9.07 6.71 7.55 -2.28 0.14 -2.81 -3.55 -2.26 -5.52 -6.24 -5.88 -0.80 -0.81 0.21 1.10 -1.19 -2.63 -4.07
5.91 8.62 6.47 6.06 5.86 2.18 -1.44 1.82 4.02 0.99 -1.03 -3.31 -9.51 -10.43 -6.75 1.38 -2.47 0.36 0.10 7.64 10.32 3.93 7.82 6.88 5.98 -1.51 2.05 2.27 5.42 -3.55 0.55 -0.38 -1.96 -3.55 -5.34 -7.88 -9.14 -9.87 -9.51 -8.06 -1.38 0.19 -0.72 -0.34
7.40 8.03 6.98 5.84 6.92 5.37 3.96 4.05 -0.29 3.00 -0.13 -3.38 -2.63 -0.20 4.93 9.42 9.54 6.86 6.41 11.44 11.46 5.27 8.93 3.83 -1.12 -3.11 -4.72 -8.72 -7.88 -9.14 -8.42 -7.33 -7.33 -7.88 -10.23 -13.68 -12.59 -14.58 -13.13 -10.78 -9.87 -9.69 -8.78 -6.24
8.36 9.81 8.19 8.58 9.95 11.84 10.80 10.75 11.05 9.63 2.44 7.26 4.06 0.58 8.97 5.75 3.87 11.73 9.93 4.62 2.03 -2.11 -2.77 -3.72 -3.89 -1.53 -5.71 -10.65 -10.98 -11.32 -10.78 -11.50 -11.68 -13.13 -10.05 -10.96 -14.76 -15.85 -16.76 -13.86 -9.51 -9.69 -13.13 -11.32
13.46 13.27 13.16 13.29 14.46 13.53 14.84 14.58 13.85 14.49 13.82 15.03 14.63 13.64 11.96 12.69 7.55 7.29 2.97 1.10 2.03 1.24 -1.17 -4.00 -3.47 -4.61 -10.05 -11.68 -12.23 -11.32 -10.41 -10.59 -9.87 -13.13 -9.69 -9.69 -6.79 -9.87 -7.71 -11.86 -9.51 -8.06 -10.59 -11.14
16.96 15.52 15.53 17.59 17.22 16.32 15.77 15.46 12.35 12.96 13.08 8.41 7.40 0.28 1.14 4.37 7.72 7.21 6.79 5.14 4.77 6.09 6.13 5.53 2.92 -2.26 -2.62 2.20 3.73 3.88 4.24 4.69 2.32 3.49 0.52 -1.44 -3.52 -5.52 -6.24 -5.88 -8.42 -7.51 -6.24 -5.16
17.83 16.36 17.10 15.42 15.73 15.46 14.00 14.29 11.81 8.86 4.43 1.72 1.45 -1.66 1.19 -2.32 -0.26 5.34 4.81 2.42 1.51 0.96 -0.99 -4.07 -3.34 -1.53 -0.62 -1.89 3.28 6.72 6.33 6.67 3.45 5.27 2.84 1.80 -0.13 2.60 2.72 0.31 -0.73 -2.48 -6.24 -4.25

GFSNGP_sfc_wetblb_105.txt.gz
Wetbulb
27.24 27.60 27.58 26.83 26.43 27.05 24.95 25.50 21.04 24.26 24.13 28.80 32.15 32.61 30.80 30.63 30.39 29.29 28.75 28.52 28.91 28.60 29.45 29.58 29.36 29.65 30.56 31.53 32.62 34.74 36.90 37.13 36.68 37.28 37.78 39.26 42.13 47.50 56.88 57.74 55.82 56.81 53.40 49.33
22.86 26.99 26.47 23.39 25.58 26.12 25.64 25.53 25.43 25.94 25.06 33.06 33.09 31.71 29.60 28.70 28.60 27.52 27.19 27.28 27.91 28.33 28.49 28.47 28.30 28.29 29.23 30.14 30.96 32.72 33.66 34.86 36.29 36.41 35.39 34.78 35.67 37.72 39.54 40.56 41.12 41.42 39.92 39.71
16.73 23.10 22.76 18.29 23.38 25.18 26.53 29.32 27.88 22.65 28.25 32.64 29.08 27.78 27.20 27.30 27.14 26.49 26.29 26.20 26.87 27.40 28.11 28.42 28.17 28.66 27.93 29.12 30.18 30.27 30.81 32.03 33.56 34.85 34.94 33.43 33.22 32.90 33.46 34.16 35.36 35.15 35.51 35.58
18.56 20.41 10.77 23.37 32.52 31.22 29.40 28.25 28.99 30.81 33.47 31.74 27.63 27.23 27.11 28.02 26.75 25.88 26.24 26.25 26.92 27.64 27.56 28.36 28.39 28.42 28.93 28.86 28.37 27.89 28.24 29.28 30.47 32.03 33.04 33.68 32.80 31.46 31.54 32.12 31.97 32.59 33.04 33.64
16.65 16.37 20.60 22.69 27.27 27.70 26.53 26.08 28.75 28.62 27.80 27.16 27.28 26.59 24.99 27.63 27.36 26.69 26.82 27.15 27.47 28.95 28.66 27.98 27.56 27.68 27.58 27.02 27.35 26.97 26.49 27.00 28.31 29.10 29.49 30.89 31.07 30.86 30.81 30.56 30.89 31.08 31.55 31.70
18.52 13.33 11.83 21.96 28.02 30.98 31.67 23.85 27.99 28.58 28.14 26.92 27.21 25.43 22.15 26.49 27.22 26.70 27.40 27.53 26.89 27.67 28.65 27.60 27.57 27.77 25.53 24.91 25.35 25.11 26.33 27.17 28.24 28.50 28.21 28.13 28.84 28.96 30.37 29.22 28.62 28.73 28.33 29.60
19.04 17.44 21.22 26.26 28.57 32.68 23.05 21.21 26.57 27.37 29.38 30.02 24.42 25.56 25.76 26.78 26.24 26.97 26.71 27.06 28.10 27.27 26.00 26.84 27.95 26.79 24.67 23.98 23.75 25.91 27.44 27.62 27.31 28.00 28.53 29.05 29.05 29.79 29.78 28.72 28.48 27.19 26.38 26.92
20.88 17.92 16.38 28.31 28.74 23.89 26.33 27.53 26.77 26.45 26.43 24.52 24.50 24.41 24.58 24.86 24.85 25.09 24.81 25.66 26.41 25.96 25.57 26.15 27.37 26.25 23.79 23.38 25.26 25.82 26.58 26.96 26.89 27.47 28.57 29.46 28.91 29.52 29.51 29.57 28.43 27.53 26.89 26.35
24.49 23.07 28.29 29.41 27.95 29.84 30.13 27.24 27.27 25.96 26.40 25.34 23.56 22.92 23.48 23.20 23.94 24.10 24.21 24.92 25.41 25.18 25.02 25.40 26.12 26.07 24.12 24.68 24.97 24.90 24.91 25.59 27.24 27.86 28.27 29.01 29.19 28.37 28.29 29.55 28.92 28.33 27.64 26.27
26.55 26.81 27.02 28.02 28.68 28.87 28.89 27.52 27.87 27.48 26.30 25.39 22.50 23.11 22.84 23.40 23.49 23.39 23.81 23.54 24.38 24.22 23.63 23.30 25.36 25.88 26.47 27.06 26.07 25.38 24.75 24.85 25.82 26.48 26.19 28.21 28.49 28.94 28.38 28.01 27.84 28.16 26.86 26.51
25.73 27.33 27.42 27.47 27.72 27.83 26.94 27.33 26.30 26.39 25.78 24.46 23.66 22.75 22.58 21.92 22.13 22.61 22.72 22.98 23.22 22.75 22.50 22.65 24.33 24.69 25.99 26.89 26.43 24.38 24.47 24.78 24.73 24.72 25.03 25.49 26.71 27.52 27.74 28.35 28.24 27.19 27.50 27.72
23.15 27.94 26.85 25.68 28.00 28.43 26.07 25.43 25.71 24.24 23.24 24.11 22.88 21.00 21.49 20.35 21.27 21.46 20.92 21.71 21.49 22.07 22.19 22.28 23.08 22.68 23.97 25.39 25.09 23.64 22.58 22.57 22.72 23.67 23.74 23.65 24.15 23.19 25.61 26.34 26.63 27.02 26.68 26.98
26.25 28.26 27.74 27.27 27.68 27.77 25.61 25.35 25.66 24.18 23.62 21.99 22.95 22.61 21.97 20.95 21.59 21.45 20.93 20.54 20.15 20.38 21.26 21.94 21.59 21.02 22.21 24.64 23.40 21.88 21.92 22.02 22.52 22.10 22.02 22.01 21.89 21.79 20.76 21.20 22.88 23.74 24.16 24.79
29.32 28.46 25.67 26.98 24.41 26.93 26.90 26.21 25.90 24.75 24.26 23.50 22.85 22.32 21.17 20.09 20.37 19.71 19.40 20.00 20.03 20.22 19.90 20.64 20.23 18.03 20.05 23.86 23.54 22.69 22.74 19.90 22.07 21.63 21.57 21.29 20.99 20.35 19.79 18.68 17.66 18.27 19.53 20.88
28.73 28.78 28.15 27.74 27.51 26.30 26.31 25.35 23.68 22.76 22.71 21.95 22.37 20.70 19.51 17.72 16.76 16.99 19.01 19.13 18.98 18.13 17.34 18.28 17.43 16.21 17.99 21.44 20.56 21.03 23.78 22.65 21.90 21.24 19.99 19.40 20.22 19.85 19.34 18.39 17.23 16.67 17.82 17.51
27.15 27.36 27.32 26.17 25.97 25.81 25.48 24.42 22.65 21.06 20.06 19.30 18.37 17.35 16.81 16.74 15.93 15.65 15.81 16.20 15.06 12.55 12.73 12.13 14.18 13.53 16.28 18.62 21.23 21.93 21.69 19.13 19.59 21.22 20.39 19.98 19.68 19.12 18.39 17.78 17.13 16.12 15.30 15.17
26.25 25.47 26.04 25.31 25.22 25.20 24.61 24.32 23.18 22.33 21.54 20.47 18.80 18.06 17.44 16.26 15.11 13.64 12.30 12.32 10.12 9.47 10.13 11.00 11.67 12.70 14.93 16.47 20.30 21.72 22.18 21.46 17.75 21.31 19.64 19.23 19.15 18.37 18.04 17.55 16.57 15.62 14.84 12.68
29.91 29.85 29.74 28.09 26.22 24.70 24.08 24.28 23.68 22.59 20.82 19.88 17.43 15.17 13.05 13.08 11.77 9.37 7.45 8.45 10.46 10.85 10.78 9.77 13.54 14.78 15.40 17.70 18.98 19.97 20.49 20.11 19.80 19.30 19.26 18.69 18.19 18.23 17.93 17.36 16.62 15.69 15.34 13.01
29.98 28.53 27.92 27.07 26.24 24.70 23.56 22.06 20.72 19.29 17.21 15.21 13.99 11.93 10.82 9.32 10.19 9.15 7.94 9.31 9.91 13.15 12.25 11.99 15.43 15.44 15.87 16.42 17.54 18.90 18.81 18.65 18.26 17.48 17.57 15.15 17.15 16.46 16.86 17.22 16.93 16.57 16.24 15.42
23.75 24.06 23.40 21.89 21.58 21.02 18.24 16.92 16.23 13.19 12.31 11.37 9.84 10.18 9.79 5.84 5.51 7.27 8.61 12.17 12.13 13.93 12.45 12.83 14.05 15.17 15.23 14.58 12.88 16.99 16.84 16.78 16.13 16.19 15.72 16.07 16.20 16.15 15.89 12.42 14.34 16.09 16.01 15.96
18.06 17.74 15.89 13.71 10.69 10.71 11.02 11.70 11.22 9.14 7.86 8.92 11.15 9.18 10.14 7.28 5.52 6.16 13.88 15.17 14.40 13.61 13.85 11.70 12.97 13.74 14.75 13.17 15.01 15.73 15.39 15.26 14.90 14.29 13.81 13.65 14.27 14.19 14.20 14.61 15.01 14.83 15.13 15.13
14.14 12.92 10.47 9.56 9.87 7.61 7.83 10.17 9.00 6.65 7.11 5.58 2.75 3.62 7.28 11.91 9.28 10.59 9.78 14.99 16.49 8.36 13.63 14.72 14.23 6.55 10.59 8.94 14.82 15.09 14.71 14.30 14.27 14.31 14.38 14.08 13.61 13.21 13.19 12.97 12.82 13.60 14.10 14.20
12.84 12.04 10.97 9.99 11.23 10.01 9.29 9.24 8.05 8.37 7.09 7.15 7.52 9.44 14.19 16.89 17.03 16.67 15.49 15.80 16.73 12.29 16.20 16.30 8.72 4.38 3.51 12.92 13.86 13.63 13.52 12.87 13.20 13.20 12.96 12.61 12.64 12.50 12.17 12.39 12.40 12.59 13.09 13.15
12.35 13.13 12.13 12.12 12.32 13.44 12.74 11.38 12.95 12.31 10.80 11.79 10.90 9.94 16.01 17.18 17.57 18.22 18.27 11.10 7.91 10.18 13.73 13.44 10.60 5.56 1.31 12.23 11.74 11.39 11.21 12.23 11.49 11.88 12.05 6.00 11.92 11.39 11.18 11.57 11.11 12.75 11.88 9.87
14.89 14.45 14.00 14.12 15.32 15.83 15.59 15.54 15.68 15.55 15.38 17.00 17.22 15.52 14.06 17.42 19.32 18.24 17.66 15.95 9.24 11.95 15.94 7.08 5.63 5.43 12.38 12.55 12.14 11.74 12.37 12.65 12.34 11.46 11.22 11.25 10.57 11.05 11.77 12.07 10.53 11.69 11.88 11.17
16.91 16.61 17.21 18.30 18.47 18.24 17.79 17.97 18.19 18.29 18.24 17.23 16.87 15.60 15.46 15.14 16.23 16.18 16.56 13.98 14.31 12.08 13.65 12.53 10.66 11.73 12.22 12.06 11.67 11.49 12.09 12.38 12.35 11.97 11.13 11.41 11.22 10.87 10.60 10.19 10.07 9.76 10.17 11.23
18.83 17.85 19.25 19.40 19.95 20.03 19.39 18.76 19.09 17.62 16.03 16.81 15.11 13.21 13.49 12.83 12.77 14.25 11.47 12.75 11.36 9.12 8.22 7.82 7.89 6.38 6.86 7.35 8.46 9.08 9.71 10.33 9.09 9.12 9.86 9.45 9.28 9.52 9.49 10.19 11.22 11.38 10.38 9.10

GFSNGP_sfc_wetblb_108.txt.gz
Wetbulb
30.63 30.67 30.18 29.63 29.77 30.72 29.22 29.80 25.12 27.89 28.16 32.37 35.34 36.46 35.98 35.81 35.02 34.45 33.12 31.97 32.02 32.94 33.16 31.53 30.55 30.22 30.05 30.25 31.19 32.39 32.84 33.32 35.14 38.08 37.99 37.65 39.07 40.27 43.07 49.14 56.27 57.78 57.59 57.25
26.30 30.09 29.92 27.36 30.08 30.66 30.19 29.88 29.39 29.83 28.36 35.61 37.89 35.59 34.28 32.62 32.47 31.27 30.31 29.44 30.46 31.32 31.65 30.59 30.30 29.59 29.36 29.70 29.92 31.20 30.90 31.15 32.48 35.03 35.95 35.86 35.78 36.40 36.47 37.46 39.47 40.80 42.28 43.63
20.91 26.49 26.12 22.46 27.71 28.87 29.81 31.42 30.65 25.72 32.38 37.15 33.32 32.13 32.30 30.96 30.31 28.56 28.46 28.79 29.28 29.82 30.41 30.48 30.28 30.57 29.52 29.70 30.17 29.49 29.27 30.38 31.01 32.69 32.91 33.75 33.84 33.17 33.27 33.30 34.65 35.10 35.63 36.07
22.26 22.52 14.78 27.62 34.01 32.85 30.56 32.24 32.12 31.65 34.14 36.39 32.64 30.41 30.24 30.17 28.95 27.54 28.01 28.39 29.00 29.91 29.86 30.34 30.83 30.25 31.13 31.03 29.88 29.06 28.55 29.06 30.04 30.50 30.94 32.19 32.45 31.49 31.31 30.66 31.52 31.85 32.09 32.92
20.64 21.60 25.38 26.29 29.05 28.45 27.76 27.58 30.77 30.59 31.09 30.89 29.59 30.06 27.46 29.07 28.58 28.22 28.49 28.87 29.29 30.08 30.55 30.27 29.63 30.12 29.95 29.53 29.80 29.38 29.14 29.44 29.94 29.98 29.93 30.00 29.52 29.47 30.12 29.43 28.63 28.66 30.12 31.11
23.40 17.98 15.91 26.44 30.40 32.76 31.99 23.67 29.44 30.99 29.82 28.65 30.25 27.96 24.43 28.09 28.95 28.44 29.35 29.49 28.51 28.76 29.59 29.23 29.44 30.28 28.62 28.47 28.45 28.66 29.40 30.11 31.23 31.36 30.71 30.14 30.72 29.39 29.56 28.84 27.66 27.49 27.22 28.13
22.83 21.21 25.04 28.38 30.94 33.16 22.40 23.22 28.13 29.15 31.85 30.56 27.28 28.24 27.37 29.02 28.27 28.94 29.02 29.39 30.55 28.91 27.19 27.90 29.10 29.66 27.68 27.36 27.21 29.15 30.37 30.91 30.97 31.96 31.59 31.59 31.77 31.77 31.24 29.81 28.98 27.66 26.56 26.43
24.49 21.53 19.21 30.25 30.39 25.83 27.79 28.86 28.55 29.26 30.55 26.97 26.74 26.77 27.01 27.26 27.39 27.71 27.63 28.44 29.86 28.80 27.80 29.16 29.46 28.86 26.98 26.35 28.40 29.80 30.07 29.58 30.23 31.03 31.77 32.14 31.76 31.77 31.77 31.49 30.35 29.53 28.59 27.62
27.09 25.89 29.81 30.52 29.20 31.41 31.64 29.31 28.56 28.10 27.94 27.10 25.80 25.62 26.37 26.20 26.71 26.84 27.32 27.68 29.53 28.89 28.41 28.63 29.11 29.14 26.67 26.89 28.73 29.85 29.59 29.27 29.37 30.17 31.32 31.47 30.62 30.81 30.49 30.92 30.38 29.31 28.69 27.81
28.52 28.31 28.52 29.73 29.98 30.28 30.38 28.93 29.03 28.85 27.66 27.24 25.02 25.94 25.79 26.36 26.62 26.48 26.61 26.72 28.21 27.78 26.89 26.94 28.84 28.71 29.02 28.84 29.32 29.48 28.67 29.11 29.74 29.23 28.32 29.15 30.76 29.97 28.94 29.33 28.96 28.13 27.93 27.74
27.07 28.61 28.73 28.65 29.19 29.27 28.63 29.25 27.95 28.26 27.67 26.72 26.01 25.40 25.55 25.35 25.47 25.57 25.98 26.75 27.67 26.99 26.48 26.21 27.86 27.98 28.80 29.40 30.21 28.75 28.35 28.42 28.82 28.85 28.66 27.13 26.10 26.91 27.05 27.36 27.19 27.38 27.26 27.01
26.38 29.98 29.47 27.79 29.71 30.63 28.17 27.21 27.57 26.54 25.69 26.86 26.39 24.82 24.85 23.96 24.68 24.53 24.58 26.09 26.19 26.48 26.28 26.12 26.23 26.27 27.38 27.96 27.85 27.42 27.00 27.11 27.14 27.84 28.15 28.19 27.79 24.72 24.13 24.56 25.03 25.27 25.45 26.67
28.71 30.11 29.45 29.21 29.74 30.48 28.25 27.65 28.11 26.77 26.50 25.12 26.28 26.06 25.65 24.51 24.41 24.03 25.07 25.15 25.11 25.23 25.85 25.77 24.78 23.95 25.91 27.08 26.36 24.95 26.14 26.75 27.28 27.06 27.02 26.49 26.50 26.00 25.12 24.55 22.46 22.34 23.46 23.42
31.98 31.05 27.22 28.87 26.24 28.73 28.37 28.00 28.12 27.51 27.29 26.64 26.03 26.38 25.94 25.23 25.13 24.74 24.09 24.86 25.68 25.48 25.00 24.93 23.89 21.89 24.33 26.14 26.38 26.13 26.62 24.61 26.49 26.10 26.19 26.28 25.88 25.39 25.10 23.69 22.76 23.07 21.54 20.45
30.45 32.18 30.98 29.89 29.05 27.97 28.53 27.90 26.39 25.72 25.72 25.29 25.83 24.48 24.31 22.89 22.23 22.53 23.82 24.16 23.98 23.69 22.98 22.77 21.64 20.68 22.86 24.96 24.95 24.65 26.03 26.17 26.52 26.32 25.14 25.08 25.44 24.96 24.34 23.64 22.96 22.51 23.19 22.66
30.00 29.73 29.20 27.96 27.81 27.96 27.90 27.28 25.93 24.67 24.16 23.15 21.90 21.05 21.02 21.58 21.31 20.97 20.93 21.63 20.84 17.89 17.88 16.90 18.26 18.66 21.35 23.67 25.32 26.21 25.52 23.02 24.18 25.70 25.32 24.97 24.76 23.97 23.69 22.98 22.34 21.58 20.35 19.52
27.58 26.35 27.83 27.14 27.16 27.25 27.64 27.62 26.66 25.48 24.78 23.50 22.16 22.37 22.35 21.26 20.44 18.83 17.87 17.40 15.59 15.89 16.75 16.51 17.46 18.02 20.25 21.72 24.09 25.44 25.84 25.08 22.71 24.89 24.23 23.89 23.72 23.04 22.75 22.40 21.66 20.87 19.99 16.85
33.14 33.18 32.80 31.40 29.13 27.48 26.75 27.07 26.68 25.94 24.55 23.52 20.57 19.05 17.79 18.06 16.67 14.90 14.42 15.67 16.67 15.65 16.28 16.43 18.23 19.53 19.62 20.94 22.60 24.01 24.10 23.71 23.26 22.79 23.03 22.65 22.22 22.50 22.02 21.52 20.72 20.23 20.44 18.73
33.00 32.79 32.36 30.99 30.25 28.62 27.12 25.93 25.34 24.22 21.03 18.78 17.59 17.04 16.56 16.04 15.78 15.14 16.02 15.98 17.08 18.28 16.13 17.23 18.30 19.54 19.88 18.84 21.14 23.04 22.48 22.12 21.87 21.70 21.71 20.36 21.78 21.28 20.99 20.93 20.44 19.99 19.53 19.18
29.99 30.03 29.29 28.13 27.79 26.52 23.98 22.35 21.11 19.02 18.44 18.18 16.33 16.17 15.58 14.13 14.46 14.38 17.35 16.91 17.29 18.58 17.82 17.49 18.83 19.17 19.10 18.65 18.30 21.61 21.10 20.57 19.96 19.80 19.37 19.59 19.81 19.90 19.96 18.57 18.36 18.99 19.27 18.86
25.58 25.03 23.40 21.51 20.49 20.69 20.56 19.48 17.40 16.27 16.43 17.11 18.32 16.26 16.14 14.37 14.32 15.56 19.33 20.98 18.42 17.98 17.27 16.00 18.26 19.63 20.13 18.57 20.43 21.02 20.03 19.61 19.06 18.95 18.62 18.33 18.54 18.58 18.52 18.45 18.29 18.42 18.13 18.52
22.33 20.27 18.15 17.53 17.85 17.01 17.50 18.89 16.63 14.91 15.34 14.89 13.98 14.21 15.50 16.98 16.40 17.79 16.57 19.70 20.91 14.33 19.22 20.92 20.46 14.14 16.82 13.22 20.27 20.22 19.22 18.84 18.83 18.86 18.63 18.45 17.88 17.47 17.42 17.32 16.86 17.24 17.08 17.29
20.17 19.19 17.98 16.81 17.69 17.10 16.35 15.62 14.95 15.55 14.95 14.39 14.34 17.73 21.65 22.47 22.99 22.41 21.01 19.79 22.56 18.04 21.70 21.92 15.50 13.14 12.90 18.22 20.22 19.54 19.04 18.29 18.22 18.11 17.89 17.94 17.56 17.37 17.28 16.75 17.13 16.99 16.58 16.30
19.64 19.61 18.35 17.81 16.93 17.31 16.30 16.39 17.96 17.67 17.77 18.45 17.92 17.79 21.60 22.97 23.20 24.20 23.00 17.21 16.05 17.62 20.56 20.06 17.42 13.81 10.84 18.98 18.73 18.32 17.77 17.95 17.49 17.63 17.50 16.18 17.59 17.38 17.10 16.82 16.51 16.99 16.59 15.88
20.18 19.08 18.50 18.69 20.10 20.81 20.11 20.35 20.65 20.53 20.25 21.61 20.86 20.16 19.96 23.29 23.08 23.54 23.86 22.93 15.66 17.76 21.84 13.31 12.82 13.15 17.97 18.26 17.32 16.60 16.69 16.63 16.25 15.52 15.73 15.57 15.50 15.74 15.99 16.34 15.88 16.09 16.34 16.59
21.43 21.87 22.18 22.79 23.59 23.14 22.36 22.20 22.25 22.66 23.11 22.74 22.45 23.19 23.29 23.29 23.11 22.55 21.38 19.46 19.29 17.92 18.06 17.56 15.25 15.63 16.00 15.42 14.79 14.18 13.98 14.35 13.98 13.29 12.77 13.33 13.35 13.25 13.88 13.93 14.03 14.73 15.12 15.23
22.96 22.26 23.06 22.92 23.75 23.89 24.22 24.42 24.48 23.32 23.71 23.77 21.50 21.84 21.63 21.65 20.09 19.17 17.99 18.19 17.25 15.88 15.28 14.57 13.76 11.50 10.68 11.38 12.06 11.81 11.30 11.29 9.69 8.83 9.52 9.55 9.50 9.97 9.69 9.69 10.61 11.28 12.10 12.42

GFSNGP_sfc_wetblb_111.txt.gz
Wetbulb
33.41 34.23 32.90 32.33 32.40 33.10 31.62 32.23 27.81 30.60 30.96 35.02 37.51 38.70 39.32 39.10 39.22 38.52 36.47 35.78 35.28 35.05 34.60 35.36 34.01 32.96 33.34 32.02 31.24 31.43 31.31 31.87 31.55 33.80 35.37 36.79 37.40 38.00 39.10 41.15 42.23 44.90 52.20 52.75
29.04 32.74 32.56 29.86 32.21 32.56 32.58 32.51 32.55 32.95 31.50 38.24 39.18 40.42 38.20 36.70 36.14 34.68 33.18 33.12 32.80 32.57 32.68 31.93 31.42 31.71 32.52 32.63 31.17 31.72 30.65 30.67 31.53 32.50 32.86 33.77 34.87 34.80 34.44 35.40 35.98 37.26 36.89 38.64
23.72 29.51 28.82 24.81 29.68 31.53 32.75 34.30 33.66 28.21 33.78 38.59 37.29 36.42 35.21 33.97 33.29 30.79 30.78 30.62 30.57 30.58 30.90 30.63 31.00 31.93 31.42 32.62 32.89 31.54 30.84 30.93 31.17 31.58 31.07 31.29 33.01 32.20 31.92 31.98 33.10 33.70 35.41 35.02
24.59 25.07 17.03 30.07 36.13 34.89 32.59 33.73 35.41 34.85 36.09 35.59 35.50 33.64 32.19 32.04 30.81 29.43 29.15 29.11 29.36 29.63 30.31 30.96 31.72 31.54 32.26 32.47 32.45 32.07 31.03 31.03 31.11 31.39 30.77 30.38 29.74 29.50 30.55 30.37 29.34 29.64 30.55 32.90
22.62 23.59 27.50 29.21 30.73 29.45 27.91 28.77 31.39 32.55 32.28 32.87 32.42 32.14 27.99 30.28 30.30 29.48 29.37 29.27 29.23 30.20 30.39 30.88 30.76 31.74 31.18 30.96 31.31 31.45 30.72 31.47 31.81 31.64 31.22 30.84 29.54 28.98 28.76 27.93 27.95 27.69 28.27 29.45
26.14 19.98 18.26 28.51 32.19 34.69 32.16 24.63 31.21 32.58 32.88 31.48 32.28 29.66 26.87 29.37 29.89 29.36 30.12 30.23 28.85 29.62 30.23 29.42 30.41 31.48 30.50 29.80 29.99 29.63 30.53 31.16 31.89 32.43 32.19 31.54 31.81 31.23 30.94 29.88 28.09 27.68 26.72 27.65
24.86 22.92 27.51 29.80 32.32 33.93 23.17 24.72 30.45 31.10 33.11 32.46 30.05 28.20 28.29 29.66 29.08 30.07 30.15 30.81 31.73 30.27 28.95 29.42 30.89 30.58 29.42 29.48 28.89 30.27 30.98 31.24 31.52 31.89 31.89 32.07 32.25 32.25 32.25 31.89 31.38 29.96 28.65 28.12
27.23 24.52 21.78 31.65 31.94 26.75 29.27 30.33 30.11 32.26 33.16 28.80 27.80 28.15 28.12 28.58 28.49 29.03 29.40 30.26 30.84 30.20 29.74 30.83 30.92 29.70 27.67 27.89 30.68 31.48 30.96 30.19 29.99 30.69 31.10 31.26 31.58 32.07 31.86 31.89 31.02 30.21 29.62 28.69
28.01 27.10 30.92 31.26 30.33 32.05 33.03 30.54 29.74 29.67 30.14 29.10 27.78 27.62 27.83 27.26 27.76 28.40 28.19 29.18 30.90 30.29 29.80 30.26 30.57 30.63 28.65 29.36 31.18 31.48 31.29 30.68 29.80 29.30 29.93 30.87 29.75 29.64 29.59 29.79 28.77 28.74 27.86 27.04
29.94 29.62 29.83 30.64 31.40 31.59 31.48 30.25 30.30 30.69 29.68 28.71 26.74 27.33 27.24 27.69 27.89 27.08 28.40 29.08 30.33 29.59 28.58 28.38 30.04 29.85 30.57 31.69 31.91 31.15 30.67 31.21 31.80 30.66 28.07 27.38 29.38 28.75 27.06 26.19 27.92 26.46 24.93 25.22
28.66 29.89 30.16 30.29 30.80 30.57 29.79 30.09 29.45 29.74 29.35 28.16 27.55 27.07 27.38 26.95 26.88 27.43 28.47 29.20 29.45 28.43 27.65 27.48 29.01 29.00 29.89 30.51 32.00 30.39 29.76 29.61 30.18 30.75 30.45 28.06 25.27 25.04 26.19 26.04 25.15 24.78 26.42 24.45
28.92 32.13 31.09 29.47 31.04 31.33 29.26 28.38 28.72 27.69 27.60 28.76 27.94 26.64 26.96 25.76 26.51 27.00 27.04 28.28 28.17 28.23 27.51 26.90 27.02 27.11 27.81 29.17 29.08 28.79 28.56 28.72 28.69 29.13 29.20 29.10 29.28 27.03 24.47 24.18 24.28 24.27 24.45 24.84
30.02 32.72 32.03 31.58 31.66 31.58 29.15 29.11 29.04 28.27 28.19 27.25 28.34 28.30 27.28 26.06 26.45 26.45 27.51 27.94 27.61 27.28 27.50 26.97 25.48 25.21 27.12 29.03 28.94 27.91 27.28 29.40 28.71 29.19 29.15 28.05 27.87 27.25 26.44 25.63 23.99 23.08 23.19 23.15
33.00 31.56 28.34 30.04 28.04 30.32 29.84 29.75 30.03 29.48 29.28 28.72 28.43 28.80 28.43 27.53 27.78 27.37 26.59 27.27 27.87 27.50 27.01 26.61 24.85 23.47 26.48 27.83 27.03 27.70 28.75 27.21 28.26 27.90 28.08 27.97 27.47 27.02 26.53 25.36 24.64 24.79 23.91 22.63
31.35 33.17 32.11 30.80 30.40 29.62 30.32 29.91 28.39 27.76 28.10 27.90 29.17 28.89 28.44 26.81 25.69 25.66 26.76 26.80 26.25 25.27 24.22 23.67 22.38 21.76 24.45 27.05 27.34 26.31 26.35 27.07 28.46 28.32 27.85 27.49 27.56 27.23 26.54 25.77 24.78 24.00 23.73 23.35
31.27 31.18 30.41 28.74 28.85 29.43 29.69 29.40 27.95 27.08 27.12 25.86 24.98 24.90 25.43 25.85 25.10 24.29 23.71 23.64 22.34 19.32 19.26 18.64 18.99 20.12 22.89 24.51 27.53 28.44 27.98 24.59 26.41 27.52 26.88 26.76 26.58 25.96 25.38 25.09 24.59 23.87 21.29 18.55
28.92 27.65 28.78 28.57 28.81 29.13 29.26 29.78 28.74 27.97 27.39 26.44 25.29 25.83 26.04 24.80 23.79 21.64 20.36 19.93 18.74 18.49 19.31 19.02 19.25 20.29 21.84 22.90 26.02 27.34 27.50 26.73 24.99 26.44 25.72 25.01 25.40 24.85 24.70 24.34 23.57 23.38 22.91 19.24
34.23 33.72 33.22 32.08 29.96 29.20 29.00 29.21 28.92 28.66 27.05 26.27 23.52 21.87 20.80 21.21 19.04 17.31 17.40 18.83 18.65 17.38 18.54 19.13 20.06 21.76 20.85 21.65 24.29 25.81 25.53 25.42 24.91 24.32 24.62 23.79 23.52 24.31 23.90 23.22 23.05 22.29 22.48 21.74
34.05 33.00 32.99 32.00 31.20 29.52 28.33 27.80 27.63 26.08 22.49 21.00 19.96 18.93 18.32 18.08 18.47 18.23 19.37 18.87 20.21 20.68 18.15 19.58 20.71 21.77 21.63 20.34 22.82 25.06 24.39 23.66 23.53 23.43 22.60 22.52 23.27 22.98 22.63 22.05 21.53 21.54 21.81 21.47
33.35 32.98 32.33 31.06 30.52 28.88 27.19 25.67 24.58 22.00 21.26 21.16 19.47 18.64 17.91 16.92 17.59 18.38 20.01 18.32 18.70 20.00 20.34 20.03 22.18 21.88 21.50 21.31 22.29 24.19 23.34 22.89 21.99 22.14 21.97 21.50 21.74 21.05 21.55 20.86 20.43 20.48 20.94 20.85
29.68 29.15 27.86 27.41 26.09 25.47 24.86 24.10 21.31 19.55 20.35 20.46 20.44 18.63 18.60 17.89 18.26 19.78 21.23 22.98 20.24 19.77 19.69 19.48 21.12 22.06 21.79 19.86 23.18 23.28 22.59 22.07 21.55 21.13 20.94 20.45 20.39 20.20 20.16 20.21 19.75 19.58 19.70 19.81
26.61 24.78 23.44 22.80 22.37 21.82 22.48 22.54 20.82 19.70 19.97 19.62 18.76 18.28 17.89 18.75 18.82 19.82 19.39 22.22 22.27 17.69 22.27 23.37 22.07 16.55 18.45 16.09 22.35 22.09 21.39 20.91 20.55 20.50 20.10 20.17 19.67 19.26 19.27 19.37 19.08 19.19 19.42 18.79
24.76 23.65 22.80 21.59 21.85 22.20 21.67 20.20 19.28 19.13 18.29 17.60 17.73 20.49 24.22 24.91 26.10 24.90 22.90 21.95 24.62 19.89 23.49 22.73 17.53 16.58 16.14 20.82 21.21 20.97 20.34 19.32 19.68 19.47 19.37 19.49 19.08 18.90 18.72 18.56 18.54 18.50 18.06 18.05
23.97 23.40 22.93 22.92 21.23 20.65 19.14 19.46 20.80 20.54 20.39 20.83 21.20 21.87 24.56 24.67 24.64 25.98 24.37 21.18 19.86 20.00 21.44 19.99 18.10 16.21 13.76 20.89 20.44 19.74 18.79 18.39 18.91 18.75 17.50 16.37 18.10 17.32 17.41 17.41 17.06 17.97 18.23 18.54
24.04 22.84 22.06 21.65 22.66 23.23 22.35 23.16 22.91 22.89 22.86 24.07 23.31 22.86 23.41 25.66 25.25 25.00 24.73 23.73 20.35 20.78 21.94 16.24 16.78 16.30 19.29 18.62 17.73 16.62 16.56 16.54 16.48 15.50 15.60 14.53 14.41 15.14 14.99 15.27 15.51 15.66 15.30 16.11
24.14 24.73 25.44 26.42 26.84 25.63 25.34 25.15 24.72 25.11 25.85 24.50 24.24 25.07 24.61 24.39 23.73 24.02 21.98 21.21 20.71 19.59 19.23 19.12 16.71 15.30 15.72 15.45 14.41 14.42 13.93 13.71 13.29 12.47 10.82 10.93 11.56 11.47 11.58 11.49 11.15 11.60 12.19 12.92
26.67 26.07 26.10 26.11 26.58 26.58 26.75 27.10 26.34 25.32 26.13 26.23 23.67 23.70 23.43 22.78 21.44 20.97 20.16 19.94 18.93 17.47 17.06 16.29 15.64 13.54 12.29 11.69 12.17 11.74 11.40 10.92 9.60 8.61 8.70 8.01 8.01 7.97 7.91 7.39 7.60 8.30 9.11 9.27

GFSNGP_sfc_wetblb_114.txt.gz
Wetbulb
33.67 34.75 34.10 32.73 32.08 33.32 31.52 32.48 27.94 30.94 30.99 34.88 37.56 37.85 38.96 39.33 38.90 37.85 35.13 34.28 33.69 32.70 32.25 31.65 31.43 32.18 32.81 32.98 33.66 33.24 32.31 31.93 31.82 32.61 33.03 33.56 34.12 34.52 34.63 34.44 37.37 39.70 39.67 40.86
28.49 33.09 32.65 30.18 32.46 32.70 32.16 32.44 32.35 32.66 31.79 38.27 39.36 40.49 39.14 37.08 36.35 33.50 32.00 31.61 31.29 31.19 30.85 30.04 30.56 31.24 31.59 31.84 32.25 33.18 32.66 31.75 32.09 32.13 31.51 31.08 31.59 31.79 32.45 32.51 32.17 34.08 35.99 37.33
23.54 30.25 29.79 24.65 29.80 31.24 32.29 33.80 33.10 27.72 34.00 36.92 36.26 34.23 32.66 33.25 31.85 30.19 29.90 29.52 29.14 29.32 30.18 29.91 30.34 31.19 30.53 31.24 32.61 32.40 31.95 32.08 31.93 32.22 31.11 30.41 29.91 29.44 28.88 29.53 30.64 30.15 31.44 33.91
25.11 26.03 16.78 29.88 36.47 34.60 31.97 33.33 34.99 35.28 34.95 34.99 32.96 31.13 30.23 30.91 29.61 28.18 28.09 28.19 28.43 28.99 29.32 29.91 30.89 31.12 31.62 31.66 31.35 31.15 31.14 31.32 31.95 31.96 31.64 31.44 30.46 29.03 28.10 28.10 27.70 27.88 28.68 30.17
22.47 22.21 27.05 29.58 31.07 29.43 27.03 27.59 34.22 33.03 34.25 33.67 32.30 30.42 27.50 29.61 29.11 28.31 28.28 28.32 28.80 29.59 29.74 29.83 29.97 31.33 31.27 30.39 30.34 30.03 29.65 30.42 30.79 31.60 31.20 31.44 31.05 30.53 30.09 28.99 28.06 27.59 27.49 27.83
25.39 19.56 17.16 27.67 32.00 35.20 33.15 23.23 31.21 31.64 32.31 32.12 32.31 27.24 24.12 28.74 29.56 29.29 30.18 29.78 28.37 29.23 29.36 28.90 29.35 30.47 29.73 29.00 28.86 28.27 28.98 29.60 30.82 30.58 30.09 30.58 30.60 31.51 31.52 30.96 29.32 29.04 28.61 28.59
25.11 22.97 26.67 30.12 32.32 34.48 22.28 23.00 29.65 30.89 31.85 34.14 28.34 27.57 27.60 29.25 28.91 30.25 31.04 31.03 31.20 30.07 28.96 29.87 30.23 29.25 27.69 28.01 27.81 29.59 28.93 28.40 28.76 29.88 28.82 29.43 30.30 30.37 30.64 30.04 29.27 28.42 27.54 27.63
26.92 23.57 21.16 31.35 32.10 26.10 28.27 30.58 30.27 32.34 31.20 27.74 27.69 27.76 27.90 28.44 28.59 29.24 29.36 29.36 29.93 29.21 29.27 30.18 30.86 29.21 26.74 26.86 29.26 30.56 30.21 27.97 25.60 26.20 28.42 27.21 26.72 27.31 28.68 26.96 26.61 26.21 25.62 25.30
27.12 26.21 30.00 30.96 29.33 31.97 32.42 30.25 29.88 29.75 30.17 28.70 27.40 26.92 27.27 27.22 27.67 28.34 28.23 28.82 29.80 28.91 28.59 29.30 29.45 29.70 27.68 27.61 29.80 29.93 30.02 29.48 27.31 25.24 24.86 26.11 24.21 23.63 24.11 25.80 23.91 23.50 23.56 22.57
29.42 29.09 28.96 30.18 30.67 31.26 31.24 29.99 30.84 30.59 29.85 28.77 26.47 27.15 26.81 27.45 27.76 27.65 28.06 28.34 28.94 28.05 26.97 26.75 28.35 28.48 28.64 30.06 30.50 29.19 28.51 29.00 29.11 28.70 25.28 24.22 24.39 23.31 21.86 21.74 22.33 22.88 21.03 20.90
28.33 29.09 29.69 30.13 30.33 29.89 29.64 29.82 29.39 29.98 29.30 28.48 27.97 27.05 27.03 26.94 27.49 27.27 27.80 28.41 28.18 26.66 25.70 25.50 26.51 27.11 28.29 28.73 29.88 28.77 28.09 27.77 28.16 28.17 27.72 24.57 23.14 22.71 21.74 21.95 22.12 20.47 21.84 21.30
28.39 32.05 30.91 29.12 30.61 31.17 29.01 28.27 28.86 28.05 27.84 28.89 28.04 26.61 26.69 26.25 26.97 27.45 27.40 27.77 27.02 26.28 25.10 24.81 25.47 25.65 26.96 28.23 28.34 27.17 26.93 27.09 27.15 27.43 27.31 27.15 26.73 23.62 25.62 25.20 25.00 24.72 24.72 23.40
31.04 33.13 32.35 32.00 31.58 31.32 29.20 28.94 29.38 28.77 28.41 27.36 28.17 27.49 26.69 25.65 26.65 27.71 27.61 26.96 26.30 25.54 25.06 23.94 23.85 24.46 26.32 26.19 25.98 25.95 25.80 27.17 26.82 26.60 26.79 25.69 25.48 24.93 23.37 25.29 26.28 25.45 25.12 25.21
33.14 31.78 28.66 30.10 28.59 30.89 29.92 29.98 30.63 29.84 29.95 29.33 28.98 28.34 27.64 26.92 27.58 26.48 25.39 26.21 26.20 25.00 24.06 23.15 21.94 21.49 24.36 27.09 26.64 24.65 26.16 26.13 26.92 26.25 26.09 25.85 25.27 24.85 24.44 23.09 21.22 20.28 22.56 23.09
32.19 33.73 32.04 31.17 30.63 29.90 30.46 29.74 28.07 27.49 28.15 28.15 29.34 28.38 27.94 25.91 24.89 24.98 25.85 25.45 23.57 21.78 20.73 20.33 19.33 19.93 22.73 23.76 27.30 24.47 24.90 25.17 26.44 26.36 25.80 24.93 25.40 24.82 24.15 23.31 22.21 20.37 18.24 18.83
31.44 31.12 30.43 28.84 28.67 29.18 29.52 29.09 27.64 27.33 27.59 26.64 25.85 26.05 26.45 25.69 23.61 21.78 20.81 20.97 19.49 17.35 18.08 15.35 17.66 18.24 20.32 21.45 24.38 26.40 25.74 22.58 23.40 25.29 24.32 23.56 23.97 23.18 22.95 22.39 21.48 21.29 17.67 16.45
28.44 27.09 28.20 27.81 28.20 28.93 29.20 29.87 28.52 27.12 26.38 25.41 24.83 25.73 25.57 24.21 22.20 20.15 19.22 18.92 17.34 16.55 17.43 16.67 17.03 16.00 18.11 20.03 22.19 25.07 24.90 24.57 20.52 23.82 23.00 22.78 22.72 22.05 21.91 21.28 20.72 20.30 19.47 15.54
33.85 32.88 32.67 31.37 30.10 29.69 29.59 29.32 28.82 28.33 27.07 25.29 22.28 20.95 19.33 19.10 17.01 16.23 16.50 17.00 15.23 14.55 16.82 17.14 17.05 18.51 17.84 19.54 21.79 24.15 23.44 23.34 23.13 22.02 21.48 21.32 21.36 21.69 21.15 20.22 19.55 18.93 19.25 18.67
34.64 33.14 33.06 31.75 31.16 30.19 29.25 28.66 26.77 22.98 21.72 21.21 20.00 18.43 18.29 18.03 17.86 17.67 18.29 15.88 16.72 17.29 16.59 18.18 21.53 20.54 21.08 19.63 22.09 23.54 22.66 21.93 21.71 21.50 20.88 19.11 20.27 19.89 19.88 19.21 18.40 18.25 18.59 18.40
33.81 33.24 32.47 31.08 30.37 29.21 26.25 24.07 22.68 21.17 21.91 20.35 18.74 17.66 16.44 15.52 15.86 16.63 17.31 16.10 16.81 18.41 19.67 20.34 22.27 21.31 20.07 20.71 18.21 22.55 21.63 21.00 20.23 20.10 19.79 19.36 19.03 18.65 18.60 16.52 17.13 17.20 17.18 17.23
30.84 30.04 28.78 27.21 25.85 25.71 25.45 24.15 20.91 20.31 20.98 20.34 19.77 17.56 17.47 16.95 16.63 17.63 19.94 19.47 18.76 19.38 20.18 18.17 19.21 18.91 19.55 16.64 19.82 21.60 20.68 19.90 19.00 18.90 18.60 18.34 18.09 18.31 17.65 17.67 17.47 16.98 16.14 15.94
27.46 25.92 24.88 24.62 23.73 22.86 23.19 22.75 21.73 20.50 20.82 19.49 17.62 16.85 15.87 17.53 16.98 18.44 16.79 20.66 20.48 14.18 21.64 21.32 19.11 13.31 16.11 12.91 20.85 20.27 19.46 18.51 18.38 18.44 17.73 17.37 16.83 15.76 15.72 16.31 15.90 16.74 17.02 17.09
25.37 24.62 23.96 23.12 22.70 22.78 22.40 20.84 20.46 19.80 17.75 16.72 16.84 18.93 22.30 23.48 24.91 23.13 18.94 21.99 22.47 17.18 21.96 19.48 13.77 12.31 11.84 19.33 20.40 19.21 17.65 16.79 16.35 16.83 15.74 14.92 14.68 14.47 13.91 13.90 14.19 14.81 15.24 15.61
24.71 24.29 23.47 24.67 23.21 20.90 18.75 19.31 20.37 20.32 19.14 20.25 20.29 19.29 23.57 24.26 24.63 24.18 22.52 17.73 16.11 17.22 17.60 16.16 14.33 12.92 11.86 18.64 17.22 15.96 15.42 15.09 14.47 13.58 13.42 11.32 11.25 11.48 11.93 11.34 11.06 11.47 10.61 12.05
24.57 23.97 23.04 21.96 22.25 22.06 21.28 21.82 21.65 21.53 22.00 22.41 22.52 23.27 24.56 25.09 24.34 23.62 24.10 20.89 18.31 20.59 18.23 14.79 11.74 11.34 15.35 15.02 13.42 13.17 12.95 12.71 11.60 11.03 9.51 8.65 8.60 8.49 8.44 8.33 7.81 7.44 7.50 8.15
24.10 23.74 23.97 25.36 25.49 24.10 24.22 24.29 23.05 24.03 24.80 23.71 24.15 24.81 24.67 24.31 23.36 22.30 21.23 19.16 18.78 16.96 17.71 17.09 14.88 13.48 12.47 11.26 10.99 10.33 9.96 9.94 8.59 7.13 5.92 6.93 6.22 5.46 5.02 4.57 3.73 3.90 4.13 5.18
26.42 26.18 26.16 26.30 26.41 26.35 26.23 26.56 25.78 25.24 26.58 25.04 23.03 24.26 22.96 22.18 21.06 19.99 17.88 18.91 17.71 15.88 15.81 15.09 14.12 11.92 10.00 9.38 8.70 8.24 7.59 6.95 4.60 3.39 4.39 3.64 2.36 1.82 1.16 0.15 0.85 1.11 1.99 2.88

GFSNGP_sfc_wetblb_117.txt.gz
Wetbulb
32.83 33.87 34.07 31.56 31.10 31.74 30.67 29.96 25.11 28.13 29.23 33.31 35.64 34.72 34.94 35.78 34.03 31.92 30.91 30.58 30.28 29.65 29.38 29.41 29.98 30.22 30.15 30.42 31.61 32.53 32.09 32.46 32.11 32.89 32.74 31.92 31.17 31.44 31.80 33.22 33.99 34.28 35.63 37.39
26.43 31.57 31.54 29.34 31.20 31.38 31.51 31.38 30.40 30.68 28.90 35.27 35.44 34.67 32.75 32.28 30.92 29.49 29.23 29.07 29.00 28.93 28.63 28.75 29.65 29.56 29.72 29.94 30.48 32.10 31.57 31.26 31.91 32.43 32.41 31.90 31.01 30.27 29.99 29.88 31.02 32.06 31.47 33.24
21.44 27.77 26.78 21.57 27.31 30.17 30.88 32.83 31.41 20.34 30.15 32.60 29.22 28.47 29.35 28.49 28.24 27.34 27.73 27.47 26.94 27.26 27.88 28.56 28.92 29.84 28.92 29.84 31.19 30.60 30.19 30.69 31.18 31.78 31.48 31.79 31.54 30.49 29.25 29.12 29.50 29.41 29.96 30.96
22.91 23.58 14.97 27.75 33.48 32.04 30.29 30.62 32.40 32.38 30.96 29.08 27.56 27.94 27.65 28.69 26.38 25.83 26.33 25.91 25.42 26.22 27.52 28.56 29.57 30.24 30.71 30.73 29.86 29.18 28.57 29.39 29.72 29.91 30.60 30.52 30.82 30.11 29.25 28.90 28.35 28.79 28.87 29.54
19.11 18.83 24.32 27.16 28.16 24.71 22.78 24.86 29.77 29.38 30.76 28.29 27.43 26.45 25.92 28.15 28.16 26.86 24.95 25.16 26.00 27.75 27.95 28.31 28.45 30.06 29.85 29.20 28.36 27.15 26.33 26.86 28.57 27.80 27.57 28.94 27.91 28.72 28.90 28.11 27.29 26.83 27.70 28.94
21.18 16.44 7.58 24.89 30.43 34.60 31.48 17.63 28.17 29.07 29.53 30.04 29.12 21.90 20.41 27.98 28.51 27.78 26.62 27.14 27.39 28.71 28.81 28.19 28.50 29.41 28.46 28.21 28.64 26.75 24.88 24.98 26.56 27.07 25.51 25.63 27.30 26.73 27.67 27.62 26.51 26.55 25.98 26.66
19.53 16.27 22.52 29.57 30.43 33.99 17.57 16.64 28.96 29.30 28.90 31.93 25.89 24.80 25.06 26.95 27.71 29.32 29.82 29.27 29.88 29.11 28.09 29.01 29.86 28.94 26.53 26.91 26.76 27.57 27.45 25.32 24.34 25.06 24.32 23.80 24.62 26.08 25.14 25.10 25.04 24.28 24.38 25.10
18.02 15.07 16.14 29.42 30.14 24.86 26.52 29.49 28.35 29.37 27.66 25.81 25.58 25.47 26.22 27.60 27.78 28.29 28.50 29.28 28.93 27.76 27.35 27.99 28.17 27.70 25.40 25.85 27.44 27.72 25.70 24.80 24.11 23.71 23.89 22.57 21.66 22.25 23.42 22.60 21.83 21.85 21.85 22.51
22.94 20.10 29.11 30.82 29.15 31.74 31.80 28.76 28.96 28.38 28.45 27.44 25.45 25.46 26.02 25.94 27.03 27.59 27.95 27.51 28.29 27.15 26.48 27.02 27.30 27.17 24.70 25.69 26.25 27.06 27.32 26.40 23.57 23.77 23.53 23.11 20.48 20.25 20.23 20.76 20.60 20.32 20.19 20.48
25.70 27.96 28.31 28.96 30.25 30.55 30.37 29.24 30.04 30.29 28.71 27.73 25.02 25.66 25.34 26.45 27.02 27.14 27.09 26.59 27.02 26.20 24.65 24.16 25.92 26.28 26.46 26.97 27.42 26.64 26.09 26.19 26.64 24.68 22.83 22.70 22.10 21.54 20.50 19.63 19.07 19.07 20.12 20.75
26.30 28.41 28.88 29.43 29.19 29.22 28.90 29.48 29.05 29.35 28.32 27.32 26.84 25.92 26.33 26.44 26.95 26.72 26.42 26.42 26.01 24.10 23.23 23.24 24.72 24.44 25.57 26.68 27.42 26.24 25.84 25.87 25.95 25.88 24.94 22.49 22.90 21.66 21.63 22.69 23.00 20.34 19.32 21.06
23.97 28.69 28.96 27.90 29.77 29.96 28.24 27.71 28.27 27.69 27.03 27.99 27.04 25.64 26.28 25.68 26.53 26.56 25.55 25.26 23.76 22.73 22.44 22.50 23.04 23.55 24.35 25.37 25.75 25.53 25.44 24.95 24.53 24.85 24.21 24.37 22.67 21.99 27.24 25.36 24.92 25.81 26.26 24.11
29.81 31.87 29.23 30.32 30.54 29.96 28.23 28.89 29.25 28.07 27.62 25.93 26.98 26.75 26.47 25.59 26.49 26.45 24.57 23.77 22.53 21.66 21.73 21.20 21.14 21.13 22.64 24.05 22.45 21.72 19.98 21.56 22.52 22.29 22.56 21.13 20.17 19.74 18.59 19.86 23.55 23.89 24.86 25.38
31.26 30.08 27.52 28.35 27.81 29.80 29.33 29.57 30.20 29.32 29.05 28.12 27.44 27.18 26.26 25.25 25.00 23.54 21.84 21.79 21.55 20.75 19.82 19.68 19.69 18.64 20.73 22.36 23.97 20.81 22.17 20.81 20.64 21.29 19.41 19.57 18.24 20.12 20.19 18.47 15.59 15.49 20.72 22.97
31.22 31.76 29.72 29.67 29.45 28.67 29.73 28.90 27.70 27.29 28.03 27.99 28.10 25.89 24.96 22.95 19.99 19.18 21.16 20.49 19.97 18.77 18.04 17.70 17.37 16.38 18.32 19.82 22.45 19.16 22.14 19.75 18.59 17.69 18.88 18.89 20.25 19.52 19.35 18.55 15.46 13.90 15.47 16.91
30.94 29.54 28.78 27.35 27.65 27.88 28.08 27.66 26.37 25.77 25.72 23.99 24.03 23.53 21.36 20.45 19.04 18.38 18.45 19.21 16.94 15.13 15.44 11.64 14.56 12.71 14.33 15.27 18.76 20.91 18.44 17.60 18.02 19.07 18.66 19.55 19.43 19.05 18.51 17.99 16.50 14.09 13.13 10.60
27.25 26.46 27.23 26.20 26.34 27.03 27.64 27.69 26.33 24.87 24.29 24.00 23.59 23.55 21.51 20.26 18.95 17.26 16.56 16.77 13.54 11.11 9.43 9.03 8.78 9.97 10.68 12.22 16.54 18.69 18.48 18.97 15.77 18.92 18.69 19.15 18.06 17.94 17.80 15.31 14.87 15.59 12.09 5.89
30.65 29.42 29.41 28.71 27.38 27.67 27.70 27.25 26.95 26.26 24.15 21.65 20.06 19.10 17.43 15.72 14.45 12.78 10.64 7.13 6.82 6.21 5.68 6.85 7.00 9.87 11.92 15.43 18.75 20.52 19.48 19.56 19.83 18.49 18.59 16.44 17.09 18.30 15.95 14.43 14.85 13.50 11.20 13.03
32.95 30.96 29.33 29.23 29.70 28.41 27.44 25.15 22.63 21.30 19.81 18.98 16.87 14.41 13.32 12.34 11.13 8.41 7.30 9.66 4.01 4.85 7.86 8.55 18.55 14.84 16.59 18.17 17.56 19.36 17.95 15.72 17.32 18.15 16.96 14.23 12.94 14.38 11.63 10.20 8.34 6.57 8.02 9.64
30.23 29.12 28.77 28.07 27.91 24.90 21.64 20.42 20.00 19.15 18.28 17.28 16.17 14.51 13.04 10.51 9.60 10.58 10.09 10.22 10.00 11.20 11.53 14.83 17.84 17.63 17.11 16.93 13.41 18.21 15.99 13.59 16.24 14.33 11.86 12.21 8.75 8.23 8.88 9.58 10.85 7.97 4.89 5.84
26.24 25.95 24.99 23.90 22.44 22.09 20.85 20.17 19.23 17.60 17.10 16.38 14.81 12.50 12.42 9.98 10.85 12.80 12.59 13.58 11.95 13.17 17.21 14.50 15.10 15.04 15.93 12.47 15.61 11.01 11.50 9.96 10.77 10.94 8.37 6.52 3.95 7.18 6.87 6.81 10.52 11.09 11.70 9.60
25.82 24.30 23.25 22.64 21.11 20.01 20.19 20.07 19.42 17.96 16.96 15.93 14.00 12.58 11.59 11.75 7.87 9.66 7.79 14.69 17.01 11.51 17.51 16.24 14.81 7.14 10.74 9.05 16.94 12.12 12.19 10.64 9.95 10.90 10.33 8.15 6.90 7.82 8.88 8.23 7.08 9.56 9.26 10.70
23.25 22.79 22.07 20.95 20.17 19.65 18.97 18.66 18.02 17.48 16.06 14.96 13.05 11.68 13.89 17.90 18.99 15.93 14.69 18.70 19.13 16.45 16.21 9.70 6.61 6.61 6.46 13.91 8.79 6.67 6.10 5.14 4.11 4.34 5.75 0.37 -0.14 2.55 5.60 6.61 6.75 6.09 4.57 6.99
22.30 22.01 21.76 21.22 19.61 18.94 17.41 18.39 19.37 17.46 13.65 14.79 12.44 9.15 19.08 17.43 15.13 19.25 16.80 10.89 9.20 9.72 8.40 3.29 6.76 8.74 8.90 7.26 4.57 3.32 2.64 0.14 2.08 3.55 0.23 -2.58 -4.53 -3.83 2.79 2.95 2.38 2.04 0.79 1.42
23.35 23.10 21.72 20.83 20.38 19.63 19.54 20.19 19.43 19.38 19.76 21.12 21.51 22.81 22.16 22.64 17.92 18.73 16.27 13.20 15.55 11.62 8.30 5.13 4.81 3.25 1.90 0.04 0.33 0.07 -1.01 3.60 0.52 -5.34 -7.28 -4.93 -0.15 -4.95 -3.09 -3.13 -7.22 -5.79 -7.26 -5.82
23.80 22.51 22.25 23.75 22.43 20.52 20.30 20.31 18.30 19.07 19.84 16.73 18.70 17.91 18.11 18.68 17.30 16.14 13.20 11.22 11.04 8.24 6.87 3.20 3.60 -1.11 -1.90 -0.34 -2.44 -3.43 -3.68 0.50 -7.42 -6.30 -8.70 -5.00 -10.76 -8.89 -6.33 -9.10 -11.50 -8.53 -6.78 -9.79
24.11 22.49 22.81 22.14 21.48 21.68 21.04 21.02 18.53 19.09 20.74 20.27 19.29 18.51 17.42 16.09 14.94 14.43 11.48 10.12 6.13 4.57 3.27 2.10 1.24 0.15 -1.77 -4.20 -5.55 -7.52 -8.15 -6.60 -9.76 -8.42 -8.70 -14.14 -16.31 -12.26 -11.99 -12.20 -7.42 -5.97 -2.96 -4.77

GFSNGP_sfc_wetblb_123.txt.gz
Wetbulb
30.53 32.49 33.25 31.93 32.03 32.69 30.06 29.61 25.93 27.24 27.47 28.79 32.22 31.60 29.27 29.77 29.83 28.56 27.69 27.90 27.90 27.42 27.41 27.78 27.99 28.75 28.84 28.98 29.33 29.05 27.75 27.35 27.00 27.68 28.28 29.21 28.46 29.35 29.40 29.33 29.33 29.55 30.23 32.21
26.63 31.04 31.65 29.41 31.11 30.86 31.38 31.26 29.60 28.24 26.64 29.81 30.42 30.44 29.57 29.31 28.32 27.30 26.86 26.78 27.16 27.10 27.18 26.80 27.37 26.91 26.40 25.84 26.32 26.28 25.36 25.66 26.06 26.50 26.45 26.73 27.23 27.28 27.43 27.52 27.85 27.86 28.33 30.35
24.33 27.76 26.29 21.62 27.41 29.35 30.49 30.31 28.60 20.44 27.12 29.65 27.95 27.53 26.92 26.52 27.69 26.99 26.30 25.67 25.42 25.85 26.71 27.21 27.17 27.76 24.23 22.35 23.62 23.23 22.74 23.90 24.18 24.42 24.28 24.34 25.51 24.90 24.65 24.95 25.84 26.39 26.99 29.05
24.56 24.17 15.44 25.58 30.69 30.91 28.35 28.08 29.99 29.56 28.64 28.26 28.71 27.90 26.81 25.57 26.53 26.27 25.35 24.47 24.89 25.57 25.68 23.69 21.32 22.62 25.28 24.12 24.03 22.40 21.78 21.80 22.53 22.31 21.88 22.52 22.86 23.07 23.29 24.17 24.25 25.01 25.82 27.42
20.29 19.52 22.95 25.32 26.85 22.31 22.37 23.62 27.66 27.71 27.10 27.99 26.96 26.09 25.02 27.07 26.57 21.75 19.72 21.61 23.36 24.64 20.25 20.06 23.75 26.54 27.32 26.93 25.24 23.39 22.21 21.95 22.24 21.20 20.44 20.61 20.16 20.64 22.02 22.90 23.73 24.61 25.52 25.53
19.80 16.29 7.55 18.17 29.32 31.20 27.38 17.01 26.65 28.42 26.75 25.69 25.29 20.37 17.07 25.59 24.16 22.53 22.45 23.76 25.36 24.92 24.45 26.34 27.16 28.14 26.72 26.12 25.28 23.19 22.84 22.47 22.72 22.33 20.76 19.92 20.38 20.51 21.16 22.21 23.12 24.63 24.38 24.98
20.19 16.72 21.19 27.62 29.11 30.97 16.00 17.18 26.33 27.14 27.64 28.24 23.40 21.65 23.84 24.69 21.06 23.13 25.77 26.93 28.01 26.74 25.45 26.02 27.29 27.10 25.08 24.85 23.98 24.54 24.27 23.36 22.51 22.65 21.93 21.32 21.67 22.07 21.51 21.32 22.18 23.13 23.35 23.57
19.09 15.50 15.80 28.95 28.55 23.51 22.37 24.78 26.30 23.88 22.17 28.25 26.41 24.81 24.50 23.38 23.54 25.22 26.70 27.63 27.34 25.98 25.52 26.61 27.02 25.81 24.04 23.34 24.74 25.60 23.89 23.15 22.37 22.29 22.65 22.30 21.19 22.29 22.35 20.84 20.29 21.28 21.86 22.39
23.55 21.27 24.97 27.37 23.47 27.09 28.36 25.63 27.33 24.46 22.54 26.75 24.95 24.78 25.37 25.06 26.36 26.93 26.66 26.23 26.37 25.19 24.52 25.13 26.00 26.05 23.47 23.30 25.22 25.12 24.81 23.32 22.01 22.42 23.14 21.65 19.93 21.14 21.91 21.87 19.37 18.95 20.39 20.54
25.21 25.36 24.94 27.05 27.62 28.07 26.89 26.94 23.66 24.57 23.81 23.82 22.34 23.87 24.48 25.38 25.78 25.73 25.86 25.07 25.36 24.28 23.00 22.81 24.19 24.61 25.01 25.98 25.75 24.95 24.32 24.18 24.18 23.52 22.04 21.68 21.28 21.54 21.57 21.60 20.14 18.58 17.99 18.63
25.82 26.62 27.74 27.57 28.47 28.52 27.89 28.11 27.06 24.58 23.38 22.69 23.33 23.56 24.06 24.64 25.16 25.46 25.19 24.95 24.12 23.00 22.24 21.85 22.70 22.88 23.70 24.68 25.57 24.69 23.88 23.62 23.10 22.96 22.46 20.95 19.57 20.21 20.69 21.97 22.99 19.49 18.24 17.99
21.41 28.28 26.51 26.51 27.87 27.96 26.47 26.08 25.11 24.24 24.09 25.11 25.36 23.94 25.08 24.28 24.98 24.63 23.34 23.25 22.37 21.92 21.57 21.17 21.35 21.12 21.98 23.58 23.73 23.34 22.47 22.18 21.56 21.23 20.60 20.42 18.80 17.55 22.71 23.45 24.11 24.13 23.66 21.55
26.23 29.31 27.27 27.82 29.01 27.42 25.63 26.44 25.36 24.81 25.32 24.23 25.57 25.47 25.28 24.36 24.57 24.27 22.36 21.52 20.76 20.20 20.69 20.34 20.24 19.85 21.14 22.71 21.59 19.08 16.79 19.22 19.11 18.66 17.91 17.00 16.81 14.96 12.98 16.90 22.14 22.63 22.53 22.85
29.14 28.62 26.82 26.22 24.24 26.90 27.08 26.82 28.56 26.75 26.62 26.48 26.15 26.70 25.71 24.57 23.64 21.65 20.54 20.15 20.24 20.20 19.73 19.49 19.51 17.65 19.62 22.80 22.18 19.26 19.09 17.74 17.60 17.41 15.66 15.59 13.21 16.06 15.97 14.34 13.03 13.51 18.59 20.22
30.51 29.63 27.62 27.15 27.46 27.23 28.16 27.28 25.47 25.16 25.87 26.11 27.09 25.00 24.01 21.42 19.98 19.50 19.77 19.66 19.64 18.67 17.90 17.84 17.30 15.44 16.53 19.63 18.25 16.94 19.96 17.22 15.30 13.17 14.54 15.55 16.12 14.93 14.25 13.25 12.46 11.14 13.15 14.58
28.69 27.50 27.29 26.50 26.24 27.73 26.55 26.64 25.28 25.08 25.65 25.62 23.89 22.70 22.03 21.11 19.77 18.77 18.84 19.01 16.78 14.43 14.02 10.33 12.98 9.75 12.21 15.56 18.48 18.04 16.22 15.26 14.22 15.17 14.67 14.91 14.99 14.38 13.92 13.13 12.55 11.16 10.90 7.88
26.67 25.50 25.09 24.85 25.51 25.85 26.17 27.04 26.71 26.35 26.24 23.81 22.99 22.51 20.88 19.49 18.03 16.41 16.04 15.45 12.79 10.59 7.76 10.33 6.85 6.83 11.49 13.50 16.62 16.11 15.34 16.29 12.87 16.06 15.04 14.95 14.44 12.87 12.88 11.67 10.85 11.32 11.33 8.26
27.98 27.65 27.37 26.92 25.97 26.10 26.18 27.02 27.08 26.53 24.66 23.73 21.84 20.26 17.81 16.32 14.77 13.11 11.23 10.63 10.40 10.38 8.55 4.89 6.80 11.18 12.82 13.70 16.68 16.61 15.24 16.23 15.62 14.59 13.45 11.09 12.16 11.92 9.84 9.27 9.20 8.26 8.78 10.10
27.98 26.97 26.62 27.04 27.21 27.10 26.07 25.40 25.05 23.64 22.18 20.76 18.93 17.03 15.27 13.79 12.96 11.05 9.54 9.77 7.65 8.83 7.06 7.24 18.69 14.49 15.24 15.60 15.17 14.86 13.36 12.05 12.15 10.82 10.57 6.51 5.77 7.02 5.63 5.29 4.86 3.99 5.88 5.95
26.47 26.94 27.07 26.75 26.74 25.41 22.12 20.90 20.84 19.57 19.35 18.14 15.48 13.84 12.95 12.50 12.38 11.02 11.17 10.68 8.83 9.34 9.77 13.97 16.21 15.89 15.14 12.92 11.79 12.48 11.07 8.92 9.77 6.59 2.91 3.04 -1.91 -2.98 0.02 0.80 1.15 0.03 2.18 2.51
26.10 24.38 22.26 21.32 19.94 20.86 20.93 20.52 19.36 17.69 17.26 17.12 15.80 14.73 14.83 14.29 13.32 12.44 12.87 12.57 11.40 12.70 14.44 12.82 13.77 13.74 13.06 10.56 9.64 4.65 4.49 1.20 -0.02 -0.58 -4.62 -7.70 -6.43 -2.71 -3.38 -5.35 -3.87 -4.40 -4.05 -2.56
19.30 20.90 20.42 20.30 20.25 18.89 19.77 20.25 19.60 17.65 16.77 16.08 16.36 15.98 14.46 12.89 11.83 11.38 8.81 14.10 15.23 9.67 12.91 12.70 11.10 4.53 7.23 6.54 6.46 1.85 2.75 1.43 -0.84 -2.10 -5.56 -6.43 -8.97 -10.60 -9.87 -9.69 -11.50 -11.87 -12.05 -11.69
21.15 21.18 20.28 19.89 19.47 18.79 19.37 19.16 18.80 18.35 16.93 15.86 15.60 14.91 14.87 15.12 16.84 14.33 13.17 15.85 14.40 10.08 12.00 7.45 2.80 1.39 0.28 0.54 -1.92 -4.74 -5.80 -7.40 -8.27 -10.62 -12.77 -14.59 -14.95 -16.04 -17.49 -17.31 -17.49 -18.21 -16.22 -14.04
21.58 22.27 20.82 20.27 20.17 19.69 17.67 18.39 18.94 17.37 15.87 15.95 16.00 15.85 17.67 16.50 14.98 17.15 16.40 11.07 8.36 6.68 4.37 1.50 1.02 -0.31 -3.27 -5.29 -6.94 -9.20 -11.52 -14.22 -15.67 -18.03 -14.05 -17.49 -22.74 -23.29 -22.02 -26.19 -20.75 -20.39 -18.57 -15.86
21.80 21.59 20.64 20.62 20.43 20.07 19.98 20.35 18.89 17.92 17.58 17.16 17.40 17.92 20.01 18.90 12.97 13.84 11.35 9.58 10.30 6.62 2.30 -1.32 -1.14 -4.29 -7.60 -10.36 -11.60 -14.23 -17.31 -18.76 -21.84 -19.48 -21.66 -24.56 -25.65 -27.28 -28.36 -27.46 -27.82 -25.65 -20.93 -21.66
22.20 21.31 21.71 23.05 22.13 21.36 20.80 19.65 17.35 18.40 19.53 16.94 17.50 17.34 16.45 15.94 14.23 12.70 10.95 9.00 6.72 3.62 0.15 -4.03 -7.26 -9.20 -10.85 -12.19 -16.09 -18.94 -18.57 -14.44 -18.03 -21.48 -24.38 -25.10 -26.73 -26.01 -28.36 -26.91 -28.36 -27.28 -26.91 -24.20
22.87 22.15 22.57 22.14 21.80 21.45 20.76 19.36 18.80 18.92 18.72 16.93 14.46 14.91 14.04 12.72 11.61 10.60 8.52 5.76 2.67 -0.19 -4.22 -9.70 -9.22 -9.38 -12.27 -16.09 -16.63 -19.30 -20.03 -20.57 -20.75 -21.29 -27.46 -28.36 -28.91 -30.90 -30.90 -30.90 -31.27 -30.90 -27.28 -27.10

GFSNGP_sfc_wetblb_126.txt.gz
Wetbulb
29.55 31.55 31.39 29.80 30.51 31.46 29.43 29.45 26.07 28.30 27.83 30.50 33.54 33.42 30.31 28.42 28.33 27.73 27.49 27.83 27.77 26.95 26.87 27.36 27.45 25.28 25.61 25.05 25.22 25.73 26.10 25.46 25.05 26.94 27.17 27.16 27.07 27.00 27.36 26.93 27.83 28.73 28.93 30.51
26.68 30.36 30.78 28.54 29.87 30.95 31.41 31.46 30.14 29.76 28.63 30.34 29.74 29.05 28.22 29.15 29.01 27.82 27.20 27.16 27.01 25.76 25.74 25.93 25.91 26.47 27.11 25.08 23.53 24.09 22.87 22.34 24.06 24.61 25.28 24.76 24.92 25.32 25.72 25.96 26.83 27.23 27.09 28.18
25.60 27.51 27.49 24.06 27.50 29.75 31.24 30.25 28.27 21.99 27.28 28.04 27.58 28.41 27.19 27.66 28.55 27.77 26.50 25.89 25.50 24.25 24.16 24.00 23.82 26.42 25.66 25.39 25.03 23.33 21.70 22.97 22.49 22.73 22.51 22.37 23.15 23.25 23.14 24.51 25.86 25.33 25.26 26.21
26.07 24.63 16.54 25.83 29.53 30.43 29.18 28.29 28.88 28.46 28.00 28.02 27.75 27.04 26.14 26.68 27.09 26.59 26.06 24.98 23.36 21.62 21.90 22.10 22.80 24.87 27.10 26.39 24.67 22.95 22.15 22.16 22.56 21.49 21.09 21.81 21.51 21.33 21.29 23.27 23.92 23.91 24.01 24.65
22.93 20.36 23.37 24.41 26.30 24.59 24.05 23.81 28.32 27.31 27.51 26.98 26.67 26.47 25.07 27.90 27.33 26.20 23.03 17.68 20.95 22.81 22.24 22.57 25.06 27.17 27.54 26.37 24.63 23.49 21.41 21.38 21.52 21.46 20.89 21.22 20.82 20.43 21.30 21.90 22.89 23.39 23.45 23.24
21.92 18.26 9.88 17.76 28.53 30.96 27.10 16.90 27.47 28.09 28.15 26.32 26.04 21.85 14.31 23.87 23.26 20.83 20.46 22.22 23.85 24.95 25.80 26.64 26.41 27.92 26.37 25.55 23.46 21.88 22.00 21.89 22.11 22.40 20.88 20.29 21.10 21.32 21.36 21.56 22.35 23.02 22.74 23.02
22.16 18.76 21.20 26.50 29.76 30.36 16.94 17.33 26.93 27.77 27.67 26.81 23.02 21.27 18.06 22.39 20.00 19.79 23.39 25.24 26.89 26.36 25.30 26.08 27.09 26.90 24.72 24.25 23.48 24.07 23.47 23.05 22.51 22.66 21.86 20.79 21.67 22.43 21.11 20.28 20.46 21.12 21.32 22.30
22.33 19.71 16.89 29.46 28.62 24.05 22.81 25.59 26.54 24.87 22.27 26.43 24.01 24.18 23.51 22.93 22.54 24.01 24.87 25.96 26.69 25.93 25.58 26.63 26.64 25.40 23.58 23.00 24.55 25.22 24.30 22.71 22.35 22.00 21.72 21.73 21.40 22.12 21.05 19.45 18.14 18.38 18.60 19.56
26.48 23.65 26.53 27.89 25.10 27.78 28.06 25.67 26.47 23.69 21.91 23.92 23.12 23.70 23.12 22.97 23.17 25.40 24.98 25.34 26.58 25.43 24.83 25.44 26.01 25.79 23.21 23.85 25.37 25.28 24.18 23.40 22.51 21.77 21.43 21.49 20.61 20.71 20.99 19.64 18.26 16.47 17.17 16.66
25.21 24.89 26.10 27.82 27.90 27.56 26.34 27.47 23.26 23.42 22.53 26.67 24.43 24.43 24.19 24.82 24.47 23.87 24.21 24.51 25.30 24.68 23.56 22.87 24.12 24.85 25.06 25.89 25.66 24.40 23.35 22.86 23.12 21.70 19.51 19.49 20.68 20.51 20.11 19.44 17.74 17.05 15.95 16.25
25.55 26.29 27.52 27.75 27.25 26.28 27.59 26.76 23.48 21.65 20.95 20.46 22.89 22.88 23.88 23.30 23.67 24.26 24.18 24.74 24.45 22.99 22.27 22.02 22.70 22.80 23.36 24.40 24.86 23.17 22.30 22.29 21.66 21.39 19.94 18.32 17.35 19.71 19.87 20.62 21.00 18.39 16.98 16.49
23.38 28.77 27.38 26.73 26.61 27.60 26.73 26.23 24.62 22.89 21.79 22.84 24.10 22.44 23.64 22.59 23.79 23.79 23.39 23.64 22.39 22.15 21.61 21.34 21.14 21.28 22.20 23.13 23.20 22.42 21.15 20.65 20.31 19.94 19.05 18.39 16.95 15.98 21.88 22.51 23.05 22.91 22.92 20.75
27.02 28.71 27.56 27.56 26.66 27.20 26.45 26.30 24.67 23.55 23.97 22.95 24.74 24.20 23.94 22.74 23.16 24.24 22.81 22.49 21.68 21.01 20.97 20.48 20.10 19.89 21.40 20.67 19.59 17.98 17.07 18.48 18.21 17.92 16.77 14.97 14.22 13.54 11.66 15.17 20.51 21.37 21.36 21.54
28.86 28.29 26.36 26.27 24.55 26.32 26.99 26.03 27.68 25.09 25.27 24.87 24.96 25.53 24.66 23.84 23.05 21.48 20.68 21.14 21.46 20.56 19.94 20.33 19.41 17.55 20.25 22.40 20.95 18.90 17.66 16.53 15.85 15.72 15.03 13.61 11.60 13.92 14.11 12.72 11.07 11.87 17.35 19.11
28.52 27.94 27.32 26.51 26.32 26.16 27.57 26.21 24.78 24.43 24.94 25.17 25.78 24.65 23.94 21.45 20.21 19.55 19.92 21.09 20.52 18.62 18.37 18.71 17.38 15.72 18.38 19.59 18.26 17.48 18.97 15.21 14.04 13.57 14.02 14.14 14.54 13.34 13.08 12.10 11.35 10.88 11.69 11.92
28.07 27.48 26.92 26.41 26.10 26.44 25.92 25.18 23.93 24.18 24.98 23.70 23.51 23.09 22.13 21.37 19.93 18.95 19.21 19.53 17.20 14.81 15.13 12.31 13.88 10.83 13.06 17.01 18.11 17.32 15.74 15.37 14.52 14.78 14.31 13.66 12.86 12.33 11.85 10.89 10.42 10.51 9.09 7.38
26.18 24.80 25.75 24.93 25.38 25.63 25.17 25.43 25.09 25.42 25.10 23.32 22.92 22.65 21.18 19.45 18.02 16.64 15.43 15.23 13.30 11.36 9.63 12.06 8.86 8.46 13.39 14.06 16.55 15.32 15.50 15.62 11.92 13.16 12.20 12.66 11.32 9.82 9.92 8.30 7.27 7.18 7.41 6.09
28.84 27.42 27.68 27.59 26.32 25.49 25.91 25.96 26.49 26.46 24.39 24.09 22.92 21.25 19.28 17.31 15.36 13.84 12.06 11.40 11.13 10.33 9.75 5.96 7.40 12.17 12.32 13.59 15.74 15.66 14.59 13.62 13.17 11.29 9.93 7.41 8.80 8.10 6.13 5.11 4.58 4.17 4.16 4.43
27.39 26.54 26.19 27.08 26.85 26.59 26.10 26.09 25.99 24.94 23.26 21.74 20.17 18.25 16.95 14.73 14.01 11.94 11.59 12.12 11.34 12.21 9.39 9.74 18.95 14.46 14.90 14.61 13.97 13.17 11.15 9.10 8.98 7.71 7.30 2.85 1.70 3.43 1.38 -0.03 -1.08 -2.03 0.36 1.37
25.75 26.40 26.67 26.08 26.09 23.87 21.03 19.24 21.78 21.30 21.32 19.61 17.48 15.70 13.40 12.62 12.44 11.79 12.51 11.13 10.55 12.51 13.04 15.10 15.83 14.37 12.82 10.84 10.24 9.85 7.98 5.44 6.79 2.92 -0.70 -1.11 -6.28 -8.80 -7.91 -5.45 -4.70 -7.11 -10.09 -4.88
23.55 21.70 20.29 19.21 14.85 18.01 20.54 20.20 19.23 18.02 18.80 17.91 16.39 13.75 12.48 12.15 12.63 12.46 12.63 11.97 11.91 14.16 15.08 13.14 12.80 11.69 10.38 7.95 6.50 1.69 1.59 -1.71 -3.34 -5.63 -9.71 -13.87 -13.89 -10.29 -13.16 -17.50 -15.69 -15.87 -14.61 -13.87
18.78 19.77 18.40 18.75 19.92 18.44 18.90 19.54 19.09 17.71 17.83 17.14 16.11 14.79 13.41 13.05 13.16 12.03 11.43 13.56 14.31 10.22 12.11 10.99 9.24 3.27 5.23 4.28 3.49 -1.18 -0.26 -1.33 -4.78 -6.04 -10.83 -13.70 -17.51 -21.49 -23.12 -22.94 -22.03 -19.68 -20.76 -19.49
18.93 20.65 20.34 19.89 18.58 17.57 18.47 18.60 18.39 17.80 16.86 17.24 16.44 15.46 15.47 15.46 15.97 14.01 12.22 14.69 13.69 8.82 9.97 4.65 0.32 -0.96 -2.46 -3.80 -6.38 -8.71 -9.09 -10.88 -12.48 -14.99 -19.86 -24.39 -25.12 -26.93 -25.30 -24.93 -25.30 -26.20 -24.75 -19.13
21.05 21.21 20.49 20.63 20.33 19.49 17.70 18.60 19.31 18.59 17.77 17.98 17.10 16.00 16.32 16.29 15.22 16.37 14.48 10.19 7.55 5.54 3.20 -0.94 0.46 -1.38 -4.73 -8.19 -11.03 -13.73 -15.35 -17.70 -19.68 -23.48 -21.31 -24.39 -30.01 -29.29 -28.74 -30.74 -26.93 -27.47 -25.84 -24.57
21.99 21.58 21.20 21.02 20.73 20.27 19.86 19.68 18.58 18.18 17.89 17.58 17.62 18.13 18.89 18.15 12.96 12.58 9.99 7.89 9.29 4.89 0.25 -3.02 -3.77 -6.80 -10.03 -13.37 -15.35 -17.87 -20.76 -22.03 -25.48 -25.48 -26.57 -27.65 -29.10 -30.37 -31.46 -30.92 -31.46 -30.19 -30.01 -27.47
22.46 21.77 22.46 23.25 21.99 21.02 20.29 19.55 17.49 17.96 17.54 16.30 17.47 16.48 14.65 14.20 12.58 11.27 9.34 6.56 4.75 1.67 -2.50 -9.37 -9.60 -10.63 -12.92 -15.53 -19.86 -20.95 -20.22 -17.02 -22.76 -24.39 -26.75 -27.47 -29.47 -27.47 -30.55 -28.92 -30.92 -30.55 -31.28 -29.47
22.42 22.23 22.14 21.47 21.91 21.24 20.43 19.30 18.23 18.12 18.54 17.98 15.66 14.58 13.20 12.30 10.98 9.46 6.61 4.00 1.88 -0.95 -5.48 -8.66 -9.82 -11.72 -15.75 -20.22 -20.59 -21.67 -21.85 -23.30 -24.21 -23.12 -29.65 -30.55 -30.92 -32.55 -32.73 -32.19 -32.91 -32.01 -30.19 -30.01

GFSNGP_sfc_wetblb_129.txt.gz
Wetbulb
33.37 34.10 34.00 33.17 33.24 33.72 31.13 32.73 29.21 32.62 31.80 36.12 38.22 39.50 39.67 34.56 31.95 30.14 29.76 29.98 29.14 28.63 28.83 28.84 28.54 29.03 28.30 27.46 27.44 27.61 26.48 25.96 25.73 26.67 27.16 27.79 28.19 28.23 28.84 29.78 29.64 29.43 29.33 29.79
29.77 33.14 32.93 31.12 33.09 33.43 33.66 33.51 33.04 34.22 33.46 35.57 33.15 33.61 31.97 31.73 31.26 29.33 29.18 28.50 27.59 27.90 27.79 27.77 28.10 27.94 27.47 26.62 26.19 26.54 25.55 24.47 24.54 25.59 25.44 25.23 25.95 26.35 27.12 27.68 27.77 28.00 27.20 27.97
25.91 30.56 28.92 25.94 30.87 32.03 33.62 35.33 34.72 30.58 35.37 33.20 31.46 32.20 32.30 31.73 31.60 29.84 28.48 27.76 27.52 27.12 27.62 27.91 27.90 28.58 26.72 26.38 26.66 25.23 24.52 24.45 24.30 24.31 23.93 24.88 25.18 25.09 25.27 26.61 27.25 26.53 25.72 26.82
26.55 26.62 20.38 31.51 31.98 32.53 32.27 34.07 33.94 31.90 31.80 32.44 32.35 30.49 31.03 32.54 31.38 29.06 28.34 27.48 26.95 27.17 27.40 27.70 28.49 28.75 27.96 26.74 25.72 24.63 23.98 23.70 24.16 23.75 23.60 24.53 24.41 24.11 24.67 26.84 26.36 25.84 25.70 26.04
25.20 23.98 27.77 30.39 30.53 28.97 29.27 29.53 33.42 32.40 30.14 28.88 29.15 29.48 26.84 29.99 30.35 29.21 27.36 25.73 26.23 26.78 26.66 27.59 28.22 28.87 27.78 25.70 24.79 23.94 23.15 23.35 23.84 23.74 22.47 23.29 23.32 23.49 24.33 24.75 25.03 25.57 25.01 24.14
27.23 22.19 19.60 27.38 30.17 32.61 31.59 24.81 31.23 32.22 30.01 28.67 29.38 26.39 29.61 28.53 27.73 25.44 25.04 25.39 24.91 26.84 28.08 27.58 28.04 28.82 26.95 25.47 24.27 22.89 23.34 23.65 24.18 24.07 23.06 22.69 24.10 23.28 23.51 23.77 23.41 24.35 24.21 23.74
26.92 24.31 27.25 30.99 31.90 32.27 23.62 27.24 31.18 32.86 31.38 29.40 28.65 29.97 26.68 25.66 24.67 25.85 25.92 26.62 27.83 26.72 25.89 27.06 28.24 27.81 25.86 25.60 24.00 25.01 24.79 24.50 24.05 24.21 24.15 24.32 25.04 24.18 23.24 22.46 22.49 22.09 22.11 22.64
26.76 23.05 21.11 32.23 30.48 27.47 30.68 29.65 31.47 31.62 32.28 30.46 26.06 24.63 24.56 23.92 24.31 25.82 25.98 27.26 27.74 26.91 26.31 27.29 27.55 26.77 25.09 24.63 26.33 26.69 25.96 23.84 22.96 23.17 24.33 24.58 23.83 23.91 23.26 22.77 21.25 21.36 21.25 20.90
29.31 28.56 29.66 33.34 29.94 30.22 31.27 30.61 29.44 30.17 28.95 29.98 26.52 25.32 24.44 24.27 25.22 26.33 26.65 27.06 27.87 26.75 26.10 27.14 27.38 27.16 24.95 25.53 26.66 26.12 25.35 24.30 23.22 22.61 22.87 24.02 23.33 23.38 23.14 22.86 21.49 20.37 20.94 19.92
28.33 28.77 28.97 29.90 29.75 30.36 30.54 30.69 29.39 29.14 28.19 28.05 25.13 24.72 24.40 25.00 26.16 26.13 26.65 26.25 26.85 26.19 25.07 24.82 26.48 26.33 26.43 26.57 26.34 25.54 24.03 23.48 23.04 22.28 22.07 22.86 23.77 23.29 22.82 22.64 21.55 19.73 19.36 19.78
27.35 27.13 28.53 29.58 30.10 29.59 29.07 28.12 26.36 26.13 27.00 27.30 26.48 24.86 25.29 25.34 25.58 25.73 25.75 26.05 26.06 25.04 24.26 23.54 24.80 24.74 25.57 26.10 25.96 24.15 23.29 22.70 22.17 22.01 21.13 20.92 21.44 22.15 21.93 23.15 22.64 20.70 20.20 20.11
29.41 31.08 31.03 29.76 29.59 29.89 27.84 26.37 25.95 24.68 23.89 26.26 26.40 25.15 25.70 25.04 25.67 25.70 24.90 25.26 24.58 24.27 23.51 23.17 23.56 23.27 23.91 25.04 25.20 23.77 22.04 21.78 21.34 20.87 20.79 20.13 19.65 19.20 21.39 21.93 22.23 22.06 22.45 21.58
30.22 29.97 29.91 29.56 29.78 30.09 27.95 27.16 26.65 26.47 26.27 24.66 26.03 26.16 26.06 25.12 25.40 25.36 25.01 24.06 23.58 23.10 22.97 23.00 22.42 22.38 23.21 22.50 21.93 20.90 20.78 20.77 20.21 19.92 19.49 18.87 18.84 17.87 16.80 18.94 19.71 20.06 20.24 20.65
30.21 29.64 26.60 27.81 26.09 28.48 27.66 27.33 28.35 27.38 27.40 27.12 26.75 26.87 26.06 25.38 25.15 24.15 23.44 23.85 23.49 22.86 22.47 22.32 21.84 20.72 23.12 23.42 22.01 20.41 19.87 18.67 19.99 19.69 19.50 18.88 18.72 18.52 17.95 16.34 15.05 14.83 16.67 16.86
29.03 29.83 29.99 28.54 27.69 26.91 27.91 27.05 25.95 25.56 26.06 26.15 27.14 26.15 25.36 23.42 22.43 22.05 23.19 23.62 22.90 22.32 21.80 21.10 19.88 19.13 21.81 22.17 21.25 21.04 20.65 20.02 19.79 19.47 18.67 17.88 18.18 17.42 16.69 15.93 14.77 13.63 13.10 13.19
28.17 28.08 27.94 26.61 25.81 26.21 26.52 26.26 25.12 24.87 25.92 25.56 25.44 24.80 24.21 23.21 21.55 21.29 22.14 21.64 20.03 18.97 19.39 17.93 17.97 17.51 20.41 21.29 20.53 19.87 19.35 17.44 17.70 17.96 17.04 16.31 15.79 14.93 14.14 13.77 12.91 12.11 9.77 8.60
26.77 25.60 25.96 25.47 25.60 25.73 25.50 26.53 26.39 25.77 25.58 25.24 23.98 23.48 22.34 20.83 19.77 18.88 18.79 18.74 17.64 17.41 17.74 18.26 16.42 16.44 19.00 20.23 20.47 20.15 19.30 17.14 15.01 15.71 15.04 14.61 13.79 12.68 12.19 11.41 10.59 10.16 9.32 6.16
30.60 30.08 29.65 28.65 27.18 26.16 25.55 26.84 26.78 26.45 25.39 25.02 23.75 22.09 19.94 18.93 17.34 16.04 15.43 15.20 15.15 14.93 16.14 16.14 16.89 17.44 18.30 19.24 19.55 18.59 17.64 16.47 15.32 13.77 12.90 12.21 11.74 10.66 9.46 8.30 7.44 7.03 7.78 7.20
29.82 28.82 29.20 28.55 28.19 26.95 27.33 27.29 27.28 26.15 24.45 22.99 21.56 20.02 19.78 17.84 16.18 15.07 15.55 15.69 15.90 15.77 15.57 17.81 19.19 18.07 17.83 17.37 17.26 16.61 15.40 14.22 12.72 11.67 10.57 7.51 8.14 7.68 6.86 6.12 4.91 4.04 4.51 4.52
27.80 28.79 28.79 28.03 28.20 27.41 25.97 25.71 24.84 23.49 23.34 22.58 19.51 17.88 16.40 15.37 15.26 15.03 16.21 16.68 18.33 18.21 18.02 18.10 17.36 16.19 15.20 14.45 14.64 14.85 13.74 12.59 10.35 8.23 7.78 6.34 5.25 4.07 3.79 1.07 1.55 1.55 1.77 2.33
25.62 25.63 23.83 22.62 21.31 22.67 23.89 23.94 22.48 20.95 21.00 20.64 19.26 16.88 15.79 15.49 15.81 15.73 14.68 14.26 15.14 17.58 17.87 16.32 15.96 14.69 13.77 12.23 12.57 11.57 9.89 8.08 6.73 5.56 4.36 3.53 2.93 1.71 0.61 0.13 0.29 -0.59 -0.71 -0.46
22.55 21.99 21.10 21.22 22.01 21.24 21.76 22.63 22.19 20.25 20.03 19.34 17.54 16.22 15.05 14.36 15.20 16.45 18.01 15.86 16.50 16.39 16.31 15.10 13.76 10.96 10.27 10.15 10.47 9.27 7.63 6.33 5.28 4.21 2.50 1.81 0.81 -0.35 -1.68 -2.03 -2.81 -2.27 -2.28 -2.33
23.45 23.06 21.93 21.23 21.52 21.24 21.07 21.07 20.79 20.67 18.90 17.65 16.17 16.17 16.68 16.84 17.55 15.90 13.72 16.40 16.26 14.63 14.00 11.76 6.37 4.04 3.44 8.44 7.44 6.00 4.28 2.70 1.68 0.10 -0.74 -1.38 -2.07 -2.73 -2.78 -3.44 -3.72 -4.01 -4.50 -4.46
23.17 23.58 22.74 21.97 20.93 20.77 19.60 19.86 20.50 20.36 19.95 18.93 17.66 18.21 18.30 17.86 18.28 18.96 17.68 15.52 12.68 12.03 10.28 6.33 4.47 1.97 3.63 4.99 3.89 2.48 1.86 0.77 -0.84 -1.55 -2.92 -8.36 -4.23 -4.76 -4.32 -5.61 -5.37 -4.83 -5.87 -6.46
23.42 23.09 22.51 21.84 21.95 21.90 20.97 20.77 19.96 19.99 20.03 19.30 18.92 19.14 20.48 20.60 18.76 16.65 15.61 12.07 9.89 9.74 7.42 1.14 -0.11 -1.02 4.06 3.22 2.11 0.39 -0.18 -0.29 -1.51 -1.61 -3.03 -3.49 -4.62 -5.46 -4.95 -5.84 -7.34 -6.35 -6.73 -6.72
23.66 23.25 23.69 24.31 23.66 22.36 21.36 20.76 19.51 19.96 19.61 18.54 19.10 20.07 18.79 17.28 14.98 13.98 12.92 10.59 8.76 5.55 5.44 2.82 2.19 2.13 1.96 0.98 0.00 -1.22 -1.32 -2.37 -3.30 -3.23 -5.07 -4.72 -5.57 -5.24 -6.89 -7.11 -7.21 -7.19 -7.67 -8.18
24.10 24.18 23.80 22.98 22.92 22.19 21.77 20.92 19.82 19.02 19.71 19.90 17.75 17.44 16.27 15.11 13.64 11.92 9.56 8.71 7.46 5.42 3.74 2.79 1.76 0.92 1.08 0.32 -1.02 -2.09 -2.49 -2.54 -5.53 -3.45 -4.86 -4.98 -6.17 -6.28 -8.03 -7.87 -7.86 -8.18 -9.04 -9.22